<?xml version='1.0' encoding='UTF-8'?><gpx version="1.1" creator="JPX - https://github.com/jenetics/jpx" xmlns="http://www.topografix.com/GPX/1/1"><trk><trkseg><trkpt lat="45.7060973" lon="9.0283072"><ele>304.0</ele><time>2026-04-24T14:03:46.978Z</time></trkpt><trkpt lat="45.7060804" lon="9.0284198"><ele>304.0</ele><time>2026-04-24T14:03:48.978Z</time></trkpt><trkpt lat="45.7060056" lon="9.0285228"><ele>304.0</ele><time>2026-04-24T14:03:50.978Z</time></trkpt><trkpt lat="45.7059668" lon="9.0286495"><ele>304.0</ele><time>2026-04-24T14:03:52.978Z</time></trkpt><trkpt lat="45.7059487" lon="9.0287881"><ele>304.0</ele><time>2026-04-24T14:03:54.978Z</time></trkpt><trkpt lat="45.7059307" lon="9.028895"><ele>304.1428571428571</ele><time>2026-04-24T14:03:56.978Z</time></trkpt><trkpt lat="45.7059142" lon="9.0289895"><ele>304.28571428571433</ele><time>2026-04-24T14:03:58.978Z</time></trkpt><trkpt lat="45.7059045" lon="9.0291119"><ele>304.42857142857144</ele><time>2026-04-24T14:04:01.978Z</time></trkpt><trkpt lat="45.7059099" lon="9.0292223"><ele>304.57142857142856</ele><time>2026-04-24T14:04:10.978Z</time></trkpt><trkpt lat="45.7059222" lon="9.0293134"><ele>304.71428571428567</ele><time>2026-04-24T14:04:17.979Z</time></trkpt><trkpt lat="45.7059641" lon="9.029381"><ele>304.8571428571429</ele><time>2026-04-24T14:04:19.978Z</time></trkpt><trkpt lat="45.7060069" lon="9.029454"><ele>305.0</ele><time>2026-04-24T14:04:22.978Z</time></trkpt><trkpt lat="45.705958" lon="9.029575"><ele>305.0</ele><time>2026-04-24T14:04:28.979Z</time></trkpt><trkpt lat="45.7059006" lon="9.0296404"><ele>305.0</ele><time>2026-04-24T14:04:29.978Z</time></trkpt><trkpt lat="45.7058242" lon="9.0297085"><ele>305.0</ele><time>2026-04-24T14:04:30.978Z</time></trkpt><trkpt lat="45.7057491" lon="9.0297798"><ele>305.0</ele><time>2026-04-24T14:04:31.978Z</time></trkpt><trkpt lat="45.7056715" lon="9.0298509"><ele>305.0</ele><time>2026-04-24T14:04:32.978Z</time></trkpt><trkpt lat="45.7055928" lon="9.0299278"><ele>305.0</ele><time>2026-04-24T14:04:33.978Z</time></trkpt><trkpt lat="45.7055156" lon="9.0300064"><ele>304.6</ele><time>2026-04-24T14:04:34.979Z</time></trkpt><trkpt lat="45.7054401" lon="9.0300845"><ele>304.2</ele><time>2026-04-24T14:04:35.978Z</time></trkpt><trkpt lat="45.7053655" lon="9.0301598"><ele>303.8</ele><time>2026-04-24T14:04:36.978Z</time></trkpt><trkpt lat="45.7052921" lon="9.0302332"><ele>303.4</ele><time>2026-04-24T14:04:37.978Z</time></trkpt><trkpt lat="45.7052191" lon="9.0303062"><ele>303.0</ele><time>2026-04-24T14:04:38.978Z</time></trkpt><trkpt lat="45.7051487" lon="9.0303788"><ele>303.0</ele><time>2026-04-24T14:04:39.978Z</time></trkpt><trkpt lat="45.7050779" lon="9.0304483"><ele>303.0</ele><time>2026-04-24T14:04:40.978Z</time></trkpt><trkpt lat="45.7050094" lon="9.0305193"><ele>303.0</ele><time>2026-04-24T14:04:41.978Z</time></trkpt><trkpt lat="45.7049402" lon="9.0305878"><ele>303.0</ele><time>2026-04-24T14:04:42.979Z</time></trkpt><trkpt lat="45.7048714" lon="9.0306552"><ele>303.0</ele><time>2026-04-24T14:04:43.978Z</time></trkpt><trkpt lat="45.7048048" lon="9.0307227"><ele>303.0</ele><time>2026-04-24T14:04:44.978Z</time></trkpt><trkpt lat="45.7047382" lon="9.0307918"><ele>303.0</ele><time>2026-04-24T14:04:45.978Z</time></trkpt><trkpt lat="45.7046711" lon="9.0308611"><ele>303.0</ele><time>2026-04-24T14:04:46.979Z</time></trkpt><trkpt lat="45.7046037" lon="9.0309317"><ele>303.0</ele><time>2026-04-24T14:04:47.978Z</time></trkpt><trkpt lat="45.7045354" lon="9.0310013"><ele>303.0</ele><time>2026-04-24T14:04:48.978Z</time></trkpt><trkpt lat="45.7044678" lon="9.0310698"><ele>303.0</ele><time>2026-04-24T14:04:49.978Z</time></trkpt><trkpt lat="45.7044004" lon="9.0311378"><ele>303.0</ele><time>2026-04-24T14:04:50.979Z</time></trkpt><trkpt lat="45.7043338" lon="9.0312048"><ele>302.7142857142857</ele><time>2026-04-24T14:04:51.978Z</time></trkpt><trkpt lat="45.7042698" lon="9.0312703"><ele>302.42857142857144</ele><time>2026-04-24T14:04:52.978Z</time></trkpt><trkpt lat="45.7042116" lon="9.0313326"><ele>302.1428571428571</ele><time>2026-04-24T14:04:53.978Z</time></trkpt><trkpt lat="45.7041539" lon="9.0313925"><ele>301.8571428571429</ele><time>2026-04-24T14:04:54.979Z</time></trkpt><trkpt lat="45.704096" lon="9.0314499"><ele>301.57142857142856</ele><time>2026-04-24T14:04:55.978Z</time></trkpt><trkpt lat="45.7040388" lon="9.0315046"><ele>301.2857142857143</ele><time>2026-04-24T14:04:56.978Z</time></trkpt><trkpt lat="45.7039813" lon="9.0315597"><ele>301.0</ele><time>2026-04-24T14:04:57.978Z</time></trkpt><trkpt lat="45.7039244" lon="9.0316172"><ele>301.0</ele><time>2026-04-24T14:04:58.978Z</time></trkpt><trkpt lat="45.7038674" lon="9.0316744"><ele>301.0</ele><time>2026-04-24T14:04:59.978Z</time></trkpt><trkpt lat="45.7038098" lon="9.0317319"><ele>301.0</ele><time>2026-04-24T14:05:00.978Z</time></trkpt><trkpt lat="45.7037511" lon="9.0317928"><ele>301.0</ele><time>2026-04-24T14:05:01.978Z</time></trkpt><trkpt lat="45.7036908" lon="9.0318546"><ele>301.0</ele><time>2026-04-24T14:05:02.978Z</time></trkpt><trkpt lat="45.7036332" lon="9.031913"><ele>301.0</ele><time>2026-04-24T14:05:03.978Z</time></trkpt><trkpt lat="45.7035333" lon="9.0320105"><ele>301.5</ele><time>2026-04-24T14:05:05.978Z</time></trkpt><trkpt lat="45.7034566" lon="9.0320904"><ele>302.0</ele><time>2026-04-24T14:05:07.978Z</time></trkpt><trkpt lat="45.7034004" lon="9.0321474"><ele>302.5</ele><time>2026-04-24T14:05:09.978Z</time></trkpt><trkpt lat="45.7033299" lon="9.0322223"><ele>303.0</ele><time>2026-04-24T14:05:13.978Z</time></trkpt><trkpt lat="45.7032566" lon="9.0322958"><ele>303.5</ele><time>2026-04-24T14:05:16.978Z</time></trkpt><trkpt lat="45.7031813" lon="9.0323683"><ele>304.0</ele><time>2026-04-24T14:05:19.978Z</time></trkpt><trkpt lat="45.7031129" lon="9.0324362"><ele>303.8333333333333</ele><time>2026-04-24T14:05:22.978Z</time></trkpt><trkpt lat="45.7030374" lon="9.0325155"><ele>303.66666666666663</ele><time>2026-04-24T14:05:25.978Z</time></trkpt><trkpt lat="45.7029776" lon="9.0325763"><ele>303.5</ele><time>2026-04-24T14:05:28.979Z</time></trkpt><trkpt lat="45.7029093" lon="9.0326139"><ele>303.3333333333333</ele><time>2026-04-24T14:05:34.978Z</time></trkpt><trkpt lat="45.7028115" lon="9.0326456"><ele>303.1666666666667</ele><time>2026-04-24T14:05:36.978Z</time></trkpt><trkpt lat="45.7027481" lon="9.0326537"><ele>303.0</ele><time>2026-04-24T14:05:37.978Z</time></trkpt><trkpt lat="45.7026734" lon="9.0326593"><ele>303.0</ele><time>2026-04-24T14:05:38.978Z</time></trkpt><trkpt lat="45.7025908" lon="9.0326602"><ele>303.0</ele><time>2026-04-24T14:05:39.978Z</time></trkpt><trkpt lat="45.7025012" lon="9.0326577"><ele>303.0</ele><time>2026-04-24T14:05:40.978Z</time></trkpt><trkpt lat="45.7024059" lon="9.0326496"><ele>303.0</ele><time>2026-04-24T14:05:41.978Z</time></trkpt><trkpt lat="45.7023062" lon="9.0326365"><ele>303.0</ele><time>2026-04-24T14:05:42.978Z</time></trkpt><trkpt lat="45.7022023" lon="9.0326164"><ele>303.0</ele><time>2026-04-24T14:05:43.978Z</time></trkpt><trkpt lat="45.7020941" lon="9.0325938"><ele>303.0</ele><time>2026-04-24T14:05:44.978Z</time></trkpt><trkpt lat="45.7019837" lon="9.0325712"><ele>303.0</ele><time>2026-04-24T14:05:45.978Z</time></trkpt><trkpt lat="45.7018703" lon="9.0325503"><ele>303.0</ele><time>2026-04-24T14:05:46.978Z</time></trkpt><trkpt lat="45.7017547" lon="9.0325286"><ele>303.25</ele><time>2026-04-24T14:05:47.978Z</time></trkpt><trkpt lat="45.7016367" lon="9.032508"><ele>303.5</ele><time>2026-04-24T14:05:48.979Z</time></trkpt><trkpt lat="45.7015178" lon="9.0324895"><ele>303.75</ele><time>2026-04-24T14:05:49.978Z</time></trkpt><trkpt lat="45.7013967" lon="9.0324699"><ele>304.0</ele><time>2026-04-24T14:05:50.978Z</time></trkpt><trkpt lat="45.7012743" lon="9.032452"><ele>304.0</ele><time>2026-04-24T14:05:51.978Z</time></trkpt><trkpt lat="45.7010282" lon="9.0324156"><ele>304.0</ele><time>2026-04-24T14:05:53.978Z</time></trkpt><trkpt lat="45.7009147" lon="9.0323967"><ele>304.0</ele><time>2026-04-24T14:05:54.978Z</time></trkpt><trkpt lat="45.7008105" lon="9.03238"><ele>304.0</ele><time>2026-04-24T14:05:55.978Z</time></trkpt><trkpt lat="45.7007208" lon="9.0323674"><ele>304.0</ele><time>2026-04-24T14:05:56.978Z</time></trkpt><trkpt lat="45.7006527" lon="9.0323562"><ele>304.0</ele><time>2026-04-24T14:05:57.978Z</time></trkpt><trkpt lat="45.7005736" lon="9.0323445"><ele>304.0</ele><time>2026-04-24T14:05:59.979Z</time></trkpt><trkpt lat="45.7004928" lon="9.0323275"><ele>304.0</ele><time>2026-04-24T14:06:10.979Z</time></trkpt><trkpt lat="45.7004083" lon="9.0323132"><ele>304.0</ele><time>2026-04-24T14:06:12.978Z</time></trkpt><trkpt lat="45.7002868" lon="9.032295"><ele>303.5</ele><time>2026-04-24T14:06:14.978Z</time></trkpt><trkpt lat="45.7002125" lon="9.0322854"><ele>303.0</ele><time>2026-04-24T14:06:15.978Z</time></trkpt><trkpt lat="45.7001315" lon="9.0322728"><ele>302.5</ele><time>2026-04-24T14:06:16.978Z</time></trkpt><trkpt lat="45.7000426" lon="9.0322573"><ele>302.0</ele><time>2026-04-24T14:06:17.978Z</time></trkpt><trkpt lat="45.699948" lon="9.0322436"><ele>301.5</ele><time>2026-04-24T14:06:18.978Z</time></trkpt><trkpt lat="45.699857" lon="9.0322329"><ele>301.0</ele><time>2026-04-24T14:06:19.978Z</time></trkpt><trkpt lat="45.6997676" lon="9.0322215"><ele>301.0</ele><time>2026-04-24T14:06:20.978Z</time></trkpt><trkpt lat="45.6996846" lon="9.0322096"><ele>301.0</ele><time>2026-04-24T14:06:21.978Z</time></trkpt><trkpt lat="45.6996069" lon="9.032197"><ele>301.0</ele><time>2026-04-24T14:06:22.978Z</time></trkpt><trkpt lat="45.699537" lon="9.0321876"><ele>301.0</ele><time>2026-04-24T14:06:23.978Z</time></trkpt><trkpt lat="45.6994277" lon="9.0321687"><ele>301.0</ele><time>2026-04-24T14:06:25.978Z</time></trkpt><trkpt lat="45.6993329" lon="9.03215"><ele>301.0</ele><time>2026-04-24T14:06:27.978Z</time></trkpt><trkpt lat="45.699233" lon="9.0321289"><ele>300.25</ele><time>2026-04-24T14:06:29.979Z</time></trkpt><trkpt lat="45.6991134" lon="9.0321016"><ele>299.5</ele><time>2026-04-24T14:06:31.978Z</time></trkpt><trkpt lat="45.698991" lon="9.0320589"><ele>298.75</ele><time>2026-04-24T14:06:33.978Z</time></trkpt><trkpt lat="45.6988774" lon="9.032014"><ele>298.0</ele><time>2026-04-24T14:06:35.978Z</time></trkpt><trkpt lat="45.6987508" lon="9.0320161"><ele>298.0</ele><time>2026-04-24T14:06:37.979Z</time></trkpt><trkpt lat="45.6986781" lon="9.0320266"><ele>298.0</ele><time>2026-04-24T14:06:38.978Z</time></trkpt><trkpt lat="45.6985992" lon="9.0320325"><ele>298.0</ele><time>2026-04-24T14:06:39.978Z</time></trkpt><trkpt lat="45.6985143" lon="9.0320373"><ele>298.0</ele><time>2026-04-24T14:06:40.978Z</time></trkpt><trkpt lat="45.6984242" lon="9.0320389"><ele>298.0</ele><time>2026-04-24T14:06:41.978Z</time></trkpt><trkpt lat="45.6983289" lon="9.0320418"><ele>298.0</ele><time>2026-04-24T14:06:42.978Z</time></trkpt><trkpt lat="45.6982274" lon="9.0320474"><ele>298.0</ele><time>2026-04-24T14:06:43.978Z</time></trkpt><trkpt lat="45.6981201" lon="9.0320518"><ele>298.0</ele><time>2026-04-24T14:06:44.978Z</time></trkpt><trkpt lat="45.6980091" lon="9.0320538"><ele>298.0</ele><time>2026-04-24T14:06:45.978Z</time></trkpt><trkpt lat="45.6978902" lon="9.0320555"><ele>298.0</ele><time>2026-04-24T14:06:46.978Z</time></trkpt><trkpt lat="45.6977679" lon="9.0320585"><ele>297.25</ele><time>2026-04-24T14:06:47.978Z</time></trkpt><trkpt lat="45.6976409" lon="9.0320626"><ele>296.5</ele><time>2026-04-24T14:06:48.978Z</time></trkpt><trkpt lat="45.6975116" lon="9.0320675"><ele>295.75</ele><time>2026-04-24T14:06:49.978Z</time></trkpt><trkpt lat="45.6973779" lon="9.0320711"><ele>295.0</ele><time>2026-04-24T14:06:50.978Z</time></trkpt><trkpt lat="45.6972428" lon="9.0320754"><ele>295.0</ele><time>2026-04-24T14:06:51.978Z</time></trkpt><trkpt lat="45.6971084" lon="9.0320808"><ele>295.0</ele><time>2026-04-24T14:06:52.978Z</time></trkpt><trkpt lat="45.696975" lon="9.0320853"><ele>295.0</ele><time>2026-04-24T14:06:53.978Z</time></trkpt><trkpt lat="45.6968429" lon="9.0320882"><ele>295.0</ele><time>2026-04-24T14:06:54.978Z</time></trkpt><trkpt lat="45.6967125" lon="9.0320925"><ele>294.0</ele><time>2026-04-24T14:06:55.978Z</time></trkpt><trkpt lat="45.6965827" lon="9.0320973"><ele>293.0</ele><time>2026-04-24T14:06:56.978Z</time></trkpt><trkpt lat="45.696456" lon="9.0321035"><ele>292.0</ele><time>2026-04-24T14:06:57.978Z</time></trkpt><trkpt lat="45.696334" lon="9.03211"><ele>291.0</ele><time>2026-04-24T14:06:58.978Z</time></trkpt><trkpt lat="45.6962153" lon="9.0321164"><ele>291.0</ele><time>2026-04-24T14:06:59.977Z</time></trkpt><trkpt lat="45.6960985" lon="9.0321239"><ele>291.0</ele><time>2026-04-24T14:07:00.977Z</time></trkpt><trkpt lat="45.6959839" lon="9.0321302"><ele>291.0</ele><time>2026-04-24T14:07:01.977Z</time></trkpt><trkpt lat="45.6958715" lon="9.0321335"><ele>291.0</ele><time>2026-04-24T14:07:02.977Z</time></trkpt><trkpt lat="45.6957575" lon="9.0321338"><ele>290.25</ele><time>2026-04-24T14:07:03.977Z</time></trkpt><trkpt lat="45.695642" lon="9.0321333"><ele>289.5</ele><time>2026-04-24T14:07:04.977Z</time></trkpt><trkpt lat="45.6955249" lon="9.0321332"><ele>288.75</ele><time>2026-04-24T14:07:05.977Z</time></trkpt><trkpt lat="45.6954053" lon="9.0321358"><ele>288.0</ele><time>2026-04-24T14:07:06.977Z</time></trkpt><trkpt lat="45.6952849" lon="9.0321413"><ele>287.25</ele><time>2026-04-24T14:07:07.977Z</time></trkpt><trkpt lat="45.6951623" lon="9.0321477"><ele>286.5</ele><time>2026-04-24T14:07:08.977Z</time></trkpt><trkpt lat="45.6950386" lon="9.032156"><ele>285.75</ele><time>2026-04-24T14:07:09.978Z</time></trkpt><trkpt lat="45.694914" lon="9.0321641"><ele>285.0</ele><time>2026-04-24T14:07:10.977Z</time></trkpt><trkpt lat="45.6947884" lon="9.0321711"><ele>285.0</ele><time>2026-04-24T14:07:11.977Z</time></trkpt><trkpt lat="45.6946637" lon="9.0321844"><ele>285.0</ele><time>2026-04-24T14:07:12.977Z</time></trkpt><trkpt lat="45.6945455" lon="9.032207"><ele>285.0</ele><time>2026-04-24T14:07:13.977Z</time></trkpt><trkpt lat="45.6944326" lon="9.0322416"><ele>285.0</ele><time>2026-04-24T14:07:14.979Z</time></trkpt><trkpt lat="45.6943289" lon="9.0322828"><ele>284.6</ele><time>2026-04-24T14:07:15.978Z</time></trkpt><trkpt lat="45.6942365" lon="9.0323238"><ele>284.2</ele><time>2026-04-24T14:07:16.977Z</time></trkpt><trkpt lat="45.6941593" lon="9.0323608"><ele>283.8</ele><time>2026-04-24T14:07:17.977Z</time></trkpt><trkpt lat="45.6940945" lon="9.0323922"><ele>283.4</ele><time>2026-04-24T14:07:18.978Z</time></trkpt><trkpt lat="45.6939837" lon="9.032436"><ele>283.0</ele><time>2026-04-24T14:07:20.977Z</time></trkpt><trkpt lat="45.6938832" lon="9.0324572"><ele>283.0</ele><time>2026-04-24T14:07:22.977Z</time></trkpt><trkpt lat="45.6938103" lon="9.0324583"><ele>283.0</ele><time>2026-04-24T14:07:24.977Z</time></trkpt><trkpt lat="45.6937259" lon="9.0324275"><ele>283.0</ele><time>2026-04-24T14:07:34.977Z</time></trkpt><trkpt lat="45.6936084" lon="9.0323645"><ele>283.0</ele><time>2026-04-24T14:07:36.978Z</time></trkpt><trkpt lat="45.6935385" lon="9.0323524"><ele>283.0</ele><time>2026-04-24T14:07:37.977Z</time></trkpt><trkpt lat="45.6934259" lon="9.0324107"><ele>282.66666666666663</ele><time>2026-04-24T14:07:39.977Z</time></trkpt><trkpt lat="45.6933574" lon="9.0325464"><ele>282.3333333333333</ele><time>2026-04-24T14:07:41.977Z</time></trkpt><trkpt lat="45.6933382" lon="9.0326424"><ele>282.0</ele><time>2026-04-24T14:07:42.977Z</time></trkpt><trkpt lat="45.693327" lon="9.0327541"><ele>281.6666666666667</ele><time>2026-04-24T14:07:43.977Z</time></trkpt><trkpt lat="45.6933179" lon="9.0328684"><ele>281.33333333333337</ele><time>2026-04-24T14:07:44.977Z</time></trkpt><trkpt lat="45.6933108" lon="9.0329746"><ele>281.0</ele><time>2026-04-24T14:07:45.977Z</time></trkpt><trkpt lat="45.69329" lon="9.0331666"><ele>280.8</ele><time>2026-04-24T14:07:47.977Z</time></trkpt><trkpt lat="45.693266" lon="9.0333163"><ele>280.6</ele><time>2026-04-24T14:07:49.977Z</time></trkpt><trkpt lat="45.6932437" lon="9.0334344"><ele>280.4</ele><time>2026-04-24T14:07:51.977Z</time></trkpt><trkpt lat="45.6932139" lon="9.0335651"><ele>280.2</ele><time>2026-04-24T14:07:53.977Z</time></trkpt><trkpt lat="45.693168" lon="9.0337431"><ele>280.0</ele><time>2026-04-24T14:07:55.977Z</time></trkpt><trkpt lat="45.6931381" lon="9.0338368"><ele>280.0</ele><time>2026-04-24T14:07:56.977Z</time></trkpt><trkpt lat="45.6931057" lon="9.0339258"><ele>280.0</ele><time>2026-04-24T14:07:57.977Z</time></trkpt><trkpt lat="45.6930679" lon="9.034012"><ele>280.0</ele><time>2026-04-24T14:07:58.977Z</time></trkpt><trkpt lat="45.6930212" lon="9.03409"><ele>280.0</ele><time>2026-04-24T14:07:59.977Z</time></trkpt><trkpt lat="45.6929703" lon="9.0341655"><ele>280.0</ele><time>2026-04-24T14:08:00.977Z</time></trkpt><trkpt lat="45.6929238" lon="9.0342461"><ele>280.0</ele><time>2026-04-24T14:08:01.977Z</time></trkpt><trkpt lat="45.6928886" lon="9.0343373"><ele>280.0</ele><time>2026-04-24T14:08:02.977Z</time></trkpt><trkpt lat="45.6928656" lon="9.034436"><ele>280.0</ele><time>2026-04-24T14:08:03.977Z</time></trkpt><trkpt lat="45.6928566" lon="9.0345354"><ele>280.0</ele><time>2026-04-24T14:08:04.977Z</time></trkpt><trkpt lat="45.6928576" lon="9.0346268"><ele>280.0</ele><time>2026-04-24T14:08:05.978Z</time></trkpt><trkpt lat="45.6928713" lon="9.0347959"><ele>280.0</ele><time>2026-04-24T14:08:07.977Z</time></trkpt><trkpt lat="45.6928724" lon="9.0349626"><ele>280.0</ele><time>2026-04-24T14:08:09.977Z</time></trkpt><trkpt lat="45.6928631" lon="9.0351027"><ele>280.0</ele><time>2026-04-24T14:08:11.977Z</time></trkpt><trkpt lat="45.6928521" lon="9.0351981"><ele>280.0</ele><time>2026-04-24T14:08:13.977Z</time></trkpt><trkpt lat="45.6928323" lon="9.0353259"><ele>280.0</ele><time>2026-04-24T14:08:16.977Z</time></trkpt><trkpt lat="45.692817" lon="9.0354164"><ele>280.0</ele><time>2026-04-24T14:08:18.977Z</time></trkpt><trkpt lat="45.6927962" lon="9.035515"><ele>280.0</ele><time>2026-04-24T14:08:20.977Z</time></trkpt><trkpt lat="45.6927718" lon="9.0356071"><ele>280.0</ele><time>2026-04-24T14:08:22.977Z</time></trkpt><trkpt lat="45.692742" lon="9.0356957"><ele>280.0</ele><time>2026-04-24T14:08:24.977Z</time></trkpt><trkpt lat="45.6927102" lon="9.0357907"><ele>279.5</ele><time>2026-04-24T14:08:26.977Z</time></trkpt><trkpt lat="45.6926829" lon="9.0358929"><ele>279.0</ele><time>2026-04-24T14:08:28.977Z</time></trkpt><trkpt lat="45.6926597" lon="9.0360021"><ele>278.5</ele><time>2026-04-24T14:08:36.977Z</time></trkpt><trkpt lat="45.6926339" lon="9.0360931"><ele>278.0</ele><time>2026-04-24T14:08:38.977Z</time></trkpt><trkpt lat="45.6926022" lon="9.0362198"><ele>277.5</ele><time>2026-04-24T14:08:40.977Z</time></trkpt><trkpt lat="45.6925666" lon="9.036365"><ele>277.0</ele><time>2026-04-24T14:08:42.977Z</time></trkpt><trkpt lat="45.6925398" lon="9.0364692"><ele>277.0</ele><time>2026-04-24T14:08:44.977Z</time></trkpt><trkpt lat="45.6925147" lon="9.0365596"><ele>277.0</ele><time>2026-04-24T14:08:46.977Z</time></trkpt><trkpt lat="45.6924859" lon="9.0366727"><ele>277.0</ele><time>2026-04-24T14:08:48.977Z</time></trkpt><trkpt lat="45.6924495" lon="9.0368164"><ele>277.0</ele><time>2026-04-24T14:08:50.977Z</time></trkpt><trkpt lat="45.6924038" lon="9.0369819"><ele>277.0</ele><time>2026-04-24T14:08:52.977Z</time></trkpt><trkpt lat="45.6923726" lon="9.0370897"><ele>277.16666666666663</ele><time>2026-04-24T14:08:53.977Z</time></trkpt><trkpt lat="45.692341" lon="9.0371938"><ele>277.3333333333333</ele><time>2026-04-24T14:08:54.977Z</time></trkpt><trkpt lat="45.692318" lon="9.0373212"><ele>277.5</ele><time>2026-04-24T14:08:55.978Z</time></trkpt><trkpt lat="45.6922907" lon="9.037426"><ele>277.6666666666667</ele><time>2026-04-24T14:08:56.977Z</time></trkpt><trkpt lat="45.6922632" lon="9.0375309"><ele>277.83333333333337</ele><time>2026-04-24T14:08:57.977Z</time></trkpt><trkpt lat="45.6922325" lon="9.0376412"><ele>278.0</ele><time>2026-04-24T14:08:58.977Z</time></trkpt><trkpt lat="45.6922039" lon="9.0377508"><ele>278.33333333333337</ele><time>2026-04-24T14:08:59.977Z</time></trkpt><trkpt lat="45.6921748" lon="9.037858"><ele>278.6666666666667</ele><time>2026-04-24T14:09:00.977Z</time></trkpt><trkpt lat="45.6921511" lon="9.0379579"><ele>279.0</ele><time>2026-04-24T14:09:01.977Z</time></trkpt><trkpt lat="45.6921273" lon="9.0380448"><ele>279.3333333333333</ele><time>2026-04-24T14:09:02.977Z</time></trkpt><trkpt lat="45.6920824" lon="9.0382142"><ele>279.66666666666663</ele><time>2026-04-24T14:09:04.977Z</time></trkpt><trkpt lat="45.6920587" lon="9.0382987"><ele>280.0</ele><time>2026-04-24T14:09:05.977Z</time></trkpt><trkpt lat="45.6920354" lon="9.0383885"><ele>280.0</ele><time>2026-04-24T14:09:06.977Z</time></trkpt><trkpt lat="45.6920103" lon="9.0384827"><ele>280.0</ele><time>2026-04-24T14:09:07.977Z</time></trkpt><trkpt lat="45.6919862" lon="9.0385791"><ele>280.0</ele><time>2026-04-24T14:09:08.977Z</time></trkpt><trkpt lat="45.6919633" lon="9.038669"><ele>280.0</ele><time>2026-04-24T14:09:09.977Z</time></trkpt><trkpt lat="45.6919283" lon="9.0387986"><ele>280.0</ele><time>2026-04-24T14:09:11.978Z</time></trkpt><trkpt lat="45.6919051" lon="9.0388967"><ele>280.0</ele><time>2026-04-24T14:09:13.977Z</time></trkpt><trkpt lat="45.6918772" lon="9.0390009"><ele>279.6</ele><time>2026-04-24T14:09:15.977Z</time></trkpt><trkpt lat="45.6918425" lon="9.0391348"><ele>279.2</ele><time>2026-04-24T14:09:17.977Z</time></trkpt><trkpt lat="45.6918049" lon="9.0392734"><ele>278.8</ele><time>2026-04-24T14:09:19.978Z</time></trkpt><trkpt lat="45.6917703" lon="9.0394036"><ele>278.4</ele><time>2026-04-24T14:09:21.977Z</time></trkpt><trkpt lat="45.6917309" lon="9.0395522"><ele>278.0</ele><time>2026-04-24T14:09:23.977Z</time></trkpt><trkpt lat="45.6916824" lon="9.0397097"><ele>278.0</ele><time>2026-04-24T14:09:25.978Z</time></trkpt><trkpt lat="45.6916344" lon="9.0398525"><ele>278.0</ele><time>2026-04-24T14:09:27.977Z</time></trkpt><trkpt lat="45.6915931" lon="9.0399906"><ele>278.0</ele><time>2026-04-24T14:09:29.977Z</time></trkpt><trkpt lat="45.6915507" lon="9.0401381"><ele>278.0</ele><time>2026-04-24T14:09:31.977Z</time></trkpt><trkpt lat="45.6915211" lon="9.0403173"><ele>277.8</ele><time>2026-04-24T14:09:33.977Z</time></trkpt><trkpt lat="45.6915196" lon="9.0404274"><ele>277.6</ele><time>2026-04-24T14:09:34.977Z</time></trkpt><trkpt lat="45.6915222" lon="9.0405537"><ele>277.4</ele><time>2026-04-24T14:09:35.977Z</time></trkpt><trkpt lat="45.6915238" lon="9.0406915"><ele>277.2</ele><time>2026-04-24T14:09:36.977Z</time></trkpt><trkpt lat="45.6915251" lon="9.0408461"><ele>277.0</ele><time>2026-04-24T14:09:37.977Z</time></trkpt><trkpt lat="45.6915213" lon="9.0410122"><ele>277.0</ele><time>2026-04-24T14:09:38.978Z</time></trkpt><trkpt lat="45.6915127" lon="9.0411891"><ele>277.0</ele><time>2026-04-24T14:09:39.977Z</time></trkpt><trkpt lat="45.6915014" lon="9.0413736"><ele>277.0</ele><time>2026-04-24T14:09:40.977Z</time></trkpt><trkpt lat="45.6914871" lon="9.041564"><ele>277.0</ele><time>2026-04-24T14:09:41.977Z</time></trkpt><trkpt lat="45.6914704" lon="9.0417561"><ele>277.0</ele><time>2026-04-24T14:09:42.977Z</time></trkpt><trkpt lat="45.6914517" lon="9.0419477"><ele>277.0</ele><time>2026-04-24T14:09:43.978Z</time></trkpt><trkpt lat="45.6914319" lon="9.0421373"><ele>277.0</ele><time>2026-04-24T14:09:44.977Z</time></trkpt><trkpt lat="45.6914123" lon="9.0423267"><ele>277.0</ele><time>2026-04-24T14:09:45.977Z</time></trkpt><trkpt lat="45.6913932" lon="9.0425178"><ele>277.0</ele><time>2026-04-24T14:09:46.977Z</time></trkpt><trkpt lat="45.6913759" lon="9.0427106"><ele>277.0</ele><time>2026-04-24T14:09:47.977Z</time></trkpt><trkpt lat="45.6913602" lon="9.0429057"><ele>277.0</ele><time>2026-04-24T14:09:48.977Z</time></trkpt><trkpt lat="45.6913417" lon="9.0431012"><ele>277.0</ele><time>2026-04-24T14:09:49.977Z</time></trkpt><trkpt lat="45.6913145" lon="9.0432967"><ele>277.0</ele><time>2026-04-24T14:09:50.978Z</time></trkpt><trkpt lat="45.6912792" lon="9.043493"><ele>277.0</ele><time>2026-04-24T14:09:51.977Z</time></trkpt><trkpt lat="45.6912387" lon="9.0436891"><ele>277.0</ele><time>2026-04-24T14:09:52.977Z</time></trkpt><trkpt lat="45.6911983" lon="9.043883"><ele>277.0</ele><time>2026-04-24T14:09:53.977Z</time></trkpt><trkpt lat="45.6911572" lon="9.0440731"><ele>276.5</ele><time>2026-04-24T14:09:54.977Z</time></trkpt><trkpt lat="45.6911156" lon="9.0442596"><ele>276.0</ele><time>2026-04-24T14:09:55.977Z</time></trkpt><trkpt lat="45.6910758" lon="9.0444353"><ele>275.5</ele><time>2026-04-24T14:09:56.977Z</time></trkpt><trkpt lat="45.6910428" lon="9.0445833"><ele>275.0</ele><time>2026-04-24T14:09:57.977Z</time></trkpt><trkpt lat="45.6910105" lon="9.0447289"><ele>274.6</ele><time>2026-04-24T14:09:58.977Z</time></trkpt><trkpt lat="45.6909799" lon="9.0448726"><ele>274.2</ele><time>2026-04-24T14:09:59.977Z</time></trkpt><trkpt lat="45.6909514" lon="9.0450158"><ele>273.8</ele><time>2026-04-24T14:10:00.977Z</time></trkpt><trkpt lat="45.6909214" lon="9.0451643"><ele>273.4</ele><time>2026-04-24T14:10:01.977Z</time></trkpt><trkpt lat="45.6908898" lon="9.0453205"><ele>273.0</ele><time>2026-04-24T14:10:02.977Z</time></trkpt><trkpt lat="45.6908534" lon="9.0454849"><ele>271.5</ele><time>2026-04-24T14:10:03.977Z</time></trkpt><trkpt lat="45.6908141" lon="9.0456602"><ele>270.0</ele><time>2026-04-24T14:10:04.977Z</time></trkpt><trkpt lat="45.6907709" lon="9.045854"><ele>268.5</ele><time>2026-04-24T14:10:05.977Z</time></trkpt><trkpt lat="45.6907241" lon="9.0460661"><ele>267.0</ele><time>2026-04-24T14:10:06.978Z</time></trkpt><trkpt lat="45.6906726" lon="9.0462932"><ele>265.3333333333333</ele><time>2026-04-24T14:10:07.977Z</time></trkpt><trkpt lat="45.6906213" lon="9.0465245"><ele>263.66666666666663</ele><time>2026-04-24T14:10:08.977Z</time></trkpt><trkpt lat="45.6905784" lon="9.046754"><ele>262.0</ele><time>2026-04-24T14:10:09.977Z</time></trkpt><trkpt lat="45.6905473" lon="9.0469858"><ele>261.0</ele><time>2026-04-24T14:10:10.977Z</time></trkpt><trkpt lat="45.6905313" lon="9.0472177"><ele>260.0</ele><time>2026-04-24T14:10:11.977Z</time></trkpt><trkpt lat="45.69053" lon="9.0474506"><ele>259.0</ele><time>2026-04-24T14:10:12.977Z</time></trkpt><trkpt lat="45.6905417" lon="9.0476824"><ele>259.0</ele><time>2026-04-24T14:10:13.977Z</time></trkpt><trkpt lat="45.6905658" lon="9.0479153"><ele>259.0</ele><time>2026-04-24T14:10:14.977Z</time></trkpt><trkpt lat="45.6905989" lon="9.0481513"><ele>259.0</ele><time>2026-04-24T14:10:15.977Z</time></trkpt><trkpt lat="45.6906376" lon="9.0483926"><ele>258.0</ele><time>2026-04-24T14:10:16.977Z</time></trkpt><trkpt lat="45.6906771" lon="9.0486371"><ele>257.0</ele><time>2026-04-24T14:10:17.977Z</time></trkpt><trkpt lat="45.6907162" lon="9.0488794"><ele>256.0</ele><time>2026-04-24T14:10:18.977Z</time></trkpt><trkpt lat="45.6907547" lon="9.0491174"><ele>255.66666666666666</ele><time>2026-04-24T14:10:19.977Z</time></trkpt><trkpt lat="45.6907914" lon="9.0493474"><ele>255.33333333333331</ele><time>2026-04-24T14:10:20.977Z</time></trkpt><trkpt lat="45.6908265" lon="9.0495695"><ele>255.0</ele><time>2026-04-24T14:10:21.977Z</time></trkpt><trkpt lat="45.6908606" lon="9.0497817"><ele>256.5</ele><time>2026-04-24T14:10:22.977Z</time></trkpt><trkpt lat="45.690893" lon="9.0499868"><ele>258.0</ele><time>2026-04-24T14:10:23.977Z</time></trkpt><trkpt lat="45.6909233" lon="9.0501867"><ele>259.5</ele><time>2026-04-24T14:10:24.977Z</time></trkpt><trkpt lat="45.6909519" lon="9.0503812"><ele>261.0</ele><time>2026-04-24T14:10:25.977Z</time></trkpt><trkpt lat="45.6909804" lon="9.0505709"><ele>261.0</ele><time>2026-04-24T14:10:26.977Z</time></trkpt><trkpt lat="45.6910093" lon="9.0507567"><ele>261.0</ele><time>2026-04-24T14:10:27.977Z</time></trkpt><trkpt lat="45.6910389" lon="9.0509402"><ele>261.0</ele><time>2026-04-24T14:10:28.977Z</time></trkpt><trkpt lat="45.6910687" lon="9.0511216"><ele>261.0</ele><time>2026-04-24T14:10:29.977Z</time></trkpt><trkpt lat="45.691098" lon="9.0513016"><ele>262.75</ele><time>2026-04-24T14:10:30.977Z</time></trkpt><trkpt lat="45.6911261" lon="9.0514825"><ele>264.5</ele><time>2026-04-24T14:10:31.976Z</time></trkpt><trkpt lat="45.6911542" lon="9.051663"><ele>266.25</ele><time>2026-04-24T14:10:32.977Z</time></trkpt><trkpt lat="45.6911831" lon="9.0518427"><ele>268.0</ele><time>2026-04-24T14:10:33.976Z</time></trkpt><trkpt lat="45.6912105" lon="9.0520215"><ele>268.5</ele><time>2026-04-24T14:10:34.976Z</time></trkpt><trkpt lat="45.6912367" lon="9.0521944"><ele>269.0</ele><time>2026-04-24T14:10:35.976Z</time></trkpt><trkpt lat="45.6912635" lon="9.0523596"><ele>269.5</ele><time>2026-04-24T14:10:36.976Z</time></trkpt><trkpt lat="45.6912881" lon="9.0525139"><ele>270.0</ele><time>2026-04-24T14:10:37.976Z</time></trkpt><trkpt lat="45.6913101" lon="9.0526576"><ele>270.6</ele><time>2026-04-24T14:10:38.976Z</time></trkpt><trkpt lat="45.6913308" lon="9.0527993"><ele>271.2</ele><time>2026-04-24T14:10:39.977Z</time></trkpt><trkpt lat="45.6913493" lon="9.0529354"><ele>271.8</ele><time>2026-04-24T14:10:40.976Z</time></trkpt><trkpt lat="45.6913642" lon="9.0530627"><ele>272.4</ele><time>2026-04-24T14:10:41.976Z</time></trkpt><trkpt lat="45.6913832" lon="9.0531811"><ele>273.0</ele><time>2026-04-24T14:10:42.976Z</time></trkpt><trkpt lat="45.6913998" lon="9.053292"><ele>273.0</ele><time>2026-04-24T14:10:43.976Z</time></trkpt><trkpt lat="45.6914152" lon="9.0533917"><ele>273.0</ele><time>2026-04-24T14:10:44.976Z</time></trkpt><trkpt lat="45.6914267" lon="9.0534816"><ele>273.0</ele><time>2026-04-24T14:10:45.977Z</time></trkpt><trkpt lat="45.6914416" lon="9.0535975"><ele>273.0</ele><time>2026-04-24T14:10:47.976Z</time></trkpt><trkpt lat="45.6914485" lon="9.0537185"><ele>273.0</ele><time>2026-04-24T14:10:50.976Z</time></trkpt><trkpt lat="45.691444" lon="9.0538504"><ele>273.0</ele><time>2026-04-24T14:10:52.976Z</time></trkpt><trkpt lat="45.6914572" lon="9.0540008"><ele>273.6</ele><time>2026-04-24T14:10:54.976Z</time></trkpt><trkpt lat="45.691501" lon="9.054164"><ele>274.20000000000005</ele><time>2026-04-24T14:10:56.976Z</time></trkpt><trkpt lat="45.6915209" lon="9.0542614"><ele>274.8</ele><time>2026-04-24T14:10:57.976Z</time></trkpt><trkpt lat="45.6915382" lon="9.0543782"><ele>275.40000000000003</ele><time>2026-04-24T14:10:58.977Z</time></trkpt><trkpt lat="45.6915538" lon="9.0545079"><ele>276.0</ele><time>2026-04-24T14:10:59.976Z</time></trkpt><trkpt lat="45.6915648" lon="9.0546467"><ele>276.0</ele><time>2026-04-24T14:11:00.976Z</time></trkpt><trkpt lat="45.6915703" lon="9.0547933"><ele>276.0</ele><time>2026-04-24T14:11:01.976Z</time></trkpt><trkpt lat="45.6915696" lon="9.0549457"><ele>276.0</ele><time>2026-04-24T14:11:02.976Z</time></trkpt><trkpt lat="45.6915635" lon="9.0550915"><ele>276.0</ele><time>2026-04-24T14:11:03.976Z</time></trkpt><trkpt lat="45.6915515" lon="9.0552355"><ele>276.0</ele><time>2026-04-24T14:11:04.976Z</time></trkpt><trkpt lat="45.6915343" lon="9.0553751"><ele>275.8333333333333</ele><time>2026-04-24T14:11:05.976Z</time></trkpt><trkpt lat="45.6915124" lon="9.0555048"><ele>275.6666666666667</ele><time>2026-04-24T14:11:06.977Z</time></trkpt><trkpt lat="45.6914878" lon="9.0556112"><ele>275.5</ele><time>2026-04-24T14:11:07.976Z</time></trkpt><trkpt lat="45.6914652" lon="9.0557018"><ele>275.33333333333337</ele><time>2026-04-24T14:11:08.976Z</time></trkpt><trkpt lat="45.6914369" lon="9.0558057"><ele>275.1666666666667</ele><time>2026-04-24T14:11:10.976Z</time></trkpt><trkpt lat="45.691403" lon="9.055908"><ele>275.0</ele><time>2026-04-24T14:11:22.977Z</time></trkpt><trkpt lat="45.6913683" lon="9.056024"><ele>275.1666666666667</ele><time>2026-04-24T14:11:24.976Z</time></trkpt><trkpt lat="45.691335" lon="9.0561565"><ele>275.33333333333337</ele><time>2026-04-24T14:11:26.976Z</time></trkpt><trkpt lat="45.6912902" lon="9.0563048"><ele>275.5</ele><time>2026-04-24T14:11:28.976Z</time></trkpt><trkpt lat="45.6912629" lon="9.0563958"><ele>275.6666666666667</ele><time>2026-04-24T14:11:29.976Z</time></trkpt><trkpt lat="45.6912341" lon="9.0564921"><ele>275.8333333333333</ele><time>2026-04-24T14:11:30.976Z</time></trkpt><trkpt lat="45.6912036" lon="9.0565966"><ele>276.0</ele><time>2026-04-24T14:11:31.976Z</time></trkpt><trkpt lat="45.6911711" lon="9.0567084"><ele>276.0</ele><time>2026-04-24T14:11:32.976Z</time></trkpt><trkpt lat="45.6911362" lon="9.0568262"><ele>276.0</ele><time>2026-04-24T14:11:33.976Z</time></trkpt><trkpt lat="45.6911001" lon="9.05694"><ele>276.0</ele><time>2026-04-24T14:11:34.976Z</time></trkpt><trkpt lat="45.6910655" lon="9.0570425"><ele>276.0</ele><time>2026-04-24T14:11:35.976Z</time></trkpt><trkpt lat="45.6910341" lon="9.0571282"><ele>276.0</ele><time>2026-04-24T14:11:36.976Z</time></trkpt><trkpt lat="45.6909757" lon="9.0572632"><ele>276.0</ele><time>2026-04-24T14:11:38.976Z</time></trkpt><trkpt lat="45.690924" lon="9.0573706"><ele>276.0</ele><time>2026-04-24T14:11:40.976Z</time></trkpt><trkpt lat="45.6908758" lon="9.0574532"><ele>276.0</ele><time>2026-04-24T14:11:42.976Z</time></trkpt><trkpt lat="45.690797" lon="9.0575772"><ele>276.0</ele><time>2026-04-24T14:11:44.976Z</time></trkpt><trkpt lat="45.6907615" lon="9.0576562"><ele>276.0</ele><time>2026-04-24T14:11:45.976Z</time></trkpt><trkpt lat="45.6907386" lon="9.0577452"><ele>276.0</ele><time>2026-04-24T14:11:46.976Z</time></trkpt><trkpt lat="45.6907251" lon="9.0578548"><ele>276.0</ele><time>2026-04-24T14:11:47.976Z</time></trkpt><trkpt lat="45.6907174" lon="9.057955"><ele>276.0</ele><time>2026-04-24T14:11:48.976Z</time></trkpt><trkpt lat="45.6907046" lon="9.0580605"><ele>276.0</ele><time>2026-04-24T14:11:49.976Z</time></trkpt><trkpt lat="45.6906813" lon="9.0581805"><ele>276.0</ele><time>2026-04-24T14:11:50.977Z</time></trkpt><trkpt lat="45.6906561" lon="9.05833"><ele>276.0</ele><time>2026-04-24T14:11:51.976Z</time></trkpt><trkpt lat="45.6906311" lon="9.0585618"><ele>276.0</ele><time>2026-04-24T14:11:52.976Z</time></trkpt><trkpt lat="45.6906055" lon="9.0587405"><ele>276.0</ele><time>2026-04-24T14:11:53.976Z</time></trkpt><trkpt lat="45.6905848" lon="9.0589262"><ele>276.0</ele><time>2026-04-24T14:11:54.976Z</time></trkpt><trkpt lat="45.6905687" lon="9.0591194"><ele>276.0</ele><time>2026-04-24T14:11:55.976Z</time></trkpt><trkpt lat="45.6905606" lon="9.0593033"><ele>276.0</ele><time>2026-04-24T14:11:56.976Z</time></trkpt><trkpt lat="45.6905623" lon="9.0594913"><ele>276.0</ele><time>2026-04-24T14:11:57.976Z</time></trkpt><trkpt lat="45.6905755" lon="9.059683"><ele>276.0</ele><time>2026-04-24T14:11:58.976Z</time></trkpt><trkpt lat="45.6905957" lon="9.0598636"><ele>276.0</ele><time>2026-04-24T14:11:59.976Z</time></trkpt><trkpt lat="45.6906273" lon="9.0600445"><ele>276.0</ele><time>2026-04-24T14:12:00.976Z</time></trkpt><trkpt lat="45.6906689" lon="9.0602195"><ele>275.75</ele><time>2026-04-24T14:12:01.976Z</time></trkpt><trkpt lat="45.6907197" lon="9.0603922"><ele>275.5</ele><time>2026-04-24T14:12:02.976Z</time></trkpt><trkpt lat="45.6907742" lon="9.0605603"><ele>275.25</ele><time>2026-04-24T14:12:03.976Z</time></trkpt><trkpt lat="45.6908322" lon="9.0607275"><ele>275.0</ele><time>2026-04-24T14:12:04.976Z</time></trkpt><trkpt lat="45.690893" lon="9.0608952"><ele>275.5</ele><time>2026-04-24T14:12:05.977Z</time></trkpt><trkpt lat="45.6909553" lon="9.0610646"><ele>276.0</ele><time>2026-04-24T14:12:06.976Z</time></trkpt><trkpt lat="45.6910155" lon="9.061233"><ele>276.5</ele><time>2026-04-24T14:12:07.976Z</time></trkpt><trkpt lat="45.6910774" lon="9.0614097"><ele>277.0</ele><time>2026-04-24T14:12:08.976Z</time></trkpt><trkpt lat="45.691136" lon="9.0615726"><ele>277.25</ele><time>2026-04-24T14:12:09.976Z</time></trkpt><trkpt lat="45.6912004" lon="9.0617468"><ele>277.5</ele><time>2026-04-24T14:12:10.976Z</time></trkpt><trkpt lat="45.691259" lon="9.0619059"><ele>277.75</ele><time>2026-04-24T14:12:11.976Z</time></trkpt><trkpt lat="45.6913147" lon="9.0620605"><ele>278.0</ele><time>2026-04-24T14:12:12.976Z</time></trkpt><trkpt lat="45.6913697" lon="9.0622148"><ele>278.0</ele><time>2026-04-24T14:12:13.976Z</time></trkpt><trkpt lat="45.6914242" lon="9.0623684"><ele>278.0</ele><time>2026-04-24T14:12:14.976Z</time></trkpt><trkpt lat="45.691477" lon="9.0625186"><ele>278.0</ele><time>2026-04-24T14:12:15.976Z</time></trkpt><trkpt lat="45.6915329" lon="9.0626773"><ele>278.0</ele><time>2026-04-24T14:12:16.976Z</time></trkpt><trkpt lat="45.6915883" lon="9.062834"><ele>277.75</ele><time>2026-04-24T14:12:17.976Z</time></trkpt><trkpt lat="45.6916439" lon="9.0629903"><ele>277.5</ele><time>2026-04-24T14:12:18.976Z</time></trkpt><trkpt lat="45.6917012" lon="9.063151"><ele>277.25</ele><time>2026-04-24T14:12:19.976Z</time></trkpt><trkpt lat="45.6917579" lon="9.0633114"><ele>277.0</ele><time>2026-04-24T14:12:20.976Z</time></trkpt><trkpt lat="45.6918148" lon="9.0634761"><ele>276.75</ele><time>2026-04-24T14:12:21.976Z</time></trkpt><trkpt lat="45.6918715" lon="9.0636412"><ele>276.5</ele><time>2026-04-24T14:12:22.976Z</time></trkpt><trkpt lat="45.6919278" lon="9.0638036"><ele>276.25</ele><time>2026-04-24T14:12:23.976Z</time></trkpt><trkpt lat="45.6919874" lon="9.063977"><ele>276.0</ele><time>2026-04-24T14:12:24.976Z</time></trkpt><trkpt lat="45.6920457" lon="9.0641463"><ele>277.0</ele><time>2026-04-24T14:12:25.976Z</time></trkpt><trkpt lat="45.6921031" lon="9.0643099"><ele>278.0</ele><time>2026-04-24T14:12:26.977Z</time></trkpt><trkpt lat="45.6921555" lon="9.0644613"><ele>279.0</ele><time>2026-04-24T14:12:27.976Z</time></trkpt><trkpt lat="45.6922022" lon="9.0645954"><ele>280.0</ele><time>2026-04-24T14:12:28.976Z</time></trkpt><trkpt lat="45.6922433" lon="9.0647155"><ele>281.0</ele><time>2026-04-24T14:12:29.976Z</time></trkpt><trkpt lat="45.6922817" lon="9.0648251"><ele>281.0</ele><time>2026-04-24T14:12:30.976Z</time></trkpt><trkpt lat="45.6923159" lon="9.0649212"><ele>281.0</ele><time>2026-04-24T14:12:31.976Z</time></trkpt><trkpt lat="45.6923446" lon="9.0650016"><ele>281.0</ele><time>2026-04-24T14:12:32.976Z</time></trkpt><trkpt lat="45.6923791" lon="9.0650967"><ele>281.0</ele><time>2026-04-24T14:12:34.977Z</time></trkpt><trkpt lat="45.6924138" lon="9.0651909"><ele>281.0</ele><time>2026-04-24T14:12:37.976Z</time></trkpt><trkpt lat="45.6924487" lon="9.065295"><ele>281.0</ele><time>2026-04-24T14:12:39.976Z</time></trkpt><trkpt lat="45.6924884" lon="9.0654241"><ele>280.5</ele><time>2026-04-24T14:12:41.977Z</time></trkpt><trkpt lat="45.6925226" lon="9.0655242"><ele>280.0</ele><time>2026-04-24T14:12:43.976Z</time></trkpt><trkpt lat="45.6925709" lon="9.0656543"><ele>279.5</ele><time>2026-04-24T14:12:46.976Z</time></trkpt><trkpt lat="45.6925966" lon="9.0657371"><ele>279.0</ele><time>2026-04-24T14:12:48.976Z</time></trkpt><trkpt lat="45.6926222" lon="9.0658248"><ele>278.5</ele><time>2026-04-24T14:12:50.977Z</time></trkpt><trkpt lat="45.6926569" lon="9.0659226"><ele>278.0</ele><time>2026-04-24T14:12:52.976Z</time></trkpt><trkpt lat="45.692696" lon="9.0660492"><ele>277.85714285714283</ele><time>2026-04-24T14:12:54.976Z</time></trkpt><trkpt lat="45.6927092" lon="9.0662041"><ele>277.7142857142857</ele><time>2026-04-24T14:12:56.976Z</time></trkpt><trkpt lat="45.6927037" lon="9.0663025"><ele>277.57142857142856</ele><time>2026-04-24T14:12:57.976Z</time></trkpt><trkpt lat="45.6926912" lon="9.0664011"><ele>277.42857142857144</ele><time>2026-04-24T14:12:58.977Z</time></trkpt><trkpt lat="45.6926778" lon="9.0664998"><ele>277.2857142857143</ele><time>2026-04-24T14:12:59.976Z</time></trkpt><trkpt lat="45.6926775" lon="9.0665933"><ele>277.1428571428571</ele><time>2026-04-24T14:13:00.976Z</time></trkpt><trkpt lat="45.6926937" lon="9.0666817"><ele>277.0</ele><time>2026-04-24T14:13:01.976Z</time></trkpt><trkpt lat="45.692727" lon="9.066765"><ele>276.5</ele><time>2026-04-24T14:13:02.976Z</time></trkpt><trkpt lat="45.692776" lon="9.0668374"><ele>276.0</ele><time>2026-04-24T14:13:03.976Z</time></trkpt><trkpt lat="45.6928393" lon="9.0668953"><ele>275.5</ele><time>2026-04-24T14:13:04.976Z</time></trkpt><trkpt lat="45.6929141" lon="9.06694"><ele>275.0</ele><time>2026-04-24T14:13:05.976Z</time></trkpt><trkpt lat="45.69298" lon="9.0669891"><ele>274.5</ele><time>2026-04-24T14:13:06.976Z</time></trkpt><trkpt lat="45.693037" lon="9.06706"><ele>274.0</ele><time>2026-04-24T14:13:07.976Z</time></trkpt><trkpt lat="45.693087" lon="9.0671517"><ele>274.0</ele><time>2026-04-24T14:13:08.976Z</time></trkpt><trkpt lat="45.6931322" lon="9.067265"><ele>274.0</ele><time>2026-04-24T14:13:09.976Z</time></trkpt><trkpt lat="45.69318" lon="9.0674036"><ele>274.0</ele><time>2026-04-24T14:13:10.976Z</time></trkpt><trkpt lat="45.693234" lon="9.0675649"><ele>274.0</ele><time>2026-04-24T14:13:11.976Z</time></trkpt><trkpt lat="45.6932964" lon="9.0677413"><ele>274.3333333333333</ele><time>2026-04-24T14:13:12.976Z</time></trkpt><trkpt lat="45.693365" lon="9.0679352"><ele>274.6666666666667</ele><time>2026-04-24T14:13:13.976Z</time></trkpt><trkpt lat="45.693439" lon="9.0681446"><ele>275.0</ele><time>2026-04-24T14:13:14.976Z</time></trkpt><trkpt lat="45.693517" lon="9.0683663"><ele>275.6666666666667</ele><time>2026-04-24T14:13:15.977Z</time></trkpt><trkpt lat="45.6935951" lon="9.0685894"><ele>276.3333333333333</ele><time>2026-04-24T14:13:16.977Z</time></trkpt><trkpt lat="45.6936702" lon="9.0688059"><ele>277.0</ele><time>2026-04-24T14:13:17.976Z</time></trkpt><trkpt lat="45.6937374" lon="9.0690137"><ele>277.5</ele><time>2026-04-24T14:13:18.976Z</time></trkpt><trkpt lat="45.693797" lon="9.0692141"><ele>278.0</ele><time>2026-04-24T14:13:19.976Z</time></trkpt><trkpt lat="45.6938497" lon="9.0694057"><ele>278.5</ele><time>2026-04-24T14:13:20.976Z</time></trkpt><trkpt lat="45.6938956" lon="9.0695892"><ele>279.0</ele><time>2026-04-24T14:13:21.977Z</time></trkpt><trkpt lat="45.6939332" lon="9.0697552"><ele>279.0</ele><time>2026-04-24T14:13:22.976Z</time></trkpt><trkpt lat="45.6939656" lon="9.0699124"><ele>279.0</ele><time>2026-04-24T14:13:23.976Z</time></trkpt><trkpt lat="45.6939926" lon="9.0700608"><ele>279.0</ele><time>2026-04-24T14:13:24.976Z</time></trkpt><trkpt lat="45.694012" lon="9.0702013"><ele>279.0</ele><time>2026-04-24T14:13:25.976Z</time></trkpt><trkpt lat="45.694023" lon="9.0703297"><ele>279.0</ele><time>2026-04-24T14:13:26.976Z</time></trkpt><trkpt lat="45.6940301" lon="9.0704527"><ele>279.0</ele><time>2026-04-24T14:13:27.976Z</time></trkpt><trkpt lat="45.6940352" lon="9.0705709"><ele>279.0</ele><time>2026-04-24T14:13:28.976Z</time></trkpt><trkpt lat="45.694033" lon="9.0706856"><ele>279.0</ele><time>2026-04-24T14:13:29.976Z</time></trkpt><trkpt lat="45.6940239" lon="9.0707979"><ele>279.0</ele><time>2026-04-24T14:13:30.976Z</time></trkpt><trkpt lat="45.6940125" lon="9.0709098"><ele>279.0</ele><time>2026-04-24T14:13:31.976Z</time></trkpt><trkpt lat="45.694011" lon="9.0710116"><ele>279.0</ele><time>2026-04-24T14:13:32.976Z</time></trkpt><trkpt lat="45.6940248" lon="9.0711113"><ele>279.3333333333333</ele><time>2026-04-24T14:13:33.977Z</time></trkpt><trkpt lat="45.6940534" lon="9.071212"><ele>279.6666666666667</ele><time>2026-04-24T14:13:34.976Z</time></trkpt><trkpt lat="45.6940879" lon="9.0713173"><ele>280.0</ele><time>2026-04-24T14:13:35.977Z</time></trkpt><trkpt lat="45.6941146" lon="9.0714349"><ele>280.33333333333337</ele><time>2026-04-24T14:13:36.976Z</time></trkpt><trkpt lat="45.694136" lon="9.0715659"><ele>280.6666666666667</ele><time>2026-04-24T14:13:37.976Z</time></trkpt><trkpt lat="45.6941544" lon="9.0717114"><ele>281.0</ele><time>2026-04-24T14:13:38.977Z</time></trkpt><trkpt lat="45.6941707" lon="9.0718724"><ele>281.0</ele><time>2026-04-24T14:13:39.976Z</time></trkpt><trkpt lat="45.6941867" lon="9.0720456"><ele>281.0</ele><time>2026-04-24T14:13:40.976Z</time></trkpt><trkpt lat="45.6942022" lon="9.0722302"><ele>281.0</ele><time>2026-04-24T14:13:41.976Z</time></trkpt><trkpt lat="45.6942195" lon="9.072425"><ele>281.0</ele><time>2026-04-24T14:13:42.976Z</time></trkpt><trkpt lat="45.6942362" lon="9.0726291"><ele>281.0</ele><time>2026-04-24T14:13:43.976Z</time></trkpt><trkpt lat="45.6942546" lon="9.0728403"><ele>281.0</ele><time>2026-04-24T14:13:44.976Z</time></trkpt><trkpt lat="45.6942754" lon="9.0730581"><ele>281.0</ele><time>2026-04-24T14:13:45.975Z</time></trkpt><trkpt lat="45.6942971" lon="9.0732818"><ele>280.33333333333337</ele><time>2026-04-24T14:13:46.976Z</time></trkpt><trkpt lat="45.6943171" lon="9.073511"><ele>279.6666666666667</ele><time>2026-04-24T14:13:47.975Z</time></trkpt><trkpt lat="45.6943383" lon="9.0737454"><ele>279.0</ele><time>2026-04-24T14:13:48.975Z</time></trkpt><trkpt lat="45.694363" lon="9.0739815"><ele>279.0</ele><time>2026-04-24T14:13:49.976Z</time></trkpt><trkpt lat="45.6943925" lon="9.0742208"><ele>279.0</ele><time>2026-04-24T14:13:50.976Z</time></trkpt><trkpt lat="45.6944259" lon="9.074464"><ele>279.0</ele><time>2026-04-24T14:13:51.975Z</time></trkpt><trkpt lat="45.6944616" lon="9.0747081"><ele>279.0</ele><time>2026-04-24T14:13:52.975Z</time></trkpt><trkpt lat="45.6944981" lon="9.0749563"><ele>279.0</ele><time>2026-04-24T14:13:53.975Z</time></trkpt><trkpt lat="45.6945355" lon="9.0751937"><ele>279.0</ele><time>2026-04-24T14:13:54.975Z</time></trkpt><trkpt lat="45.6945718" lon="9.0754219"><ele>279.0</ele><time>2026-04-24T14:13:55.975Z</time></trkpt><trkpt lat="45.6946046" lon="9.0756399"><ele>279.0</ele><time>2026-04-24T14:13:56.975Z</time></trkpt><trkpt lat="45.6946372" lon="9.0758488"><ele>279.0</ele><time>2026-04-24T14:13:57.975Z</time></trkpt><trkpt lat="45.6946684" lon="9.0760479"><ele>279.0</ele><time>2026-04-24T14:13:58.975Z</time></trkpt><trkpt lat="45.6946987" lon="9.0762375"><ele>279.5</ele><time>2026-04-24T14:13:59.976Z</time></trkpt><trkpt lat="45.6947271" lon="9.0764191"><ele>280.0</ele><time>2026-04-24T14:14:00.975Z</time></trkpt><trkpt lat="45.6947529" lon="9.0765917"><ele>280.5</ele><time>2026-04-24T14:14:01.975Z</time></trkpt><trkpt lat="45.6947773" lon="9.0767574"><ele>281.0</ele><time>2026-04-24T14:14:02.975Z</time></trkpt><trkpt lat="45.6947986" lon="9.0769141"><ele>281.0</ele><time>2026-04-24T14:14:03.975Z</time></trkpt><trkpt lat="45.6948169" lon="9.077064"><ele>281.0</ele><time>2026-04-24T14:14:04.975Z</time></trkpt><trkpt lat="45.6948303" lon="9.0772107"><ele>281.0</ele><time>2026-04-24T14:14:05.976Z</time></trkpt><trkpt lat="45.6948434" lon="9.0773541"><ele>281.0</ele><time>2026-04-24T14:14:06.975Z</time></trkpt><trkpt lat="45.6948553" lon="9.0774944"><ele>281.0</ele><time>2026-04-24T14:14:07.975Z</time></trkpt><trkpt lat="45.6948689" lon="9.077631"><ele>281.0</ele><time>2026-04-24T14:14:08.975Z</time></trkpt><trkpt lat="45.6948795" lon="9.0777646"><ele>281.0</ele><time>2026-04-24T14:14:09.975Z</time></trkpt><trkpt lat="45.6948926" lon="9.0779022"><ele>281.0</ele><time>2026-04-24T14:14:10.976Z</time></trkpt><trkpt lat="45.6949062" lon="9.0780421"><ele>281.0</ele><time>2026-04-24T14:14:11.975Z</time></trkpt><trkpt lat="45.6949186" lon="9.0781811"><ele>281.0</ele><time>2026-04-24T14:14:12.976Z</time></trkpt><trkpt lat="45.6949297" lon="9.0783207"><ele>281.6</ele><time>2026-04-24T14:14:13.975Z</time></trkpt><trkpt lat="45.6949384" lon="9.0784617"><ele>282.20000000000005</ele><time>2026-04-24T14:14:14.975Z</time></trkpt><trkpt lat="45.6949474" lon="9.0786014"><ele>282.79999999999995</ele><time>2026-04-24T14:14:15.975Z</time></trkpt><trkpt lat="45.6949551" lon="9.0787368"><ele>283.4</ele><time>2026-04-24T14:14:16.975Z</time></trkpt><trkpt lat="45.6949591" lon="9.0788652"><ele>284.0</ele><time>2026-04-24T14:14:17.975Z</time></trkpt><trkpt lat="45.6949545" lon="9.0789808"><ele>284.0</ele><time>2026-04-24T14:14:18.975Z</time></trkpt><trkpt lat="45.6949472" lon="9.0790785"><ele>284.0</ele><time>2026-04-24T14:14:19.975Z</time></trkpt><trkpt lat="45.6949229" lon="9.0792091"><ele>284.0</ele><time>2026-04-24T14:14:21.975Z</time></trkpt><trkpt lat="45.6948862" lon="9.0793259"><ele>284.0</ele><time>2026-04-24T14:14:24.975Z</time></trkpt><trkpt lat="45.6948651" lon="9.079441"><ele>284.0</ele><time>2026-04-24T14:14:26.975Z</time></trkpt><trkpt lat="45.6948668" lon="9.0795939"><ele>284.0</ele><time>2026-04-24T14:14:28.975Z</time></trkpt><trkpt lat="45.6949071" lon="9.0797517"><ele>283.5</ele><time>2026-04-24T14:14:30.975Z</time></trkpt><trkpt lat="45.6949436" lon="9.0798379"><ele>283.0</ele><time>2026-04-24T14:14:31.975Z</time></trkpt><trkpt lat="45.6949799" lon="9.0799337"><ele>282.5</ele><time>2026-04-24T14:14:32.975Z</time></trkpt><trkpt lat="45.6950151" lon="9.0800436"><ele>282.0</ele><time>2026-04-24T14:14:33.975Z</time></trkpt><trkpt lat="45.6950492" lon="9.0801622"><ele>281.5</ele><time>2026-04-24T14:14:34.975Z</time></trkpt><trkpt lat="45.6950829" lon="9.0802886"><ele>281.0</ele><time>2026-04-24T14:14:35.975Z</time></trkpt><trkpt lat="45.6951135" lon="9.0804265"><ele>281.0</ele><time>2026-04-24T14:14:36.975Z</time></trkpt><trkpt lat="45.6951428" lon="9.0805716"><ele>281.0</ele><time>2026-04-24T14:14:37.975Z</time></trkpt><trkpt lat="45.6951712" lon="9.0807218"><ele>281.0</ele><time>2026-04-24T14:14:38.975Z</time></trkpt><trkpt lat="45.6952011" lon="9.080877"><ele>281.0</ele><time>2026-04-24T14:14:39.975Z</time></trkpt><trkpt lat="45.6952333" lon="9.0810393"><ele>281.0</ele><time>2026-04-24T14:14:40.975Z</time></trkpt><trkpt lat="45.6952631" lon="9.0812034"><ele>281.0</ele><time>2026-04-24T14:14:41.975Z</time></trkpt><trkpt lat="45.6952908" lon="9.0813764"><ele>281.0</ele><time>2026-04-24T14:14:42.975Z</time></trkpt><trkpt lat="45.6953172" lon="9.0815451"><ele>281.0</ele><time>2026-04-24T14:14:43.975Z</time></trkpt><trkpt lat="45.6953421" lon="9.0816994"><ele>281.0</ele><time>2026-04-24T14:14:44.975Z</time></trkpt><trkpt lat="45.6953646" lon="9.0818349"><ele>281.0</ele><time>2026-04-24T14:14:45.975Z</time></trkpt><trkpt lat="45.6953831" lon="9.0819533"><ele>281.0</ele><time>2026-04-24T14:14:46.975Z</time></trkpt><trkpt lat="45.6953993" lon="9.0820586"><ele>281.0</ele><time>2026-04-24T14:14:47.975Z</time></trkpt><trkpt lat="45.6954251" lon="9.0822126"><ele>281.0</ele><time>2026-04-24T14:14:49.975Z</time></trkpt><trkpt lat="45.6954411" lon="9.0823128"><ele>281.0</ele><time>2026-04-24T14:14:51.975Z</time></trkpt><trkpt lat="45.6954583" lon="9.0824055"><ele>281.0</ele><time>2026-04-24T14:15:12.975Z</time></trkpt><trkpt lat="45.6954775" lon="9.0825265"><ele>280.6666666666667</ele><time>2026-04-24T14:15:14.975Z</time></trkpt><trkpt lat="45.6955056" lon="9.0826827"><ele>280.33333333333337</ele><time>2026-04-24T14:15:16.975Z</time></trkpt><trkpt lat="45.6955202" lon="9.0827728"><ele>280.0</ele><time>2026-04-24T14:15:17.975Z</time></trkpt><trkpt lat="45.6955323" lon="9.0828677"><ele>279.6666666666667</ele><time>2026-04-24T14:15:18.976Z</time></trkpt><trkpt lat="45.6955444" lon="9.0829693"><ele>279.3333333333333</ele><time>2026-04-24T14:15:19.975Z</time></trkpt><trkpt lat="45.6955596" lon="9.0830733"><ele>279.0</ele><time>2026-04-24T14:15:20.975Z</time></trkpt><trkpt lat="45.6955801" lon="9.0831848"><ele>279.1666666666667</ele><time>2026-04-24T14:15:21.975Z</time></trkpt><trkpt lat="45.6955993" lon="9.0833004"><ele>279.3333333333333</ele><time>2026-04-24T14:15:22.975Z</time></trkpt><trkpt lat="45.6956186" lon="9.0834223"><ele>279.5</ele><time>2026-04-24T14:15:23.975Z</time></trkpt><trkpt lat="45.6956373" lon="9.0835477"><ele>279.66666666666663</ele><time>2026-04-24T14:15:24.975Z</time></trkpt><trkpt lat="45.6956546" lon="9.083676"><ele>279.8333333333333</ele><time>2026-04-24T14:15:25.975Z</time></trkpt><trkpt lat="45.6956699" lon="9.0838144"><ele>280.0</ele><time>2026-04-24T14:15:26.976Z</time></trkpt><trkpt lat="45.6956843" lon="9.0839566"><ele>280.4</ele><time>2026-04-24T14:15:27.976Z</time></trkpt><trkpt lat="45.6956989" lon="9.0841041"><ele>280.8</ele><time>2026-04-24T14:15:28.975Z</time></trkpt><trkpt lat="45.6957118" lon="9.0842619"><ele>281.2</ele><time>2026-04-24T14:15:29.975Z</time></trkpt><trkpt lat="45.6957218" lon="9.0844249"><ele>281.6</ele><time>2026-04-24T14:15:30.975Z</time></trkpt><trkpt lat="45.6957313" lon="9.0845948"><ele>282.0</ele><time>2026-04-24T14:15:31.975Z</time></trkpt><trkpt lat="45.6957404" lon="9.0847579"><ele>282.0</ele><time>2026-04-24T14:15:32.975Z</time></trkpt><trkpt lat="45.6957498" lon="9.0849117"><ele>282.0</ele><time>2026-04-24T14:15:33.975Z</time></trkpt><trkpt lat="45.6957593" lon="9.0850578"><ele>282.0</ele><time>2026-04-24T14:15:34.975Z</time></trkpt><trkpt lat="45.6957682" lon="9.0852023"><ele>282.0</ele><time>2026-04-24T14:15:35.976Z</time></trkpt><trkpt lat="45.6957778" lon="9.0853519"><ele>282.0</ele><time>2026-04-24T14:15:36.975Z</time></trkpt><trkpt lat="45.6957871" lon="9.0854899"><ele>282.1666666666667</ele><time>2026-04-24T14:15:37.975Z</time></trkpt><trkpt lat="45.6957961" lon="9.0856307"><ele>282.3333333333333</ele><time>2026-04-24T14:15:38.975Z</time></trkpt><trkpt lat="45.6958028" lon="9.0857718"><ele>282.5</ele><time>2026-04-24T14:15:39.975Z</time></trkpt><trkpt lat="45.6958049" lon="9.0858981"><ele>282.66666666666663</ele><time>2026-04-24T14:15:40.976Z</time></trkpt><trkpt lat="45.6958024" lon="9.0860149"><ele>282.8333333333333</ele><time>2026-04-24T14:15:41.975Z</time></trkpt><trkpt lat="45.6957952" lon="9.0861279"><ele>283.0</ele><time>2026-04-24T14:15:42.975Z</time></trkpt><trkpt lat="45.6957835" lon="9.0862381"><ele>283.0</ele><time>2026-04-24T14:15:43.975Z</time></trkpt><trkpt lat="45.6957729" lon="9.086343"><ele>283.0</ele><time>2026-04-24T14:15:44.975Z</time></trkpt><trkpt lat="45.6957716" lon="9.0864356"><ele>283.0</ele><time>2026-04-24T14:15:45.975Z</time></trkpt><trkpt lat="45.6957809" lon="9.0865292"><ele>283.0</ele><time>2026-04-24T14:15:46.975Z</time></trkpt><trkpt lat="45.6958037" lon="9.0866304"><ele>283.0</ele><time>2026-04-24T14:15:47.975Z</time></trkpt><trkpt lat="45.6958378" lon="9.0867328"><ele>283.0</ele><time>2026-04-24T14:15:48.976Z</time></trkpt><trkpt lat="45.6958792" lon="9.0868427"><ele>283.0</ele><time>2026-04-24T14:15:49.975Z</time></trkpt><trkpt lat="45.6959256" lon="9.0869743"><ele>283.5</ele><time>2026-04-24T14:15:50.975Z</time></trkpt><trkpt lat="45.6959744" lon="9.0871285"><ele>284.0</ele><time>2026-04-24T14:15:51.975Z</time></trkpt><trkpt lat="45.6960253" lon="9.0873056"><ele>284.5</ele><time>2026-04-24T14:15:52.975Z</time></trkpt><trkpt lat="45.6960768" lon="9.0874904"><ele>285.0</ele><time>2026-04-24T14:15:53.975Z</time></trkpt><trkpt lat="45.6961318" lon="9.0876904"><ele>285.0</ele><time>2026-04-24T14:15:54.975Z</time></trkpt><trkpt lat="45.6961935" lon="9.0879109"><ele>285.0</ele><time>2026-04-24T14:15:55.975Z</time></trkpt><trkpt lat="45.6962534" lon="9.0881242"><ele>285.0</ele><time>2026-04-24T14:15:56.975Z</time></trkpt><trkpt lat="45.6963133" lon="9.0883376"><ele>285.6666666666667</ele><time>2026-04-24T14:15:57.975Z</time></trkpt><trkpt lat="45.6963737" lon="9.0885542"><ele>286.33333333333337</ele><time>2026-04-24T14:15:58.975Z</time></trkpt><trkpt lat="45.6964337" lon="9.0887712"><ele>287.0</ele><time>2026-04-24T14:15:59.975Z</time></trkpt><trkpt lat="45.6964925" lon="9.0889884"><ele>287.0</ele><time>2026-04-24T14:16:00.975Z</time></trkpt><trkpt lat="45.696545" lon="9.0891825"><ele>287.0</ele><time>2026-04-24T14:16:01.975Z</time></trkpt><trkpt lat="45.6965932" lon="9.0893591"><ele>287.0</ele><time>2026-04-24T14:16:02.976Z</time></trkpt><trkpt lat="45.696638" lon="9.0895217"><ele>287.0</ele><time>2026-04-24T14:16:03.975Z</time></trkpt><trkpt lat="45.6966752" lon="9.089659"><ele>287.0</ele><time>2026-04-24T14:16:04.975Z</time></trkpt><trkpt lat="45.6967079" lon="9.0897839"><ele>287.0</ele><time>2026-04-24T14:16:05.975Z</time></trkpt><trkpt lat="45.6967383" lon="9.0899028"><ele>287.0</ele><time>2026-04-24T14:16:06.975Z</time></trkpt><trkpt lat="45.6967662" lon="9.0900145"><ele>287.0</ele><time>2026-04-24T14:16:07.975Z</time></trkpt><trkpt lat="45.6967905" lon="9.0901248"><ele>287.0</ele><time>2026-04-24T14:16:08.975Z</time></trkpt><trkpt lat="45.6968098" lon="9.0902259"><ele>287.0</ele><time>2026-04-24T14:16:09.975Z</time></trkpt><trkpt lat="45.6968279" lon="9.0903296"><ele>287.1666666666667</ele><time>2026-04-24T14:16:10.975Z</time></trkpt><trkpt lat="45.6968444" lon="9.0904434"><ele>287.33333333333337</ele><time>2026-04-24T14:16:11.975Z</time></trkpt><trkpt lat="45.6968575" lon="9.0905588"><ele>287.5</ele><time>2026-04-24T14:16:12.975Z</time></trkpt><trkpt lat="45.696867" lon="9.0906804"><ele>287.6666666666667</ele><time>2026-04-24T14:16:13.975Z</time></trkpt><trkpt lat="45.6968718" lon="9.0908126"><ele>287.8333333333333</ele><time>2026-04-24T14:16:14.975Z</time></trkpt><trkpt lat="45.6968707" lon="9.0909559"><ele>288.0</ele><time>2026-04-24T14:16:15.975Z</time></trkpt><trkpt lat="45.6968644" lon="9.0911114"><ele>288.25</ele><time>2026-04-24T14:16:16.975Z</time></trkpt><trkpt lat="45.6968533" lon="9.0912653"><ele>288.5</ele><time>2026-04-24T14:16:17.975Z</time></trkpt><trkpt lat="45.6968377" lon="9.0914297"><ele>288.75</ele><time>2026-04-24T14:16:18.975Z</time></trkpt><trkpt lat="45.6968179" lon="9.0916069"><ele>289.0</ele><time>2026-04-24T14:16:19.975Z</time></trkpt><trkpt lat="45.6967967" lon="9.0917779"><ele>288.5</ele><time>2026-04-24T14:16:20.975Z</time></trkpt><trkpt lat="45.6967739" lon="9.0919597"><ele>288.0</ele><time>2026-04-24T14:16:21.975Z</time></trkpt><trkpt lat="45.6967521" lon="9.092141"><ele>287.5</ele><time>2026-04-24T14:16:22.975Z</time></trkpt><trkpt lat="45.6967305" lon="9.0923239"><ele>287.0</ele><time>2026-04-24T14:16:23.975Z</time></trkpt><trkpt lat="45.696709" lon="9.0925034"><ele>286.5</ele><time>2026-04-24T14:16:24.975Z</time></trkpt><trkpt lat="45.696687" lon="9.0926828"><ele>286.0</ele><time>2026-04-24T14:16:25.975Z</time></trkpt><trkpt lat="45.6966655" lon="9.0928555"><ele>285.5</ele><time>2026-04-24T14:16:26.975Z</time></trkpt><trkpt lat="45.6966455" lon="9.0930245"><ele>285.0</ele><time>2026-04-24T14:16:27.975Z</time></trkpt><trkpt lat="45.6966296" lon="9.093189"><ele>284.75</ele><time>2026-04-24T14:16:28.975Z</time></trkpt><trkpt lat="45.6966187" lon="9.0933594"><ele>284.5</ele><time>2026-04-24T14:16:29.975Z</time></trkpt><trkpt lat="45.6966136" lon="9.0935248"><ele>284.25</ele><time>2026-04-24T14:16:30.975Z</time></trkpt><trkpt lat="45.6966152" lon="9.0936951"><ele>284.0</ele><time>2026-04-24T14:16:31.975Z</time></trkpt><trkpt lat="45.6966261" lon="9.0938727"><ele>284.0</ele><time>2026-04-24T14:16:32.975Z</time></trkpt><trkpt lat="45.6966444" lon="9.0940367"><ele>284.0</ele><time>2026-04-24T14:16:33.975Z</time></trkpt><trkpt lat="45.6966671" lon="9.0941898"><ele>284.0</ele><time>2026-04-24T14:16:34.976Z</time></trkpt><trkpt lat="45.6966941" lon="9.0943492"><ele>284.0</ele><time>2026-04-24T14:16:35.975Z</time></trkpt><trkpt lat="45.6967221" lon="9.0945037"><ele>283.8</ele><time>2026-04-24T14:16:36.976Z</time></trkpt><trkpt lat="45.69675" lon="9.094652"><ele>283.59999999999997</ele><time>2026-04-24T14:16:37.975Z</time></trkpt><trkpt lat="45.6967764" lon="9.0947945"><ele>283.4</ele><time>2026-04-24T14:16:38.975Z</time></trkpt><trkpt lat="45.6968036" lon="9.0949418"><ele>283.2</ele><time>2026-04-24T14:16:39.975Z</time></trkpt><trkpt lat="45.6968338" lon="9.0950975"><ele>283.0</ele><time>2026-04-24T14:16:40.975Z</time></trkpt><trkpt lat="45.696866" lon="9.0952488"><ele>283.0</ele><time>2026-04-24T14:16:41.975Z</time></trkpt><trkpt lat="45.696901" lon="9.095401"><ele>283.0</ele><time>2026-04-24T14:16:42.975Z</time></trkpt><trkpt lat="45.6969406" lon="9.095565"><ele>283.0</ele><time>2026-04-24T14:16:43.975Z</time></trkpt><trkpt lat="45.6969822" lon="9.0957321"><ele>283.0</ele><time>2026-04-24T14:16:44.975Z</time></trkpt><trkpt lat="45.6970239" lon="9.095893"><ele>283.8</ele><time>2026-04-24T14:16:45.975Z</time></trkpt><trkpt lat="45.6970643" lon="9.0960432"><ele>284.6</ele><time>2026-04-24T14:16:46.975Z</time></trkpt><trkpt lat="45.6971033" lon="9.0961854"><ele>285.4</ele><time>2026-04-24T14:16:47.975Z</time></trkpt><trkpt lat="45.6971381" lon="9.0963163"><ele>286.2</ele><time>2026-04-24T14:16:48.975Z</time></trkpt><trkpt lat="45.6971615" lon="9.0964228"><ele>287.0</ele><time>2026-04-24T14:16:49.975Z</time></trkpt><trkpt lat="45.6971789" lon="9.096588"><ele>287.0</ele><time>2026-04-24T14:16:51.975Z</time></trkpt><trkpt lat="45.6971745" lon="9.0967228"><ele>287.0</ele><time>2026-04-24T14:16:53.974Z</time></trkpt><trkpt lat="45.6971615" lon="9.096876"><ele>287.0</ele><time>2026-04-24T14:16:55.974Z</time></trkpt><trkpt lat="45.6971698" lon="9.0970427"><ele>287.0</ele><time>2026-04-24T14:16:57.974Z</time></trkpt><trkpt lat="45.6972286" lon="9.0971791"><ele>287.0</ele><time>2026-04-24T14:16:59.974Z</time></trkpt><trkpt lat="45.697334" lon="9.0972635"><ele>287.0</ele><time>2026-04-24T14:17:01.974Z</time></trkpt><trkpt lat="45.6973978" lon="9.0972786"><ele>287.0</ele><time>2026-04-24T14:17:02.974Z</time></trkpt><trkpt lat="45.697464" lon="9.0972736"><ele>287.0</ele><time>2026-04-24T14:17:03.974Z</time></trkpt><trkpt lat="45.6975261" lon="9.0972507"><ele>287.0</ele><time>2026-04-24T14:17:04.974Z</time></trkpt><trkpt lat="45.6976268" lon="9.0971629"><ele>287.0</ele><time>2026-04-24T14:17:06.975Z</time></trkpt><trkpt lat="45.697675" lon="9.0970983"><ele>287.0</ele><time>2026-04-24T14:17:07.974Z</time></trkpt><trkpt lat="45.6977218" lon="9.0970322"><ele>287.0</ele><time>2026-04-24T14:17:08.974Z</time></trkpt><trkpt lat="45.697772" lon="9.0969611"><ele>287.0</ele><time>2026-04-24T14:17:09.974Z</time></trkpt><trkpt lat="45.6978309" lon="9.0968784"><ele>287.0</ele><time>2026-04-24T14:17:10.974Z</time></trkpt><trkpt lat="45.6978909" lon="9.0967975"><ele>287.0</ele><time>2026-04-24T14:17:11.975Z</time></trkpt><trkpt lat="45.6979558" lon="9.0967065"><ele>287.0</ele><time>2026-04-24T14:17:12.975Z</time></trkpt><trkpt lat="45.6980292" lon="9.0966137"><ele>287.0</ele><time>2026-04-24T14:17:13.974Z</time></trkpt><trkpt lat="45.6981124" lon="9.0965254"><ele>287.0</ele><time>2026-04-24T14:17:14.974Z</time></trkpt><trkpt lat="45.6982021" lon="9.0964382"><ele>287.0</ele><time>2026-04-24T14:17:15.974Z</time></trkpt><trkpt lat="45.6982984" lon="9.0963483"><ele>287.0</ele><time>2026-04-24T14:17:16.974Z</time></trkpt><trkpt lat="45.6984054" lon="9.0962577"><ele>287.0</ele><time>2026-04-24T14:17:17.974Z</time></trkpt><trkpt lat="45.6985188" lon="9.0961665"><ele>288.5</ele><time>2026-04-24T14:17:18.974Z</time></trkpt><trkpt lat="45.6986384" lon="9.0960739"><ele>290.0</ele><time>2026-04-24T14:17:19.974Z</time></trkpt><trkpt lat="45.6987633" lon="9.0959835"><ele>291.5</ele><time>2026-04-24T14:17:20.975Z</time></trkpt><trkpt lat="45.6988897" lon="9.0958932"><ele>293.0</ele><time>2026-04-24T14:17:21.974Z</time></trkpt><trkpt lat="45.699015" lon="9.0958035"><ele>293.0</ele><time>2026-04-24T14:17:22.974Z</time></trkpt><trkpt lat="45.6991399" lon="9.0957162"><ele>293.0</ele><time>2026-04-24T14:17:23.974Z</time></trkpt><trkpt lat="45.6992638" lon="9.0956306"><ele>293.0</ele><time>2026-04-24T14:17:24.974Z</time></trkpt><trkpt lat="45.6993878" lon="9.0955489"><ele>293.0</ele><time>2026-04-24T14:17:25.974Z</time></trkpt><trkpt lat="45.6995121" lon="9.0954634"><ele>293.0</ele><time>2026-04-24T14:17:26.974Z</time></trkpt><trkpt lat="45.6996392" lon="9.095378"><ele>293.0</ele><time>2026-04-24T14:17:27.974Z</time></trkpt><trkpt lat="45.6997686" lon="9.0952927"><ele>293.0</ele><time>2026-04-24T14:17:28.974Z</time></trkpt><trkpt lat="45.6998995" lon="9.095206"><ele>293.0</ele><time>2026-04-24T14:17:29.974Z</time></trkpt><trkpt lat="45.7000317" lon="9.0951173"><ele>293.0</ele><time>2026-04-24T14:17:30.974Z</time></trkpt><trkpt lat="45.7001643" lon="9.0950265"><ele>293.0</ele><time>2026-04-24T14:17:31.975Z</time></trkpt><trkpt lat="45.700297" lon="9.0949343"><ele>293.0</ele><time>2026-04-24T14:17:32.974Z</time></trkpt><trkpt lat="45.700427" lon="9.0948445"><ele>293.0</ele><time>2026-04-24T14:17:33.974Z</time></trkpt><trkpt lat="45.7005536" lon="9.0947567"><ele>294.0</ele><time>2026-04-24T14:17:34.974Z</time></trkpt><trkpt lat="45.700677" lon="9.0946712"><ele>295.0</ele><time>2026-04-24T14:17:35.974Z</time></trkpt><trkpt lat="45.7007987" lon="9.0945866"><ele>296.0</ele><time>2026-04-24T14:17:36.975Z</time></trkpt><trkpt lat="45.7009205" lon="9.0945037"><ele>297.0</ele><time>2026-04-24T14:17:37.974Z</time></trkpt><trkpt lat="45.7010407" lon="9.0944214"><ele>297.25</ele><time>2026-04-24T14:17:38.974Z</time></trkpt><trkpt lat="45.7011606" lon="9.0943403"><ele>297.5</ele><time>2026-04-24T14:17:39.974Z</time></trkpt><trkpt lat="45.7012793" lon="9.0942629"><ele>297.75</ele><time>2026-04-24T14:17:40.974Z</time></trkpt><trkpt lat="45.7013975" lon="9.0941858"><ele>298.0</ele><time>2026-04-24T14:17:41.974Z</time></trkpt><trkpt lat="45.7015114" lon="9.0941073"><ele>298.8</ele><time>2026-04-24T14:17:42.974Z</time></trkpt><trkpt lat="45.7016169" lon="9.0940251"><ele>299.6</ele><time>2026-04-24T14:17:43.974Z</time></trkpt><trkpt lat="45.7017121" lon="9.0939463"><ele>300.4</ele><time>2026-04-24T14:17:44.974Z</time></trkpt><trkpt lat="45.7017979" lon="9.0938666"><ele>301.2</ele><time>2026-04-24T14:17:45.974Z</time></trkpt><trkpt lat="45.7018778" lon="9.0937911"><ele>302.0</ele><time>2026-04-24T14:17:46.975Z</time></trkpt><trkpt lat="45.7019468" lon="9.0937185"><ele>302.0</ele><time>2026-04-24T14:17:47.974Z</time></trkpt><trkpt lat="45.7020046" lon="9.0936559"><ele>302.0</ele><time>2026-04-24T14:17:48.974Z</time></trkpt><trkpt lat="45.7020776" lon="9.0935809"><ele>302.0</ele><time>2026-04-24T14:17:50.974Z</time></trkpt><trkpt lat="45.7021371" lon="9.0935175"><ele>302.0</ele><time>2026-04-24T14:17:52.974Z</time></trkpt><trkpt lat="45.7022048" lon="9.0934399"><ele>302.0</ele><time>2026-04-24T14:17:54.974Z</time></trkpt><trkpt lat="45.7022873" lon="9.0933521"><ele>302.0</ele><time>2026-04-24T14:17:56.974Z</time></trkpt><trkpt lat="45.7023825" lon="9.0932527"><ele>301.6666666666667</ele><time>2026-04-24T14:17:58.974Z</time></trkpt><trkpt lat="45.7024841" lon="9.0931452"><ele>301.33333333333337</ele><time>2026-04-24T14:18:00.974Z</time></trkpt><trkpt lat="45.70254" lon="9.0930834"><ele>301.0</ele><time>2026-04-24T14:18:01.974Z</time></trkpt><trkpt lat="45.702599" lon="9.0930166"><ele>300.6666666666667</ele><time>2026-04-24T14:18:02.975Z</time></trkpt><trkpt lat="45.7026635" lon="9.0929467"><ele>300.3333333333333</ele><time>2026-04-24T14:18:03.975Z</time></trkpt><trkpt lat="45.7027358" lon="9.0928667"><ele>300.0</ele><time>2026-04-24T14:18:04.974Z</time></trkpt><trkpt lat="45.7028114" lon="9.0927823"><ele>299.8</ele><time>2026-04-24T14:18:05.974Z</time></trkpt><trkpt lat="45.7028875" lon="9.0927006"><ele>299.6</ele><time>2026-04-24T14:18:06.975Z</time></trkpt><trkpt lat="45.7029667" lon="9.0926082"><ele>299.4</ele><time>2026-04-24T14:18:07.975Z</time></trkpt><trkpt lat="45.7030463" lon="9.0925215"><ele>299.2</ele><time>2026-04-24T14:18:08.974Z</time></trkpt><trkpt lat="45.7031207" lon="9.0924342"><ele>299.0</ele><time>2026-04-24T14:18:09.974Z</time></trkpt><trkpt lat="45.7031995" lon="9.0923502"><ele>298.8</ele><time>2026-04-24T14:18:10.974Z</time></trkpt><trkpt lat="45.7032782" lon="9.0922659"><ele>298.59999999999997</ele><time>2026-04-24T14:18:11.974Z</time></trkpt><trkpt lat="45.7033559" lon="9.0921806"><ele>298.4</ele><time>2026-04-24T14:18:12.974Z</time></trkpt><trkpt lat="45.7034318" lon="9.0921028"><ele>298.2</ele><time>2026-04-24T14:18:13.974Z</time></trkpt><trkpt lat="45.7035029" lon="9.0920279"><ele>298.0</ele><time>2026-04-24T14:18:14.974Z</time></trkpt><trkpt lat="45.7035694" lon="9.0919571"><ele>298.0</ele><time>2026-04-24T14:18:15.974Z</time></trkpt><trkpt lat="45.7036313" lon="9.0918902"><ele>298.0</ele><time>2026-04-24T14:18:16.974Z</time></trkpt><trkpt lat="45.7036874" lon="9.0918284"><ele>298.0</ele><time>2026-04-24T14:18:17.974Z</time></trkpt><trkpt lat="45.7037393" lon="9.0917685"><ele>298.0</ele><time>2026-04-24T14:18:18.974Z</time></trkpt><trkpt lat="45.7038327" lon="9.0916688"><ele>298.0</ele><time>2026-04-24T14:18:20.974Z</time></trkpt><trkpt lat="45.7038983" lon="9.0915921"><ele>298.0</ele><time>2026-04-24T14:18:22.974Z</time></trkpt><trkpt lat="45.7039669" lon="9.0915212"><ele>298.0</ele><time>2026-04-24T14:18:25.974Z</time></trkpt><trkpt lat="45.7040342" lon="9.0914578"><ele>298.0</ele><time>2026-04-24T14:18:29.975Z</time></trkpt><trkpt lat="45.7040942" lon="9.0914075"><ele>298.0</ele><time>2026-04-24T14:18:31.974Z</time></trkpt><trkpt lat="45.7041622" lon="9.091365"><ele>298.0</ele><time>2026-04-24T14:18:33.974Z</time></trkpt><trkpt lat="45.7042393" lon="9.0913696"><ele>298.0</ele><time>2026-04-24T14:18:35.975Z</time></trkpt><trkpt lat="45.7043153" lon="9.0914613"><ele>298.0</ele><time>2026-04-24T14:18:37.975Z</time></trkpt><trkpt lat="45.7043676" lon="9.0916392"><ele>298.2</ele><time>2026-04-24T14:18:39.974Z</time></trkpt><trkpt lat="45.7043901" lon="9.0917515"><ele>298.4</ele><time>2026-04-24T14:18:40.974Z</time></trkpt><trkpt lat="45.7044156" lon="9.0918729"><ele>298.59999999999997</ele><time>2026-04-24T14:18:41.974Z</time></trkpt><trkpt lat="45.7044433" lon="9.0919996"><ele>298.8</ele><time>2026-04-24T14:18:42.976Z</time></trkpt><trkpt lat="45.7044763" lon="9.092137"><ele>299.0</ele><time>2026-04-24T14:18:43.974Z</time></trkpt><trkpt lat="45.7045082" lon="9.0922755"><ele>299.0</ele><time>2026-04-24T14:18:44.974Z</time></trkpt><trkpt lat="45.7045397" lon="9.0924146"><ele>299.0</ele><time>2026-04-24T14:18:45.974Z</time></trkpt><trkpt lat="45.7045656" lon="9.0925421"><ele>299.0</ele><time>2026-04-24T14:18:46.974Z</time></trkpt><trkpt lat="45.7045946" lon="9.0926775"><ele>299.0</ele><time>2026-04-24T14:18:47.974Z</time></trkpt><trkpt lat="45.7046242" lon="9.092814"><ele>299.0</ele><time>2026-04-24T14:18:48.974Z</time></trkpt><trkpt lat="45.704653" lon="9.0929421"><ele>299.4</ele><time>2026-04-24T14:18:49.974Z</time></trkpt><trkpt lat="45.7046821" lon="9.0930692"><ele>299.79999999999995</ele><time>2026-04-24T14:18:50.974Z</time></trkpt><trkpt lat="45.7047113" lon="9.0932001"><ele>300.20000000000005</ele><time>2026-04-24T14:18:51.975Z</time></trkpt><trkpt lat="45.7047381" lon="9.0933239"><ele>300.6</ele><time>2026-04-24T14:18:52.974Z</time></trkpt><trkpt lat="45.7047646" lon="9.0934413"><ele>301.0</ele><time>2026-04-24T14:18:53.974Z</time></trkpt><trkpt lat="45.7047927" lon="9.0935575"><ele>301.5</ele><time>2026-04-24T14:18:54.974Z</time></trkpt><trkpt lat="45.7048216" lon="9.0936721"><ele>302.0</ele><time>2026-04-24T14:18:55.974Z</time></trkpt><trkpt lat="45.7048528" lon="9.0937817"><ele>302.5</ele><time>2026-04-24T14:18:56.974Z</time></trkpt><trkpt lat="45.7048821" lon="9.0938737"><ele>303.0</ele><time>2026-04-24T14:18:57.974Z</time></trkpt><trkpt lat="45.7049098" lon="9.0939569"><ele>303.5</ele><time>2026-04-24T14:18:58.974Z</time></trkpt><trkpt lat="45.7049598" lon="9.0941101"><ele>304.0</ele><time>2026-04-24T14:19:00.974Z</time></trkpt><trkpt lat="45.7050194" lon="9.0942286"><ele>304.3333333333333</ele><time>2026-04-24T14:19:02.974Z</time></trkpt><trkpt lat="45.7051111" lon="9.0942732"><ele>304.66666666666663</ele><time>2026-04-24T14:19:04.974Z</time></trkpt><trkpt lat="45.7051759" lon="9.0942677"><ele>305.0</ele><time>2026-04-24T14:19:05.974Z</time></trkpt><trkpt lat="45.70525" lon="9.094246"><ele>305.3333333333333</ele><time>2026-04-24T14:19:06.975Z</time></trkpt><trkpt lat="45.7053399" lon="9.0942096"><ele>305.6666666666667</ele><time>2026-04-24T14:19:07.974Z</time></trkpt><trkpt lat="45.7054345" lon="9.0941626"><ele>306.0</ele><time>2026-04-24T14:19:08.974Z</time></trkpt><trkpt lat="45.7055323" lon="9.0941069"><ele>307.0</ele><time>2026-04-24T14:19:09.975Z</time></trkpt><trkpt lat="45.7056287" lon="9.0940456"><ele>308.0</ele><time>2026-04-24T14:19:10.974Z</time></trkpt><trkpt lat="45.7057392" lon="9.0939803"><ele>309.0</ele><time>2026-04-24T14:19:11.974Z</time></trkpt><trkpt lat="45.7058479" lon="9.0939202"><ele>310.0</ele><time>2026-04-24T14:19:12.974Z</time></trkpt><trkpt lat="45.7059569" lon="9.0938729"><ele>310.0</ele><time>2026-04-24T14:19:13.974Z</time></trkpt><trkpt lat="45.7060647" lon="9.0938386"><ele>310.0</ele><time>2026-04-24T14:19:14.974Z</time></trkpt><trkpt lat="45.7061837" lon="9.0938113"><ele>310.0</ele><time>2026-04-24T14:19:15.974Z</time></trkpt><trkpt lat="45.7063029" lon="9.0937952"><ele>310.0</ele><time>2026-04-24T14:19:16.974Z</time></trkpt><trkpt lat="45.7064286" lon="9.0937916"><ele>310.25</ele><time>2026-04-24T14:19:17.974Z</time></trkpt><trkpt lat="45.7065518" lon="9.093798"><ele>310.5</ele><time>2026-04-24T14:19:18.974Z</time></trkpt><trkpt lat="45.7066817" lon="9.0938064"><ele>310.75</ele><time>2026-04-24T14:19:19.974Z</time></trkpt><trkpt lat="45.7068156" lon="9.0938094"><ele>311.0</ele><time>2026-04-24T14:19:20.974Z</time></trkpt><trkpt lat="45.7069477" lon="9.0937998"><ele>311.0</ele><time>2026-04-24T14:19:21.974Z</time></trkpt><trkpt lat="45.7070761" lon="9.0937811"><ele>311.0</ele><time>2026-04-24T14:19:22.974Z</time></trkpt><trkpt lat="45.7072152" lon="9.0937547"><ele>311.0</ele><time>2026-04-24T14:19:23.974Z</time></trkpt><trkpt lat="45.7073473" lon="9.0937268"><ele>311.0</ele><time>2026-04-24T14:19:24.974Z</time></trkpt><trkpt lat="45.7074648" lon="9.0937061"><ele>311.0</ele><time>2026-04-24T14:19:25.974Z</time></trkpt><trkpt lat="45.7075663" lon="9.0936797"><ele>311.0</ele><time>2026-04-24T14:19:26.974Z</time></trkpt><trkpt lat="45.7076678" lon="9.0936619"><ele>311.0</ele><time>2026-04-24T14:19:27.974Z</time></trkpt><trkpt lat="45.7077765" lon="9.0936401"><ele>311.0</ele><time>2026-04-24T14:19:28.974Z</time></trkpt><trkpt lat="45.707894" lon="9.0936082"><ele>311.0</ele><time>2026-04-24T14:19:29.974Z</time></trkpt><trkpt lat="45.7082068" lon="9.0935124"><ele>310.25</ele><time>2026-04-24T14:19:31.974Z</time></trkpt><trkpt lat="45.7083656" lon="9.0934603"><ele>309.5</ele><time>2026-04-24T14:19:32.974Z</time></trkpt><trkpt lat="45.7084833" lon="9.093404"><ele>308.75</ele><time>2026-04-24T14:19:33.974Z</time></trkpt><trkpt lat="45.7085978" lon="9.0933439"><ele>308.0</ele><time>2026-04-24T14:19:34.974Z</time></trkpt><trkpt lat="45.7087114" lon="9.0932823"><ele>309.2</ele><time>2026-04-24T14:19:35.974Z</time></trkpt><trkpt lat="45.7088215" lon="9.0932232"><ele>310.4</ele><time>2026-04-24T14:19:36.974Z</time></trkpt><trkpt lat="45.708926" lon="9.0931623"><ele>311.59999999999997</ele><time>2026-04-24T14:19:37.974Z</time></trkpt><trkpt lat="45.709025" lon="9.093109"><ele>312.8</ele><time>2026-04-24T14:19:38.974Z</time></trkpt><trkpt lat="45.7091209" lon="9.093074"><ele>314.0</ele><time>2026-04-24T14:19:39.974Z</time></trkpt><trkpt lat="45.709214" lon="9.0930651"><ele>314.0</ele><time>2026-04-24T14:19:40.974Z</time></trkpt><trkpt lat="45.7092993" lon="9.0930836"><ele>314.0</ele><time>2026-04-24T14:19:41.974Z</time></trkpt><trkpt lat="45.7093818" lon="9.0931356"><ele>314.0</ele><time>2026-04-24T14:19:42.974Z</time></trkpt><trkpt lat="45.7094643" lon="9.0932195"><ele>314.0</ele><time>2026-04-24T14:19:43.974Z</time></trkpt><trkpt lat="45.7095502" lon="9.0933266"><ele>314.0</ele><time>2026-04-24T14:19:44.974Z</time></trkpt><trkpt lat="45.7096352" lon="9.0934382"><ele>310.59999999999997</ele><time>2026-04-24T14:19:45.974Z</time></trkpt><trkpt lat="45.7097179" lon="9.0935425"><ele>307.2</ele><time>2026-04-24T14:19:46.975Z</time></trkpt><trkpt lat="45.7097898" lon="9.093646"><ele>303.79999999999995</ele><time>2026-04-24T14:19:47.974Z</time></trkpt><trkpt lat="45.709848" lon="9.0937579"><ele>300.4</ele><time>2026-04-24T14:19:48.974Z</time></trkpt><trkpt lat="45.7098793" lon="9.0938821"><ele>297.0</ele><time>2026-04-24T14:19:49.974Z</time></trkpt><trkpt lat="45.7098977" lon="9.0940179"><ele>296.8</ele><time>2026-04-24T14:19:50.974Z</time></trkpt><trkpt lat="45.7099058" lon="9.0941671"><ele>296.6</ele><time>2026-04-24T14:19:51.974Z</time></trkpt><trkpt lat="45.7099117" lon="9.0943131"><ele>296.40000000000003</ele><time>2026-04-24T14:19:52.974Z</time></trkpt><trkpt lat="45.7099232" lon="9.094455"><ele>296.2</ele><time>2026-04-24T14:19:53.974Z</time></trkpt><trkpt lat="45.7099492" lon="9.0945929"><ele>296.0</ele><time>2026-04-24T14:19:54.974Z</time></trkpt><trkpt lat="45.7099876" lon="9.094724"><ele>296.0</ele><time>2026-04-24T14:19:55.974Z</time></trkpt><trkpt lat="45.7100395" lon="9.0948428"><ele>296.0</ele><time>2026-04-24T14:19:56.974Z</time></trkpt><trkpt lat="45.7101104" lon="9.0949488"><ele>296.0</ele><time>2026-04-24T14:19:57.974Z</time></trkpt><trkpt lat="45.7101949" lon="9.095042"><ele>296.0</ele><time>2026-04-24T14:19:58.974Z</time></trkpt><trkpt lat="45.7102861" lon="9.0951091"><ele>296.0</ele><time>2026-04-24T14:19:59.974Z</time></trkpt><trkpt lat="45.7103857" lon="9.0951506"><ele>295.25</ele><time>2026-04-24T14:20:00.974Z</time></trkpt><trkpt lat="45.7104954" lon="9.0951738"><ele>294.5</ele><time>2026-04-24T14:20:01.975Z</time></trkpt><trkpt lat="45.7106024" lon="9.0952022"><ele>293.75</ele><time>2026-04-24T14:20:02.974Z</time></trkpt><trkpt lat="45.7107331" lon="9.0952122"><ele>293.0</ele><time>2026-04-24T14:20:03.974Z</time></trkpt><trkpt lat="45.7108749" lon="9.0951928"><ele>293.0</ele><time>2026-04-24T14:20:04.975Z</time></trkpt><trkpt lat="45.7110396" lon="9.0951815"><ele>293.0</ele><time>2026-04-24T14:20:05.974Z</time></trkpt><trkpt lat="45.7111942" lon="9.0951788"><ele>293.0</ele><time>2026-04-24T14:20:06.974Z</time></trkpt><trkpt lat="45.7113738" lon="9.09517"><ele>291.6666666666667</ele><time>2026-04-24T14:20:07.974Z</time></trkpt><trkpt lat="45.7115575" lon="9.0951645"><ele>290.3333333333333</ele><time>2026-04-24T14:20:08.975Z</time></trkpt><trkpt lat="45.7117476" lon="9.0951626"><ele>289.0</ele><time>2026-04-24T14:20:09.974Z</time></trkpt><trkpt lat="45.7119514" lon="9.0951567"><ele>288.3333333333333</ele><time>2026-04-24T14:20:10.974Z</time></trkpt><trkpt lat="45.7121478" lon="9.0951546"><ele>287.6666666666667</ele><time>2026-04-24T14:20:11.974Z</time></trkpt><trkpt lat="45.7123404" lon="9.0951542"><ele>287.0</ele><time>2026-04-24T14:20:12.973Z</time></trkpt><trkpt lat="45.7125281" lon="9.0951478"><ele>287.0</ele><time>2026-04-24T14:20:13.973Z</time></trkpt><trkpt lat="45.7127139" lon="9.0951468"><ele>287.0</ele><time>2026-04-24T14:20:14.973Z</time></trkpt><trkpt lat="45.712896" lon="9.0951463"><ele>287.0</ele><time>2026-04-24T14:20:15.973Z</time></trkpt><trkpt lat="45.713074" lon="9.0951467"><ele>287.0</ele><time>2026-04-24T14:20:16.973Z</time></trkpt><trkpt lat="45.7132414" lon="9.0951509"><ele>287.0</ele><time>2026-04-24T14:20:17.974Z</time></trkpt><trkpt lat="45.713401" lon="9.0951506"><ele>287.0</ele><time>2026-04-24T14:20:18.973Z</time></trkpt><trkpt lat="45.7135469" lon="9.0951497"><ele>285.5</ele><time>2026-04-24T14:20:19.973Z</time></trkpt><trkpt lat="45.7136715" lon="9.09515"><ele>284.0</ele><time>2026-04-24T14:20:20.973Z</time></trkpt><trkpt lat="45.7137935" lon="9.0951456"><ele>282.5</ele><time>2026-04-24T14:20:21.973Z</time></trkpt><trkpt lat="45.7139119" lon="9.0951428"><ele>281.0</ele><time>2026-04-24T14:20:22.973Z</time></trkpt><trkpt lat="45.7140291" lon="9.0951522"><ele>281.0</ele><time>2026-04-24T14:20:23.973Z</time></trkpt><trkpt lat="45.714134" lon="9.0951781"><ele>281.0</ele><time>2026-04-24T14:20:24.973Z</time></trkpt><trkpt lat="45.7142295" lon="9.0952348"><ele>281.0</ele><time>2026-04-24T14:20:25.973Z</time></trkpt><trkpt lat="45.7143098" lon="9.0953123"><ele>281.0</ele><time>2026-04-24T14:20:26.973Z</time></trkpt><trkpt lat="45.7143739" lon="9.0954062"><ele>281.0</ele><time>2026-04-24T14:20:27.973Z</time></trkpt><trkpt lat="45.7144226" lon="9.0955187"><ele>280.8</ele><time>2026-04-24T14:20:28.973Z</time></trkpt><trkpt lat="45.7144549" lon="9.0956557"><ele>280.6</ele><time>2026-04-24T14:20:29.973Z</time></trkpt><trkpt lat="45.7144631" lon="9.0957962"><ele>280.4</ele><time>2026-04-24T14:20:30.973Z</time></trkpt><trkpt lat="45.7144486" lon="9.0959335"><ele>280.2</ele><time>2026-04-24T14:20:31.973Z</time></trkpt><trkpt lat="45.7144122" lon="9.0960634"><ele>280.0</ele><time>2026-04-24T14:20:32.973Z</time></trkpt><trkpt lat="45.7143544" lon="9.0961803"><ele>276.75</ele><time>2026-04-24T14:20:33.973Z</time></trkpt><trkpt lat="45.7142777" lon="9.096279"><ele>273.5</ele><time>2026-04-24T14:20:34.973Z</time></trkpt><trkpt lat="45.714184" lon="9.0963567"><ele>270.25</ele><time>2026-04-24T14:20:35.973Z</time></trkpt><trkpt lat="45.714077" lon="9.0964117"><ele>267.0</ele><time>2026-04-24T14:20:36.973Z</time></trkpt><trkpt lat="45.7139552" lon="9.0964577"><ele>267.0</ele><time>2026-04-24T14:20:37.973Z</time></trkpt><trkpt lat="45.7138258" lon="9.0965038"><ele>267.0</ele><time>2026-04-24T14:20:38.973Z</time></trkpt><trkpt lat="45.7136893" lon="9.0965497"><ele>267.0</ele><time>2026-04-24T14:20:39.973Z</time></trkpt><trkpt lat="45.7135527" lon="9.0965948"><ele>267.0</ele><time>2026-04-24T14:20:40.973Z</time></trkpt><trkpt lat="45.713419" lon="9.0966381"><ele>266.5</ele><time>2026-04-24T14:20:41.973Z</time></trkpt><trkpt lat="45.7132874" lon="9.0966799"><ele>266.0</ele><time>2026-04-24T14:20:42.973Z</time></trkpt><trkpt lat="45.7131598" lon="9.0967325"><ele>265.5</ele><time>2026-04-24T14:20:43.973Z</time></trkpt><trkpt lat="45.7130401" lon="9.0968019"><ele>265.0</ele><time>2026-04-24T14:20:44.973Z</time></trkpt><trkpt lat="45.7129308" lon="9.0968903"><ele>265.0</ele><time>2026-04-24T14:20:45.973Z</time></trkpt><trkpt lat="45.7128322" lon="9.0969919"><ele>265.0</ele><time>2026-04-24T14:20:46.973Z</time></trkpt><trkpt lat="45.7127431" lon="9.0971074"><ele>265.0</ele><time>2026-04-24T14:20:47.973Z</time></trkpt><trkpt lat="45.7126681" lon="9.0972372"><ele>265.0</ele><time>2026-04-24T14:20:48.973Z</time></trkpt><trkpt lat="45.7126053" lon="9.097377"><ele>262.75</ele><time>2026-04-24T14:20:49.973Z</time></trkpt><trkpt lat="45.7125534" lon="9.0975329"><ele>260.5</ele><time>2026-04-24T14:20:50.973Z</time></trkpt><trkpt lat="45.7125139" lon="9.097697"><ele>258.25</ele><time>2026-04-24T14:20:51.973Z</time></trkpt><trkpt lat="45.712487" lon="9.0978655"><ele>256.0</ele><time>2026-04-24T14:20:52.973Z</time></trkpt><trkpt lat="45.7124772" lon="9.098039"><ele>256.0</ele><time>2026-04-24T14:20:53.973Z</time></trkpt><trkpt lat="45.7124869" lon="9.0982176"><ele>256.0</ele><time>2026-04-24T14:20:54.973Z</time></trkpt><trkpt lat="45.7125119" lon="9.0983856"><ele>256.0</ele><time>2026-04-24T14:20:55.973Z</time></trkpt><trkpt lat="45.7125524" lon="9.0985421"><ele>256.0</ele><time>2026-04-24T14:20:56.973Z</time></trkpt><trkpt lat="45.7126076" lon="9.0986846"><ele>255.0</ele><time>2026-04-24T14:20:57.973Z</time></trkpt><trkpt lat="45.7126824" lon="9.0988038"><ele>254.00000000000003</ele><time>2026-04-24T14:20:58.973Z</time></trkpt><trkpt lat="45.7127662" lon="9.0989048"><ele>253.00000000000003</ele><time>2026-04-24T14:20:59.973Z</time></trkpt><trkpt lat="45.7128578" lon="9.0989819"><ele>252.0</ele><time>2026-04-24T14:21:00.973Z</time></trkpt><trkpt lat="45.7129597" lon="9.0990334"><ele>251.0</ele><time>2026-04-24T14:21:01.973Z</time></trkpt><trkpt lat="45.713072" lon="9.0990645"><ele>251.0</ele><time>2026-04-24T14:21:02.973Z</time></trkpt><trkpt lat="45.7131925" lon="9.0990782"><ele>251.0</ele><time>2026-04-24T14:21:03.973Z</time></trkpt><trkpt lat="45.7133133" lon="9.0990862"><ele>251.0</ele><time>2026-04-24T14:21:04.973Z</time></trkpt><trkpt lat="45.713432" lon="9.0991013"><ele>251.0</ele><time>2026-04-24T14:21:05.973Z</time></trkpt><trkpt lat="45.7135466" lon="9.099131"><ele>250.60000000000002</ele><time>2026-04-24T14:21:06.973Z</time></trkpt><trkpt lat="45.7136572" lon="9.0991735"><ele>250.20000000000002</ele><time>2026-04-24T14:21:07.973Z</time></trkpt><trkpt lat="45.7137668" lon="9.099222"><ele>249.79999999999998</ele><time>2026-04-24T14:21:08.974Z</time></trkpt><trkpt lat="45.7138673" lon="9.0992685"><ele>249.39999999999998</ele><time>2026-04-24T14:21:09.973Z</time></trkpt><trkpt lat="45.7139526" lon="9.0993068"><ele>249.0</ele><time>2026-04-24T14:21:10.973Z</time></trkpt><trkpt lat="45.7140344" lon="9.0993441"><ele>249.0</ele><time>2026-04-24T14:21:11.973Z</time></trkpt><trkpt lat="45.7141249" lon="9.0993869"><ele>248.99999999999997</ele><time>2026-04-24T14:21:12.973Z</time></trkpt><trkpt lat="45.7142229" lon="9.0994346"><ele>248.99999999999997</ele><time>2026-04-24T14:21:13.973Z</time></trkpt><trkpt lat="45.714328" lon="9.099486"><ele>249.0</ele><time>2026-04-24T14:21:14.973Z</time></trkpt><trkpt lat="45.7144356" lon="9.0995386"><ele>249.0</ele><time>2026-04-24T14:21:15.973Z</time></trkpt><trkpt lat="45.7145486" lon="9.0995893"><ele>248.75</ele><time>2026-04-24T14:21:16.973Z</time></trkpt><trkpt lat="45.7146654" lon="9.0996357"><ele>248.5</ele><time>2026-04-24T14:21:17.974Z</time></trkpt><trkpt lat="45.7147907" lon="9.0996695"><ele>248.25</ele><time>2026-04-24T14:21:18.974Z</time></trkpt><trkpt lat="45.7149235" lon="9.099695"><ele>248.0</ele><time>2026-04-24T14:21:19.973Z</time></trkpt><trkpt lat="45.7150608" lon="9.0997177"><ele>248.0</ele><time>2026-04-24T14:21:20.973Z</time></trkpt><trkpt lat="45.715196" lon="9.0997369"><ele>248.0</ele><time>2026-04-24T14:21:21.973Z</time></trkpt><trkpt lat="45.7153249" lon="9.0997512"><ele>248.0</ele><time>2026-04-24T14:21:22.973Z</time></trkpt><trkpt lat="45.715447" lon="9.0997655"><ele>248.0</ele><time>2026-04-24T14:21:23.973Z</time></trkpt><trkpt lat="45.7155608" lon="9.0997764"><ele>248.33333333333334</ele><time>2026-04-24T14:21:24.973Z</time></trkpt><trkpt lat="45.7156599" lon="9.0997874"><ele>248.66666666666669</ele><time>2026-04-24T14:21:25.973Z</time></trkpt><trkpt lat="45.7157446" lon="9.0997976"><ele>249.0</ele><time>2026-04-24T14:21:26.973Z</time></trkpt><trkpt lat="45.7158159" lon="9.0998067"><ele>249.33333333333331</ele><time>2026-04-24T14:21:27.973Z</time></trkpt><trkpt lat="45.7159181" lon="9.0998217"><ele>249.66666666666666</ele><time>2026-04-24T14:21:29.973Z</time></trkpt><trkpt lat="45.7159866" lon="9.0998277"><ele>250.0</ele><time>2026-04-24T14:21:32.973Z</time></trkpt><trkpt lat="45.7160713" lon="9.0998301"><ele>250.16666666666666</ele><time>2026-04-24T14:22:09.973Z</time></trkpt><trkpt lat="45.716136" lon="9.0998289"><ele>250.33333333333331</ele><time>2026-04-24T14:22:10.973Z</time></trkpt><trkpt lat="45.7162188" lon="9.0998172"><ele>250.5</ele><time>2026-04-24T14:22:11.973Z</time></trkpt><trkpt lat="45.7163087" lon="9.0998004"><ele>250.66666666666669</ele><time>2026-04-24T14:22:12.973Z</time></trkpt><trkpt lat="45.7164009" lon="9.0997818"><ele>250.83333333333334</ele><time>2026-04-24T14:22:13.973Z</time></trkpt><trkpt lat="45.7165018" lon="9.0997773"><ele>251.0</ele><time>2026-04-24T14:22:14.974Z</time></trkpt><trkpt lat="45.7166068" lon="9.0997837"><ele>251.0</ele><time>2026-04-24T14:22:15.973Z</time></trkpt><trkpt lat="45.7167109" lon="9.0997961"><ele>251.0</ele><time>2026-04-24T14:22:16.973Z</time></trkpt><trkpt lat="45.7168339" lon="9.0998276"><ele>251.0</ele><time>2026-04-24T14:22:17.973Z</time></trkpt><trkpt lat="45.7169539" lon="9.0998669"><ele>251.0</ele><time>2026-04-24T14:22:18.973Z</time></trkpt><trkpt lat="45.7170768" lon="9.0998731"><ele>250.25</ele><time>2026-04-24T14:22:19.973Z</time></trkpt><trkpt lat="45.7172054" lon="9.0999097"><ele>249.5</ele><time>2026-04-24T14:22:20.973Z</time></trkpt><trkpt lat="45.7173288" lon="9.099942"><ele>248.75</ele><time>2026-04-24T14:22:21.973Z</time></trkpt><trkpt lat="45.7174581" lon="9.0999773"><ele>248.0</ele><time>2026-04-24T14:22:22.973Z</time></trkpt><trkpt lat="45.7175593" lon="9.0999982"><ele>248.0</ele><time>2026-04-24T14:22:23.974Z</time></trkpt><trkpt lat="45.7176608" lon="9.1000112"><ele>248.0</ele><time>2026-04-24T14:22:24.973Z</time></trkpt><trkpt lat="45.7177935" lon="9.1000893"><ele>248.0</ele><time>2026-04-24T14:22:25.975Z</time></trkpt><trkpt lat="45.7179115" lon="9.1001309"><ele>248.0</ele><time>2026-04-24T14:22:26.973Z</time></trkpt><trkpt lat="45.7180344" lon="9.1001923"><ele>248.0</ele><time>2026-04-24T14:22:27.973Z</time></trkpt><trkpt lat="45.7181488" lon="9.1002564"><ele>248.0</ele><time>2026-04-24T14:22:28.973Z</time></trkpt><trkpt lat="45.7182679" lon="9.1003253"><ele>248.0</ele><time>2026-04-24T14:22:29.973Z</time></trkpt><trkpt lat="45.7183897" lon="9.100396"><ele>248.0</ele><time>2026-04-24T14:22:30.973Z</time></trkpt><trkpt lat="45.7185127" lon="9.1004676"><ele>248.0</ele><time>2026-04-24T14:22:31.973Z</time></trkpt><trkpt lat="45.7186395" lon="9.1005405"><ele>248.0</ele><time>2026-04-24T14:22:32.973Z</time></trkpt><trkpt lat="45.7187661" lon="9.1006138"><ele>248.0</ele><time>2026-04-24T14:22:33.973Z</time></trkpt><trkpt lat="45.7188955" lon="9.1006886"><ele>248.0</ele><time>2026-04-24T14:22:34.973Z</time></trkpt><trkpt lat="45.7190267" lon="9.1007659"><ele>248.75</ele><time>2026-04-24T14:22:35.973Z</time></trkpt><trkpt lat="45.7191491" lon="9.1008379"><ele>249.5</ele><time>2026-04-24T14:22:36.973Z</time></trkpt><trkpt lat="45.7192703" lon="9.1009097"><ele>250.25</ele><time>2026-04-24T14:22:37.973Z</time></trkpt><trkpt lat="45.7193858" lon="9.10098"><ele>251.0</ele><time>2026-04-24T14:22:38.973Z</time></trkpt><trkpt lat="45.7194936" lon="9.1010468"><ele>251.0</ele><time>2026-04-24T14:22:39.973Z</time></trkpt><trkpt lat="45.7195948" lon="9.1011084"><ele>251.00000000000003</ele><time>2026-04-24T14:22:40.973Z</time></trkpt><trkpt lat="45.7196867" lon="9.1011595"><ele>251.00000000000003</ele><time>2026-04-24T14:22:41.973Z</time></trkpt><trkpt lat="45.7197659" lon="9.1012006"><ele>251.0</ele><time>2026-04-24T14:22:42.973Z</time></trkpt><trkpt lat="45.7198733" lon="9.1012577"><ele>251.0</ele><time>2026-04-24T14:22:44.973Z</time></trkpt><trkpt lat="45.7199598" lon="9.1013048"><ele>251.0</ele><time>2026-04-24T14:22:46.973Z</time></trkpt><trkpt lat="45.7200204" lon="9.1013625"><ele>251.00000000000003</ele><time>2026-04-24T14:22:49.973Z</time></trkpt><trkpt lat="45.7200848" lon="9.1014523"><ele>251.00000000000003</ele><time>2026-04-24T14:22:52.973Z</time></trkpt><trkpt lat="45.7201792" lon="9.1015603"><ele>251.0</ele><time>2026-04-24T14:22:54.973Z</time></trkpt><trkpt lat="45.7202421" lon="9.1016411"><ele>251.0</ele><time>2026-04-24T14:22:55.973Z</time></trkpt><trkpt lat="45.7203131" lon="9.101738"><ele>252.20000000000002</ele><time>2026-04-24T14:22:56.974Z</time></trkpt><trkpt lat="45.7203875" lon="9.1018421"><ele>253.40000000000003</ele><time>2026-04-24T14:22:57.973Z</time></trkpt><trkpt lat="45.720468" lon="9.1019556"><ele>254.6</ele><time>2026-04-24T14:22:58.973Z</time></trkpt><trkpt lat="45.720553" lon="9.102077"><ele>255.8</ele><time>2026-04-24T14:22:59.973Z</time></trkpt><trkpt lat="45.720632" lon="9.1021904"><ele>257.0</ele><time>2026-04-24T14:23:00.973Z</time></trkpt><trkpt lat="45.7207111" lon="9.1023034"><ele>258.25</ele><time>2026-04-24T14:23:01.973Z</time></trkpt><trkpt lat="45.7207908" lon="9.1024183"><ele>259.5</ele><time>2026-04-24T14:23:02.973Z</time></trkpt><trkpt lat="45.7208682" lon="9.1025289"><ele>260.75</ele><time>2026-04-24T14:23:03.973Z</time></trkpt><trkpt lat="45.720954" lon="9.1026513"><ele>262.0</ele><time>2026-04-24T14:23:04.973Z</time></trkpt><trkpt lat="45.7210387" lon="9.1027733"><ele>261.75</ele><time>2026-04-24T14:23:05.973Z</time></trkpt><trkpt lat="45.7211262" lon="9.1028998"><ele>261.5</ele><time>2026-04-24T14:23:06.973Z</time></trkpt><trkpt lat="45.7212165" lon="9.103027"><ele>261.25</ele><time>2026-04-24T14:23:07.973Z</time></trkpt><trkpt lat="45.7213115" lon="9.1031534"><ele>261.0</ele><time>2026-04-24T14:23:08.973Z</time></trkpt><trkpt lat="45.7214122" lon="9.1032708"><ele>261.0</ele><time>2026-04-24T14:23:09.973Z</time></trkpt><trkpt lat="45.7215214" lon="9.1033799"><ele>261.0</ele><time>2026-04-24T14:23:10.973Z</time></trkpt><trkpt lat="45.7216313" lon="9.1034777"><ele>261.0</ele><time>2026-04-24T14:23:11.973Z</time></trkpt><trkpt lat="45.721753" lon="9.1035792"><ele>261.0</ele><time>2026-04-24T14:23:12.973Z</time></trkpt><trkpt lat="45.7218722" lon="9.1036748"><ele>263.0</ele><time>2026-04-24T14:23:13.973Z</time></trkpt><trkpt lat="45.721995" lon="9.1037705"><ele>265.0</ele><time>2026-04-24T14:23:14.973Z</time></trkpt><trkpt lat="45.7221188" lon="9.1038645"><ele>267.0</ele><time>2026-04-24T14:23:15.973Z</time></trkpt><trkpt lat="45.7222433" lon="9.10396"><ele>269.0</ele><time>2026-04-24T14:23:16.973Z</time></trkpt><trkpt lat="45.7223672" lon="9.1040533"><ele>268.25</ele><time>2026-04-24T14:23:17.973Z</time></trkpt><trkpt lat="45.7224932" lon="9.1041491"><ele>267.5</ele><time>2026-04-24T14:23:18.973Z</time></trkpt><trkpt lat="45.7226134" lon="9.1042407"><ele>266.75</ele><time>2026-04-24T14:23:19.973Z</time></trkpt><trkpt lat="45.7227437" lon="9.1043415"><ele>266.0</ele><time>2026-04-24T14:23:20.973Z</time></trkpt><trkpt lat="45.7228695" lon="9.10444"><ele>266.0</ele><time>2026-04-24T14:23:21.973Z</time></trkpt><trkpt lat="45.7229959" lon="9.1045417"><ele>266.0</ele><time>2026-04-24T14:23:22.973Z</time></trkpt><trkpt lat="45.7231171" lon="9.1046497"><ele>266.0</ele><time>2026-04-24T14:23:23.973Z</time></trkpt><trkpt lat="45.7232316" lon="9.1047694"><ele>266.0</ele><time>2026-04-24T14:23:24.973Z</time></trkpt><trkpt lat="45.7233383" lon="9.1049001"><ele>267.75</ele><time>2026-04-24T14:23:25.973Z</time></trkpt><trkpt lat="45.7234437" lon="9.1050459"><ele>269.5</ele><time>2026-04-24T14:23:26.973Z</time></trkpt><trkpt lat="45.7235428" lon="9.1051895"><ele>271.25</ele><time>2026-04-24T14:23:27.973Z</time></trkpt><trkpt lat="45.7236499" lon="9.1053346"><ele>273.0</ele><time>2026-04-24T14:23:28.973Z</time></trkpt><trkpt lat="45.7237584" lon="9.1054566"><ele>273.0</ele><time>2026-04-24T14:23:29.973Z</time></trkpt><trkpt lat="45.7238741" lon="9.1055645"><ele>273.0</ele><time>2026-04-24T14:23:30.973Z</time></trkpt><trkpt lat="45.723997" lon="9.1056648"><ele>273.0</ele><time>2026-04-24T14:23:31.973Z</time></trkpt><trkpt lat="45.724124" lon="9.1057649"><ele>273.0</ele><time>2026-04-24T14:23:32.973Z</time></trkpt><trkpt lat="45.7242515" lon="9.1058675"><ele>274.6666666666667</ele><time>2026-04-24T14:23:33.973Z</time></trkpt><trkpt lat="45.7243798" lon="9.1059744"><ele>276.33333333333337</ele><time>2026-04-24T14:23:34.973Z</time></trkpt><trkpt lat="45.7245088" lon="9.1060783"><ele>278.0</ele><time>2026-04-24T14:23:35.973Z</time></trkpt><trkpt lat="45.724651" lon="9.1061928"><ele>278.6666666666667</ele><time>2026-04-24T14:23:36.973Z</time></trkpt><trkpt lat="45.72479" lon="9.1063068"><ele>279.3333333333333</ele><time>2026-04-24T14:23:37.973Z</time></trkpt><trkpt lat="45.7249328" lon="9.1064249"><ele>280.0</ele><time>2026-04-24T14:23:38.973Z</time></trkpt><trkpt lat="45.7250816" lon="9.1065467"><ele>282.3333333333333</ele><time>2026-04-24T14:23:39.973Z</time></trkpt><trkpt lat="45.7252256" lon="9.1066623"><ele>284.6666666666667</ele><time>2026-04-24T14:23:40.972Z</time></trkpt><trkpt lat="45.7253722" lon="9.1067804"><ele>287.0</ele><time>2026-04-24T14:23:41.972Z</time></trkpt><trkpt lat="45.7255044" lon="9.1068856"><ele>287.0</ele><time>2026-04-24T14:23:42.972Z</time></trkpt><trkpt lat="45.7256449" lon="9.1069902"><ele>287.0</ele><time>2026-04-24T14:23:43.972Z</time></trkpt><trkpt lat="45.725766" lon="9.1070941"><ele>287.0</ele><time>2026-04-24T14:23:44.972Z</time></trkpt><trkpt lat="45.7258751" lon="9.1071973"><ele>287.0</ele><time>2026-04-24T14:23:45.972Z</time></trkpt><trkpt lat="45.7259798" lon="9.1072987"><ele>286.75</ele><time>2026-04-24T14:23:46.973Z</time></trkpt><trkpt lat="45.7260946" lon="9.1073946"><ele>286.5</ele><time>2026-04-24T14:23:47.972Z</time></trkpt><trkpt lat="45.726207" lon="9.1074706"><ele>286.25</ele><time>2026-04-24T14:23:48.973Z</time></trkpt><trkpt lat="45.7263145" lon="9.1075329"><ele>286.0</ele><time>2026-04-24T14:23:49.972Z</time></trkpt><trkpt lat="45.7264341" lon="9.1075812"><ele>287.6</ele><time>2026-04-24T14:23:50.972Z</time></trkpt><trkpt lat="45.7265457" lon="9.1076071"><ele>289.20000000000005</ele><time>2026-04-24T14:23:51.972Z</time></trkpt><trkpt lat="45.7266562" lon="9.1076133"><ele>290.79999999999995</ele><time>2026-04-24T14:23:52.973Z</time></trkpt><trkpt lat="45.7267473" lon="9.1075654"><ele>292.4</ele><time>2026-04-24T14:23:53.972Z</time></trkpt><trkpt lat="45.7268393" lon="9.1075039"><ele>294.0</ele><time>2026-04-24T14:23:54.972Z</time></trkpt><trkpt lat="45.7269248" lon="9.1074155"><ele>294.0</ele><time>2026-04-24T14:23:55.972Z</time></trkpt><trkpt lat="45.7269928" lon="9.1073056"><ele>294.0</ele><time>2026-04-24T14:23:56.972Z</time></trkpt><trkpt lat="45.7270563" lon="9.1071729"><ele>294.0</ele><time>2026-04-24T14:23:57.972Z</time></trkpt><trkpt lat="45.7271255" lon="9.1070209"><ele>294.0</ele><time>2026-04-24T14:23:58.972Z</time></trkpt><trkpt lat="45.7271984" lon="9.1068679"><ele>294.0</ele><time>2026-04-24T14:23:59.972Z</time></trkpt><trkpt lat="45.7272757" lon="9.1067073"><ele>294.0</ele><time>2026-04-24T14:24:00.972Z</time></trkpt><trkpt lat="45.7273495" lon="9.1065616"><ele>294.0</ele><time>2026-04-24T14:24:01.972Z</time></trkpt><trkpt lat="45.7274265" lon="9.1064347"><ele>294.0</ele><time>2026-04-24T14:24:02.972Z</time></trkpt><trkpt lat="45.7275103" lon="9.1063342"><ele>294.2</ele><time>2026-04-24T14:24:03.973Z</time></trkpt><trkpt lat="45.7276007" lon="9.1062627"><ele>294.4</ele><time>2026-04-24T14:24:04.972Z</time></trkpt><trkpt lat="45.7276993" lon="9.106221"><ele>294.6</ele><time>2026-04-24T14:24:05.972Z</time></trkpt><trkpt lat="45.7278058" lon="9.1062068"><ele>294.8</ele><time>2026-04-24T14:24:06.972Z</time></trkpt><trkpt lat="45.7279177" lon="9.106216"><ele>295.0</ele><time>2026-04-24T14:24:07.972Z</time></trkpt><trkpt lat="45.7280435" lon="9.1062464"><ele>295.0</ele><time>2026-04-24T14:24:08.972Z</time></trkpt><trkpt lat="45.7281674" lon="9.1062906"><ele>295.0</ele><time>2026-04-24T14:24:09.972Z</time></trkpt><trkpt lat="45.7282716" lon="9.1063383"><ele>295.0</ele><time>2026-04-24T14:24:10.972Z</time></trkpt><trkpt lat="45.7283606" lon="9.1064089"><ele>295.0</ele><time>2026-04-24T14:24:11.972Z</time></trkpt><trkpt lat="45.7284367" lon="9.1065012"><ele>295.0</ele><time>2026-04-24T14:24:12.972Z</time></trkpt><trkpt lat="45.7284991" lon="9.1066082"><ele>296.5</ele><time>2026-04-24T14:24:13.972Z</time></trkpt><trkpt lat="45.7285882" lon="9.1067377"><ele>298.0</ele><time>2026-04-24T14:24:14.972Z</time></trkpt><trkpt lat="45.7286375" lon="9.1068837"><ele>299.5</ele><time>2026-04-24T14:24:15.972Z</time></trkpt><trkpt lat="45.7286764" lon="9.1070516"><ele>301.0</ele><time>2026-04-24T14:24:16.972Z</time></trkpt><trkpt lat="45.728709" lon="9.1072311"><ele>300.75</ele><time>2026-04-24T14:24:17.972Z</time></trkpt><trkpt lat="45.72874" lon="9.1074155"><ele>300.5</ele><time>2026-04-24T14:24:18.972Z</time></trkpt><trkpt lat="45.7287713" lon="9.1076004"><ele>300.25</ele><time>2026-04-24T14:24:19.972Z</time></trkpt><trkpt lat="45.7288023" lon="9.107778"><ele>300.0</ele><time>2026-04-24T14:24:20.972Z</time></trkpt><trkpt lat="45.7288319" lon="9.1079473"><ele>300.0</ele><time>2026-04-24T14:24:21.972Z</time></trkpt><trkpt lat="45.7288623" lon="9.1081015"><ele>300.0</ele><time>2026-04-24T14:24:22.972Z</time></trkpt><trkpt lat="45.7288911" lon="9.108232"><ele>300.0</ele><time>2026-04-24T14:24:23.972Z</time></trkpt><trkpt lat="45.728915" lon="9.1083425"><ele>300.0</ele><time>2026-04-24T14:24:24.972Z</time></trkpt><trkpt lat="45.7289395" lon="9.1084674"><ele>300.0</ele><time>2026-04-24T14:24:26.972Z</time></trkpt><trkpt lat="45.7289583" lon="9.1085781"><ele>300.3333333333333</ele><time>2026-04-24T14:24:29.972Z</time></trkpt><trkpt lat="45.7289703" lon="9.1087056"><ele>300.6666666666667</ele><time>2026-04-24T14:24:31.972Z</time></trkpt><trkpt lat="45.7290129" lon="9.1088333"><ele>301.0</ele><time>2026-04-24T14:24:33.972Z</time></trkpt><trkpt lat="45.7290921" lon="9.1088868"><ele>301.33333333333337</ele><time>2026-04-24T14:24:34.972Z</time></trkpt><trkpt lat="45.7291938" lon="9.1088867"><ele>301.6666666666667</ele><time>2026-04-24T14:24:36.972Z</time></trkpt><trkpt lat="45.7292516" lon="9.1088489"><ele>302.0</ele><time>2026-04-24T14:24:37.972Z</time></trkpt><trkpt lat="45.7293131" lon="9.1087943"><ele>302.0</ele><time>2026-04-24T14:24:38.972Z</time></trkpt><trkpt lat="45.7293844" lon="9.1087445"><ele>302.0</ele><time>2026-04-24T14:24:39.972Z</time></trkpt><trkpt lat="45.7294686" lon="9.1086982"><ele>302.0</ele><time>2026-04-24T14:24:40.972Z</time></trkpt><trkpt lat="45.7295704" lon="9.1086639"><ele>302.0</ele><time>2026-04-24T14:24:41.972Z</time></trkpt><trkpt lat="45.7296812" lon="9.1086348"><ele>302.0</ele><time>2026-04-24T14:24:42.972Z</time></trkpt><trkpt lat="45.7298079" lon="9.1086082"><ele>301.25</ele><time>2026-04-24T14:24:43.972Z</time></trkpt><trkpt lat="45.7299381" lon="9.1085767"><ele>300.5</ele><time>2026-04-24T14:24:44.972Z</time></trkpt><trkpt lat="45.7300678" lon="9.1085496"><ele>299.75</ele><time>2026-04-24T14:24:45.972Z</time></trkpt><trkpt lat="45.7302026" lon="9.1085172"><ele>299.0</ele><time>2026-04-24T14:24:46.972Z</time></trkpt><trkpt lat="45.7303364" lon="9.1084818"><ele>298.75</ele><time>2026-04-24T14:24:47.972Z</time></trkpt><trkpt lat="45.7304659" lon="9.1084533"><ele>298.5</ele><time>2026-04-24T14:24:48.972Z</time></trkpt><trkpt lat="45.7305993" lon="9.1084393"><ele>298.25</ele><time>2026-04-24T14:24:49.972Z</time></trkpt><trkpt lat="45.7307307" lon="9.1084272"><ele>298.0</ele><time>2026-04-24T14:24:50.972Z</time></trkpt><trkpt lat="45.7308655" lon="9.1084394"><ele>298.0</ele><time>2026-04-24T14:24:51.972Z</time></trkpt><trkpt lat="45.7309969" lon="9.10846"><ele>298.0</ele><time>2026-04-24T14:24:52.972Z</time></trkpt><trkpt lat="45.7311306" lon="9.1085058"><ele>298.0</ele><time>2026-04-24T14:24:53.972Z</time></trkpt><trkpt lat="45.7312649" lon="9.1085621"><ele>298.0</ele><time>2026-04-24T14:24:54.972Z</time></trkpt><trkpt lat="45.7314007" lon="9.1086296"><ele>297.0</ele><time>2026-04-24T14:24:55.972Z</time></trkpt><trkpt lat="45.7315371" lon="9.1087054"><ele>296.0</ele><time>2026-04-24T14:24:56.972Z</time></trkpt><trkpt lat="45.7316758" lon="9.1087851"><ele>295.0</ele><time>2026-04-24T14:24:57.972Z</time></trkpt><trkpt lat="45.7318127" lon="9.1088612"><ele>294.0</ele><time>2026-04-24T14:24:58.972Z</time></trkpt><trkpt lat="45.731944" lon="9.1089434"><ele>293.75</ele><time>2026-04-24T14:24:59.972Z</time></trkpt><trkpt lat="45.7320765" lon="9.1090295"><ele>293.5</ele><time>2026-04-24T14:25:00.972Z</time></trkpt><trkpt lat="45.7322015" lon="9.109124"><ele>293.25</ele><time>2026-04-24T14:25:01.972Z</time></trkpt><trkpt lat="45.7323216" lon="9.1092271"><ele>293.0</ele><time>2026-04-24T14:25:02.972Z</time></trkpt><trkpt lat="45.7324392" lon="9.1093374"><ele>293.75</ele><time>2026-04-24T14:25:03.972Z</time></trkpt><trkpt lat="45.732552" lon="9.1094566"><ele>294.5</ele><time>2026-04-24T14:25:04.973Z</time></trkpt><trkpt lat="45.7326632" lon="9.1095797"><ele>295.25</ele><time>2026-04-24T14:25:05.972Z</time></trkpt><trkpt lat="45.7327712" lon="9.1097084"><ele>296.0</ele><time>2026-04-24T14:25:06.972Z</time></trkpt><trkpt lat="45.7328773" lon="9.1098392"><ele>296.75</ele><time>2026-04-24T14:25:07.972Z</time></trkpt><trkpt lat="45.7329814" lon="9.1099676"><ele>297.5</ele><time>2026-04-24T14:25:08.972Z</time></trkpt><trkpt lat="45.7330811" lon="9.1100942"><ele>298.25</ele><time>2026-04-24T14:25:09.972Z</time></trkpt><trkpt lat="45.7331763" lon="9.1102189"><ele>299.0</ele><time>2026-04-24T14:25:10.972Z</time></trkpt><trkpt lat="45.7332684" lon="9.1103402"><ele>299.0</ele><time>2026-04-24T14:25:11.973Z</time></trkpt><trkpt lat="45.7333597" lon="9.110457"><ele>299.0</ele><time>2026-04-24T14:25:12.972Z</time></trkpt><trkpt lat="45.7334511" lon="9.1105693"><ele>299.0</ele><time>2026-04-24T14:25:13.972Z</time></trkpt><trkpt lat="45.7335413" lon="9.1106783"><ele>299.0</ele><time>2026-04-24T14:25:14.972Z</time></trkpt><trkpt lat="45.7336283" lon="9.1107889"><ele>298.59999999999997</ele><time>2026-04-24T14:25:15.972Z</time></trkpt><trkpt lat="45.7337123" lon="9.110895"><ele>298.2</ele><time>2026-04-24T14:25:16.972Z</time></trkpt><trkpt lat="45.7337932" lon="9.1109949"><ele>297.79999999999995</ele><time>2026-04-24T14:25:17.972Z</time></trkpt><trkpt lat="45.7338684" lon="9.1110872"><ele>297.4</ele><time>2026-04-24T14:25:18.972Z</time></trkpt><trkpt lat="45.7339381" lon="9.1111756"><ele>297.0</ele><time>2026-04-24T14:25:19.972Z</time></trkpt><trkpt lat="45.7340037" lon="9.1112624"><ele>297.0</ele><time>2026-04-24T14:25:20.972Z</time></trkpt><trkpt lat="45.7340652" lon="9.1113471"><ele>297.0</ele><time>2026-04-24T14:25:21.972Z</time></trkpt><trkpt lat="45.7341188" lon="9.1114318"><ele>297.0</ele><time>2026-04-24T14:25:22.972Z</time></trkpt><trkpt lat="45.7341612" lon="9.111515"><ele>297.0</ele><time>2026-04-24T14:25:23.972Z</time></trkpt><trkpt lat="45.7341974" lon="9.1116032"><ele>297.0</ele><time>2026-04-24T14:25:24.972Z</time></trkpt><trkpt lat="45.7342319" lon="9.1116948"><ele>297.0</ele><time>2026-04-24T14:25:25.972Z</time></trkpt><trkpt lat="45.7342665" lon="9.1117784"><ele>297.0</ele><time>2026-04-24T14:25:26.973Z</time></trkpt><trkpt lat="45.7343099" lon="9.1118516"><ele>296.8333333333333</ele><time>2026-04-24T14:25:27.972Z</time></trkpt><trkpt lat="45.7343623" lon="9.1119106"><ele>296.6666666666667</ele><time>2026-04-24T14:25:28.972Z</time></trkpt><trkpt lat="45.7344256" lon="9.1119602"><ele>296.5</ele><time>2026-04-24T14:25:29.972Z</time></trkpt><trkpt lat="45.7345004" lon="9.1119981"><ele>296.33333333333337</ele><time>2026-04-24T14:25:30.972Z</time></trkpt><trkpt lat="45.7345836" lon="9.1120454"><ele>296.1666666666667</ele><time>2026-04-24T14:25:31.972Z</time></trkpt><trkpt lat="45.73467" lon="9.1121115"><ele>296.0</ele><time>2026-04-24T14:25:32.972Z</time></trkpt><trkpt lat="45.7347612" lon="9.1121952"><ele>296.0</ele><time>2026-04-24T14:25:33.972Z</time></trkpt><trkpt lat="45.7348585" lon="9.1122909"><ele>296.0</ele><time>2026-04-24T14:25:34.972Z</time></trkpt><trkpt lat="45.7349614" lon="9.1123981"><ele>296.0</ele><time>2026-04-24T14:25:35.972Z</time></trkpt><trkpt lat="45.735072" lon="9.1125147"><ele>296.0</ele><time>2026-04-24T14:25:36.972Z</time></trkpt><trkpt lat="45.7351804" lon="9.1126293"><ele>296.25</ele><time>2026-04-24T14:25:37.972Z</time></trkpt><trkpt lat="45.7352874" lon="9.112743"><ele>296.5</ele><time>2026-04-24T14:25:38.972Z</time></trkpt><trkpt lat="45.7353923" lon="9.1128555"><ele>296.75</ele><time>2026-04-24T14:25:39.972Z</time></trkpt><trkpt lat="45.7354958" lon="9.1129647"><ele>297.0</ele><time>2026-04-24T14:25:40.972Z</time></trkpt><trkpt lat="45.7355987" lon="9.1130737"><ele>297.0</ele><time>2026-04-24T14:25:41.972Z</time></trkpt><trkpt lat="45.7357009" lon="9.1131845"><ele>297.0</ele><time>2026-04-24T14:25:42.972Z</time></trkpt><trkpt lat="45.7358027" lon="9.113303"><ele>297.0</ele><time>2026-04-24T14:25:43.972Z</time></trkpt><trkpt lat="45.7359022" lon="9.1134292"><ele>297.0</ele><time>2026-04-24T14:25:44.972Z</time></trkpt><trkpt lat="45.7360002" lon="9.1135622"><ele>297.25</ele><time>2026-04-24T14:25:45.972Z</time></trkpt><trkpt lat="45.7360987" lon="9.1137004"><ele>297.5</ele><time>2026-04-24T14:25:46.972Z</time></trkpt><trkpt lat="45.736193" lon="9.1138359"><ele>297.75</ele><time>2026-04-24T14:25:47.972Z</time></trkpt><trkpt lat="45.7362789" lon="9.1139644"><ele>298.0</ele><time>2026-04-24T14:25:48.972Z</time></trkpt><trkpt lat="45.7363617" lon="9.1140911"><ele>298.75</ele><time>2026-04-24T14:25:49.972Z</time></trkpt><trkpt lat="45.7364417" lon="9.1142142"><ele>299.5</ele><time>2026-04-24T14:25:50.972Z</time></trkpt><trkpt lat="45.7365217" lon="9.114335"><ele>300.25</ele><time>2026-04-24T14:25:51.972Z</time></trkpt><trkpt lat="45.7366017" lon="9.1144576"><ele>301.0</ele><time>2026-04-24T14:25:52.973Z</time></trkpt><trkpt lat="45.7366806" lon="9.1145834"><ele>301.0</ele><time>2026-04-24T14:25:53.972Z</time></trkpt><trkpt lat="45.7367608" lon="9.1147106"><ele>301.0</ele><time>2026-04-24T14:25:54.972Z</time></trkpt><trkpt lat="45.7368419" lon="9.1148403"><ele>301.0</ele><time>2026-04-24T14:25:55.972Z</time></trkpt><trkpt lat="45.7369251" lon="9.1149702"><ele>301.0</ele><time>2026-04-24T14:25:56.972Z</time></trkpt><trkpt lat="45.7370117" lon="9.1151012"><ele>301.25</ele><time>2026-04-24T14:25:57.972Z</time></trkpt><trkpt lat="45.7371027" lon="9.1152345"><ele>301.5</ele><time>2026-04-24T14:25:58.972Z</time></trkpt><trkpt lat="45.7371992" lon="9.1153665"><ele>301.75</ele><time>2026-04-24T14:25:59.972Z</time></trkpt><trkpt lat="45.7372978" lon="9.1154922"><ele>302.0</ele><time>2026-04-24T14:26:00.972Z</time></trkpt><trkpt lat="45.7373993" lon="9.1156144"><ele>302.0</ele><time>2026-04-24T14:26:01.972Z</time></trkpt><trkpt lat="45.7375019" lon="9.1157341"><ele>302.0</ele><time>2026-04-24T14:26:02.973Z</time></trkpt><trkpt lat="45.7376056" lon="9.1158517"><ele>302.0</ele><time>2026-04-24T14:26:03.972Z</time></trkpt><trkpt lat="45.7377095" lon="9.1159648"><ele>302.0</ele><time>2026-04-24T14:26:04.972Z</time></trkpt><trkpt lat="45.7378149" lon="9.1160739"><ele>302.25</ele><time>2026-04-24T14:26:05.972Z</time></trkpt><trkpt lat="45.7379204" lon="9.1161789"><ele>302.5</ele><time>2026-04-24T14:26:06.972Z</time></trkpt><trkpt lat="45.7380254" lon="9.1162794"><ele>302.75</ele><time>2026-04-24T14:26:07.973Z</time></trkpt><trkpt lat="45.7381289" lon="9.1163786"><ele>303.0</ele><time>2026-04-24T14:26:08.972Z</time></trkpt><trkpt lat="45.7382325" lon="9.1164754"><ele>303.0</ele><time>2026-04-24T14:26:09.972Z</time></trkpt><trkpt lat="45.7383355" lon="9.1165725"><ele>303.0</ele><time>2026-04-24T14:26:10.972Z</time></trkpt><trkpt lat="45.73844" lon="9.1166703"><ele>303.0</ele><time>2026-04-24T14:26:11.973Z</time></trkpt><trkpt lat="45.7385449" lon="9.1167691"><ele>303.0</ele><time>2026-04-24T14:26:12.972Z</time></trkpt><trkpt lat="45.7386508" lon="9.1168694"><ele>303.5</ele><time>2026-04-24T14:26:13.972Z</time></trkpt><trkpt lat="45.7387573" lon="9.1169695"><ele>304.0</ele><time>2026-04-24T14:26:14.972Z</time></trkpt><trkpt lat="45.7388645" lon="9.1170681"><ele>304.5</ele><time>2026-04-24T14:26:15.972Z</time></trkpt><trkpt lat="45.7389704" lon="9.1171655"><ele>305.0</ele><time>2026-04-24T14:26:16.972Z</time></trkpt><trkpt lat="45.7390741" lon="9.1172632"><ele>305.0</ele><time>2026-04-24T14:26:17.972Z</time></trkpt><trkpt lat="45.7391756" lon="9.1173596"><ele>305.0</ele><time>2026-04-24T14:26:18.972Z</time></trkpt><trkpt lat="45.7392774" lon="9.1174543"><ele>305.0</ele><time>2026-04-24T14:26:19.972Z</time></trkpt><trkpt lat="45.739377" lon="9.1175465"><ele>305.0</ele><time>2026-04-24T14:26:20.972Z</time></trkpt><trkpt lat="45.7394753" lon="9.117637"><ele>305.0</ele><time>2026-04-24T14:26:21.973Z</time></trkpt><trkpt lat="45.7395725" lon="9.117726"><ele>305.0</ele><time>2026-04-24T14:26:22.972Z</time></trkpt><trkpt lat="45.7396681" lon="9.1178162"><ele>305.0</ele><time>2026-04-24T14:26:23.972Z</time></trkpt><trkpt lat="45.7397626" lon="9.1179051"><ele>305.0</ele><time>2026-04-24T14:26:24.972Z</time></trkpt><trkpt lat="45.739858" lon="9.1179931"><ele>305.0</ele><time>2026-04-24T14:26:25.972Z</time></trkpt><trkpt lat="45.7399535" lon="9.1180825"><ele>305.0</ele><time>2026-04-24T14:26:26.972Z</time></trkpt><trkpt lat="45.7400483" lon="9.1181733"><ele>305.0</ele><time>2026-04-24T14:26:27.972Z</time></trkpt><trkpt lat="45.7401452" lon="9.1182636"><ele>305.0</ele><time>2026-04-24T14:26:28.972Z</time></trkpt><trkpt lat="45.7402426" lon="9.1183523"><ele>305.8</ele><time>2026-04-24T14:26:29.972Z</time></trkpt><trkpt lat="45.740339" lon="9.1184396"><ele>306.6</ele><time>2026-04-24T14:26:30.972Z</time></trkpt><trkpt lat="45.7404333" lon="9.1185236"><ele>307.4</ele><time>2026-04-24T14:26:31.973Z</time></trkpt><trkpt lat="45.7405215" lon="9.1186031"><ele>308.2</ele><time>2026-04-24T14:26:32.972Z</time></trkpt><trkpt lat="45.7406029" lon="9.118682"><ele>309.0</ele><time>2026-04-24T14:26:33.972Z</time></trkpt><trkpt lat="45.7406784" lon="9.1187605"><ele>309.0</ele><time>2026-04-24T14:26:34.972Z</time></trkpt><trkpt lat="45.7407442" lon="9.118829"><ele>309.0</ele><time>2026-04-24T14:26:35.972Z</time></trkpt><trkpt lat="45.7407994" lon="9.1188936"><ele>309.0</ele><time>2026-04-24T14:26:36.972Z</time></trkpt><trkpt lat="45.7408482" lon="9.1189583"><ele>309.0</ele><time>2026-04-24T14:26:37.972Z</time></trkpt><trkpt lat="45.7409262" lon="9.1190986"><ele>309.0</ele><time>2026-04-24T14:26:39.972Z</time></trkpt><trkpt lat="45.7409684" lon="9.1192572"><ele>309.0</ele><time>2026-04-24T14:26:41.972Z</time></trkpt><trkpt lat="45.7409754" lon="9.1194187"><ele>309.0</ele><time>2026-04-24T14:26:43.972Z</time></trkpt><trkpt lat="45.7409689" lon="9.1195345"><ele>309.0</ele><time>2026-04-24T14:26:45.972Z</time></trkpt><trkpt lat="45.7409558" lon="9.1196266"><ele>309.0</ele><time>2026-04-24T14:26:48.972Z</time></trkpt><trkpt lat="45.740938" lon="9.1197148"><ele>309.0</ele><time>2026-04-24T14:26:51.972Z</time></trkpt><trkpt lat="45.7409208" lon="9.1198078"><ele>309.0</ele><time>2026-04-24T14:26:53.972Z</time></trkpt><trkpt lat="45.7409026" lon="9.1199079"><ele>309.0</ele><time>2026-04-24T14:26:55.973Z</time></trkpt><trkpt lat="45.7408867" lon="9.1200122"><ele>309.0</ele><time>2026-04-24T14:26:57.972Z</time></trkpt><trkpt lat="45.7408688" lon="9.1201351"><ele>309.0</ele><time>2026-04-24T14:26:59.972Z</time></trkpt><trkpt lat="45.7408445" lon="9.1202688"><ele>309.0</ele><time>2026-04-24T14:27:01.972Z</time></trkpt><trkpt lat="45.740815" lon="9.1204122"><ele>309.0</ele><time>2026-04-24T14:27:03.972Z</time></trkpt><trkpt lat="45.7407958" lon="9.120539"><ele>309.0</ele><time>2026-04-24T14:27:05.971Z</time></trkpt><trkpt lat="45.7407855" lon="9.1206344"><ele>309.0</ele><time>2026-04-24T14:27:08.971Z</time></trkpt><trkpt lat="45.7407825" lon="9.1207318"><ele>309.0</ele><time>2026-04-24T14:27:21.972Z</time></trkpt><trkpt lat="45.7407639" lon="9.1208317"><ele>309.0</ele><time>2026-04-24T14:27:34.972Z</time></trkpt><trkpt lat="45.7407342" lon="9.1209754"><ele>309.0</ele><time>2026-04-24T14:27:37.971Z</time></trkpt><trkpt lat="45.740706" lon="9.1211297"><ele>309.0</ele><time>2026-04-24T14:27:39.971Z</time></trkpt><trkpt lat="45.7406756" lon="9.1213075"><ele>309.1666666666667</ele><time>2026-04-24T14:27:41.971Z</time></trkpt><trkpt lat="45.7406629" lon="9.1213983"><ele>309.3333333333333</ele><time>2026-04-24T14:27:42.971Z</time></trkpt><trkpt lat="45.7406338" lon="9.1215536"><ele>309.5</ele><time>2026-04-24T14:27:44.971Z</time></trkpt><trkpt lat="45.7406134" lon="9.1216811"><ele>309.66666666666663</ele><time>2026-04-24T14:27:46.971Z</time></trkpt><trkpt lat="45.7405909" lon="9.1218065"><ele>309.8333333333333</ele><time>2026-04-24T14:27:48.971Z</time></trkpt><trkpt lat="45.7405785" lon="9.1219089"><ele>310.0</ele><time>2026-04-24T14:27:50.971Z</time></trkpt><trkpt lat="45.7405594" lon="9.1220117"><ele>310.2</ele><time>2026-04-24T14:27:53.972Z</time></trkpt><trkpt lat="45.7405471" lon="9.1221214"><ele>310.4</ele><time>2026-04-24T14:27:57.971Z</time></trkpt><trkpt lat="45.7405217" lon="9.1223204"><ele>310.6</ele><time>2026-04-24T14:27:59.971Z</time></trkpt><trkpt lat="45.7405121" lon="9.1224248"><ele>310.8</ele><time>2026-04-24T14:28:00.971Z</time></trkpt><trkpt lat="45.7405163" lon="9.1225165"><ele>311.0</ele><time>2026-04-24T14:28:01.971Z</time></trkpt><trkpt lat="45.7405781" lon="9.1226686"><ele>311.2</ele><time>2026-04-24T14:28:03.971Z</time></trkpt><trkpt lat="45.7406324" lon="9.1227403"><ele>311.40000000000003</ele><time>2026-04-24T14:28:04.972Z</time></trkpt><trkpt lat="45.7406993" lon="9.1228181"><ele>311.6</ele><time>2026-04-24T14:28:05.971Z</time></trkpt><trkpt lat="45.7407708" lon="9.1229115"><ele>311.8</ele><time>2026-04-24T14:28:06.971Z</time></trkpt><trkpt lat="45.7408548" lon="9.1230027"><ele>312.0</ele><time>2026-04-24T14:28:07.971Z</time></trkpt><trkpt lat="45.7409315" lon="9.1231017"><ele>312.0</ele><time>2026-04-24T14:28:08.971Z</time></trkpt><trkpt lat="45.7410041" lon="9.123199"><ele>312.0</ele><time>2026-04-24T14:28:09.971Z</time></trkpt><trkpt lat="45.7410739" lon="9.1232951"><ele>312.0</ele><time>2026-04-24T14:28:10.971Z</time></trkpt><trkpt lat="45.7411515" lon="9.1233834"><ele>312.0</ele><time>2026-04-24T14:28:11.971Z</time></trkpt><trkpt lat="45.7412674" lon="9.1235197"><ele>312.0</ele><time>2026-04-24T14:28:13.971Z</time></trkpt><trkpt lat="45.7413564" lon="9.1236257"><ele>313.0</ele><time>2026-04-24T14:28:15.971Z</time></trkpt><trkpt lat="45.7414283" lon="9.1236674"><ele>314.0</ele><time>2026-04-24T14:28:16.971Z</time></trkpt><trkpt lat="45.7416268" lon="9.1237233"><ele>315.0</ele><time>2026-04-24T14:28:17.972Z</time></trkpt><trkpt lat="45.7418227" lon="9.123792"><ele>314.8</ele><time>2026-04-24T14:28:19.971Z</time></trkpt><trkpt lat="45.7419189" lon="9.1238232"><ele>314.6</ele><time>2026-04-24T14:28:20.971Z</time></trkpt><trkpt lat="45.7420167" lon="9.1238542"><ele>314.4</ele><time>2026-04-24T14:28:21.972Z</time></trkpt><trkpt lat="45.7421096" lon="9.1238866"><ele>314.2</ele><time>2026-04-24T14:28:22.971Z</time></trkpt><trkpt lat="45.7421918" lon="9.1239208"><ele>314.0</ele><time>2026-04-24T14:28:23.971Z</time></trkpt><trkpt lat="45.7422657" lon="9.123961"><ele>314.0</ele><time>2026-04-24T14:28:24.971Z</time></trkpt><trkpt lat="45.7423814" lon="9.1240308"><ele>314.0</ele><time>2026-04-24T14:28:26.971Z</time></trkpt><trkpt lat="45.7424911" lon="9.1241006"><ele>314.0</ele><time>2026-04-24T14:28:28.972Z</time></trkpt><trkpt lat="45.7425853" lon="9.1241687"><ele>314.0</ele><time>2026-04-24T14:28:30.972Z</time></trkpt><trkpt lat="45.7426414" lon="9.1243105"><ele>314.59999999999997</ele><time>2026-04-24T14:28:32.971Z</time></trkpt><trkpt lat="45.7426608" lon="9.1244004"><ele>315.2</ele><time>2026-04-24T14:28:33.971Z</time></trkpt><trkpt lat="45.7426717" lon="9.1245621"><ele>315.79999999999995</ele><time>2026-04-24T14:28:35.971Z</time></trkpt><trkpt lat="45.7427049" lon="9.1247002"><ele>316.4</ele><time>2026-04-24T14:28:37.971Z</time></trkpt><trkpt lat="45.7427841" lon="9.1248311"><ele>317.0</ele><time>2026-04-24T14:28:39.971Z</time></trkpt><trkpt lat="45.7428313" lon="9.1248996"><ele>317.1666666666667</ele><time>2026-04-24T14:28:40.971Z</time></trkpt><trkpt lat="45.7429047" lon="9.1249932"><ele>317.33333333333337</ele><time>2026-04-24T14:28:42.971Z</time></trkpt><trkpt lat="45.7429584" lon="9.1250799"><ele>317.5</ele><time>2026-04-24T14:29:04.971Z</time></trkpt><trkpt lat="45.7430182" lon="9.1250279"><ele>317.6666666666667</ele><time>2026-04-24T14:29:07.971Z</time></trkpt><trkpt lat="45.7430946" lon="9.1249062"><ele>317.8333333333333</ele><time>2026-04-24T14:29:09.971Z</time></trkpt><trkpt lat="45.7431425" lon="9.1248305"><ele>318.0</ele><time>2026-04-24T14:29:10.971Z</time></trkpt><trkpt lat="45.7431954" lon="9.1247484"><ele>318.0</ele><time>2026-04-24T14:29:11.971Z</time></trkpt><trkpt lat="45.7432535" lon="9.1246674"><ele>318.0</ele><time>2026-04-24T14:29:12.971Z</time></trkpt><trkpt lat="45.743308" lon="9.1245833"><ele>318.0</ele><time>2026-04-24T14:29:13.971Z</time></trkpt><trkpt lat="45.7433637" lon="9.1244972"><ele>318.0</ele><time>2026-04-24T14:29:14.971Z</time></trkpt><trkpt lat="45.743418" lon="9.1244117"><ele>318.0</ele><time>2026-04-24T14:29:15.971Z</time></trkpt><trkpt lat="45.7434788" lon="9.1243347"><ele>318.0</ele><time>2026-04-24T14:29:16.971Z</time></trkpt><trkpt lat="45.7435404" lon="9.1242678"><ele>318.2</ele><time>2026-04-24T14:29:17.971Z</time></trkpt><trkpt lat="45.743608" lon="9.1241992"><ele>318.4</ele><time>2026-04-24T14:29:18.971Z</time></trkpt><trkpt lat="45.7436832" lon="9.1241355"><ele>318.59999999999997</ele><time>2026-04-24T14:29:19.972Z</time></trkpt><trkpt lat="45.7437717" lon="9.1240677"><ele>318.8</ele><time>2026-04-24T14:29:20.972Z</time></trkpt><trkpt lat="45.7438613" lon="9.124002"><ele>319.0</ele><time>2026-04-24T14:29:21.972Z</time></trkpt><trkpt lat="45.7439507" lon="9.1239399"><ele>318.5</ele><time>2026-04-24T14:29:22.971Z</time></trkpt><trkpt lat="45.7440397" lon="9.1238799"><ele>318.0</ele><time>2026-04-24T14:29:23.972Z</time></trkpt><trkpt lat="45.7441255" lon="9.1238156"><ele>317.5</ele><time>2026-04-24T14:29:24.972Z</time></trkpt><trkpt lat="45.7441943" lon="9.123743"><ele>317.0</ele><time>2026-04-24T14:29:25.971Z</time></trkpt><trkpt lat="45.7442541" lon="9.1236694"><ele>316.5</ele><time>2026-04-24T14:29:26.971Z</time></trkpt><trkpt lat="45.744299" lon="9.123591"><ele>316.0</ele><time>2026-04-24T14:29:27.971Z</time></trkpt><trkpt lat="45.7443599" lon="9.1234962"><ele>315.66666666666663</ele><time>2026-04-24T14:29:29.971Z</time></trkpt><trkpt lat="45.7444236" lon="9.1235064"><ele>315.3333333333333</ele><time>2026-04-24T14:29:38.971Z</time></trkpt><trkpt lat="45.7445099" lon="9.1235846"><ele>315.0</ele><time>2026-04-24T14:29:40.971Z</time></trkpt><trkpt lat="45.7445697" lon="9.1236427"><ele>314.6666666666667</ele><time>2026-04-24T14:29:41.971Z</time></trkpt><trkpt lat="45.7446308" lon="9.1237015"><ele>314.33333333333337</ele><time>2026-04-24T14:29:42.971Z</time></trkpt><trkpt lat="45.744691" lon="9.1237574"><ele>314.0</ele><time>2026-04-24T14:29:43.971Z</time></trkpt><trkpt lat="45.7447785" lon="9.1238683"><ele>314.0</ele><time>2026-04-24T14:29:45.971Z</time></trkpt><trkpt lat="45.7448139" lon="9.1240025"><ele>314.0</ele><time>2026-04-24T14:29:47.971Z</time></trkpt><trkpt lat="45.7447909" lon="9.1241668"><ele>314.0</ele><time>2026-04-24T14:29:49.971Z</time></trkpt><trkpt lat="45.7447709" lon="9.1242609"><ele>314.0</ele><time>2026-04-24T14:29:50.971Z</time></trkpt><trkpt lat="45.7447487" lon="9.1243625"><ele>314.0</ele><time>2026-04-24T14:29:51.971Z</time></trkpt><trkpt lat="45.7447264" lon="9.1244705"><ele>314.0</ele><time>2026-04-24T14:29:52.971Z</time></trkpt><trkpt lat="45.7447013" lon="9.124585"><ele>314.0</ele><time>2026-04-24T14:29:53.971Z</time></trkpt><trkpt lat="45.744676" lon="9.1247047"><ele>314.0</ele><time>2026-04-24T14:29:54.971Z</time></trkpt><trkpt lat="45.7446548" lon="9.1248248"><ele>314.0</ele><time>2026-04-24T14:29:55.971Z</time></trkpt><trkpt lat="45.744636" lon="9.1249392"><ele>314.0</ele><time>2026-04-24T14:29:56.971Z</time></trkpt><trkpt lat="45.7446237" lon="9.1250441"><ele>314.0</ele><time>2026-04-24T14:29:57.971Z</time></trkpt><trkpt lat="45.7446233" lon="9.1251411"><ele>314.0</ele><time>2026-04-24T14:29:58.971Z</time></trkpt><trkpt lat="45.7446307" lon="9.1252401"><ele>314.83333333333337</ele><time>2026-04-24T14:29:59.971Z</time></trkpt><trkpt lat="45.7446405" lon="9.1253466"><ele>315.6666666666667</ele><time>2026-04-24T14:30:00.971Z</time></trkpt><trkpt lat="45.7446537" lon="9.1254577"><ele>316.5</ele><time>2026-04-24T14:30:01.972Z</time></trkpt><trkpt lat="45.7446696" lon="9.125577"><ele>317.3333333333333</ele><time>2026-04-24T14:30:02.971Z</time></trkpt><trkpt lat="45.7446873" lon="9.1257067"><ele>318.16666666666663</ele><time>2026-04-24T14:30:03.971Z</time></trkpt><trkpt lat="45.744701" lon="9.1258451"><ele>319.0</ele><time>2026-04-24T14:30:04.971Z</time></trkpt><trkpt lat="45.7447137" lon="9.1259912"><ele>319.6</ele><time>2026-04-24T14:30:05.971Z</time></trkpt><trkpt lat="45.7447264" lon="9.1261412"><ele>320.2</ele><time>2026-04-24T14:30:06.971Z</time></trkpt><trkpt lat="45.7447407" lon="9.126289"><ele>320.8</ele><time>2026-04-24T14:30:07.971Z</time></trkpt><trkpt lat="45.7447522" lon="9.1264345"><ele>321.40000000000003</ele><time>2026-04-24T14:30:08.971Z</time></trkpt><trkpt lat="45.7447642" lon="9.1265734"><ele>322.0</ele><time>2026-04-24T14:30:09.971Z</time></trkpt><trkpt lat="45.7447838" lon="9.1266993"><ele>323.0</ele><time>2026-04-24T14:30:10.971Z</time></trkpt><trkpt lat="45.74481" lon="9.1268187"><ele>324.0</ele><time>2026-04-24T14:30:11.971Z</time></trkpt><trkpt lat="45.7448425" lon="9.1269309"><ele>325.0</ele><time>2026-04-24T14:30:12.971Z</time></trkpt><trkpt lat="45.7448842" lon="9.1270371"><ele>326.0</ele><time>2026-04-24T14:30:13.971Z</time></trkpt><trkpt lat="45.7449284" lon="9.1271453"><ele>327.0</ele><time>2026-04-24T14:30:14.971Z</time></trkpt><trkpt lat="45.7449739" lon="9.1272501"><ele>328.0</ele><time>2026-04-24T14:30:15.971Z</time></trkpt><trkpt lat="45.7450209" lon="9.1273443"><ele>328.66666666666663</ele><time>2026-04-24T14:30:16.971Z</time></trkpt><trkpt lat="45.7450682" lon="9.1274285"><ele>329.3333333333333</ele><time>2026-04-24T14:30:17.971Z</time></trkpt><trkpt lat="45.7451186" lon="9.1274918"><ele>330.0</ele><time>2026-04-24T14:30:18.971Z</time></trkpt><trkpt lat="45.7451699" lon="9.1275468"><ele>330.6666666666667</ele><time>2026-04-24T14:30:19.971Z</time></trkpt><trkpt lat="45.7452627" lon="9.1276456"><ele>331.33333333333337</ele><time>2026-04-24T14:30:21.971Z</time></trkpt><trkpt lat="45.7452939" lon="9.1277708"><ele>332.0</ele><time>2026-04-24T14:30:23.971Z</time></trkpt><trkpt lat="45.7452566" lon="9.1278847"><ele>332.6</ele><time>2026-04-24T14:30:25.971Z</time></trkpt><trkpt lat="45.745161" lon="9.1279573"><ele>333.20000000000005</ele><time>2026-04-24T14:30:27.971Z</time></trkpt><trkpt lat="45.7450976" lon="9.1279885"><ele>333.8</ele><time>2026-04-24T14:30:28.972Z</time></trkpt><trkpt lat="45.7450368" lon="9.1280245"><ele>334.4</ele><time>2026-04-24T14:30:29.972Z</time></trkpt><trkpt lat="45.7449504" lon="9.1281356"><ele>335.0</ele><time>2026-04-24T14:30:31.971Z</time></trkpt><trkpt lat="45.7448892" lon="9.1282887"><ele>336.33333333333337</ele><time>2026-04-24T14:30:33.97Z</time></trkpt><trkpt lat="45.7448456" lon="9.1284198"><ele>337.6666666666667</ele><time>2026-04-24T14:30:35.97Z</time></trkpt><trkpt lat="45.7448139" lon="9.128526"><ele>339.0</ele><time>2026-04-24T14:30:37.97Z</time></trkpt><trkpt lat="45.7448066" lon="9.1286497"><ele>340.3333333333333</ele><time>2026-04-24T14:30:40.97Z</time></trkpt><trkpt lat="45.7447742" lon="9.1287519"><ele>341.66666666666663</ele><time>2026-04-24T14:30:58.97Z</time></trkpt><trkpt lat="45.7447383" lon="9.1288483"><ele>343.0</ele><time>2026-04-24T14:31:06.97Z</time></trkpt><trkpt lat="45.7447117" lon="9.1289719"><ele>343.0</ele><time>2026-04-24T14:31:09.97Z</time></trkpt><trkpt lat="45.7446835" lon="9.1290587"><ele>343.0</ele><time>2026-04-24T14:31:24.97Z</time></trkpt><trkpt lat="45.7446398" lon="9.1291346"><ele>343.0</ele><time>2026-04-24T14:31:30.97Z</time></trkpt><trkpt lat="45.7445879" lon="9.1291871"><ele>343.0</ele><time>2026-04-24T14:31:32.97Z</time></trkpt><trkpt lat="45.7445195" lon="9.1292071"><ele>343.0</ele><time>2026-04-24T14:31:40.971Z</time></trkpt><trkpt lat="45.744447" lon="9.1292283"><ele>343.0</ele><time>2026-04-24T14:31:43.971Z</time></trkpt><trkpt lat="45.744371" lon="9.1292462"><ele>343.0</ele><time>2026-04-24T14:31:46.97Z</time></trkpt><trkpt lat="45.7443062" lon="9.1292591"><ele>344.16666666666663</ele><time>2026-04-24T14:31:49.97Z</time></trkpt><trkpt lat="45.7442081" lon="9.1292761"><ele>345.3333333333333</ele><time>2026-04-24T14:31:52.97Z</time></trkpt><trkpt lat="45.7441378" lon="9.1292796"><ele>346.5</ele><time>2026-04-24T14:31:54.97Z</time></trkpt><trkpt lat="45.7440632" lon="9.129276"><ele>347.6666666666667</ele><time>2026-04-24T14:31:58.97Z</time></trkpt><trkpt lat="45.7439877" lon="9.1292702"><ele>348.83333333333337</ele><time>2026-04-24T14:32:02.97Z</time></trkpt><trkpt lat="45.7438997" lon="9.129284"><ele>350.0</ele><time>2026-04-24T14:32:06.97Z</time></trkpt><trkpt lat="45.7438315" lon="9.1292878"><ele>350.0</ele><time>2026-04-24T14:32:09.97Z</time></trkpt><trkpt lat="45.74374" lon="9.1292874"><ele>350.0</ele><time>2026-04-24T14:32:12.97Z</time></trkpt><trkpt lat="45.7436713" lon="9.129287"><ele>350.0</ele><time>2026-04-24T14:32:14.97Z</time></trkpt><trkpt lat="45.7435831" lon="9.1292841"><ele>350.0</ele><time>2026-04-24T14:32:17.97Z</time></trkpt><trkpt lat="45.7435209" lon="9.1292685"><ele>350.0</ele><time>2026-04-24T14:32:27.97Z</time></trkpt><trkpt lat="45.7434163" lon="9.1293045"><ele>350.0</ele><time>2026-04-24T14:32:29.97Z</time></trkpt><trkpt lat="45.743326" lon="9.1293738"><ele>351.0</ele><time>2026-04-24T14:32:31.97Z</time></trkpt><trkpt lat="45.7432898" lon="9.1294877"><ele>352.0</ele><time>2026-04-24T14:32:33.97Z</time></trkpt><trkpt lat="45.7432801" lon="9.1296265"><ele>353.0</ele><time>2026-04-24T14:32:35.97Z</time></trkpt><trkpt lat="45.7432309" lon="9.1297957"><ele>354.0</ele><time>2026-04-24T14:32:37.97Z</time></trkpt><trkpt lat="45.743196" lon="9.1299004"><ele>355.0</ele><time>2026-04-24T14:32:38.97Z</time></trkpt><trkpt lat="45.743166" lon="9.130018"><ele>355.16666666666663</ele><time>2026-04-24T14:32:39.97Z</time></trkpt><trkpt lat="45.7431279" lon="9.1301355"><ele>355.3333333333333</ele><time>2026-04-24T14:32:40.971Z</time></trkpt><trkpt lat="45.7431004" lon="9.1302619"><ele>355.5</ele><time>2026-04-24T14:32:41.97Z</time></trkpt><trkpt lat="45.7430689" lon="9.1303843"><ele>355.6666666666667</ele><time>2026-04-24T14:32:42.97Z</time></trkpt><trkpt lat="45.7430489" lon="9.1305094"><ele>355.83333333333337</ele><time>2026-04-24T14:32:43.97Z</time></trkpt><trkpt lat="45.7430417" lon="9.130631"><ele>356.0</ele><time>2026-04-24T14:32:44.97Z</time></trkpt><trkpt lat="45.7430426" lon="9.1307527"><ele>356.5</ele><time>2026-04-24T14:32:45.97Z</time></trkpt><trkpt lat="45.7430521" lon="9.1308769"><ele>357.0</ele><time>2026-04-24T14:32:46.97Z</time></trkpt><trkpt lat="45.7430648" lon="9.1310055"><ele>357.5</ele><time>2026-04-24T14:32:47.97Z</time></trkpt><trkpt lat="45.7430706" lon="9.1311302"><ele>358.0</ele><time>2026-04-24T14:32:48.97Z</time></trkpt><trkpt lat="45.7430797" lon="9.1312472"><ele>358.5</ele><time>2026-04-24T14:32:49.97Z</time></trkpt><trkpt lat="45.7430851" lon="9.1313485"><ele>359.0</ele><time>2026-04-24T14:32:50.97Z</time></trkpt><trkpt lat="45.7430823" lon="9.1314918"><ele>359.5</ele><time>2026-04-24T14:32:52.97Z</time></trkpt><trkpt lat="45.7430733" lon="9.1315849"><ele>360.0</ele><time>2026-04-24T14:32:55.97Z</time></trkpt><trkpt lat="45.7430566" lon="9.1316973"><ele>360.5</ele><time>2026-04-24T14:33:01.97Z</time></trkpt><trkpt lat="45.7430421" lon="9.1318702"><ele>361.0</ele><time>2026-04-24T14:33:03.97Z</time></trkpt><trkpt lat="45.7430234" lon="9.1319678"><ele>361.5</ele><time>2026-04-24T14:33:04.97Z</time></trkpt><trkpt lat="45.7430049" lon="9.1320719"><ele>362.0</ele><time>2026-04-24T14:33:05.97Z</time></trkpt><trkpt lat="45.7429881" lon="9.1321821"><ele>362.0</ele><time>2026-04-24T14:33:06.97Z</time></trkpt><trkpt lat="45.7429765" lon="9.1322891"><ele>362.0</ele><time>2026-04-24T14:33:07.97Z</time></trkpt><trkpt lat="45.7429611" lon="9.1323875"><ele>362.0</ele><time>2026-04-24T14:33:08.97Z</time></trkpt><trkpt lat="45.7429488" lon="9.1324853"><ele>362.0</ele><time>2026-04-24T14:33:09.97Z</time></trkpt><trkpt lat="45.7429401" lon="9.1325845"><ele>362.0</ele><time>2026-04-24T14:33:10.97Z</time></trkpt><trkpt lat="45.7429281" lon="9.1326878"><ele>362.0</ele><time>2026-04-24T14:33:11.97Z</time></trkpt><trkpt lat="45.7429143" lon="9.1327796"><ele>362.0</ele><time>2026-04-24T14:33:12.97Z</time></trkpt><trkpt lat="45.7428894" lon="9.1329351"><ele>362.6</ele><time>2026-04-24T14:33:14.97Z</time></trkpt><trkpt lat="45.7428696" lon="9.1330711"><ele>363.20000000000005</ele><time>2026-04-24T14:33:16.97Z</time></trkpt><trkpt lat="45.7428518" lon="9.1332087"><ele>363.8</ele><time>2026-04-24T14:33:18.971Z</time></trkpt><trkpt lat="45.7428327" lon="9.1333575"><ele>364.4</ele><time>2026-04-24T14:33:20.97Z</time></trkpt><trkpt lat="45.7428109" lon="9.1335299"><ele>365.0</ele><time>2026-04-24T14:33:22.97Z</time></trkpt><trkpt lat="45.7428" lon="9.1336242"><ele>365.0</ele><time>2026-04-24T14:33:23.97Z</time></trkpt><trkpt lat="45.742789" lon="9.1337169"><ele>365.0</ele><time>2026-04-24T14:33:24.97Z</time></trkpt><trkpt lat="45.742767" lon="9.133886"><ele>365.0</ele><time>2026-04-24T14:33:26.97Z</time></trkpt><trkpt lat="45.7427446" lon="9.134056"><ele>365.0</ele><time>2026-04-24T14:33:28.97Z</time></trkpt><trkpt lat="45.7427336" lon="9.134149"><ele>365.0</ele><time>2026-04-24T14:33:29.97Z</time></trkpt><trkpt lat="45.7427248" lon="9.134246"><ele>365.0</ele><time>2026-04-24T14:33:30.97Z</time></trkpt><trkpt lat="45.7427203" lon="9.1343429"><ele>364.14285714285717</ele><time>2026-04-24T14:33:31.97Z</time></trkpt><trkpt lat="45.742692" lon="9.134434"><ele>363.2857142857143</ele><time>2026-04-24T14:33:32.97Z</time></trkpt><trkpt lat="45.7426844" lon="9.1345291"><ele>362.42857142857144</ele><time>2026-04-24T14:33:33.97Z</time></trkpt><trkpt lat="45.7426514" lon="9.1346207"><ele>361.57142857142856</ele><time>2026-04-24T14:33:34.97Z</time></trkpt><trkpt lat="45.7426204" lon="9.1347106"><ele>360.7142857142857</ele><time>2026-04-24T14:33:35.971Z</time></trkpt><trkpt lat="45.7425918" lon="9.1347998"><ele>359.8571428571429</ele><time>2026-04-24T14:33:36.97Z</time></trkpt><trkpt lat="45.7425664" lon="9.1348859"><ele>359.0</ele><time>2026-04-24T14:33:37.97Z</time></trkpt><trkpt lat="45.7424936" lon="9.1350329"><ele>359.0</ele><time>2026-04-24T14:33:39.97Z</time></trkpt><trkpt lat="45.7424631" lon="9.135114"><ele>359.0</ele><time>2026-04-24T14:33:40.97Z</time></trkpt><trkpt lat="45.7424138" lon="9.1352557"><ele>359.0</ele><time>2026-04-24T14:33:42.97Z</time></trkpt><trkpt lat="45.7423621" lon="9.1353664"><ele>359.0</ele><time>2026-04-24T14:33:44.97Z</time></trkpt><trkpt lat="45.742313" lon="9.1354662"><ele>359.0</ele><time>2026-04-24T14:33:46.97Z</time></trkpt><trkpt lat="45.7422713" lon="9.1355804"><ele>359.0</ele><time>2026-04-24T14:33:48.97Z</time></trkpt><trkpt lat="45.7422282" lon="9.1357005"><ele>358.5</ele><time>2026-04-24T14:33:50.971Z</time></trkpt><trkpt lat="45.7422122" lon="9.1358099"><ele>358.0</ele><time>2026-04-24T14:33:52.97Z</time></trkpt><trkpt lat="45.7422509" lon="9.1359043"><ele>357.5</ele><time>2026-04-24T14:33:54.97Z</time></trkpt><trkpt lat="45.7423253" lon="9.1359991"><ele>357.0</ele><time>2026-04-24T14:33:56.97Z</time></trkpt><trkpt lat="45.7423703" lon="9.1360797"><ele>356.5</ele><time>2026-04-24T14:33:57.97Z</time></trkpt><trkpt lat="45.7424199" lon="9.1361787"><ele>356.0</ele><time>2026-04-24T14:33:58.97Z</time></trkpt><trkpt lat="45.7424678" lon="9.1362753"><ele>356.0</ele><time>2026-04-24T14:33:59.97Z</time></trkpt><trkpt lat="45.7425131" lon="9.1363753"><ele>356.0</ele><time>2026-04-24T14:34:00.97Z</time></trkpt><trkpt lat="45.7425619" lon="9.1364768"><ele>356.0</ele><time>2026-04-24T14:34:01.97Z</time></trkpt><trkpt lat="45.7426133" lon="9.1365827"><ele>356.0</ele><time>2026-04-24T14:34:02.97Z</time></trkpt><trkpt lat="45.7426672" lon="9.1366944"><ele>356.0</ele><time>2026-04-24T14:34:03.97Z</time></trkpt><trkpt lat="45.7427216" lon="9.1368113"><ele>355.6</ele><time>2026-04-24T14:34:04.969Z</time></trkpt><trkpt lat="45.7427786" lon="9.1369319"><ele>355.20000000000005</ele><time>2026-04-24T14:34:05.969Z</time></trkpt><trkpt lat="45.7428336" lon="9.1370519"><ele>354.79999999999995</ele><time>2026-04-24T14:34:06.969Z</time></trkpt><trkpt lat="45.7428878" lon="9.1371705"><ele>354.4</ele><time>2026-04-24T14:34:07.969Z</time></trkpt><trkpt lat="45.7429435" lon="9.1372839"><ele>354.0</ele><time>2026-04-24T14:34:08.969Z</time></trkpt><trkpt lat="45.7429994" lon="9.1373931"><ele>353.3333333333333</ele><time>2026-04-24T14:34:09.97Z</time></trkpt><trkpt lat="45.7430503" lon="9.1374999"><ele>352.6666666666667</ele><time>2026-04-24T14:34:10.969Z</time></trkpt><trkpt lat="45.7430968" lon="9.137598"><ele>352.0</ele><time>2026-04-24T14:34:11.969Z</time></trkpt><trkpt lat="45.7431403" lon="9.1376886"><ele>351.33333333333337</ele><time>2026-04-24T14:34:12.969Z</time></trkpt><trkpt lat="45.7431824" lon="9.1377753"><ele>350.6666666666667</ele><time>2026-04-24T14:34:13.969Z</time></trkpt><trkpt lat="45.7432217" lon="9.1378597"><ele>350.0</ele><time>2026-04-24T14:34:14.969Z</time></trkpt><trkpt lat="45.7432609" lon="9.1379406"><ele>350.0</ele><time>2026-04-24T14:34:15.969Z</time></trkpt><trkpt lat="45.7432983" lon="9.138021"><ele>350.0</ele><time>2026-04-24T14:34:16.969Z</time></trkpt><trkpt lat="45.7433394" lon="9.1381078"><ele>350.0</ele><time>2026-04-24T14:34:17.969Z</time></trkpt><trkpt lat="45.7433831" lon="9.1381965"><ele>350.0</ele><time>2026-04-24T14:34:18.969Z</time></trkpt><trkpt lat="45.7434279" lon="9.1382874"><ele>350.0</ele><time>2026-04-24T14:34:19.969Z</time></trkpt><trkpt lat="45.7434753" lon="9.1383801"><ele>350.0</ele><time>2026-04-24T14:34:20.969Z</time></trkpt><trkpt lat="45.743521" lon="9.1384776"><ele>349.5</ele><time>2026-04-24T14:34:21.969Z</time></trkpt><trkpt lat="45.7435683" lon="9.138578"><ele>349.0</ele><time>2026-04-24T14:34:22.97Z</time></trkpt><trkpt lat="45.7436153" lon="9.1386812"><ele>348.5</ele><time>2026-04-24T14:34:23.969Z</time></trkpt><trkpt lat="45.7436641" lon="9.1387863"><ele>348.0</ele><time>2026-04-24T14:34:24.969Z</time></trkpt><trkpt lat="45.7437154" lon="9.138893"><ele>347.5</ele><time>2026-04-24T14:34:25.969Z</time></trkpt><trkpt lat="45.7437682" lon="9.1390037"><ele>347.0</ele><time>2026-04-24T14:34:26.969Z</time></trkpt><trkpt lat="45.7438232" lon="9.1391148"><ele>346.83333333333337</ele><time>2026-04-24T14:34:27.969Z</time></trkpt><trkpt lat="45.7438801" lon="9.1392285"><ele>346.6666666666667</ele><time>2026-04-24T14:34:28.969Z</time></trkpt><trkpt lat="45.7439358" lon="9.1393405"><ele>346.5</ele><time>2026-04-24T14:34:29.969Z</time></trkpt><trkpt lat="45.7439871" lon="9.1394484"><ele>346.3333333333333</ele><time>2026-04-24T14:34:30.969Z</time></trkpt><trkpt lat="45.7440297" lon="9.1395488"><ele>346.16666666666663</ele><time>2026-04-24T14:34:31.969Z</time></trkpt><trkpt lat="45.7440585" lon="9.1396315"><ele>346.0</ele><time>2026-04-24T14:34:32.969Z</time></trkpt><trkpt lat="45.7440974" lon="9.139784"><ele>345.66666666666663</ele><time>2026-04-24T14:34:34.969Z</time></trkpt><trkpt lat="45.7441142" lon="9.1399558"><ele>345.3333333333333</ele><time>2026-04-24T14:34:36.969Z</time></trkpt><trkpt lat="45.7441279" lon="9.1400476"><ele>345.0</ele><time>2026-04-24T14:34:37.969Z</time></trkpt><trkpt lat="45.7441601" lon="9.1401374"><ele>344.6666666666667</ele><time>2026-04-24T14:34:38.969Z</time></trkpt><trkpt lat="45.7442052" lon="9.14022"><ele>344.33333333333337</ele><time>2026-04-24T14:34:39.969Z</time></trkpt><trkpt lat="45.7442634" lon="9.1402908"><ele>344.0</ele><time>2026-04-24T14:34:40.969Z</time></trkpt><trkpt lat="45.7443305" lon="9.1403521"><ele>344.0</ele><time>2026-04-24T14:34:41.969Z</time></trkpt><trkpt lat="45.7443995" lon="9.140418"><ele>344.0</ele><time>2026-04-24T14:34:42.969Z</time></trkpt><trkpt lat="45.7444657" lon="9.140502"><ele>344.0</ele><time>2026-04-24T14:34:43.969Z</time></trkpt><trkpt lat="45.7445304" lon="9.1406023"><ele>344.0</ele><time>2026-04-24T14:34:44.969Z</time></trkpt><trkpt lat="45.7445946" lon="9.1407287"><ele>344.0</ele><time>2026-04-24T14:34:45.969Z</time></trkpt><trkpt lat="45.7446647" lon="9.1408659"><ele>344.0</ele><time>2026-04-24T14:34:46.969Z</time></trkpt><trkpt lat="45.7447386" lon="9.1410129"><ele>344.0</ele><time>2026-04-24T14:34:47.969Z</time></trkpt><trkpt lat="45.7448231" lon="9.1411576"><ele>344.0</ele><time>2026-04-24T14:34:48.969Z</time></trkpt><trkpt lat="45.7449152" lon="9.1412932"><ele>344.0</ele><time>2026-04-24T14:34:49.969Z</time></trkpt><trkpt lat="45.7450182" lon="9.141428"><ele>345.0</ele><time>2026-04-24T14:34:50.969Z</time></trkpt><trkpt lat="45.7451285" lon="9.1415645"><ele>346.0</ele><time>2026-04-24T14:34:51.969Z</time></trkpt><trkpt lat="45.7452392" lon="9.1416979"><ele>347.0</ele><time>2026-04-24T14:34:52.969Z</time></trkpt><trkpt lat="45.7453452" lon="9.1418217"><ele>348.0</ele><time>2026-04-24T14:34:53.969Z</time></trkpt><trkpt lat="45.7454452" lon="9.1419378"><ele>348.0</ele><time>2026-04-24T14:34:54.969Z</time></trkpt><trkpt lat="45.7455398" lon="9.1420482"><ele>348.0</ele><time>2026-04-24T14:34:55.969Z</time></trkpt><trkpt lat="45.7456269" lon="9.1421475"><ele>348.0</ele><time>2026-04-24T14:34:56.969Z</time></trkpt><trkpt lat="45.7457098" lon="9.1422417"><ele>348.0</ele><time>2026-04-24T14:34:57.97Z</time></trkpt><trkpt lat="45.7457873" lon="9.1423295"><ele>348.0</ele><time>2026-04-24T14:34:58.969Z</time></trkpt><trkpt lat="45.7458575" lon="9.1424087"><ele>348.6666666666667</ele><time>2026-04-24T14:34:59.969Z</time></trkpt><trkpt lat="45.7459141" lon="9.1424771"><ele>349.3333333333333</ele><time>2026-04-24T14:35:00.969Z</time></trkpt><trkpt lat="45.7459994" lon="9.142581"><ele>350.0</ele><time>2026-04-24T14:35:02.969Z</time></trkpt><trkpt lat="45.7460539" lon="9.1426435"><ele>350.66666666666663</ele><time>2026-04-24T14:35:04.97Z</time></trkpt><trkpt lat="45.7461132" lon="9.1426884"><ele>351.3333333333333</ele><time>2026-04-24T14:35:17.969Z</time></trkpt><trkpt lat="45.746179" lon="9.1427639"><ele>352.0</ele><time>2026-04-24T14:35:19.969Z</time></trkpt><trkpt lat="45.7462284" lon="9.1428262"><ele>352.0</ele><time>2026-04-24T14:35:20.969Z</time></trkpt><trkpt lat="45.7462845" lon="9.1428958"><ele>352.0</ele><time>2026-04-24T14:35:21.97Z</time></trkpt><trkpt lat="45.7463474" lon="9.1429649"><ele>352.0</ele><time>2026-04-24T14:35:22.969Z</time></trkpt><trkpt lat="45.7464137" lon="9.143034"><ele>352.0</ele><time>2026-04-24T14:35:23.97Z</time></trkpt><trkpt lat="45.7464836" lon="9.1430952"><ele>352.0</ele><time>2026-04-24T14:35:24.969Z</time></trkpt><trkpt lat="45.7465577" lon="9.1431493"><ele>352.0</ele><time>2026-04-24T14:35:25.969Z</time></trkpt><trkpt lat="45.7466378" lon="9.1431964"><ele>352.6</ele><time>2026-04-24T14:35:26.97Z</time></trkpt><trkpt lat="45.7467285" lon="9.1432327"><ele>353.20000000000005</ele><time>2026-04-24T14:35:27.969Z</time></trkpt><trkpt lat="45.7468181" lon="9.1432696"><ele>353.8</ele><time>2026-04-24T14:35:28.969Z</time></trkpt><trkpt lat="45.746912" lon="9.1433059"><ele>354.4</ele><time>2026-04-24T14:35:29.969Z</time></trkpt><trkpt lat="45.7470096" lon="9.1433434"><ele>355.0</ele><time>2026-04-24T14:35:30.969Z</time></trkpt><trkpt lat="45.7471127" lon="9.1433819"><ele>355.0</ele><time>2026-04-24T14:35:31.969Z</time></trkpt><trkpt lat="45.7472135" lon="9.1434188"><ele>355.0</ele><time>2026-04-24T14:35:32.969Z</time></trkpt><trkpt lat="45.7473224" lon="9.1434568"><ele>355.0</ele><time>2026-04-24T14:35:33.969Z</time></trkpt><trkpt lat="45.7474284" lon="9.1434954"><ele>355.0</ele><time>2026-04-24T14:35:34.969Z</time></trkpt><trkpt lat="45.7475446" lon="9.1435391"><ele>355.0</ele><time>2026-04-24T14:35:35.969Z</time></trkpt><trkpt lat="45.7476717" lon="9.1435857"><ele>355.25</ele><time>2026-04-24T14:35:36.969Z</time></trkpt><trkpt lat="45.7478034" lon="9.1436347"><ele>355.5</ele><time>2026-04-24T14:35:37.969Z</time></trkpt><trkpt lat="45.7479327" lon="9.1436802"><ele>355.75</ele><time>2026-04-24T14:35:38.97Z</time></trkpt><trkpt lat="45.7480699" lon="9.1437286"><ele>356.0</ele><time>2026-04-24T14:35:39.969Z</time></trkpt><trkpt lat="45.7481973" lon="9.1437792"><ele>356.0</ele><time>2026-04-24T14:35:40.969Z</time></trkpt><trkpt lat="45.7483233" lon="9.1438364"><ele>356.0</ele><time>2026-04-24T14:35:41.969Z</time></trkpt><trkpt lat="45.7484424" lon="9.1438985"><ele>356.0</ele><time>2026-04-24T14:35:42.969Z</time></trkpt><trkpt lat="45.7485687" lon="9.1439694"><ele>356.0</ele><time>2026-04-24T14:35:43.969Z</time></trkpt><trkpt lat="45.7486952" lon="9.1440463"><ele>356.75</ele><time>2026-04-24T14:35:44.969Z</time></trkpt><trkpt lat="45.7488093" lon="9.1441165"><ele>357.5</ele><time>2026-04-24T14:35:45.969Z</time></trkpt><trkpt lat="45.7489204" lon="9.1441806"><ele>358.25</ele><time>2026-04-24T14:35:46.969Z</time></trkpt><trkpt lat="45.7490273" lon="9.1442396"><ele>359.0</ele><time>2026-04-24T14:35:47.969Z</time></trkpt><trkpt lat="45.7491231" lon="9.1442934"><ele>359.0</ele><time>2026-04-24T14:35:48.969Z</time></trkpt><trkpt lat="45.7492087" lon="9.1443434"><ele>359.0</ele><time>2026-04-24T14:35:49.969Z</time></trkpt><trkpt lat="45.749282" lon="9.1443921"><ele>359.0</ele><time>2026-04-24T14:35:50.969Z</time></trkpt><trkpt lat="45.7493498" lon="9.1444482"><ele>359.0</ele><time>2026-04-24T14:35:51.969Z</time></trkpt><trkpt lat="45.7494211" lon="9.1445107"><ele>359.0</ele><time>2026-04-24T14:35:52.969Z</time></trkpt><trkpt lat="45.7494954" lon="9.1445686"><ele>359.0</ele><time>2026-04-24T14:35:53.969Z</time></trkpt><trkpt lat="45.7495752" lon="9.1446234"><ele>359.6</ele><time>2026-04-24T14:35:54.969Z</time></trkpt><trkpt lat="45.7496665" lon="9.144682"><ele>360.2</ele><time>2026-04-24T14:35:55.969Z</time></trkpt><trkpt lat="45.7497612" lon="9.1447406"><ele>360.8</ele><time>2026-04-24T14:35:56.969Z</time></trkpt><trkpt lat="45.749858" lon="9.1448013"><ele>361.40000000000003</ele><time>2026-04-24T14:35:57.969Z</time></trkpt><trkpt lat="45.7499557" lon="9.1448638"><ele>362.0</ele><time>2026-04-24T14:35:58.969Z</time></trkpt><trkpt lat="45.7500579" lon="9.1449306"><ele>363.25</ele><time>2026-04-24T14:35:59.969Z</time></trkpt><trkpt lat="45.7501683" lon="9.1450023"><ele>364.5</ele><time>2026-04-24T14:36:00.969Z</time></trkpt><trkpt lat="45.7502754" lon="9.1450718"><ele>365.75</ele><time>2026-04-24T14:36:01.969Z</time></trkpt><trkpt lat="45.7503788" lon="9.145137"><ele>367.0</ele><time>2026-04-24T14:36:02.969Z</time></trkpt><trkpt lat="45.7504869" lon="9.145197"><ele>367.0</ele><time>2026-04-24T14:36:03.969Z</time></trkpt><trkpt lat="45.7505932" lon="9.1452432"><ele>367.0</ele><time>2026-04-24T14:36:04.969Z</time></trkpt><trkpt lat="45.7506993" lon="9.1452742"><ele>367.0</ele><time>2026-04-24T14:36:05.969Z</time></trkpt><trkpt lat="45.7508025" lon="9.1452937"><ele>367.0</ele><time>2026-04-24T14:36:06.969Z</time></trkpt><trkpt lat="45.750913" lon="9.1453027"><ele>367.0</ele><time>2026-04-24T14:36:07.969Z</time></trkpt><trkpt lat="45.7510391" lon="9.1453085"><ele>367.20000000000005</ele><time>2026-04-24T14:36:08.969Z</time></trkpt><trkpt lat="45.7511461" lon="9.1453242"><ele>367.4</ele><time>2026-04-24T14:36:09.969Z</time></trkpt><trkpt lat="45.7512501" lon="9.1453385"><ele>367.6</ele><time>2026-04-24T14:36:10.97Z</time></trkpt><trkpt lat="45.751369" lon="9.1453633"><ele>367.79999999999995</ele><time>2026-04-24T14:36:11.969Z</time></trkpt><trkpt lat="45.7514765" lon="9.145401"><ele>368.0</ele><time>2026-04-24T14:36:12.969Z</time></trkpt><trkpt lat="45.7515859" lon="9.1454566"><ele>368.0</ele><time>2026-04-24T14:36:13.969Z</time></trkpt><trkpt lat="45.7516923" lon="9.1455254"><ele>368.0</ele><time>2026-04-24T14:36:14.969Z</time></trkpt><trkpt lat="45.7517986" lon="9.1456046"><ele>368.0</ele><time>2026-04-24T14:36:15.969Z</time></trkpt><trkpt lat="45.7519077" lon="9.1456906"><ele>368.0</ele><time>2026-04-24T14:36:16.969Z</time></trkpt><trkpt lat="45.7520107" lon="9.145772"><ele>368.5</ele><time>2026-04-24T14:36:17.969Z</time></trkpt><trkpt lat="45.7521172" lon="9.1458556"><ele>369.0</ele><time>2026-04-24T14:36:18.969Z</time></trkpt><trkpt lat="45.7522245" lon="9.1459376"><ele>369.5</ele><time>2026-04-24T14:36:19.969Z</time></trkpt><trkpt lat="45.7523221" lon="9.1460149"><ele>370.0</ele><time>2026-04-24T14:36:20.969Z</time></trkpt><trkpt lat="45.7524148" lon="9.146098"><ele>370.0</ele><time>2026-04-24T14:36:21.97Z</time></trkpt><trkpt lat="45.7525024" lon="9.1461911"><ele>370.0</ele><time>2026-04-24T14:36:22.969Z</time></trkpt><trkpt lat="45.7525826" lon="9.1462964"><ele>370.0</ele><time>2026-04-24T14:36:23.969Z</time></trkpt><trkpt lat="45.7526599" lon="9.1464174"><ele>370.0</ele><time>2026-04-24T14:36:24.969Z</time></trkpt><trkpt lat="45.7527373" lon="9.1465479"><ele>369.25</ele><time>2026-04-24T14:36:25.969Z</time></trkpt><trkpt lat="45.75282" lon="9.1466873"><ele>368.5</ele><time>2026-04-24T14:36:26.969Z</time></trkpt><trkpt lat="45.7529077" lon="9.1468362"><ele>367.75</ele><time>2026-04-24T14:36:27.969Z</time></trkpt><trkpt lat="45.7529951" lon="9.1469827"><ele>367.0</ele><time>2026-04-24T14:36:28.97Z</time></trkpt><trkpt lat="45.75309" lon="9.1471415"><ele>367.0</ele><time>2026-04-24T14:36:29.969Z</time></trkpt><trkpt lat="45.7531845" lon="9.1472983"><ele>367.0</ele><time>2026-04-24T14:36:30.969Z</time></trkpt><trkpt lat="45.7532777" lon="9.1474525"><ele>367.0</ele><time>2026-04-24T14:36:31.969Z</time></trkpt><trkpt lat="45.7533753" lon="9.1476167"><ele>367.0</ele><time>2026-04-24T14:36:32.969Z</time></trkpt><trkpt lat="45.7534696" lon="9.1477771"><ele>366.5</ele><time>2026-04-24T14:36:33.969Z</time></trkpt><trkpt lat="45.7535594" lon="9.1479302"><ele>366.0</ele><time>2026-04-24T14:36:34.969Z</time></trkpt><trkpt lat="45.753654" lon="9.1480922"><ele>365.5</ele><time>2026-04-24T14:36:35.969Z</time></trkpt><trkpt lat="45.7537415" lon="9.1482477"><ele>365.0</ele><time>2026-04-24T14:36:36.969Z</time></trkpt><trkpt lat="45.7538225" lon="9.1484059"><ele>365.0</ele><time>2026-04-24T14:36:37.969Z</time></trkpt><trkpt lat="45.7538909" lon="9.1485662"><ele>365.0</ele><time>2026-04-24T14:36:38.97Z</time></trkpt><trkpt lat="45.7539451" lon="9.1487286"><ele>365.0</ele><time>2026-04-24T14:36:39.969Z</time></trkpt><trkpt lat="45.7539898" lon="9.1489066"><ele>365.0</ele><time>2026-04-24T14:36:40.969Z</time></trkpt><trkpt lat="45.7540226" lon="9.1490862"><ele>365.75</ele><time>2026-04-24T14:36:41.969Z</time></trkpt><trkpt lat="45.7540476" lon="9.1492635"><ele>366.5</ele><time>2026-04-24T14:36:42.969Z</time></trkpt><trkpt lat="45.754071" lon="9.1494602"><ele>367.25</ele><time>2026-04-24T14:36:43.969Z</time></trkpt><trkpt lat="45.7540939" lon="9.1496545"><ele>368.0</ele><time>2026-04-24T14:36:44.969Z</time></trkpt><trkpt lat="45.7541219" lon="9.1498493"><ele>368.25</ele><time>2026-04-24T14:36:45.969Z</time></trkpt><trkpt lat="45.7541564" lon="9.1500432"><ele>368.5</ele><time>2026-04-24T14:36:46.969Z</time></trkpt><trkpt lat="45.7541987" lon="9.1502369"><ele>368.75</ele><time>2026-04-24T14:36:47.969Z</time></trkpt><trkpt lat="45.7542518" lon="9.1504248"><ele>369.0</ele><time>2026-04-24T14:36:48.969Z</time></trkpt><trkpt lat="45.7543147" lon="9.1505975"><ele>369.75</ele><time>2026-04-24T14:36:49.969Z</time></trkpt><trkpt lat="45.7543857" lon="9.1507537"><ele>370.5</ele><time>2026-04-24T14:36:50.969Z</time></trkpt><trkpt lat="45.7544724" lon="9.1509155"><ele>371.25</ele><time>2026-04-24T14:36:51.969Z</time></trkpt><trkpt lat="45.7545649" lon="9.1510692"><ele>372.0</ele><time>2026-04-24T14:36:52.969Z</time></trkpt><trkpt lat="45.7546654" lon="9.1512267"><ele>372.0</ele><time>2026-04-24T14:36:53.969Z</time></trkpt><trkpt lat="45.7547669" lon="9.1513792"><ele>372.0</ele><time>2026-04-24T14:36:54.969Z</time></trkpt><trkpt lat="45.7548769" lon="9.1515436"><ele>372.0</ele><time>2026-04-24T14:36:55.97Z</time></trkpt><trkpt lat="45.7549912" lon="9.1517162"><ele>372.0</ele><time>2026-04-24T14:36:56.969Z</time></trkpt><trkpt lat="45.7551045" lon="9.1518882"><ele>372.0</ele><time>2026-04-24T14:36:57.969Z</time></trkpt><trkpt lat="45.7552113" lon="9.1520567"><ele>372.0</ele><time>2026-04-24T14:36:58.969Z</time></trkpt><trkpt lat="45.7553222" lon="9.1522414"><ele>372.6666666666667</ele><time>2026-04-24T14:36:59.97Z</time></trkpt><trkpt lat="45.7554232" lon="9.1524252"><ele>373.33333333333337</ele><time>2026-04-24T14:37:00.97Z</time></trkpt><trkpt lat="45.7555138" lon="9.1526136"><ele>374.0</ele><time>2026-04-24T14:37:01.97Z</time></trkpt><trkpt lat="45.7555968" lon="9.1528033"><ele>374.0</ele><time>2026-04-24T14:37:02.969Z</time></trkpt><trkpt lat="45.7556766" lon="9.1529962"><ele>374.0</ele><time>2026-04-24T14:37:03.969Z</time></trkpt><trkpt lat="45.7557563" lon="9.1531932"><ele>374.0</ele><time>2026-04-24T14:37:04.969Z</time></trkpt><trkpt lat="45.7558272" lon="9.1533731"><ele>375.25</ele><time>2026-04-24T14:37:05.969Z</time></trkpt><trkpt lat="45.755899" lon="9.1535559"><ele>376.5</ele><time>2026-04-24T14:37:06.969Z</time></trkpt><trkpt lat="45.7559717" lon="9.1537362"><ele>377.75</ele><time>2026-04-24T14:37:07.969Z</time></trkpt><trkpt lat="45.7560425" lon="9.153909"><ele>379.0</ele><time>2026-04-24T14:37:08.969Z</time></trkpt><trkpt lat="45.75611" lon="9.1540716"><ele>380.0</ele><time>2026-04-24T14:37:09.969Z</time></trkpt><trkpt lat="45.7561791" lon="9.1542391"><ele>381.0</ele><time>2026-04-24T14:37:10.969Z</time></trkpt><trkpt lat="45.7562479" lon="9.1544059"><ele>382.0</ele><time>2026-04-24T14:37:11.969Z</time></trkpt><trkpt lat="45.7563181" lon="9.154579"><ele>383.0</ele><time>2026-04-24T14:37:12.969Z</time></trkpt><trkpt lat="45.7563806" lon="9.1547356"><ele>383.5</ele><time>2026-04-24T14:37:13.969Z</time></trkpt><trkpt lat="45.7564433" lon="9.1548942"><ele>384.0</ele><time>2026-04-24T14:37:14.969Z</time></trkpt><trkpt lat="45.7565051" lon="9.1550502"><ele>384.5</ele><time>2026-04-24T14:37:15.969Z</time></trkpt><trkpt lat="45.7565639" lon="9.155198"><ele>385.0</ele><time>2026-04-24T14:37:16.969Z</time></trkpt><trkpt lat="45.7566191" lon="9.1553363"><ele>385.0</ele><time>2026-04-24T14:37:17.97Z</time></trkpt><trkpt lat="45.7566763" lon="9.1554771"><ele>385.0</ele><time>2026-04-24T14:37:18.969Z</time></trkpt><trkpt lat="45.7567339" lon="9.155617"><ele>385.0</ele><time>2026-04-24T14:37:19.969Z</time></trkpt><trkpt lat="45.7567933" lon="9.1557593"><ele>385.0</ele><time>2026-04-24T14:37:20.969Z</time></trkpt><trkpt lat="45.7568514" lon="9.1558961"><ele>388.0</ele><time>2026-04-24T14:37:21.969Z</time></trkpt><trkpt lat="45.7569121" lon="9.1560368"><ele>391.0</ele><time>2026-04-24T14:37:22.969Z</time></trkpt><trkpt lat="45.7569776" lon="9.1561902"><ele>394.0</ele><time>2026-04-24T14:37:23.969Z</time></trkpt><trkpt lat="45.7570411" lon="9.1563371"><ele>397.0</ele><time>2026-04-24T14:37:24.969Z</time></trkpt><trkpt lat="45.7571082" lon="9.1564912"><ele>396.0</ele><time>2026-04-24T14:37:25.968Z</time></trkpt><trkpt lat="45.7571787" lon="9.1566536"><ele>395.0</ele><time>2026-04-24T14:37:26.968Z</time></trkpt><trkpt lat="45.7572503" lon="9.156819"><ele>394.0</ele><time>2026-04-24T14:37:27.968Z</time></trkpt><trkpt lat="45.7573248" lon="9.1569918"><ele>393.0</ele><time>2026-04-24T14:37:28.968Z</time></trkpt><trkpt lat="45.7573995" lon="9.1571676"><ele>393.0</ele><time>2026-04-24T14:37:29.968Z</time></trkpt><trkpt lat="45.7574762" lon="9.1573492"><ele>393.0</ele><time>2026-04-24T14:37:30.968Z</time></trkpt><trkpt lat="45.7575547" lon="9.1575302"><ele>393.0</ele><time>2026-04-24T14:37:31.968Z</time></trkpt><trkpt lat="45.7576323" lon="9.1577083"><ele>393.0</ele><time>2026-04-24T14:37:32.968Z</time></trkpt><trkpt lat="45.7577086" lon="9.1578836"><ele>394.0</ele><time>2026-04-24T14:37:33.968Z</time></trkpt><trkpt lat="45.7577833" lon="9.1580557"><ele>395.0</ele><time>2026-04-24T14:37:34.968Z</time></trkpt><trkpt lat="45.7578558" lon="9.1582194"><ele>396.0</ele><time>2026-04-24T14:37:35.968Z</time></trkpt><trkpt lat="45.7579282" lon="9.1583806"><ele>397.0</ele><time>2026-04-24T14:37:36.968Z</time></trkpt><trkpt lat="45.7579988" lon="9.1585374"><ele>397.0</ele><time>2026-04-24T14:37:37.968Z</time></trkpt><trkpt lat="45.7580687" lon="9.1586949"><ele>397.0</ele><time>2026-04-24T14:37:38.968Z</time></trkpt><trkpt lat="45.7581387" lon="9.1588535"><ele>397.0</ele><time>2026-04-24T14:37:39.968Z</time></trkpt><trkpt lat="45.7582102" lon="9.1590177"><ele>397.0</ele><time>2026-04-24T14:37:40.968Z</time></trkpt><trkpt lat="45.7582808" lon="9.1591807"><ele>397.0</ele><time>2026-04-24T14:37:41.968Z</time></trkpt><trkpt lat="45.7583516" lon="9.1593453"><ele>397.0</ele><time>2026-04-24T14:37:42.968Z</time></trkpt><trkpt lat="45.7584185" lon="9.1595026"><ele>397.0</ele><time>2026-04-24T14:37:43.968Z</time></trkpt><trkpt lat="45.7584901" lon="9.1596708"><ele>397.0</ele><time>2026-04-24T14:37:44.968Z</time></trkpt><trkpt lat="45.7585607" lon="9.1598303"><ele>395.0</ele><time>2026-04-24T14:37:45.968Z</time></trkpt><trkpt lat="45.7586374" lon="9.1599865"><ele>393.0</ele><time>2026-04-24T14:37:46.968Z</time></trkpt><trkpt lat="45.7587224" lon="9.1601394"><ele>391.0</ele><time>2026-04-24T14:37:47.968Z</time></trkpt><trkpt lat="45.7588162" lon="9.1602751"><ele>389.0</ele><time>2026-04-24T14:37:48.969Z</time></trkpt><trkpt lat="45.7589164" lon="9.1603943"><ele>389.0</ele><time>2026-04-24T14:37:49.968Z</time></trkpt><trkpt lat="45.7590296" lon="9.1605126"><ele>389.0</ele><time>2026-04-24T14:37:50.968Z</time></trkpt><trkpt lat="45.7591488" lon="9.1606286"><ele>389.0</ele><time>2026-04-24T14:37:51.968Z</time></trkpt><trkpt lat="45.7592713" lon="9.1607492"><ele>389.0</ele><time>2026-04-24T14:37:52.968Z</time></trkpt><trkpt lat="45.7593965" lon="9.1608699"><ele>385.0</ele><time>2026-04-24T14:37:53.968Z</time></trkpt><trkpt lat="45.7595236" lon="9.1609945"><ele>381.0</ele><time>2026-04-24T14:37:54.968Z</time></trkpt><trkpt lat="45.7596547" lon="9.1611227"><ele>377.0</ele><time>2026-04-24T14:37:55.968Z</time></trkpt><trkpt lat="45.7597788" lon="9.1612445"><ele>377.0</ele><time>2026-04-24T14:37:56.968Z</time></trkpt><trkpt lat="45.7599042" lon="9.1613664"><ele>377.0</ele><time>2026-04-24T14:37:57.968Z</time></trkpt><trkpt lat="45.7600228" lon="9.161482"><ele>377.0</ele><time>2026-04-24T14:37:58.968Z</time></trkpt><trkpt lat="45.7601357" lon="9.1615921"><ele>377.0</ele><time>2026-04-24T14:37:59.968Z</time></trkpt><trkpt lat="45.7602486" lon="9.1617062"><ele>374.75</ele><time>2026-04-24T14:38:00.968Z</time></trkpt><trkpt lat="45.7603524" lon="9.1618165"><ele>372.5</ele><time>2026-04-24T14:38:01.968Z</time></trkpt><trkpt lat="45.7604517" lon="9.1619323"><ele>370.25</ele><time>2026-04-24T14:38:02.968Z</time></trkpt><trkpt lat="45.7605406" lon="9.16205"><ele>368.0</ele><time>2026-04-24T14:38:03.968Z</time></trkpt><trkpt lat="45.7606066" lon="9.1621584"><ele>368.0</ele><time>2026-04-24T14:38:04.968Z</time></trkpt><trkpt lat="45.7606501" lon="9.162266"><ele>368.0</ele><time>2026-04-24T14:38:05.969Z</time></trkpt><trkpt lat="45.7606744" lon="9.1623761"><ele>368.0</ele><time>2026-04-24T14:38:06.968Z</time></trkpt><trkpt lat="45.7606764" lon="9.1624987"><ele>368.0</ele><time>2026-04-24T14:38:07.968Z</time></trkpt><trkpt lat="45.7606655" lon="9.1626272"><ele>368.0</ele><time>2026-04-24T14:38:08.968Z</time></trkpt><trkpt lat="45.7606352" lon="9.162758"><ele>368.0</ele><time>2026-04-24T14:38:09.968Z</time></trkpt><trkpt lat="45.7605913" lon="9.162887"><ele>368.5</ele><time>2026-04-24T14:38:10.968Z</time></trkpt><trkpt lat="45.7605355" lon="9.163023"><ele>369.0</ele><time>2026-04-24T14:38:11.968Z</time></trkpt><trkpt lat="45.760473" lon="9.163168"><ele>369.5</ele><time>2026-04-24T14:38:12.968Z</time></trkpt><trkpt lat="45.7604059" lon="9.163317"><ele>370.0</ele><time>2026-04-24T14:38:13.969Z</time></trkpt><trkpt lat="45.7603374" lon="9.1634723"><ele>369.25</ele><time>2026-04-24T14:38:14.968Z</time></trkpt><trkpt lat="45.7602668" lon="9.1636329"><ele>368.5</ele><time>2026-04-24T14:38:15.968Z</time></trkpt><trkpt lat="45.7601979" lon="9.1637931"><ele>367.75</ele><time>2026-04-24T14:38:16.968Z</time></trkpt><trkpt lat="45.7601309" lon="9.1639461"><ele>367.0</ele><time>2026-04-24T14:38:17.969Z</time></trkpt><trkpt lat="45.7600688" lon="9.1640857"><ele>368.8</ele><time>2026-04-24T14:38:18.968Z</time></trkpt><trkpt lat="45.7600195" lon="9.1642189"><ele>370.6</ele><time>2026-04-24T14:38:19.968Z</time></trkpt><trkpt lat="45.7599842" lon="9.16435"><ele>372.40000000000003</ele><time>2026-04-24T14:38:20.968Z</time></trkpt><trkpt lat="45.7599552" lon="9.1644738"><ele>374.20000000000005</ele><time>2026-04-24T14:38:21.968Z</time></trkpt><trkpt lat="45.7599838" lon="9.1645898"><ele>376.0</ele><time>2026-04-24T14:38:22.968Z</time></trkpt><trkpt lat="45.7600125" lon="9.1647001"><ele>376.0</ele><time>2026-04-24T14:38:23.969Z</time></trkpt><trkpt lat="45.7600674" lon="9.1647988"><ele>376.0</ele><time>2026-04-24T14:38:24.968Z</time></trkpt><trkpt lat="45.7601428" lon="9.1648802"><ele>376.0</ele><time>2026-04-24T14:38:25.968Z</time></trkpt><trkpt lat="45.7602388" lon="9.1649431"><ele>376.0</ele><time>2026-04-24T14:38:26.969Z</time></trkpt><trkpt lat="45.760347" lon="9.1649905"><ele>376.0</ele><time>2026-04-24T14:38:27.968Z</time></trkpt><trkpt lat="45.7604723" lon="9.1650249"><ele>379.0</ele><time>2026-04-24T14:38:28.968Z</time></trkpt><trkpt lat="45.7606022" lon="9.1650538"><ele>382.0</ele><time>2026-04-24T14:38:29.968Z</time></trkpt><trkpt lat="45.7607282" lon="9.1650838"><ele>385.0</ele><time>2026-04-24T14:38:30.969Z</time></trkpt><trkpt lat="45.7608431" lon="9.1651259"><ele>388.0</ele><time>2026-04-24T14:38:31.968Z</time></trkpt><trkpt lat="45.7609447" lon="9.1651905"><ele>388.79999999999995</ele><time>2026-04-24T14:38:32.968Z</time></trkpt><trkpt lat="45.7610344" lon="9.1652724"><ele>389.6</ele><time>2026-04-24T14:38:33.969Z</time></trkpt><trkpt lat="45.7611101" lon="9.1653849"><ele>390.4</ele><time>2026-04-24T14:38:34.968Z</time></trkpt><trkpt lat="45.7611563" lon="9.1655179"><ele>391.20000000000005</ele><time>2026-04-24T14:38:35.968Z</time></trkpt><trkpt lat="45.7611923" lon="9.165662"><ele>392.0</ele><time>2026-04-24T14:38:36.968Z</time></trkpt><trkpt lat="45.7612124" lon="9.1658257"><ele>392.5</ele><time>2026-04-24T14:38:37.969Z</time></trkpt><trkpt lat="45.7612306" lon="9.1659989"><ele>393.0</ele><time>2026-04-24T14:38:38.968Z</time></trkpt><trkpt lat="45.7612454" lon="9.1661846"><ele>393.5</ele><time>2026-04-24T14:38:39.968Z</time></trkpt><trkpt lat="45.761262" lon="9.1663761"><ele>394.0</ele><time>2026-04-24T14:38:40.968Z</time></trkpt><trkpt lat="45.7612809" lon="9.166577"><ele>392.33333333333337</ele><time>2026-04-24T14:38:41.968Z</time></trkpt><trkpt lat="45.7613013" lon="9.1667914"><ele>390.66666666666663</ele><time>2026-04-24T14:38:42.969Z</time></trkpt><trkpt lat="45.7613212" lon="9.1670179"><ele>389.0</ele><time>2026-04-24T14:38:43.968Z</time></trkpt><trkpt lat="45.7613407" lon="9.1672486"><ele>387.0</ele><time>2026-04-24T14:38:44.968Z</time></trkpt><trkpt lat="45.7613592" lon="9.1674749"><ele>385.0</ele><time>2026-04-24T14:38:45.968Z</time></trkpt><trkpt lat="45.7613758" lon="9.1676935"><ele>383.0</ele><time>2026-04-24T14:38:46.968Z</time></trkpt><trkpt lat="45.7613933" lon="9.1679004"><ele>383.0</ele><time>2026-04-24T14:38:47.968Z</time></trkpt><trkpt lat="45.7614092" lon="9.1680996"><ele>383.0</ele><time>2026-04-24T14:38:48.968Z</time></trkpt><trkpt lat="45.7614257" lon="9.1682944"><ele>383.0</ele><time>2026-04-24T14:38:49.968Z</time></trkpt><trkpt lat="45.7614409" lon="9.1684857"><ele>383.0</ele><time>2026-04-24T14:38:50.968Z</time></trkpt><trkpt lat="45.7614562" lon="9.1686773"><ele>383.5</ele><time>2026-04-24T14:38:51.968Z</time></trkpt><trkpt lat="45.7614719" lon="9.1688673"><ele>384.0</ele><time>2026-04-24T14:38:52.968Z</time></trkpt><trkpt lat="45.7614886" lon="9.1690566"><ele>384.5</ele><time>2026-04-24T14:38:53.968Z</time></trkpt><trkpt lat="45.7615036" lon="9.1692478"><ele>385.0</ele><time>2026-04-24T14:38:54.968Z</time></trkpt><trkpt lat="45.7615178" lon="9.1694391"><ele>385.25</ele><time>2026-04-24T14:38:55.968Z</time></trkpt><trkpt lat="45.7615315" lon="9.1696313"><ele>385.5</ele><time>2026-04-24T14:38:56.968Z</time></trkpt><trkpt lat="45.7615478" lon="9.1698251"><ele>385.75</ele><time>2026-04-24T14:38:57.968Z</time></trkpt><trkpt lat="45.7615621" lon="9.1700208"><ele>386.0</ele><time>2026-04-24T14:38:58.968Z</time></trkpt><trkpt lat="45.7615778" lon="9.1702165"><ele>386.5</ele><time>2026-04-24T14:38:59.968Z</time></trkpt><trkpt lat="45.761593" lon="9.1704122"><ele>387.0</ele><time>2026-04-24T14:39:00.968Z</time></trkpt><trkpt lat="45.7616077" lon="9.1706036"><ele>387.5</ele><time>2026-04-24T14:39:01.968Z</time></trkpt><trkpt lat="45.7616228" lon="9.1707893"><ele>388.0</ele><time>2026-04-24T14:39:02.968Z</time></trkpt><trkpt lat="45.7616393" lon="9.1709686"><ele>389.25</ele><time>2026-04-24T14:39:03.968Z</time></trkpt><trkpt lat="45.7616556" lon="9.1711436"><ele>390.5</ele><time>2026-04-24T14:39:04.968Z</time></trkpt><trkpt lat="45.7616682" lon="9.1713172"><ele>391.75</ele><time>2026-04-24T14:39:05.968Z</time></trkpt><trkpt lat="45.7616801" lon="9.1714908"><ele>393.0</ele><time>2026-04-24T14:39:06.969Z</time></trkpt><trkpt lat="45.7616933" lon="9.1716604"><ele>394.0</ele><time>2026-04-24T14:39:07.968Z</time></trkpt><trkpt lat="45.7617092" lon="9.1718214"><ele>395.0</ele><time>2026-04-24T14:39:08.968Z</time></trkpt><trkpt lat="45.7617323" lon="9.1719781"><ele>396.0</ele><time>2026-04-24T14:39:09.968Z</time></trkpt><trkpt lat="45.7617615" lon="9.1721334"><ele>397.0</ele><time>2026-04-24T14:39:10.968Z</time></trkpt><trkpt lat="45.7618022" lon="9.1722815"><ele>398.0</ele><time>2026-04-24T14:39:11.968Z</time></trkpt><trkpt lat="45.761851" lon="9.1724245"><ele>396.25</ele><time>2026-04-24T14:39:12.968Z</time></trkpt><trkpt lat="45.761912" lon="9.1725642"><ele>394.5</ele><time>2026-04-24T14:39:13.968Z</time></trkpt><trkpt lat="45.7619826" lon="9.1726913"><ele>392.75</ele><time>2026-04-24T14:39:14.968Z</time></trkpt><trkpt lat="45.7620682" lon="9.1728106"><ele>391.0</ele><time>2026-04-24T14:39:15.968Z</time></trkpt><trkpt lat="45.7621598" lon="9.1729198"><ele>391.0</ele><time>2026-04-24T14:39:16.968Z</time></trkpt><trkpt lat="45.7622632" lon="9.1730134"><ele>391.0</ele><time>2026-04-24T14:39:17.968Z</time></trkpt><trkpt lat="45.762376" lon="9.1730921"><ele>391.0</ele><time>2026-04-24T14:39:18.968Z</time></trkpt><trkpt lat="45.7624951" lon="9.1731613"><ele>391.0</ele><time>2026-04-24T14:39:19.969Z</time></trkpt><trkpt lat="45.7626229" lon="9.1732209"><ele>387.0</ele><time>2026-04-24T14:39:20.968Z</time></trkpt><trkpt lat="45.7627544" lon="9.1732767"><ele>383.0</ele><time>2026-04-24T14:39:21.968Z</time></trkpt><trkpt lat="45.7628843" lon="9.1733337"><ele>379.0</ele><time>2026-04-24T14:39:22.968Z</time></trkpt><trkpt lat="45.763013" lon="9.1733935"><ele>375.0</ele><time>2026-04-24T14:39:23.968Z</time></trkpt><trkpt lat="45.7631369" lon="9.1734524"><ele>375.0</ele><time>2026-04-24T14:39:24.968Z</time></trkpt><trkpt lat="45.7632501" lon="9.1735127"><ele>375.0</ele><time>2026-04-24T14:39:25.968Z</time></trkpt><trkpt lat="45.7633598" lon="9.1735896"><ele>375.0</ele><time>2026-04-24T14:39:26.968Z</time></trkpt><trkpt lat="45.7634593" lon="9.1736925"><ele>375.0</ele><time>2026-04-24T14:39:27.968Z</time></trkpt><trkpt lat="45.7635535" lon="9.1738208"><ele>373.25</ele><time>2026-04-24T14:39:28.968Z</time></trkpt><trkpt lat="45.7636463" lon="9.1739657"><ele>371.5</ele><time>2026-04-24T14:39:29.968Z</time></trkpt><trkpt lat="45.7637395" lon="9.1741267"><ele>369.75</ele><time>2026-04-24T14:39:30.968Z</time></trkpt><trkpt lat="45.763835" lon="9.1742885"><ele>368.0</ele><time>2026-04-24T14:39:31.968Z</time></trkpt><trkpt lat="45.7639296" lon="9.1744458"><ele>367.75</ele><time>2026-04-24T14:39:32.968Z</time></trkpt><trkpt lat="45.7640247" lon="9.174601"><ele>367.5</ele><time>2026-04-24T14:39:33.968Z</time></trkpt><trkpt lat="45.7641179" lon="9.17475"><ele>367.25</ele><time>2026-04-24T14:39:34.968Z</time></trkpt><trkpt lat="45.7642049" lon="9.1748785"><ele>367.0</ele><time>2026-04-24T14:39:35.968Z</time></trkpt><trkpt lat="45.764297" lon="9.1750022"><ele>366.0</ele><time>2026-04-24T14:39:36.968Z</time></trkpt><trkpt lat="45.7644022" lon="9.1750993"><ele>365.0</ele><time>2026-04-24T14:39:37.968Z</time></trkpt><trkpt lat="45.7645089" lon="9.1751838"><ele>364.0</ele><time>2026-04-24T14:39:38.968Z</time></trkpt><trkpt lat="45.7646259" lon="9.1752431"><ele>363.0</ele><time>2026-04-24T14:39:39.968Z</time></trkpt><trkpt lat="45.7647433" lon="9.1752759"><ele>363.0</ele><time>2026-04-24T14:39:40.968Z</time></trkpt><trkpt lat="45.7648643" lon="9.175288"><ele>363.0</ele><time>2026-04-24T14:39:41.968Z</time></trkpt><trkpt lat="45.7649937" lon="9.1752897"><ele>363.0</ele><time>2026-04-24T14:39:42.968Z</time></trkpt><trkpt lat="45.7651251" lon="9.1752861"><ele>363.0</ele><time>2026-04-24T14:39:43.968Z</time></trkpt><trkpt lat="45.7652554" lon="9.1752759"><ele>362.0</ele><time>2026-04-24T14:39:44.968Z</time></trkpt><trkpt lat="45.7653842" lon="9.175265"><ele>361.0</ele><time>2026-04-24T14:39:45.968Z</time></trkpt><trkpt lat="45.7655098" lon="9.1752578"><ele>360.0</ele><time>2026-04-24T14:39:46.968Z</time></trkpt><trkpt lat="45.7656359" lon="9.1752568"><ele>359.0</ele><time>2026-04-24T14:39:47.968Z</time></trkpt><trkpt lat="45.7657594" lon="9.1752686"><ele>359.0</ele><time>2026-04-24T14:39:48.969Z</time></trkpt><trkpt lat="45.7658778" lon="9.1753026"><ele>359.0</ele><time>2026-04-24T14:39:49.968Z</time></trkpt><trkpt lat="45.76599" lon="9.1753551"><ele>359.0</ele><time>2026-04-24T14:39:50.968Z</time></trkpt><trkpt lat="45.7660997" lon="9.1754264"><ele>359.0</ele><time>2026-04-24T14:39:51.968Z</time></trkpt><trkpt lat="45.7662037" lon="9.1755149"><ele>356.75</ele><time>2026-04-24T14:39:52.968Z</time></trkpt><trkpt lat="45.7662993" lon="9.1756201"><ele>354.5</ele><time>2026-04-24T14:39:53.968Z</time></trkpt><trkpt lat="45.7663854" lon="9.1757385"><ele>352.25</ele><time>2026-04-24T14:39:54.968Z</time></trkpt><trkpt lat="45.7664574" lon="9.1758684"><ele>350.0</ele><time>2026-04-24T14:39:55.968Z</time></trkpt><trkpt lat="45.7665169" lon="9.176002"><ele>349.33333333333337</ele><time>2026-04-24T14:39:56.968Z</time></trkpt><trkpt lat="45.7665602" lon="9.1761188"><ele>348.6666666666667</ele><time>2026-04-24T14:39:57.968Z</time></trkpt><trkpt lat="45.7665921" lon="9.1762178"><ele>348.0</ele><time>2026-04-24T14:39:58.968Z</time></trkpt><trkpt lat="45.7666308" lon="9.1763508"><ele>347.3333333333333</ele><time>2026-04-24T14:40:00.969Z</time></trkpt><trkpt lat="45.7666584" lon="9.1764468"><ele>346.66666666666663</ele><time>2026-04-24T14:40:02.968Z</time></trkpt><trkpt lat="45.7666828" lon="9.1765314"><ele>346.0</ele><time>2026-04-24T14:40:05.968Z</time></trkpt><trkpt lat="45.7667084" lon="9.1766525"><ele>346.0</ele><time>2026-04-24T14:40:22.968Z</time></trkpt><trkpt lat="45.7667498" lon="9.176763"><ele>346.0</ele><time>2026-04-24T14:40:24.968Z</time></trkpt><trkpt lat="45.7667866" lon="9.1768887"><ele>346.0</ele><time>2026-04-24T14:40:26.968Z</time></trkpt><trkpt lat="45.7668234" lon="9.1770259"><ele>346.0</ele><time>2026-04-24T14:40:28.968Z</time></trkpt><trkpt lat="45.7668684" lon="9.1771838"><ele>346.0</ele><time>2026-04-24T14:40:30.968Z</time></trkpt><trkpt lat="45.7668939" lon="9.1772764"><ele>346.5</ele><time>2026-04-24T14:40:31.968Z</time></trkpt><trkpt lat="45.7669204" lon="9.1773797"><ele>347.0</ele><time>2026-04-24T14:40:32.968Z</time></trkpt><trkpt lat="45.7669493" lon="9.1774889"><ele>347.5</ele><time>2026-04-24T14:40:33.968Z</time></trkpt><trkpt lat="45.7669805" lon="9.1776047"><ele>348.0</ele><time>2026-04-24T14:40:34.968Z</time></trkpt><trkpt lat="45.7670134" lon="9.1777275"><ele>348.5</ele><time>2026-04-24T14:40:35.968Z</time></trkpt><trkpt lat="45.7670496" lon="9.1778564"><ele>349.0</ele><time>2026-04-24T14:40:36.968Z</time></trkpt><trkpt lat="45.7670868" lon="9.1779889"><ele>349.0</ele><time>2026-04-24T14:40:37.968Z</time></trkpt><trkpt lat="45.7671225" lon="9.1781258"><ele>349.0</ele><time>2026-04-24T14:40:38.968Z</time></trkpt><trkpt lat="45.7671607" lon="9.1782677"><ele>349.0</ele><time>2026-04-24T14:40:39.968Z</time></trkpt><trkpt lat="45.7672009" lon="9.1784184"><ele>349.0</ele><time>2026-04-24T14:40:40.969Z</time></trkpt><trkpt lat="45.7672425" lon="9.1785706"><ele>349.0</ele><time>2026-04-24T14:40:41.968Z</time></trkpt><trkpt lat="45.7672836" lon="9.1787217"><ele>349.0</ele><time>2026-04-24T14:40:42.968Z</time></trkpt><trkpt lat="45.7673236" lon="9.1788703"><ele>349.0</ele><time>2026-04-24T14:40:43.968Z</time></trkpt><trkpt lat="45.7673599" lon="9.1790133"><ele>349.0</ele><time>2026-04-24T14:40:44.968Z</time></trkpt><trkpt lat="45.7673907" lon="9.1791553"><ele>349.0</ele><time>2026-04-24T14:40:45.968Z</time></trkpt><trkpt lat="45.7674199" lon="9.1792947"><ele>349.0</ele><time>2026-04-24T14:40:46.968Z</time></trkpt><trkpt lat="45.7674528" lon="9.179428"><ele>349.16666666666663</ele><time>2026-04-24T14:40:47.968Z</time></trkpt><trkpt lat="45.7674892" lon="9.1795538"><ele>349.3333333333333</ele><time>2026-04-24T14:40:48.968Z</time></trkpt><trkpt lat="45.7675298" lon="9.1796721"><ele>349.5</ele><time>2026-04-24T14:40:49.968Z</time></trkpt><trkpt lat="45.767573" lon="9.1797738"><ele>349.6666666666667</ele><time>2026-04-24T14:40:50.968Z</time></trkpt><trkpt lat="45.7676182" lon="9.1798554"><ele>349.83333333333337</ele><time>2026-04-24T14:40:51.968Z</time></trkpt><trkpt lat="45.7676618" lon="9.1799268"><ele>350.0</ele><time>2026-04-24T14:40:52.968Z</time></trkpt><trkpt lat="45.7677321" lon="9.1800265"><ele>350.5</ele><time>2026-04-24T14:40:54.967Z</time></trkpt><trkpt lat="45.7677881" lon="9.1801016"><ele>351.0</ele><time>2026-04-24T14:40:56.967Z</time></trkpt><trkpt lat="45.767837" lon="9.180163"><ele>351.5</ele><time>2026-04-24T14:40:58.967Z</time></trkpt><trkpt lat="45.7678897" lon="9.1802303"><ele>352.0</ele><time>2026-04-24T14:41:00.967Z</time></trkpt><trkpt lat="45.7679475" lon="9.180306"><ele>352.5</ele><time>2026-04-24T14:41:03.967Z</time></trkpt><trkpt lat="45.7679987" lon="9.1803677"><ele>353.0</ele><time>2026-04-24T14:41:13.967Z</time></trkpt><trkpt lat="45.7680682" lon="9.1804602"><ele>353.0</ele><time>2026-04-24T14:41:15.967Z</time></trkpt><trkpt lat="45.7681464" lon="9.1805583"><ele>353.0</ele><time>2026-04-24T14:41:17.967Z</time></trkpt><trkpt lat="45.7682208" lon="9.1806631"><ele>353.0</ele><time>2026-04-24T14:41:19.967Z</time></trkpt><trkpt lat="45.7682873" lon="9.1807502"><ele>353.0</ele><time>2026-04-24T14:41:21.967Z</time></trkpt><trkpt lat="45.7683377" lon="9.1808117"><ele>353.0</ele><time>2026-04-24T14:41:23.967Z</time></trkpt><trkpt lat="45.7683855" lon="9.1808777"><ele>353.0</ele><time>2026-04-24T14:41:33.967Z</time></trkpt><trkpt lat="45.7684318" lon="9.1809447"><ele>352.83333333333337</ele><time>2026-04-24T14:41:35.967Z</time></trkpt><trkpt lat="45.7684958" lon="9.1810317"><ele>352.6666666666667</ele><time>2026-04-24T14:41:37.967Z</time></trkpt><trkpt lat="45.768563" lon="9.181119"><ele>352.5</ele><time>2026-04-24T14:41:39.967Z</time></trkpt><trkpt lat="45.7686245" lon="9.1811964"><ele>352.3333333333333</ele><time>2026-04-24T14:41:41.967Z</time></trkpt><trkpt lat="45.7686859" lon="9.1812809"><ele>352.16666666666663</ele><time>2026-04-24T14:41:44.967Z</time></trkpt><trkpt lat="45.7687584" lon="9.1813724"><ele>352.0</ele><time>2026-04-24T14:41:47.967Z</time></trkpt><trkpt lat="45.768821" lon="9.1814602"><ele>352.20000000000005</ele><time>2026-04-24T14:41:49.967Z</time></trkpt><trkpt lat="45.7688764" lon="9.1815413"><ele>352.4</ele><time>2026-04-24T14:41:52.967Z</time></trkpt><trkpt lat="45.7689308" lon="9.1816105"><ele>352.6</ele><time>2026-04-24T14:41:56.967Z</time></trkpt><trkpt lat="45.7690069" lon="9.1817017"><ele>352.79999999999995</ele><time>2026-04-24T14:41:58.967Z</time></trkpt><trkpt lat="45.7690928" lon="9.1818027"><ele>353.0</ele><time>2026-04-24T14:42:00.967Z</time></trkpt><trkpt lat="45.7691716" lon="9.1819008"><ele>353.0</ele><time>2026-04-24T14:42:02.967Z</time></trkpt><trkpt lat="45.7692244" lon="9.1819715"><ele>353.0</ele><time>2026-04-24T14:42:04.967Z</time></trkpt><trkpt lat="45.7692698" lon="9.1820561"><ele>353.0</ele><time>2026-04-24T14:42:14.968Z</time></trkpt><trkpt lat="45.7693139" lon="9.1821284"><ele>353.0</ele><time>2026-04-24T14:42:16.967Z</time></trkpt><trkpt lat="45.7693701" lon="9.182215"><ele>353.0</ele><time>2026-04-24T14:42:19.967Z</time></trkpt><trkpt lat="45.7694157" lon="9.1822963"><ele>353.0</ele><time>2026-04-24T14:42:22.967Z</time></trkpt><trkpt lat="45.7694574" lon="9.1824523"><ele>353.59999999999997</ele><time>2026-04-24T14:42:24.968Z</time></trkpt><trkpt lat="45.7694746" lon="9.182615"><ele>354.2</ele><time>2026-04-24T14:42:26.967Z</time></trkpt><trkpt lat="45.7694967" lon="9.1827458"><ele>354.8</ele><time>2026-04-24T14:42:28.967Z</time></trkpt><trkpt lat="45.7695638" lon="9.1828123"><ele>355.4</ele><time>2026-04-24T14:42:30.967Z</time></trkpt><trkpt lat="45.7696704" lon="9.18283"><ele>356.0</ele><time>2026-04-24T14:42:32.967Z</time></trkpt><trkpt lat="45.769737" lon="9.1828436"><ele>356.0</ele><time>2026-04-24T14:42:33.967Z</time></trkpt><trkpt lat="45.7698122" lon="9.182877"><ele>356.0</ele><time>2026-04-24T14:42:34.967Z</time></trkpt><trkpt lat="45.7698971" lon="9.1829292"><ele>356.0</ele><time>2026-04-24T14:42:35.967Z</time></trkpt><trkpt lat="45.7699934" lon="9.182993"><ele>356.0</ele><time>2026-04-24T14:42:36.967Z</time></trkpt><trkpt lat="45.7700963" lon="9.1830675"><ele>356.0</ele><time>2026-04-24T14:42:37.967Z</time></trkpt><trkpt lat="45.7702068" lon="9.1831494"><ele>356.5</ele><time>2026-04-24T14:42:38.968Z</time></trkpt><trkpt lat="45.7703198" lon="9.1832323"><ele>357.0</ele><time>2026-04-24T14:42:39.967Z</time></trkpt><trkpt lat="45.770428" lon="9.1833122"><ele>357.5</ele><time>2026-04-24T14:42:40.967Z</time></trkpt><trkpt lat="45.7705339" lon="9.1833901"><ele>358.0</ele><time>2026-04-24T14:42:41.967Z</time></trkpt><trkpt lat="45.7706402" lon="9.1834663"><ele>358.0</ele><time>2026-04-24T14:42:42.967Z</time></trkpt><trkpt lat="45.7707456" lon="9.1835429"><ele>358.0</ele><time>2026-04-24T14:42:43.967Z</time></trkpt><trkpt lat="45.7708506" lon="9.1836208"><ele>358.0</ele><time>2026-04-24T14:42:44.967Z</time></trkpt><trkpt lat="45.7709571" lon="9.1836986"><ele>358.0</ele><time>2026-04-24T14:42:45.967Z</time></trkpt><trkpt lat="45.7710657" lon="9.183776"><ele>359.0</ele><time>2026-04-24T14:42:46.967Z</time></trkpt><trkpt lat="45.7711781" lon="9.1838549"><ele>360.0</ele><time>2026-04-24T14:42:47.967Z</time></trkpt><trkpt lat="45.7712957" lon="9.1839399"><ele>361.0</ele><time>2026-04-24T14:42:48.967Z</time></trkpt><trkpt lat="45.7714153" lon="9.1840292"><ele>362.0</ele><time>2026-04-24T14:42:49.967Z</time></trkpt><trkpt lat="45.7715361" lon="9.1841221"><ele>362.75</ele><time>2026-04-24T14:42:50.967Z</time></trkpt><trkpt lat="45.7716619" lon="9.1842135"><ele>363.5</ele><time>2026-04-24T14:42:51.968Z</time></trkpt><trkpt lat="45.7717857" lon="9.1842983"><ele>364.25</ele><time>2026-04-24T14:42:52.967Z</time></trkpt><trkpt lat="45.7719067" lon="9.1843868"><ele>365.0</ele><time>2026-04-24T14:42:53.967Z</time></trkpt><trkpt lat="45.772026" lon="9.1844693"><ele>365.0</ele><time>2026-04-24T14:42:54.967Z</time></trkpt><trkpt lat="45.7721513" lon="9.1845426"><ele>365.0</ele><time>2026-04-24T14:42:55.967Z</time></trkpt><trkpt lat="45.7722779" lon="9.1845961"><ele>365.0</ele><time>2026-04-24T14:42:56.967Z</time></trkpt><trkpt lat="45.7724066" lon="9.184632"><ele>365.0</ele><time>2026-04-24T14:42:57.968Z</time></trkpt><trkpt lat="45.7725379" lon="9.1846514"><ele>365.0</ele><time>2026-04-24T14:42:58.967Z</time></trkpt><trkpt lat="45.7726695" lon="9.1846585"><ele>365.0</ele><time>2026-04-24T14:42:59.967Z</time></trkpt><trkpt lat="45.7728033" lon="9.1846582"><ele>365.0</ele><time>2026-04-24T14:43:00.967Z</time></trkpt><trkpt lat="45.772939" lon="9.1846652"><ele>365.0</ele><time>2026-04-24T14:43:01.967Z</time></trkpt><trkpt lat="45.7730737" lon="9.1846786"><ele>365.5</ele><time>2026-04-24T14:43:02.967Z</time></trkpt><trkpt lat="45.7732102" lon="9.1846907"><ele>366.0</ele><time>2026-04-24T14:43:03.967Z</time></trkpt><trkpt lat="45.7733487" lon="9.1846988"><ele>366.5</ele><time>2026-04-24T14:43:04.967Z</time></trkpt><trkpt lat="45.7734865" lon="9.1847054"><ele>367.0</ele><time>2026-04-24T14:43:05.967Z</time></trkpt><trkpt lat="45.7736203" lon="9.1847134"><ele>369.0</ele><time>2026-04-24T14:43:06.967Z</time></trkpt><trkpt lat="45.7737502" lon="9.1847297"><ele>371.0</ele><time>2026-04-24T14:43:07.967Z</time></trkpt><trkpt lat="45.7738757" lon="9.1847605"><ele>373.0</ele><time>2026-04-24T14:43:08.967Z</time></trkpt><trkpt lat="45.7739928" lon="9.1848102"><ele>375.0</ele><time>2026-04-24T14:43:09.967Z</time></trkpt><trkpt lat="45.774103" lon="9.1848791"><ele>375.0</ele><time>2026-04-24T14:43:10.967Z</time></trkpt><trkpt lat="45.7742072" lon="9.1849667"><ele>375.0</ele><time>2026-04-24T14:43:11.967Z</time></trkpt><trkpt lat="45.7743038" lon="9.1850715"><ele>375.0</ele><time>2026-04-24T14:43:12.967Z</time></trkpt><trkpt lat="45.7743919" lon="9.1851921"><ele>375.0</ele><time>2026-04-24T14:43:13.967Z</time></trkpt><trkpt lat="45.774475" lon="9.185333"><ele>377.75</ele><time>2026-04-24T14:43:14.967Z</time></trkpt><trkpt lat="45.7745555" lon="9.185487"><ele>380.5</ele><time>2026-04-24T14:43:15.967Z</time></trkpt><trkpt lat="45.7746373" lon="9.1856496"><ele>383.25</ele><time>2026-04-24T14:43:16.967Z</time></trkpt><trkpt lat="45.7747196" lon="9.185805"><ele>386.0</ele><time>2026-04-24T14:43:17.967Z</time></trkpt><trkpt lat="45.7748013" lon="9.1859484"><ele>386.0</ele><time>2026-04-24T14:43:18.967Z</time></trkpt><trkpt lat="45.7748853" lon="9.1860755"><ele>386.0</ele><time>2026-04-24T14:43:19.967Z</time></trkpt><trkpt lat="45.7749748" lon="9.1861799"><ele>386.0</ele><time>2026-04-24T14:43:20.967Z</time></trkpt><trkpt lat="45.7750672" lon="9.1862631"><ele>386.0</ele><time>2026-04-24T14:43:21.967Z</time></trkpt><trkpt lat="45.7751664" lon="9.1863299"><ele>385.5</ele><time>2026-04-24T14:43:22.967Z</time></trkpt><trkpt lat="45.7752612" lon="9.186369"><ele>385.0</ele><time>2026-04-24T14:43:23.967Z</time></trkpt><trkpt lat="45.7753584" lon="9.1864125"><ele>384.5</ele><time>2026-04-24T14:43:24.967Z</time></trkpt><trkpt lat="45.7754804" lon="9.1864262"><ele>384.0</ele><time>2026-04-24T14:43:25.967Z</time></trkpt><trkpt lat="45.7756094" lon="9.1863628"><ele>384.0</ele><time>2026-04-24T14:43:26.967Z</time></trkpt><trkpt lat="45.7757237" lon="9.1863275"><ele>384.0</ele><time>2026-04-24T14:43:27.967Z</time></trkpt><trkpt lat="45.7758353" lon="9.186276"><ele>384.0</ele><time>2026-04-24T14:43:28.967Z</time></trkpt><trkpt lat="45.7759555" lon="9.1862158"><ele>384.0</ele><time>2026-04-24T14:43:29.967Z</time></trkpt><trkpt lat="45.776078" lon="9.1861499"><ele>381.0</ele><time>2026-04-24T14:43:30.967Z</time></trkpt><trkpt lat="45.7762038" lon="9.1860854"><ele>378.0</ele><time>2026-04-24T14:43:31.967Z</time></trkpt><trkpt lat="45.7763337" lon="9.1860136"><ele>375.0</ele><time>2026-04-24T14:43:32.967Z</time></trkpt><trkpt lat="45.7764594" lon="9.1859429"><ele>372.0</ele><time>2026-04-24T14:43:33.967Z</time></trkpt><trkpt lat="45.7765805" lon="9.1858754"><ele>372.0</ele><time>2026-04-24T14:43:34.967Z</time></trkpt><trkpt lat="45.7767014" lon="9.1858126"><ele>372.0</ele><time>2026-04-24T14:43:35.967Z</time></trkpt><trkpt lat="45.776816" lon="9.1857541"><ele>372.0</ele><time>2026-04-24T14:43:36.967Z</time></trkpt><trkpt lat="45.7769299" lon="9.1856985"><ele>372.0</ele><time>2026-04-24T14:43:37.967Z</time></trkpt><trkpt lat="45.7770394" lon="9.1856461"><ele>372.20000000000005</ele><time>2026-04-24T14:43:38.967Z</time></trkpt><trkpt lat="45.7771494" lon="9.1856036"><ele>372.4</ele><time>2026-04-24T14:43:39.967Z</time></trkpt><trkpt lat="45.7772603" lon="9.1855691"><ele>372.6</ele><time>2026-04-24T14:43:40.967Z</time></trkpt><trkpt lat="45.7773694" lon="9.1855489"><ele>372.79999999999995</ele><time>2026-04-24T14:43:41.967Z</time></trkpt><trkpt lat="45.7774778" lon="9.1855405"><ele>373.0</ele><time>2026-04-24T14:43:42.967Z</time></trkpt><trkpt lat="45.7775825" lon="9.185549"><ele>373.0</ele><time>2026-04-24T14:43:43.967Z</time></trkpt><trkpt lat="45.7776762" lon="9.1855674"><ele>373.0</ele><time>2026-04-24T14:43:44.967Z</time></trkpt><trkpt lat="45.777761" lon="9.1855853"><ele>373.0</ele><time>2026-04-24T14:43:45.967Z</time></trkpt><trkpt lat="45.7778312" lon="9.1856063"><ele>373.0</ele><time>2026-04-24T14:43:46.967Z</time></trkpt><trkpt lat="45.7778941" lon="9.1856315"><ele>373.0</ele><time>2026-04-24T14:43:47.968Z</time></trkpt><trkpt lat="45.7779559" lon="9.1856604"><ele>373.0</ele><time>2026-04-24T14:43:48.968Z</time></trkpt><trkpt lat="45.7780242" lon="9.1856783"><ele>372.66666666666663</ele><time>2026-04-24T14:43:49.967Z</time></trkpt><trkpt lat="45.7780969" lon="9.1856823"><ele>372.3333333333333</ele><time>2026-04-24T14:43:50.968Z</time></trkpt><trkpt lat="45.7781781" lon="9.1856832"><ele>372.0</ele><time>2026-04-24T14:43:51.967Z</time></trkpt><trkpt lat="45.7782654" lon="9.1856924"><ele>371.6666666666667</ele><time>2026-04-24T14:43:52.967Z</time></trkpt><trkpt lat="45.7783581" lon="9.1857155"><ele>371.33333333333337</ele><time>2026-04-24T14:43:53.967Z</time></trkpt><trkpt lat="45.7784476" lon="9.1857477"><ele>371.0</ele><time>2026-04-24T14:43:54.967Z</time></trkpt><trkpt lat="45.7785339" lon="9.1857942"><ele>371.0</ele><time>2026-04-24T14:43:55.967Z</time></trkpt><trkpt lat="45.7786191" lon="9.1858556"><ele>371.0</ele><time>2026-04-24T14:43:56.967Z</time></trkpt><trkpt lat="45.7787012" lon="9.1859286"><ele>371.0</ele><time>2026-04-24T14:43:57.967Z</time></trkpt><trkpt lat="45.7787805" lon="9.1860109"><ele>371.0</ele><time>2026-04-24T14:43:58.967Z</time></trkpt><trkpt lat="45.7788599" lon="9.1860985"><ele>371.0</ele><time>2026-04-24T14:43:59.967Z</time></trkpt><trkpt lat="45.7789414" lon="9.1861873"><ele>371.0</ele><time>2026-04-24T14:44:00.968Z</time></trkpt><trkpt lat="45.7790184" lon="9.1862786"><ele>371.0</ele><time>2026-04-24T14:44:01.967Z</time></trkpt><trkpt lat="45.7790942" lon="9.1863682"><ele>371.0</ele><time>2026-04-24T14:44:02.967Z</time></trkpt><trkpt lat="45.7791609" lon="9.1864485"><ele>371.0</ele><time>2026-04-24T14:44:03.967Z</time></trkpt><trkpt lat="45.7792123" lon="9.1865132"><ele>371.0</ele><time>2026-04-24T14:44:04.968Z</time></trkpt><trkpt lat="45.7792675" lon="9.186581"><ele>371.0</ele><time>2026-04-24T14:44:05.967Z</time></trkpt><trkpt lat="45.7793233" lon="9.1866513"><ele>370.83333333333337</ele><time>2026-04-24T14:44:06.966Z</time></trkpt><trkpt lat="45.7793787" lon="9.1867253"><ele>370.6666666666667</ele><time>2026-04-24T14:44:07.966Z</time></trkpt><trkpt lat="45.7794329" lon="9.1868075"><ele>370.5</ele><time>2026-04-24T14:44:08.966Z</time></trkpt><trkpt lat="45.7794888" lon="9.1868968"><ele>370.3333333333333</ele><time>2026-04-24T14:44:09.966Z</time></trkpt><trkpt lat="45.7795442" lon="9.1869931"><ele>370.16666666666663</ele><time>2026-04-24T14:44:10.966Z</time></trkpt><trkpt lat="45.779602" lon="9.1870945"><ele>370.0</ele><time>2026-04-24T14:44:11.966Z</time></trkpt><trkpt lat="45.7796635" lon="9.1871997"><ele>370.0</ele><time>2026-04-24T14:44:12.966Z</time></trkpt><trkpt lat="45.7797292" lon="9.1873077"><ele>370.0</ele><time>2026-04-24T14:44:13.966Z</time></trkpt><trkpt lat="45.7797982" lon="9.1874158"><ele>370.0</ele><time>2026-04-24T14:44:14.966Z</time></trkpt><trkpt lat="45.7798713" lon="9.1875175"><ele>370.0</ele><time>2026-04-24T14:44:15.966Z</time></trkpt><trkpt lat="45.7799497" lon="9.1876157"><ele>370.0</ele><time>2026-04-24T14:44:16.966Z</time></trkpt><trkpt lat="45.7800318" lon="9.1877108"><ele>369.6</ele><time>2026-04-24T14:44:17.966Z</time></trkpt><trkpt lat="45.780115" lon="9.1878013"><ele>369.2</ele><time>2026-04-24T14:44:18.966Z</time></trkpt><trkpt lat="45.7801892" lon="9.1878779"><ele>368.79999999999995</ele><time>2026-04-24T14:44:19.966Z</time></trkpt><trkpt lat="45.7802478" lon="9.1879431"><ele>368.4</ele><time>2026-04-24T14:44:20.966Z</time></trkpt><trkpt lat="45.7803356" lon="9.188048"><ele>368.0</ele><time>2026-04-24T14:44:22.966Z</time></trkpt><trkpt lat="45.7804397" lon="9.1881531"><ele>367.33333333333337</ele><time>2026-04-24T14:44:24.967Z</time></trkpt><trkpt lat="45.7804989" lon="9.1882152"><ele>366.6666666666667</ele><time>2026-04-24T14:44:25.967Z</time></trkpt><trkpt lat="45.7805628" lon="9.1882845"><ele>366.0</ele><time>2026-04-24T14:44:26.966Z</time></trkpt><trkpt lat="45.7806306" lon="9.1883624"><ele>365.3333333333333</ele><time>2026-04-24T14:44:27.966Z</time></trkpt><trkpt lat="45.7807021" lon="9.188446"><ele>364.66666666666663</ele><time>2026-04-24T14:44:28.966Z</time></trkpt><trkpt lat="45.7807822" lon="9.1885308"><ele>364.0</ele><time>2026-04-24T14:44:29.966Z</time></trkpt><trkpt lat="45.7808622" lon="9.188624"><ele>364.0</ele><time>2026-04-24T14:44:30.967Z</time></trkpt><trkpt lat="45.7809423" lon="9.188721"><ele>364.0</ele><time>2026-04-24T14:44:31.966Z</time></trkpt><trkpt lat="45.7810171" lon="9.188811"><ele>364.0</ele><time>2026-04-24T14:44:32.966Z</time></trkpt><trkpt lat="45.7810798" lon="9.1888867"><ele>364.0</ele><time>2026-04-24T14:44:33.966Z</time></trkpt><trkpt lat="45.781133" lon="9.1889542"><ele>364.0</ele><time>2026-04-24T14:44:34.966Z</time></trkpt><trkpt lat="45.7811808" lon="9.1890151"><ele>364.0</ele><time>2026-04-24T14:44:35.966Z</time></trkpt><trkpt lat="45.7812286" lon="9.1890755"><ele>364.0</ele><time>2026-04-24T14:44:36.966Z</time></trkpt><trkpt lat="45.7812842" lon="9.1891428"><ele>364.0</ele><time>2026-04-24T14:44:37.966Z</time></trkpt><trkpt lat="45.7813479" lon="9.1892124"><ele>364.0</ele><time>2026-04-24T14:44:38.966Z</time></trkpt><trkpt lat="45.7814166" lon="9.1892894"><ele>364.0</ele><time>2026-04-24T14:44:39.966Z</time></trkpt><trkpt lat="45.78149" lon="9.1893733"><ele>364.0</ele><time>2026-04-24T14:44:40.966Z</time></trkpt><trkpt lat="45.7815658" lon="9.1894647"><ele>364.0</ele><time>2026-04-24T14:44:41.966Z</time></trkpt><trkpt lat="45.7816427" lon="9.1895483"><ele>364.0</ele><time>2026-04-24T14:44:42.966Z</time></trkpt><trkpt lat="45.7817244" lon="9.1896268"><ele>364.0</ele><time>2026-04-24T14:44:43.966Z</time></trkpt><trkpt lat="45.7818115" lon="9.1897054"><ele>364.0</ele><time>2026-04-24T14:44:44.966Z</time></trkpt><trkpt lat="45.7819028" lon="9.1897864"><ele>364.0</ele><time>2026-04-24T14:44:45.966Z</time></trkpt><trkpt lat="45.7819969" lon="9.1898717"><ele>364.0</ele><time>2026-04-24T14:44:46.966Z</time></trkpt><trkpt lat="45.782095" lon="9.18996"><ele>363.25</ele><time>2026-04-24T14:44:47.966Z</time></trkpt><trkpt lat="45.7821961" lon="9.1900507"><ele>362.5</ele><time>2026-04-24T14:44:48.966Z</time></trkpt><trkpt lat="45.7823007" lon="9.1901432"><ele>361.75</ele><time>2026-04-24T14:44:49.966Z</time></trkpt><trkpt lat="45.7824082" lon="9.1902383"><ele>361.0</ele><time>2026-04-24T14:44:50.967Z</time></trkpt><trkpt lat="45.7825171" lon="9.1903349"><ele>361.0</ele><time>2026-04-24T14:44:51.966Z</time></trkpt><trkpt lat="45.7826228" lon="9.1904312"><ele>361.0</ele><time>2026-04-24T14:44:52.966Z</time></trkpt><trkpt lat="45.7827246" lon="9.1905251"><ele>361.0</ele><time>2026-04-24T14:44:53.966Z</time></trkpt><trkpt lat="45.7828249" lon="9.1906151"><ele>361.0</ele><time>2026-04-24T14:44:54.966Z</time></trkpt><trkpt lat="45.7829223" lon="9.1907048"><ele>360.0</ele><time>2026-04-24T14:44:55.966Z</time></trkpt><trkpt lat="45.7830169" lon="9.1907899"><ele>359.0</ele><time>2026-04-24T14:44:56.966Z</time></trkpt><trkpt lat="45.7831084" lon="9.1908744"><ele>358.0</ele><time>2026-04-24T14:44:57.966Z</time></trkpt><trkpt lat="45.7831978" lon="9.1909543"><ele>357.0</ele><time>2026-04-24T14:44:58.966Z</time></trkpt><trkpt lat="45.7832836" lon="9.1910294"><ele>356.0</ele><time>2026-04-24T14:44:59.966Z</time></trkpt><trkpt lat="45.7833567" lon="9.1910981"><ele>355.99999999999994</ele><time>2026-04-24T14:45:00.966Z</time></trkpt><trkpt lat="45.7834155" lon="9.1911629"><ele>356.0</ele><time>2026-04-24T14:45:01.966Z</time></trkpt><trkpt lat="45.7834699" lon="9.1912327"><ele>356.0</ele><time>2026-04-24T14:45:02.966Z</time></trkpt><trkpt lat="45.7835158" lon="9.1913067"><ele>356.0</ele><time>2026-04-24T14:45:03.966Z</time></trkpt><trkpt lat="45.7835543" lon="9.1913848"><ele>356.0</ele><time>2026-04-24T14:45:04.966Z</time></trkpt><trkpt lat="45.7835897" lon="9.1914687"><ele>355.99999999999994</ele><time>2026-04-24T14:45:05.966Z</time></trkpt><trkpt lat="45.783625" lon="9.1915486"><ele>356.0</ele><time>2026-04-24T14:45:06.966Z</time></trkpt><trkpt lat="45.783715" lon="9.1916491"><ele>354.20000000000005</ele><time>2026-04-24T14:45:08.966Z</time></trkpt><trkpt lat="45.7838469" lon="9.1916809"><ele>352.40000000000003</ele><time>2026-04-24T14:45:10.967Z</time></trkpt><trkpt lat="45.783926" lon="9.1916918"><ele>350.6</ele><time>2026-04-24T14:45:11.966Z</time></trkpt><trkpt lat="45.7840037" lon="9.1917148"><ele>348.8</ele><time>2026-04-24T14:45:12.966Z</time></trkpt><trkpt lat="45.7840751" lon="9.1917509"><ele>347.0</ele><time>2026-04-24T14:45:13.966Z</time></trkpt><trkpt lat="45.7841493" lon="9.1918029"><ele>347.0</ele><time>2026-04-24T14:45:14.966Z</time></trkpt><trkpt lat="45.7842255" lon="9.191867"><ele>347.0</ele><time>2026-04-24T14:45:15.966Z</time></trkpt><trkpt lat="45.7843044" lon="9.1919416"><ele>347.0</ele><time>2026-04-24T14:45:16.966Z</time></trkpt><trkpt lat="45.7843878" lon="9.1920201"><ele>347.0</ele><time>2026-04-24T14:45:17.966Z</time></trkpt><trkpt lat="45.7844771" lon="9.1921063"><ele>347.0</ele><time>2026-04-24T14:45:18.966Z</time></trkpt><trkpt lat="45.7845722" lon="9.1921969"><ele>347.5</ele><time>2026-04-24T14:45:19.966Z</time></trkpt><trkpt lat="45.7846702" lon="9.192289"><ele>348.0</ele><time>2026-04-24T14:45:20.966Z</time></trkpt><trkpt lat="45.7847696" lon="9.1923788"><ele>348.5</ele><time>2026-04-24T14:45:21.966Z</time></trkpt><trkpt lat="45.7848678" lon="9.1924677"><ele>349.0</ele><time>2026-04-24T14:45:22.966Z</time></trkpt><trkpt lat="45.7849642" lon="9.192559"><ele>349.0</ele><time>2026-04-24T14:45:23.966Z</time></trkpt><trkpt lat="45.7850566" lon="9.1926481"><ele>349.0</ele><time>2026-04-24T14:45:24.966Z</time></trkpt><trkpt lat="45.7851454" lon="9.1927321"><ele>349.0</ele><time>2026-04-24T14:45:25.966Z</time></trkpt><trkpt lat="45.7852298" lon="9.1928127"><ele>349.0</ele><time>2026-04-24T14:45:26.966Z</time></trkpt><trkpt lat="45.7853094" lon="9.1928869"><ele>349.0</ele><time>2026-04-24T14:45:27.966Z</time></trkpt><trkpt lat="45.7853848" lon="9.1929547"><ele>349.2</ele><time>2026-04-24T14:45:28.967Z</time></trkpt><trkpt lat="45.7854549" lon="9.1930138"><ele>349.4</ele><time>2026-04-24T14:45:29.966Z</time></trkpt><trkpt lat="45.785554" lon="9.1931021"><ele>349.6</ele><time>2026-04-24T14:45:31.966Z</time></trkpt><trkpt lat="45.7856512" lon="9.1931956"><ele>349.8</ele><time>2026-04-24T14:45:33.966Z</time></trkpt><trkpt lat="45.7857034" lon="9.1932519"><ele>350.0</ele><time>2026-04-24T14:45:34.967Z</time></trkpt><trkpt lat="45.7858091" lon="9.1933462"><ele>350.0</ele><time>2026-04-24T14:45:36.966Z</time></trkpt><trkpt lat="45.785868" lon="9.1933997"><ele>350.0</ele><time>2026-04-24T14:45:37.966Z</time></trkpt><trkpt lat="45.7859233" lon="9.1934532"><ele>350.0</ele><time>2026-04-24T14:45:38.966Z</time></trkpt><trkpt lat="45.7859789" lon="9.1935058"><ele>350.0</ele><time>2026-04-24T14:45:39.966Z</time></trkpt><trkpt lat="45.786038" lon="9.1935607"><ele>350.0</ele><time>2026-04-24T14:45:40.966Z</time></trkpt><trkpt lat="45.7861077" lon="9.1936213"><ele>350.0</ele><time>2026-04-24T14:45:41.966Z</time></trkpt><trkpt lat="45.7861844" lon="9.1936879"><ele>350.0</ele><time>2026-04-24T14:45:42.966Z</time></trkpt><trkpt lat="45.7862676" lon="9.1937589"><ele>349.6</ele><time>2026-04-24T14:45:43.966Z</time></trkpt><trkpt lat="45.7863547" lon="9.1938378"><ele>349.2</ele><time>2026-04-24T14:45:44.966Z</time></trkpt><trkpt lat="45.7864438" lon="9.1939226"><ele>348.79999999999995</ele><time>2026-04-24T14:45:45.966Z</time></trkpt><trkpt lat="45.7865284" lon="9.1940025"><ele>348.4</ele><time>2026-04-24T14:45:46.966Z</time></trkpt><trkpt lat="45.7866075" lon="9.1940781"><ele>348.0</ele><time>2026-04-24T14:45:47.966Z</time></trkpt><trkpt lat="45.7866728" lon="9.1941409"><ele>348.0</ele><time>2026-04-24T14:45:48.966Z</time></trkpt><trkpt lat="45.7867249" lon="9.1941917"><ele>348.0</ele><time>2026-04-24T14:45:49.966Z</time></trkpt><trkpt lat="45.7868333" lon="9.1942901"><ele>348.0</ele><time>2026-04-24T14:45:51.966Z</time></trkpt><trkpt lat="45.7868984" lon="9.1943477"><ele>348.0</ele><time>2026-04-24T14:45:52.967Z</time></trkpt><trkpt lat="45.7869705" lon="9.1944124"><ele>348.0</ele><time>2026-04-24T14:45:53.967Z</time></trkpt><trkpt lat="45.7870486" lon="9.1944837"><ele>348.0</ele><time>2026-04-24T14:45:54.967Z</time></trkpt><trkpt lat="45.7871282" lon="9.1945593"><ele>348.59999999999997</ele><time>2026-04-24T14:45:55.966Z</time></trkpt><trkpt lat="45.7872052" lon="9.1946457"><ele>349.2</ele><time>2026-04-24T14:45:56.967Z</time></trkpt><trkpt lat="45.7872784" lon="9.1947407"><ele>349.8</ele><time>2026-04-24T14:45:57.966Z</time></trkpt><trkpt lat="45.7873461" lon="9.1948445"><ele>350.4</ele><time>2026-04-24T14:45:58.966Z</time></trkpt><trkpt lat="45.7874051" lon="9.1949577"><ele>351.0</ele><time>2026-04-24T14:45:59.966Z</time></trkpt><trkpt lat="45.7874533" lon="9.1950819"><ele>349.0</ele><time>2026-04-24T14:46:00.966Z</time></trkpt><trkpt lat="45.7874881" lon="9.1952136"><ele>347.0</ele><time>2026-04-24T14:46:01.966Z</time></trkpt><trkpt lat="45.7875105" lon="9.195349"><ele>345.0</ele><time>2026-04-24T14:46:02.966Z</time></trkpt><trkpt lat="45.7875214" lon="9.1954745"><ele>343.0</ele><time>2026-04-24T14:46:03.966Z</time></trkpt><trkpt lat="45.7875209" lon="9.1955735"><ele>341.0</ele><time>2026-04-24T14:46:04.966Z</time></trkpt><trkpt lat="45.7875186" lon="9.1957267"><ele>340.2857142857143</ele><time>2026-04-24T14:46:06.966Z</time></trkpt><trkpt lat="45.7875172" lon="9.1958428"><ele>339.57142857142856</ele><time>2026-04-24T14:46:08.966Z</time></trkpt><trkpt lat="45.7875221" lon="9.19594"><ele>338.8571428571429</ele><time>2026-04-24T14:46:17.966Z</time></trkpt><trkpt lat="45.7875121" lon="9.196043"><ele>338.1428571428571</ele><time>2026-04-24T14:46:20.966Z</time></trkpt><trkpt lat="45.7875031" lon="9.1961338"><ele>337.42857142857144</ele><time>2026-04-24T14:46:46.966Z</time></trkpt><trkpt lat="45.7874888" lon="9.1962251"><ele>336.7142857142857</ele><time>2026-04-24T14:46:48.966Z</time></trkpt><trkpt lat="45.7874816" lon="9.1963169"><ele>336.0</ele><time>2026-04-24T14:46:50.966Z</time></trkpt><trkpt lat="45.7875353" lon="9.1964401"><ele>335.4</ele><time>2026-04-24T14:46:53.966Z</time></trkpt><trkpt lat="45.787642" lon="9.1965434"><ele>334.8</ele><time>2026-04-24T14:46:55.966Z</time></trkpt><trkpt lat="45.7877054" lon="9.1966038"><ele>334.2</ele><time>2026-04-24T14:46:56.966Z</time></trkpt><trkpt lat="45.7877816" lon="9.1966738"><ele>333.59999999999997</ele><time>2026-04-24T14:46:57.966Z</time></trkpt><trkpt lat="45.7878702" lon="9.1967449"><ele>333.0</ele><time>2026-04-24T14:46:58.966Z</time></trkpt><trkpt lat="45.7879686" lon="9.196816"><ele>333.0</ele><time>2026-04-24T14:46:59.966Z</time></trkpt><trkpt lat="45.7880766" lon="9.1968882"><ele>333.0</ele><time>2026-04-24T14:47:00.966Z</time></trkpt><trkpt lat="45.7881905" lon="9.1969603"><ele>333.0</ele><time>2026-04-24T14:47:01.966Z</time></trkpt><trkpt lat="45.7883086" lon="9.197029"><ele>333.0</ele><time>2026-04-24T14:47:02.966Z</time></trkpt><trkpt lat="45.7884319" lon="9.1970916"><ele>334.25</ele><time>2026-04-24T14:47:03.966Z</time></trkpt><trkpt lat="45.7885585" lon="9.1971465"><ele>335.5</ele><time>2026-04-24T14:47:04.966Z</time></trkpt><trkpt lat="45.7886879" lon="9.1971961"><ele>336.75</ele><time>2026-04-24T14:47:05.966Z</time></trkpt><trkpt lat="45.7888184" lon="9.1972435"><ele>338.0</ele><time>2026-04-24T14:47:06.966Z</time></trkpt><trkpt lat="45.7889482" lon="9.1972906"><ele>338.0</ele><time>2026-04-24T14:47:07.966Z</time></trkpt><trkpt lat="45.7890751" lon="9.1973339"><ele>338.0</ele><time>2026-04-24T14:47:08.966Z</time></trkpt><trkpt lat="45.7891992" lon="9.1973739"><ele>338.0</ele><time>2026-04-24T14:47:09.966Z</time></trkpt><trkpt lat="45.7893231" lon="9.1974119"><ele>338.0</ele><time>2026-04-24T14:47:10.966Z</time></trkpt><trkpt lat="45.78944" lon="9.1974479"><ele>337.79999999999995</ele><time>2026-04-24T14:47:11.966Z</time></trkpt><trkpt lat="45.7895518" lon="9.1974825"><ele>337.6</ele><time>2026-04-24T14:47:12.966Z</time></trkpt><trkpt lat="45.7896587" lon="9.1975144"><ele>337.4</ele><time>2026-04-24T14:47:13.966Z</time></trkpt><trkpt lat="45.7897579" lon="9.1975452"><ele>337.20000000000005</ele><time>2026-04-24T14:47:14.966Z</time></trkpt><trkpt lat="45.7898438" lon="9.1975714"><ele>337.0</ele><time>2026-04-24T14:47:15.966Z</time></trkpt><trkpt lat="45.7899181" lon="9.197593"><ele>337.0</ele><time>2026-04-24T14:47:16.966Z</time></trkpt><trkpt lat="45.7899876" lon="9.1976118"><ele>337.0</ele><time>2026-04-24T14:47:17.966Z</time></trkpt><trkpt lat="45.7900512" lon="9.1976305"><ele>337.0</ele><time>2026-04-24T14:47:18.967Z</time></trkpt><trkpt lat="45.790168" lon="9.1976685"><ele>337.0</ele><time>2026-04-24T14:47:20.966Z</time></trkpt><trkpt lat="45.7902635" lon="9.1976977"><ele>337.0</ele><time>2026-04-24T14:47:22.966Z</time></trkpt><trkpt lat="45.7903249" lon="9.1977194"><ele>337.0</ele><time>2026-04-24T14:47:24.965Z</time></trkpt><trkpt lat="45.7903903" lon="9.1977476"><ele>336.66666666666663</ele><time>2026-04-24T14:47:49.965Z</time></trkpt><trkpt lat="45.7904691" lon="9.1977678"><ele>336.3333333333333</ele><time>2026-04-24T14:47:51.965Z</time></trkpt><trkpt lat="45.790552" lon="9.1977925"><ele>336.0</ele><time>2026-04-24T14:47:53.965Z</time></trkpt><trkpt lat="45.7906321" lon="9.1978158"><ele>335.6666666666667</ele><time>2026-04-24T14:47:55.965Z</time></trkpt><trkpt lat="45.7907062" lon="9.1978365"><ele>335.33333333333337</ele><time>2026-04-24T14:47:57.965Z</time></trkpt><trkpt lat="45.7907983" lon="9.197866"><ele>335.0</ele><time>2026-04-24T14:47:59.965Z</time></trkpt><trkpt lat="45.7909313" lon="9.1978786"><ele>335.6</ele><time>2026-04-24T14:48:01.965Z</time></trkpt><trkpt lat="45.7910078" lon="9.1978994"><ele>336.2</ele><time>2026-04-24T14:48:02.965Z</time></trkpt><trkpt lat="45.7910911" lon="9.1979179"><ele>336.79999999999995</ele><time>2026-04-24T14:48:03.965Z</time></trkpt><trkpt lat="45.7911826" lon="9.1979333"><ele>337.4</ele><time>2026-04-24T14:48:04.965Z</time></trkpt><trkpt lat="45.7912782" lon="9.1979517"><ele>338.0</ele><time>2026-04-24T14:48:05.965Z</time></trkpt><trkpt lat="45.7913806" lon="9.1979681"><ele>338.0</ele><time>2026-04-24T14:48:06.965Z</time></trkpt><trkpt lat="45.7914872" lon="9.1979827"><ele>338.0</ele><time>2026-04-24T14:48:07.965Z</time></trkpt><trkpt lat="45.7915985" lon="9.1979938"><ele>338.0</ele><time>2026-04-24T14:48:08.966Z</time></trkpt><trkpt lat="45.7917114" lon="9.198005"><ele>338.0</ele><time>2026-04-24T14:48:09.965Z</time></trkpt><trkpt lat="45.7918296" lon="9.1980149"><ele>338.25</ele><time>2026-04-24T14:48:10.965Z</time></trkpt><trkpt lat="45.7919528" lon="9.1980219"><ele>338.5</ele><time>2026-04-24T14:48:11.965Z</time></trkpt><trkpt lat="45.7920738" lon="9.1980316"><ele>338.75</ele><time>2026-04-24T14:48:12.966Z</time></trkpt><trkpt lat="45.7921941" lon="9.1980422"><ele>339.0</ele><time>2026-04-24T14:48:13.965Z</time></trkpt><trkpt lat="45.7923196" lon="9.1980513"><ele>339.0</ele><time>2026-04-24T14:48:14.965Z</time></trkpt><trkpt lat="45.7924444" lon="9.1980678"><ele>339.0</ele><time>2026-04-24T14:48:15.965Z</time></trkpt><trkpt lat="45.7925696" lon="9.1980921"><ele>339.0</ele><time>2026-04-24T14:48:16.965Z</time></trkpt><trkpt lat="45.7926975" lon="9.1981229"><ele>339.0</ele><time>2026-04-24T14:48:17.965Z</time></trkpt><trkpt lat="45.792825" lon="9.1981581"><ele>337.75</ele><time>2026-04-24T14:48:18.965Z</time></trkpt><trkpt lat="45.7929569" lon="9.1981968"><ele>336.5</ele><time>2026-04-24T14:48:19.965Z</time></trkpt><trkpt lat="45.7930884" lon="9.1982344"><ele>335.25</ele><time>2026-04-24T14:48:20.965Z</time></trkpt><trkpt lat="45.7932166" lon="9.1982724"><ele>334.0</ele><time>2026-04-24T14:48:21.965Z</time></trkpt><trkpt lat="45.7933372" lon="9.1983102"><ele>334.0</ele><time>2026-04-24T14:48:22.965Z</time></trkpt><trkpt lat="45.793452" lon="9.1983504"><ele>334.0</ele><time>2026-04-24T14:48:23.965Z</time></trkpt><trkpt lat="45.7935613" lon="9.198406"><ele>334.0</ele><time>2026-04-24T14:48:24.965Z</time></trkpt><trkpt lat="45.793664" lon="9.198476"><ele>334.0</ele><time>2026-04-24T14:48:25.965Z</time></trkpt><trkpt lat="45.793761" lon="9.1985618"><ele>334.0</ele><time>2026-04-24T14:48:26.965Z</time></trkpt><trkpt lat="45.7938492" lon="9.1986602"><ele>334.0</ele><time>2026-04-24T14:48:27.965Z</time></trkpt><trkpt lat="45.7939327" lon="9.1987769"><ele>334.0</ele><time>2026-04-24T14:48:28.965Z</time></trkpt><trkpt lat="45.794011" lon="9.1989002"><ele>334.0</ele><time>2026-04-24T14:48:29.965Z</time></trkpt><trkpt lat="45.7940892" lon="9.1990385"><ele>334.0</ele><time>2026-04-24T14:48:30.965Z</time></trkpt><trkpt lat="45.794168" lon="9.1991837"><ele>334.0</ele><time>2026-04-24T14:48:31.965Z</time></trkpt><trkpt lat="45.7942502" lon="9.1993315"><ele>334.0</ele><time>2026-04-24T14:48:32.965Z</time></trkpt><trkpt lat="45.7943346" lon="9.1994824"><ele>334.0</ele><time>2026-04-24T14:48:33.966Z</time></trkpt><trkpt lat="45.7944076" lon="9.1996403"><ele>334.0</ele><time>2026-04-24T14:48:34.965Z</time></trkpt><trkpt lat="45.7944938" lon="9.1997921"><ele>334.0</ele><time>2026-04-24T14:48:35.966Z</time></trkpt><trkpt lat="45.7945685" lon="9.1999432"><ele>334.0</ele><time>2026-04-24T14:48:36.965Z</time></trkpt><trkpt lat="45.7946419" lon="9.2000884"><ele>334.0</ele><time>2026-04-24T14:48:37.965Z</time></trkpt><trkpt lat="45.7947105" lon="9.2002271"><ele>334.0</ele><time>2026-04-24T14:48:38.965Z</time></trkpt><trkpt lat="45.7947748" lon="9.2003571"><ele>334.0</ele><time>2026-04-24T14:48:39.965Z</time></trkpt><trkpt lat="45.7948296" lon="9.2004709"><ele>334.0</ele><time>2026-04-24T14:48:40.965Z</time></trkpt><trkpt lat="45.7948812" lon="9.2005612"><ele>334.0</ele><time>2026-04-24T14:48:41.965Z</time></trkpt><trkpt lat="45.7949358" lon="9.2006359"><ele>334.0</ele><time>2026-04-24T14:48:42.965Z</time></trkpt><trkpt lat="45.7949947" lon="9.2006959"><ele>334.0</ele><time>2026-04-24T14:48:43.965Z</time></trkpt><trkpt lat="45.7950523" lon="9.2007484"><ele>334.66666666666663</ele><time>2026-04-24T14:48:44.966Z</time></trkpt><trkpt lat="45.7951098" lon="9.2007901"><ele>335.3333333333333</ele><time>2026-04-24T14:48:45.966Z</time></trkpt><trkpt lat="45.7952135" lon="9.2008437"><ele>336.0</ele><time>2026-04-24T14:48:47.965Z</time></trkpt><trkpt lat="45.7952943" lon="9.2008783"><ele>336.6666666666667</ele><time>2026-04-24T14:48:49.965Z</time></trkpt><trkpt lat="45.7953752" lon="9.2009132"><ele>337.33333333333337</ele><time>2026-04-24T14:49:14.965Z</time></trkpt><trkpt lat="45.7954733" lon="9.2009337"><ele>338.0</ele><time>2026-04-24T14:49:17.966Z</time></trkpt><trkpt lat="45.7955633" lon="9.2009622"><ele>338.1666666666667</ele><time>2026-04-24T14:49:19.965Z</time></trkpt><trkpt lat="45.7956649" lon="9.2010112"><ele>338.33333333333337</ele><time>2026-04-24T14:49:21.965Z</time></trkpt><trkpt lat="45.7957358" lon="9.2010286"><ele>338.5</ele><time>2026-04-24T14:49:22.965Z</time></trkpt><trkpt lat="45.7958055" lon="9.2010693"><ele>338.6666666666667</ele><time>2026-04-24T14:49:23.965Z</time></trkpt><trkpt lat="45.7958731" lon="9.2011284"><ele>338.8333333333333</ele><time>2026-04-24T14:49:24.965Z</time></trkpt><trkpt lat="45.7959441" lon="9.2011904"><ele>339.0</ele><time>2026-04-24T14:49:25.965Z</time></trkpt><trkpt lat="45.7960089" lon="9.2012406"><ele>339.0</ele><time>2026-04-24T14:49:26.965Z</time></trkpt><trkpt lat="45.796073" lon="9.2012945"><ele>339.0</ele><time>2026-04-24T14:49:27.965Z</time></trkpt><trkpt lat="45.7961366" lon="9.2013461"><ele>339.0</ele><time>2026-04-24T14:49:28.965Z</time></trkpt><trkpt lat="45.7961992" lon="9.2014018"><ele>339.0</ele><time>2026-04-24T14:49:29.965Z</time></trkpt><trkpt lat="45.7962622" lon="9.2014682"><ele>339.0</ele><time>2026-04-24T14:49:30.965Z</time></trkpt><trkpt lat="45.7963285" lon="9.2015412"><ele>339.0</ele><time>2026-04-24T14:49:31.965Z</time></trkpt><trkpt lat="45.7964001" lon="9.2016026"><ele>338.6666666666667</ele><time>2026-04-24T14:49:32.965Z</time></trkpt><trkpt lat="45.7964768" lon="9.2016537"><ele>338.3333333333333</ele><time>2026-04-24T14:49:33.966Z</time></trkpt><trkpt lat="45.7965547" lon="9.2017009"><ele>338.0</ele><time>2026-04-24T14:49:34.965Z</time></trkpt><trkpt lat="45.7966349" lon="9.2017592"><ele>337.66666666666663</ele><time>2026-04-24T14:49:35.965Z</time></trkpt><trkpt lat="45.7967111" lon="9.2018204"><ele>337.3333333333333</ele><time>2026-04-24T14:49:36.965Z</time></trkpt><trkpt lat="45.7967874" lon="9.2018856"><ele>337.0</ele><time>2026-04-24T14:49:37.965Z</time></trkpt><trkpt lat="45.7968657" lon="9.2019512"><ele>336.8</ele><time>2026-04-24T14:49:38.965Z</time></trkpt><trkpt lat="45.7969442" lon="9.2020203"><ele>336.6</ele><time>2026-04-24T14:49:39.965Z</time></trkpt><trkpt lat="45.7970249" lon="9.202088"><ele>336.40000000000003</ele><time>2026-04-24T14:49:40.965Z</time></trkpt><trkpt lat="45.7971066" lon="9.2021567"><ele>336.20000000000005</ele><time>2026-04-24T14:49:41.965Z</time></trkpt><trkpt lat="45.7971881" lon="9.2022247"><ele>336.0</ele><time>2026-04-24T14:49:42.965Z</time></trkpt><trkpt lat="45.7972652" lon="9.2022922"><ele>336.5</ele><time>2026-04-24T14:49:43.965Z</time></trkpt><trkpt lat="45.7973373" lon="9.2023517"><ele>337.0</ele><time>2026-04-24T14:49:44.965Z</time></trkpt><trkpt lat="45.7974042" lon="9.2024022"><ele>337.5</ele><time>2026-04-24T14:49:45.965Z</time></trkpt><trkpt lat="45.7974694" lon="9.2024553"><ele>338.0</ele><time>2026-04-24T14:49:46.965Z</time></trkpt><trkpt lat="45.7975372" lon="9.2025118"><ele>338.5</ele><time>2026-04-24T14:49:47.965Z</time></trkpt><trkpt lat="45.7976066" lon="9.2025713"><ele>339.0</ele><time>2026-04-24T14:49:48.965Z</time></trkpt><trkpt lat="45.7976787" lon="9.2026343"><ele>339.5</ele><time>2026-04-24T14:49:49.965Z</time></trkpt><trkpt lat="45.7977529" lon="9.2026981"><ele>340.0</ele><time>2026-04-24T14:49:50.965Z</time></trkpt><trkpt lat="45.7978258" lon="9.2027616"><ele>340.5</ele><time>2026-04-24T14:49:51.965Z</time></trkpt><trkpt lat="45.7978984" lon="9.2028225"><ele>341.0</ele><time>2026-04-24T14:49:52.965Z</time></trkpt><trkpt lat="45.7979695" lon="9.2028824"><ele>341.5</ele><time>2026-04-24T14:49:53.965Z</time></trkpt><trkpt lat="45.7980389" lon="9.2029378"><ele>342.0</ele><time>2026-04-24T14:49:54.965Z</time></trkpt><trkpt lat="45.7980995" lon="9.202987"><ele>342.0</ele><time>2026-04-24T14:49:55.966Z</time></trkpt><trkpt lat="45.7982033" lon="9.2030727"><ele>342.0</ele><time>2026-04-24T14:49:57.966Z</time></trkpt><trkpt lat="45.7983062" lon="9.2031578"><ele>342.0</ele><time>2026-04-24T14:49:59.965Z</time></trkpt><trkpt lat="45.7983624" lon="9.2032054"><ele>342.0</ele><time>2026-04-24T14:50:00.965Z</time></trkpt><trkpt lat="45.7984217" lon="9.2032571"><ele>342.0</ele><time>2026-04-24T14:50:01.965Z</time></trkpt><trkpt lat="45.7984839" lon="9.2033114"><ele>342.0</ele><time>2026-04-24T14:50:02.965Z</time></trkpt><trkpt lat="45.7985467" lon="9.2033617"><ele>341.8333333333333</ele><time>2026-04-24T14:50:03.966Z</time></trkpt><trkpt lat="45.7986036" lon="9.203411"><ele>341.6666666666667</ele><time>2026-04-24T14:50:04.965Z</time></trkpt><trkpt lat="45.7987112" lon="9.2034939"><ele>341.5</ele><time>2026-04-24T14:50:06.965Z</time></trkpt><trkpt lat="45.7987684" lon="9.2035338"><ele>341.33333333333337</ele><time>2026-04-24T14:50:07.965Z</time></trkpt><trkpt lat="45.7988785" lon="9.2036268"><ele>341.1666666666667</ele><time>2026-04-24T14:50:09.965Z</time></trkpt><trkpt lat="45.7989336" lon="9.2036743"><ele>341.0</ele><time>2026-04-24T14:50:10.965Z</time></trkpt><trkpt lat="45.7989898" lon="9.2037278"><ele>341.0</ele><time>2026-04-24T14:50:11.965Z</time></trkpt><trkpt lat="45.7990443" lon="9.2037895"><ele>341.0</ele><time>2026-04-24T14:50:12.965Z</time></trkpt><trkpt lat="45.799097" lon="9.2038594"><ele>341.0</ele><time>2026-04-24T14:50:13.965Z</time></trkpt><trkpt lat="45.7991463" lon="9.2039323"><ele>341.0</ele><time>2026-04-24T14:50:14.965Z</time></trkpt><trkpt lat="45.7991973" lon="9.2039903"><ele>341.0</ele><time>2026-04-24T14:50:15.965Z</time></trkpt><trkpt lat="45.7993148" lon="9.2040476"><ele>341.0</ele><time>2026-04-24T14:50:17.965Z</time></trkpt><trkpt lat="45.7993832" lon="9.2040464"><ele>341.5</ele><time>2026-04-24T14:50:18.966Z</time></trkpt><trkpt lat="45.7994581" lon="9.2040377"><ele>342.0</ele><time>2026-04-24T14:50:19.965Z</time></trkpt><trkpt lat="45.7995426" lon="9.2040326"><ele>342.5</ele><time>2026-04-24T14:50:20.965Z</time></trkpt><trkpt lat="45.7996338" lon="9.2040315"><ele>343.0</ele><time>2026-04-24T14:50:21.965Z</time></trkpt><trkpt lat="45.7997288" lon="9.2040291"><ele>343.5</ele><time>2026-04-24T14:50:22.965Z</time></trkpt><trkpt lat="45.7998245" lon="9.2040259"><ele>344.0</ele><time>2026-04-24T14:50:23.965Z</time></trkpt><trkpt lat="45.7999227" lon="9.2040264"><ele>344.0</ele><time>2026-04-24T14:50:24.966Z</time></trkpt><trkpt lat="45.8000222" lon="9.2040288"><ele>344.0</ele><time>2026-04-24T14:50:25.965Z</time></trkpt><trkpt lat="45.8001209" lon="9.2040323"><ele>344.0</ele><time>2026-04-24T14:50:26.965Z</time></trkpt><trkpt lat="45.8002205" lon="9.2040317"><ele>344.0</ele><time>2026-04-24T14:50:27.965Z</time></trkpt><trkpt lat="45.8003206" lon="9.204029"><ele>344.0</ele><time>2026-04-24T14:50:28.965Z</time></trkpt><trkpt lat="45.8004103" lon="9.2040274"><ele>344.0</ele><time>2026-04-24T14:50:29.966Z</time></trkpt><trkpt lat="45.8004895" lon="9.2040384"><ele>344.0</ele><time>2026-04-24T14:50:30.965Z</time></trkpt><trkpt lat="45.8005658" lon="9.2040681"><ele>344.0</ele><time>2026-04-24T14:50:31.965Z</time></trkpt><trkpt lat="45.8006456" lon="9.2041184"><ele>344.0</ele><time>2026-04-24T14:50:32.965Z</time></trkpt><trkpt lat="45.800729" lon="9.2041762"><ele>344.0</ele><time>2026-04-24T14:50:33.965Z</time></trkpt><trkpt lat="45.8008116" lon="9.2042393"><ele>344.0</ele><time>2026-04-24T14:50:34.966Z</time></trkpt><trkpt lat="45.8008989" lon="9.2043068"><ele>344.0</ele><time>2026-04-24T14:50:35.965Z</time></trkpt><trkpt lat="45.800988" lon="9.204373"><ele>344.0</ele><time>2026-04-24T14:50:36.965Z</time></trkpt><trkpt lat="45.8010779" lon="9.2044396"><ele>344.0</ele><time>2026-04-24T14:50:37.965Z</time></trkpt><trkpt lat="45.801165" lon="9.2045089"><ele>344.0</ele><time>2026-04-24T14:50:38.965Z</time></trkpt><trkpt lat="45.8012542" lon="9.204579"><ele>344.0</ele><time>2026-04-24T14:50:39.965Z</time></trkpt><trkpt lat="45.8013449" lon="9.2046525"><ele>343.79999999999995</ele><time>2026-04-24T14:50:40.965Z</time></trkpt><trkpt lat="45.8014365" lon="9.2047223"><ele>343.59999999999997</ele><time>2026-04-24T14:50:41.965Z</time></trkpt><trkpt lat="45.8015249" lon="9.2048058"><ele>343.4</ele><time>2026-04-24T14:50:42.965Z</time></trkpt><trkpt lat="45.8016271" lon="9.2048762"><ele>343.2</ele><time>2026-04-24T14:50:43.965Z</time></trkpt><trkpt lat="45.801728" lon="9.2049498"><ele>343.0</ele><time>2026-04-24T14:50:44.965Z</time></trkpt><trkpt lat="45.8018282" lon="9.2050295"><ele>342.75</ele><time>2026-04-24T14:50:45.964Z</time></trkpt><trkpt lat="45.801932" lon="9.2051118"><ele>342.5</ele><time>2026-04-24T14:50:46.965Z</time></trkpt><trkpt lat="45.802033" lon="9.2051988"><ele>342.25</ele><time>2026-04-24T14:50:47.965Z</time></trkpt><trkpt lat="45.8021374" lon="9.2052877"><ele>342.0</ele><time>2026-04-24T14:50:48.964Z</time></trkpt><trkpt lat="45.8022474" lon="9.2053762"><ele>342.0</ele><time>2026-04-24T14:50:49.964Z</time></trkpt><trkpt lat="45.8023656" lon="9.2054667"><ele>342.0</ele><time>2026-04-24T14:50:50.964Z</time></trkpt><trkpt lat="45.8024909" lon="9.2055633"><ele>342.0</ele><time>2026-04-24T14:50:51.964Z</time></trkpt><trkpt lat="45.8026213" lon="9.2056651"><ele>342.0</ele><time>2026-04-24T14:50:52.964Z</time></trkpt><trkpt lat="45.8027542" lon="9.2057703"><ele>342.0</ele><time>2026-04-24T14:50:53.964Z</time></trkpt><trkpt lat="45.8028841" lon="9.2058771"><ele>342.0</ele><time>2026-04-24T14:50:54.964Z</time></trkpt><trkpt lat="45.8030111" lon="9.2059871"><ele>342.0</ele><time>2026-04-24T14:50:55.964Z</time></trkpt><trkpt lat="45.8031327" lon="9.2060976"><ele>342.0</ele><time>2026-04-24T14:50:56.965Z</time></trkpt><trkpt lat="45.8032476" lon="9.2062073"><ele>342.0</ele><time>2026-04-24T14:50:57.965Z</time></trkpt><trkpt lat="45.8033532" lon="9.2063173"><ele>342.0</ele><time>2026-04-24T14:50:58.964Z</time></trkpt><trkpt lat="45.8034528" lon="9.206423"><ele>342.0</ele><time>2026-04-24T14:50:59.964Z</time></trkpt><trkpt lat="45.8035468" lon="9.2065254"><ele>342.0</ele><time>2026-04-24T14:51:00.964Z</time></trkpt><trkpt lat="45.8036367" lon="9.2066215"><ele>342.1666666666667</ele><time>2026-04-24T14:51:01.964Z</time></trkpt><trkpt lat="45.8037218" lon="9.2067113"><ele>342.3333333333333</ele><time>2026-04-24T14:51:02.964Z</time></trkpt><trkpt lat="45.8038015" lon="9.2067968"><ele>342.5</ele><time>2026-04-24T14:51:03.964Z</time></trkpt><trkpt lat="45.8038715" lon="9.2068775"><ele>342.66666666666663</ele><time>2026-04-24T14:51:04.964Z</time></trkpt><trkpt lat="45.8039311" lon="9.2069415"><ele>342.8333333333333</ele><time>2026-04-24T14:51:05.964Z</time></trkpt><trkpt lat="45.8039823" lon="9.2069952"><ele>343.0</ele><time>2026-04-24T14:51:06.964Z</time></trkpt><trkpt lat="45.8040651" lon="9.2070929"><ele>343.0</ele><time>2026-04-24T14:51:08.964Z</time></trkpt><trkpt lat="45.8041402" lon="9.2072044"><ele>343.0</ele><time>2026-04-24T14:51:10.964Z</time></trkpt><trkpt lat="45.8041854" lon="9.207283"><ele>343.0</ele><time>2026-04-24T14:51:11.964Z</time></trkpt><trkpt lat="45.8042292" lon="9.2073772"><ele>343.0</ele><time>2026-04-24T14:51:12.964Z</time></trkpt><trkpt lat="45.8042675" lon="9.2074697"><ele>343.0</ele><time>2026-04-24T14:51:13.964Z</time></trkpt><trkpt lat="45.8042977" lon="9.2075613"><ele>343.0</ele><time>2026-04-24T14:51:14.965Z</time></trkpt><trkpt lat="45.8043231" lon="9.2076494"><ele>343.0</ele><time>2026-04-24T14:51:15.964Z</time></trkpt><trkpt lat="45.8043952" lon="9.2077775"><ele>343.0</ele><time>2026-04-24T14:51:17.964Z</time></trkpt><trkpt lat="45.8044866" lon="9.2078118"><ele>343.0</ele><time>2026-04-24T14:51:19.964Z</time></trkpt><trkpt lat="45.8045899" lon="9.2077646"><ele>343.0</ele><time>2026-04-24T14:51:21.964Z</time></trkpt><trkpt lat="45.8046881" lon="9.2077712"><ele>343.0</ele><time>2026-04-24T14:51:23.964Z</time></trkpt><trkpt lat="45.8048043" lon="9.2078887"><ele>343.0</ele><time>2026-04-24T14:51:25.964Z</time></trkpt><trkpt lat="45.8048813" lon="9.2079739"><ele>343.0</ele><time>2026-04-24T14:51:26.964Z</time></trkpt><trkpt lat="45.8049699" lon="9.2080697"><ele>343.0</ele><time>2026-04-24T14:51:27.964Z</time></trkpt><trkpt lat="45.8050628" lon="9.2081799"><ele>343.0</ele><time>2026-04-24T14:51:28.964Z</time></trkpt><trkpt lat="45.8051598" lon="9.208305"><ele>343.5</ele><time>2026-04-24T14:51:29.964Z</time></trkpt><trkpt lat="45.8052586" lon="9.2084393"><ele>344.0</ele><time>2026-04-24T14:51:30.964Z</time></trkpt><trkpt lat="45.8053561" lon="9.2085751"><ele>344.5</ele><time>2026-04-24T14:51:31.964Z</time></trkpt><trkpt lat="45.8054524" lon="9.2087149"><ele>345.0</ele><time>2026-04-24T14:51:32.964Z</time></trkpt><trkpt lat="45.8055437" lon="9.2088526"><ele>345.0</ele><time>2026-04-24T14:51:33.964Z</time></trkpt><trkpt lat="45.8056329" lon="9.2089887"><ele>345.0</ele><time>2026-04-24T14:51:34.964Z</time></trkpt><trkpt lat="45.8057233" lon="9.2091216"><ele>345.0</ele><time>2026-04-24T14:51:35.964Z</time></trkpt><trkpt lat="45.80581" lon="9.2092516"><ele>345.0</ele><time>2026-04-24T14:51:36.964Z</time></trkpt><trkpt lat="45.8058993" lon="9.2093759"><ele>344.5</ele><time>2026-04-24T14:51:37.964Z</time></trkpt><trkpt lat="45.8059922" lon="9.2094937"><ele>344.0</ele><time>2026-04-24T14:51:38.964Z</time></trkpt><trkpt lat="45.8060886" lon="9.2096028"><ele>343.5</ele><time>2026-04-24T14:51:39.964Z</time></trkpt><trkpt lat="45.8061899" lon="9.2097042"><ele>343.0</ele><time>2026-04-24T14:51:40.964Z</time></trkpt><trkpt lat="45.8062947" lon="9.2097956"><ele>345.25</ele><time>2026-04-24T14:51:41.964Z</time></trkpt><trkpt lat="45.8064067" lon="9.2098741"><ele>347.5</ele><time>2026-04-24T14:51:42.964Z</time></trkpt><trkpt lat="45.8065233" lon="9.2099438"><ele>349.75</ele><time>2026-04-24T14:51:43.964Z</time></trkpt><trkpt lat="45.8066474" lon="9.2099986"><ele>352.0</ele><time>2026-04-24T14:51:44.964Z</time></trkpt><trkpt lat="45.8067735" lon="9.2100408"><ele>352.0</ele><time>2026-04-24T14:51:45.964Z</time></trkpt><trkpt lat="45.8069022" lon="9.2100713"><ele>352.0</ele><time>2026-04-24T14:51:46.964Z</time></trkpt><trkpt lat="45.80703" lon="9.2100838"><ele>352.0</ele><time>2026-04-24T14:51:47.964Z</time></trkpt><trkpt lat="45.807155" lon="9.2100847"><ele>352.0</ele><time>2026-04-24T14:51:48.964Z</time></trkpt><trkpt lat="45.8072818" lon="9.2100763"><ele>352.0</ele><time>2026-04-24T14:51:49.964Z</time></trkpt><trkpt lat="45.8074094" lon="9.2100534"><ele>352.0</ele><time>2026-04-24T14:51:50.964Z</time></trkpt><trkpt lat="45.8075394" lon="9.2100135"><ele>352.0</ele><time>2026-04-24T14:51:51.964Z</time></trkpt><trkpt lat="45.8076695" lon="9.2099587"><ele>352.0</ele><time>2026-04-24T14:51:52.964Z</time></trkpt><trkpt lat="45.8078041" lon="9.2098949"><ele>353.5</ele><time>2026-04-24T14:51:53.964Z</time></trkpt><trkpt lat="45.8079423" lon="9.209825"><ele>355.0</ele><time>2026-04-24T14:51:54.964Z</time></trkpt><trkpt lat="45.808084" lon="9.2097555"><ele>356.5</ele><time>2026-04-24T14:51:55.964Z</time></trkpt><trkpt lat="45.8082287" lon="9.209684"><ele>358.0</ele><time>2026-04-24T14:51:56.964Z</time></trkpt><trkpt lat="45.8083758" lon="9.2096105"><ele>361.0</ele><time>2026-04-24T14:51:57.964Z</time></trkpt><trkpt lat="45.8085259" lon="9.2095383"><ele>364.0</ele><time>2026-04-24T14:51:58.964Z</time></trkpt><trkpt lat="45.8086762" lon="9.2094675"><ele>367.0</ele><time>2026-04-24T14:51:59.964Z</time></trkpt><trkpt lat="45.8088241" lon="9.2094008"><ele>367.0</ele><time>2026-04-24T14:52:00.964Z</time></trkpt><trkpt lat="45.8089693" lon="9.2093442"><ele>367.0</ele><time>2026-04-24T14:52:01.964Z</time></trkpt><trkpt lat="45.8091089" lon="9.2093056"><ele>367.0</ele><time>2026-04-24T14:52:02.964Z</time></trkpt><trkpt lat="45.8092443" lon="9.2092849"><ele>367.0</ele><time>2026-04-24T14:52:03.964Z</time></trkpt><trkpt lat="45.8093799" lon="9.2092788"><ele>369.75</ele><time>2026-04-24T14:52:04.964Z</time></trkpt><trkpt lat="45.8095133" lon="9.2092955"><ele>372.5</ele><time>2026-04-24T14:52:05.964Z</time></trkpt><trkpt lat="45.8096431" lon="9.2093267"><ele>375.25</ele><time>2026-04-24T14:52:06.964Z</time></trkpt><trkpt lat="45.8097711" lon="9.2093714"><ele>378.0</ele><time>2026-04-24T14:52:07.964Z</time></trkpt><trkpt lat="45.8098942" lon="9.2094426"><ele>378.0</ele><time>2026-04-24T14:52:08.964Z</time></trkpt><trkpt lat="45.8100136" lon="9.2095246"><ele>378.0</ele><time>2026-04-24T14:52:09.964Z</time></trkpt><trkpt lat="45.810129" lon="9.209623"><ele>378.0</ele><time>2026-04-24T14:52:10.964Z</time></trkpt><trkpt lat="45.8102417" lon="9.209737"><ele>378.0</ele><time>2026-04-24T14:52:11.964Z</time></trkpt><trkpt lat="45.8104635" lon="9.2100042"><ele>378.5</ele><time>2026-04-24T14:52:13.964Z</time></trkpt><trkpt lat="45.8105747" lon="9.2101436"><ele>379.0</ele><time>2026-04-24T14:52:14.964Z</time></trkpt><trkpt lat="45.8106892" lon="9.2102829"><ele>379.5</ele><time>2026-04-24T14:52:15.964Z</time></trkpt><trkpt lat="45.8107961" lon="9.2104155"><ele>380.0</ele><time>2026-04-24T14:52:16.964Z</time></trkpt><trkpt lat="45.8109015" lon="9.210538"><ele>380.25</ele><time>2026-04-24T14:52:17.964Z</time></trkpt><trkpt lat="45.8110047" lon="9.2106521"><ele>380.5</ele><time>2026-04-24T14:52:18.964Z</time></trkpt><trkpt lat="45.811113" lon="9.2107479"><ele>380.75</ele><time>2026-04-24T14:52:19.964Z</time></trkpt><trkpt lat="45.8112257" lon="9.2108253"><ele>381.0</ele><time>2026-04-24T14:52:20.964Z</time></trkpt><trkpt lat="45.8113434" lon="9.2108861"><ele>381.0</ele><time>2026-04-24T14:52:21.964Z</time></trkpt><trkpt lat="45.8114668" lon="9.2109396"><ele>381.0</ele><time>2026-04-24T14:52:22.963Z</time></trkpt><trkpt lat="45.8115969" lon="9.2109863"><ele>381.0</ele><time>2026-04-24T14:52:23.964Z</time></trkpt><trkpt lat="45.8117327" lon="9.2110275"><ele>381.0</ele><time>2026-04-24T14:52:24.964Z</time></trkpt><trkpt lat="45.8118736" lon="9.2110694"><ele>383.33333333333337</ele><time>2026-04-24T14:52:25.964Z</time></trkpt><trkpt lat="45.8120194" lon="9.2111137"><ele>385.6666666666667</ele><time>2026-04-24T14:52:26.964Z</time></trkpt><trkpt lat="45.8121713" lon="9.2111582"><ele>388.0</ele><time>2026-04-24T14:52:27.964Z</time></trkpt><trkpt lat="45.8123217" lon="9.2112043"><ele>388.0</ele><time>2026-04-24T14:52:28.965Z</time></trkpt><trkpt lat="45.8124679" lon="9.2112482"><ele>388.0</ele><time>2026-04-24T14:52:29.965Z</time></trkpt><trkpt lat="45.8126101" lon="9.2112937"><ele>388.0</ele><time>2026-04-24T14:52:30.964Z</time></trkpt><trkpt lat="45.8127467" lon="9.2113502"><ele>388.0</ele><time>2026-04-24T14:52:31.964Z</time></trkpt><trkpt lat="45.8128812" lon="9.2114151"><ele>387.75</ele><time>2026-04-24T14:52:32.964Z</time></trkpt><trkpt lat="45.8130134" lon="9.2114891"><ele>387.5</ele><time>2026-04-24T14:52:33.964Z</time></trkpt><trkpt lat="45.8131398" lon="9.2115746"><ele>387.25</ele><time>2026-04-24T14:52:34.964Z</time></trkpt><trkpt lat="45.8132614" lon="9.2116716"><ele>387.0</ele><time>2026-04-24T14:52:35.964Z</time></trkpt><trkpt lat="45.8133791" lon="9.2117812"><ele>390.0</ele><time>2026-04-24T14:52:36.964Z</time></trkpt><trkpt lat="45.8134974" lon="9.2118997"><ele>393.0</ele><time>2026-04-24T14:52:37.965Z</time></trkpt><trkpt lat="45.8136158" lon="9.2120234"><ele>396.0</ele><time>2026-04-24T14:52:38.965Z</time></trkpt><trkpt lat="45.8137349" lon="9.212151"><ele>399.0</ele><time>2026-04-24T14:52:39.964Z</time></trkpt><trkpt lat="45.8138564" lon="9.2122808"><ele>395.33333333333337</ele><time>2026-04-24T14:52:40.964Z</time></trkpt><trkpt lat="45.8139814" lon="9.2124095"><ele>391.6666666666667</ele><time>2026-04-24T14:52:41.964Z</time></trkpt><trkpt lat="45.8141053" lon="9.2125387"><ele>388.0</ele><time>2026-04-24T14:52:42.964Z</time></trkpt><trkpt lat="45.8142294" lon="9.212668"><ele>391.6666666666667</ele><time>2026-04-24T14:52:43.964Z</time></trkpt><trkpt lat="45.8143515" lon="9.2127976"><ele>395.33333333333337</ele><time>2026-04-24T14:52:44.965Z</time></trkpt><trkpt lat="45.814474" lon="9.2129266"><ele>399.0</ele><time>2026-04-24T14:52:45.964Z</time></trkpt><trkpt lat="45.8145969" lon="9.2130575"><ele>394.0</ele><time>2026-04-24T14:52:46.964Z</time></trkpt><trkpt lat="45.814722" lon="9.2131888"><ele>389.0</ele><time>2026-04-24T14:52:47.964Z</time></trkpt><trkpt lat="45.8148478" lon="9.2133204"><ele>384.0</ele><time>2026-04-24T14:52:48.964Z</time></trkpt><trkpt lat="45.8149741" lon="9.2134547"><ele>384.0</ele><time>2026-04-24T14:52:49.964Z</time></trkpt><trkpt lat="45.815103" lon="9.2135877"><ele>384.0</ele><time>2026-04-24T14:52:50.964Z</time></trkpt><trkpt lat="45.8152322" lon="9.2137222"><ele>384.0</ele><time>2026-04-24T14:52:51.964Z</time></trkpt><trkpt lat="45.8153608" lon="9.2138581"><ele>382.3333333333333</ele><time>2026-04-24T14:52:52.964Z</time></trkpt><trkpt lat="45.8154912" lon="9.2139925"><ele>380.66666666666663</ele><time>2026-04-24T14:52:53.964Z</time></trkpt><trkpt lat="45.8156235" lon="9.2141226"><ele>379.0</ele><time>2026-04-24T14:52:54.964Z</time></trkpt><trkpt lat="45.8157582" lon="9.2142488"><ele>379.0</ele><time>2026-04-24T14:52:55.965Z</time></trkpt><trkpt lat="45.8158975" lon="9.2143668"><ele>379.0</ele><time>2026-04-24T14:52:56.964Z</time></trkpt><trkpt lat="45.8160406" lon="9.2144757"><ele>379.0</ele><time>2026-04-24T14:52:57.964Z</time></trkpt><trkpt lat="45.8161882" lon="9.214577"><ele>379.0</ele><time>2026-04-24T14:52:58.964Z</time></trkpt><trkpt lat="45.8163385" lon="9.2146727"><ele>379.0</ele><time>2026-04-24T14:52:59.965Z</time></trkpt><trkpt lat="45.8164911" lon="9.2147612"><ele>379.0</ele><time>2026-04-24T14:53:00.964Z</time></trkpt><trkpt lat="45.8166494" lon="9.2148409"><ele>375.3333333333333</ele><time>2026-04-24T14:53:01.964Z</time></trkpt><trkpt lat="45.8168068" lon="9.2149077"><ele>371.6666666666667</ele><time>2026-04-24T14:53:02.964Z</time></trkpt><trkpt lat="45.8169588" lon="9.2149639"><ele>368.0</ele><time>2026-04-24T14:53:03.964Z</time></trkpt><trkpt lat="45.8170931" lon="9.2150125"><ele>367.75</ele><time>2026-04-24T14:53:04.964Z</time></trkpt><trkpt lat="45.8172204" lon="9.2150585"><ele>367.5</ele><time>2026-04-24T14:53:05.964Z</time></trkpt><trkpt lat="45.8173425" lon="9.2151026"><ele>367.25</ele><time>2026-04-24T14:53:06.964Z</time></trkpt><trkpt lat="45.8174603" lon="9.215145"><ele>367.0</ele><time>2026-04-24T14:53:07.964Z</time></trkpt><trkpt lat="45.8175785" lon="9.2151891"><ele>368.0</ele><time>2026-04-24T14:53:08.964Z</time></trkpt><trkpt lat="45.8177004" lon="9.2152322"><ele>369.0</ele><time>2026-04-24T14:53:09.964Z</time></trkpt><trkpt lat="45.8178256" lon="9.2152785"><ele>370.0</ele><time>2026-04-24T14:53:10.964Z</time></trkpt><trkpt lat="45.8179545" lon="9.2153232"><ele>371.0</ele><time>2026-04-24T14:53:11.964Z</time></trkpt><trkpt lat="45.8180876" lon="9.2153711"><ele>371.0</ele><time>2026-04-24T14:53:12.964Z</time></trkpt><trkpt lat="45.8182239" lon="9.2154218"><ele>371.0</ele><time>2026-04-24T14:53:13.964Z</time></trkpt><trkpt lat="45.8183598" lon="9.2154688"><ele>371.0</ele><time>2026-04-24T14:53:14.965Z</time></trkpt><trkpt lat="45.8184924" lon="9.2155167"><ele>371.0</ele><time>2026-04-24T14:53:15.965Z</time></trkpt><trkpt lat="45.8186227" lon="9.2155628"><ele>373.25</ele><time>2026-04-24T14:53:16.965Z</time></trkpt><trkpt lat="45.8187494" lon="9.2156081"><ele>375.5</ele><time>2026-04-24T14:53:17.964Z</time></trkpt><trkpt lat="45.8188746" lon="9.2156541"><ele>377.75</ele><time>2026-04-24T14:53:18.965Z</time></trkpt><trkpt lat="45.8189977" lon="9.2156973"><ele>380.0</ele><time>2026-04-24T14:53:19.964Z</time></trkpt><trkpt lat="45.8192369" lon="9.2157771"><ele>377.25</ele><time>2026-04-24T14:53:21.964Z</time></trkpt><trkpt lat="45.8193562" lon="9.215819"><ele>374.5</ele><time>2026-04-24T14:53:22.964Z</time></trkpt><trkpt lat="45.8194738" lon="9.2158611"><ele>371.75</ele><time>2026-04-24T14:53:23.964Z</time></trkpt><trkpt lat="45.8195913" lon="9.2159019"><ele>369.0</ele><time>2026-04-24T14:53:24.964Z</time></trkpt><trkpt lat="45.8197083" lon="9.215942"><ele>369.0</ele><time>2026-04-24T14:53:25.964Z</time></trkpt><trkpt lat="45.8198249" lon="9.2159833"><ele>369.0</ele><time>2026-04-24T14:53:26.964Z</time></trkpt><trkpt lat="45.8199412" lon="9.2160238"><ele>369.0</ele><time>2026-04-24T14:53:27.964Z</time></trkpt><trkpt lat="45.820059" lon="9.2160642"><ele>369.0</ele><time>2026-04-24T14:53:28.964Z</time></trkpt><trkpt lat="45.8201772" lon="9.2161054"><ele>370.75</ele><time>2026-04-24T14:53:29.964Z</time></trkpt><trkpt lat="45.8202967" lon="9.2161476"><ele>372.5</ele><time>2026-04-24T14:53:30.964Z</time></trkpt><trkpt lat="45.8204165" lon="9.216191"><ele>374.25</ele><time>2026-04-24T14:53:31.964Z</time></trkpt><trkpt lat="45.8205366" lon="9.2162384"><ele>376.0</ele><time>2026-04-24T14:53:32.964Z</time></trkpt><trkpt lat="45.8206541" lon="9.2162964"><ele>376.0</ele><time>2026-04-24T14:53:33.964Z</time></trkpt><trkpt lat="45.820769" lon="9.2163667"><ele>376.0</ele><time>2026-04-24T14:53:34.964Z</time></trkpt><trkpt lat="45.8208821" lon="9.216447"><ele>376.0</ele><time>2026-04-24T14:53:35.964Z</time></trkpt><trkpt lat="45.8209938" lon="9.2165356"><ele>376.0</ele><time>2026-04-24T14:53:36.964Z</time></trkpt><trkpt lat="45.8211016" lon="9.2166315"><ele>374.5</ele><time>2026-04-24T14:53:37.964Z</time></trkpt><trkpt lat="45.8212076" lon="9.2167309"><ele>373.0</ele><time>2026-04-24T14:53:38.964Z</time></trkpt><trkpt lat="45.8213133" lon="9.2168302"><ele>371.5</ele><time>2026-04-24T14:53:39.964Z</time></trkpt><trkpt lat="45.8214181" lon="9.2169283"><ele>370.0</ele><time>2026-04-24T14:53:40.964Z</time></trkpt><trkpt lat="45.8215267" lon="9.2170234"><ele>370.0</ele><time>2026-04-24T14:53:41.964Z</time></trkpt><trkpt lat="45.8216387" lon="9.2171138"><ele>370.0</ele><time>2026-04-24T14:53:42.964Z</time></trkpt><trkpt lat="45.8217566" lon="9.217201"><ele>370.0</ele><time>2026-04-24T14:53:43.964Z</time></trkpt><trkpt lat="45.8218803" lon="9.2172855"><ele>370.0</ele><time>2026-04-24T14:53:44.964Z</time></trkpt><trkpt lat="45.8220114" lon="9.2173674"><ele>368.5</ele><time>2026-04-24T14:53:45.964Z</time></trkpt><trkpt lat="45.8221469" lon="9.2174446"><ele>367.0</ele><time>2026-04-24T14:53:46.965Z</time></trkpt><trkpt lat="45.8222872" lon="9.2175176"><ele>365.5</ele><time>2026-04-24T14:53:47.964Z</time></trkpt><trkpt lat="45.8224309" lon="9.2175969"><ele>364.0</ele><time>2026-04-24T14:53:48.964Z</time></trkpt><trkpt lat="45.8225793" lon="9.217666"><ele>367.66666666666663</ele><time>2026-04-24T14:53:49.964Z</time></trkpt><trkpt lat="45.822729" lon="9.2177402"><ele>371.3333333333333</ele><time>2026-04-24T14:53:50.964Z</time></trkpt><trkpt lat="45.8228818" lon="9.2178128"><ele>375.0</ele><time>2026-04-24T14:53:51.964Z</time></trkpt><trkpt lat="45.8230362" lon="9.217888"><ele>375.0</ele><time>2026-04-24T14:53:52.964Z</time></trkpt><trkpt lat="45.8231906" lon="9.2179628"><ele>375.0</ele><time>2026-04-24T14:53:53.964Z</time></trkpt><trkpt lat="45.8233425" lon="9.218038"><ele>375.0</ele><time>2026-04-24T14:53:54.965Z</time></trkpt><trkpt lat="45.8234898" lon="9.2181105"><ele>369.6666666666667</ele><time>2026-04-24T14:53:55.964Z</time></trkpt><trkpt lat="45.8236332" lon="9.218179"><ele>364.33333333333337</ele><time>2026-04-24T14:53:56.964Z</time></trkpt><trkpt lat="45.8237761" lon="9.2182473"><ele>359.0</ele><time>2026-04-24T14:53:57.964Z</time></trkpt><trkpt lat="45.8239163" lon="9.2183185"><ele>359.0</ele><time>2026-04-24T14:53:58.964Z</time></trkpt><trkpt lat="45.8240571" lon="9.2183893"><ele>359.0</ele><time>2026-04-24T14:53:59.964Z</time></trkpt><trkpt lat="45.8241973" lon="9.2184583"><ele>359.0</ele><time>2026-04-24T14:54:00.964Z</time></trkpt><trkpt lat="45.8243396" lon="9.2185239"><ele>359.0</ele><time>2026-04-24T14:54:01.964Z</time></trkpt><trkpt lat="45.824481" lon="9.2185898"><ele>365.0</ele><time>2026-04-24T14:54:02.964Z</time></trkpt><trkpt lat="45.8246201" lon="9.2186605"><ele>371.0</ele><time>2026-04-24T14:54:03.964Z</time></trkpt><trkpt lat="45.8247575" lon="9.2187328"><ele>377.0</ele><time>2026-04-24T14:54:04.964Z</time></trkpt><trkpt lat="45.8248934" lon="9.218812"><ele>383.0</ele><time>2026-04-24T14:54:05.964Z</time></trkpt><trkpt lat="45.8250289" lon="9.2188987"><ele>379.5</ele><time>2026-04-24T14:54:06.964Z</time></trkpt><trkpt lat="45.8251642" lon="9.21899"><ele>376.0</ele><time>2026-04-24T14:54:07.964Z</time></trkpt><trkpt lat="45.8252978" lon="9.2190881"><ele>372.5</ele><time>2026-04-24T14:54:08.964Z</time></trkpt><trkpt lat="45.8254276" lon="9.2191907"><ele>369.0</ele><time>2026-04-24T14:54:09.964Z</time></trkpt><trkpt lat="45.8255578" lon="9.219288"><ele>369.0</ele><time>2026-04-24T14:54:10.964Z</time></trkpt><trkpt lat="45.8256918" lon="9.2193801"><ele>369.0</ele><time>2026-04-24T14:54:11.963Z</time></trkpt><trkpt lat="45.825831" lon="9.219464"><ele>369.0</ele><time>2026-04-24T14:54:12.963Z</time></trkpt><trkpt lat="45.825975" lon="9.2195442"><ele>373.0</ele><time>2026-04-24T14:54:13.963Z</time></trkpt><trkpt lat="45.8261236" lon="9.2196207"><ele>377.0</ele><time>2026-04-24T14:54:14.963Z</time></trkpt><trkpt lat="45.8262747" lon="9.2196972"><ele>381.0</ele><time>2026-04-24T14:54:15.964Z</time></trkpt><trkpt lat="45.8264279" lon="9.2197746"><ele>375.3333333333333</ele><time>2026-04-24T14:54:16.963Z</time></trkpt><trkpt lat="45.8265789" lon="9.2198494"><ele>369.66666666666663</ele><time>2026-04-24T14:54:17.963Z</time></trkpt><trkpt lat="45.8267283" lon="9.219914"><ele>364.0</ele><time>2026-04-24T14:54:18.965Z</time></trkpt><trkpt lat="45.8268793" lon="9.2199701"><ele>364.0</ele><time>2026-04-24T14:54:19.963Z</time></trkpt><trkpt lat="45.8270317" lon="9.2200146"><ele>364.0</ele><time>2026-04-24T14:54:20.963Z</time></trkpt><trkpt lat="45.8271882" lon="9.2200505"><ele>364.0</ele><time>2026-04-24T14:54:21.963Z</time></trkpt><trkpt lat="45.8273486" lon="9.2200786"><ele>364.0</ele><time>2026-04-24T14:54:22.963Z</time></trkpt><trkpt lat="45.8275109" lon="9.2201032"><ele>364.0</ele><time>2026-04-24T14:54:23.963Z</time></trkpt><trkpt lat="45.8276729" lon="9.2201219"><ele>364.0</ele><time>2026-04-24T14:54:24.963Z</time></trkpt><trkpt lat="45.8278288" lon="9.2201392"><ele>365.5</ele><time>2026-04-24T14:54:25.963Z</time></trkpt><trkpt lat="45.8279805" lon="9.2201586"><ele>367.0</ele><time>2026-04-24T14:54:26.963Z</time></trkpt><trkpt lat="45.8281259" lon="9.2201728"><ele>368.5</ele><time>2026-04-24T14:54:27.963Z</time></trkpt><trkpt lat="45.8282679" lon="9.220188"><ele>370.0</ele><time>2026-04-24T14:54:28.963Z</time></trkpt><trkpt lat="45.8284081" lon="9.2202005"><ele>375.0</ele><time>2026-04-24T14:54:29.963Z</time></trkpt><trkpt lat="45.8285449" lon="9.2202195"><ele>380.0</ele><time>2026-04-24T14:54:30.963Z</time></trkpt><trkpt lat="45.8286783" lon="9.2202336"><ele>385.0</ele><time>2026-04-24T14:54:31.963Z</time></trkpt><trkpt lat="45.8288094" lon="9.2202475"><ele>390.0</ele><time>2026-04-24T14:54:32.963Z</time></trkpt><trkpt lat="45.8289361" lon="9.2202667"><ele>390.0</ele><time>2026-04-24T14:54:33.963Z</time></trkpt><trkpt lat="45.8290602" lon="9.2202949"><ele>390.0</ele><time>2026-04-24T14:54:34.963Z</time></trkpt><trkpt lat="45.8291791" lon="9.2203369"><ele>390.0</ele><time>2026-04-24T14:54:35.963Z</time></trkpt><trkpt lat="45.8292948" lon="9.2203866"><ele>390.0</ele><time>2026-04-24T14:54:36.963Z</time></trkpt><trkpt lat="45.8294057" lon="9.2204502"><ele>389.5</ele><time>2026-04-24T14:54:37.963Z</time></trkpt><trkpt lat="45.829516" lon="9.2205279"><ele>389.0</ele><time>2026-04-24T14:54:38.964Z</time></trkpt><trkpt lat="45.829621" lon="9.2206202"><ele>388.5</ele><time>2026-04-24T14:54:39.963Z</time></trkpt><trkpt lat="45.829723" lon="9.2207274"><ele>388.0</ele><time>2026-04-24T14:54:40.963Z</time></trkpt><trkpt lat="45.8298265" lon="9.2208469"><ele>388.0</ele><time>2026-04-24T14:54:41.963Z</time></trkpt><trkpt lat="45.8299333" lon="9.2209795"><ele>388.0</ele><time>2026-04-24T14:54:42.964Z</time></trkpt><trkpt lat="45.8300417" lon="9.2211168"><ele>388.0</ele><time>2026-04-24T14:54:43.963Z</time></trkpt><trkpt lat="45.8301503" lon="9.2212542"><ele>388.0</ele><time>2026-04-24T14:54:44.963Z</time></trkpt><trkpt lat="45.8302594" lon="9.2213944"><ele>388.0</ele><time>2026-04-24T14:54:45.964Z</time></trkpt><trkpt lat="45.8303734" lon="9.2215367"><ele>388.0</ele><time>2026-04-24T14:54:46.964Z</time></trkpt><trkpt lat="45.8304884" lon="9.2216673"><ele>388.0</ele><time>2026-04-24T14:54:47.964Z</time></trkpt><trkpt lat="45.8306083" lon="9.2217936"><ele>388.0</ele><time>2026-04-24T14:54:48.963Z</time></trkpt><trkpt lat="45.8307314" lon="9.2219164"><ele>388.0</ele><time>2026-04-24T14:54:49.963Z</time></trkpt><trkpt lat="45.8308546" lon="9.2220315"><ele>388.0</ele><time>2026-04-24T14:54:50.963Z</time></trkpt><trkpt lat="45.8309824" lon="9.222138"><ele>388.0</ele><time>2026-04-24T14:54:51.963Z</time></trkpt><trkpt lat="45.8311125" lon="9.2222352"><ele>388.0</ele><time>2026-04-24T14:54:52.963Z</time></trkpt><trkpt lat="45.831245" lon="9.2223244"><ele>390.0</ele><time>2026-04-24T14:54:53.963Z</time></trkpt><trkpt lat="45.8313817" lon="9.2223991"><ele>392.0</ele><time>2026-04-24T14:54:54.963Z</time></trkpt><trkpt lat="45.8315221" lon="9.2224686"><ele>394.0</ele><time>2026-04-24T14:54:55.963Z</time></trkpt><trkpt lat="45.8316649" lon="9.2225372"><ele>396.0</ele><time>2026-04-24T14:54:56.963Z</time></trkpt><trkpt lat="45.8318104" lon="9.2226251"><ele>396.0</ele><time>2026-04-24T14:54:57.963Z</time></trkpt><trkpt lat="45.8319743" lon="9.2227039"><ele>396.0</ele><time>2026-04-24T14:54:58.963Z</time></trkpt><trkpt lat="45.832132" lon="9.2227758"><ele>396.0</ele><time>2026-04-24T14:54:59.963Z</time></trkpt><trkpt lat="45.8324397" lon="9.2229309"><ele>396.0</ele><time>2026-04-24T14:55:01.963Z</time></trkpt><trkpt lat="45.8325809" lon="9.2230023"><ele>396.0</ele><time>2026-04-24T14:55:02.963Z</time></trkpt><trkpt lat="45.8326712" lon="9.2230624"><ele>396.0</ele><time>2026-04-24T14:55:03.963Z</time></trkpt><trkpt lat="45.8327912" lon="9.2231172"><ele>396.0</ele><time>2026-04-24T14:55:04.963Z</time></trkpt><trkpt lat="45.8328961" lon="9.2231872"><ele>387.8</ele><time>2026-04-24T14:55:05.963Z</time></trkpt><trkpt lat="45.8329878" lon="9.2233166"><ele>379.6</ele><time>2026-04-24T14:55:06.963Z</time></trkpt><trkpt lat="45.8330267" lon="9.2233926"><ele>371.4</ele><time>2026-04-24T14:55:07.963Z</time></trkpt><trkpt lat="45.833097" lon="9.2235055"><ele>363.2</ele><time>2026-04-24T14:55:08.963Z</time></trkpt><trkpt lat="45.8331593" lon="9.2236374"><ele>355.0</ele><time>2026-04-24T14:55:09.963Z</time></trkpt><trkpt lat="45.8332182" lon="9.2237698"><ele>355.0</ele><time>2026-04-24T14:55:10.963Z</time></trkpt><trkpt lat="45.8332691" lon="9.2239103"><ele>355.0</ele><time>2026-04-24T14:55:11.963Z</time></trkpt><trkpt lat="45.8333143" lon="9.2240845"><ele>355.0</ele><time>2026-04-24T14:55:12.963Z</time></trkpt><trkpt lat="45.8333573" lon="9.2242806"><ele>355.0</ele><time>2026-04-24T14:55:13.963Z</time></trkpt><trkpt lat="45.8334036" lon="9.2244827"><ele>346.66666666666663</ele><time>2026-04-24T14:55:14.963Z</time></trkpt><trkpt lat="45.8334508" lon="9.2246962"><ele>338.3333333333333</ele><time>2026-04-24T14:55:15.963Z</time></trkpt><trkpt lat="45.8335049" lon="9.2249163"><ele>330.0</ele><time>2026-04-24T14:55:16.963Z</time></trkpt><trkpt lat="45.8335565" lon="9.2251357"><ele>330.6666666666667</ele><time>2026-04-24T14:55:17.963Z</time></trkpt><trkpt lat="45.8336047" lon="9.2253484"><ele>331.33333333333337</ele><time>2026-04-24T14:55:18.963Z</time></trkpt><trkpt lat="45.8336515" lon="9.2255558"><ele>332.0</ele><time>2026-04-24T14:55:19.963Z</time></trkpt><trkpt lat="45.833704" lon="9.2257538"><ele>332.0</ele><time>2026-04-24T14:55:20.963Z</time></trkpt><trkpt lat="45.8337595" lon="9.2259435"><ele>332.0</ele><time>2026-04-24T14:55:21.963Z</time></trkpt><trkpt lat="45.8338166" lon="9.2261211"><ele>332.0</ele><time>2026-04-24T14:55:22.963Z</time></trkpt><trkpt lat="45.8338706" lon="9.2262806"><ele>332.0</ele><time>2026-04-24T14:55:23.963Z</time></trkpt><trkpt lat="45.8339225" lon="9.226434"><ele>333.0</ele><time>2026-04-24T14:55:24.964Z</time></trkpt><trkpt lat="45.8339724" lon="9.2265799"><ele>334.0</ele><time>2026-04-24T14:55:25.964Z</time></trkpt><trkpt lat="45.8340288" lon="9.2267288"><ele>335.0</ele><time>2026-04-24T14:55:26.963Z</time></trkpt><trkpt lat="45.8340882" lon="9.2268824"><ele>336.0</ele><time>2026-04-24T14:55:27.963Z</time></trkpt><trkpt lat="45.834148" lon="9.2270423"><ele>336.0</ele><time>2026-04-24T14:55:28.963Z</time></trkpt><trkpt lat="45.8342079" lon="9.2272088"><ele>336.0</ele><time>2026-04-24T14:55:29.963Z</time></trkpt><trkpt lat="45.834269" lon="9.227378"><ele>336.0</ele><time>2026-04-24T14:55:30.963Z</time></trkpt><trkpt lat="45.8343289" lon="9.2275496"><ele>336.0</ele><time>2026-04-24T14:55:31.963Z</time></trkpt><trkpt lat="45.8343876" lon="9.2277158"><ele>334.0</ele><time>2026-04-24T14:55:32.963Z</time></trkpt><trkpt lat="45.8344378" lon="9.2278891"><ele>332.0</ele><time>2026-04-24T14:55:33.963Z</time></trkpt><trkpt lat="45.8344807" lon="9.2280703"><ele>330.0</ele><time>2026-04-24T14:55:34.963Z</time></trkpt><trkpt lat="45.8345215" lon="9.2282597"><ele>328.0</ele><time>2026-04-24T14:55:35.963Z</time></trkpt><trkpt lat="45.834558" lon="9.2284579"><ele>328.0</ele><time>2026-04-24T14:55:36.963Z</time></trkpt><trkpt lat="45.8345925" lon="9.2286626"><ele>328.0</ele><time>2026-04-24T14:55:37.963Z</time></trkpt><trkpt lat="45.8346273" lon="9.2288735"><ele>328.0</ele><time>2026-04-24T14:55:38.963Z</time></trkpt><trkpt lat="45.8346639" lon="9.2290879"><ele>328.3333333333333</ele><time>2026-04-24T14:55:39.963Z</time></trkpt><trkpt lat="45.8347048" lon="9.229307"><ele>328.6666666666667</ele><time>2026-04-24T14:55:40.963Z</time></trkpt><trkpt lat="45.8347427" lon="9.2295297"><ele>329.0</ele><time>2026-04-24T14:55:41.963Z</time></trkpt><trkpt lat="45.8347846" lon="9.229754"><ele>331.6666666666667</ele><time>2026-04-24T14:55:42.963Z</time></trkpt><trkpt lat="45.834825" lon="9.2299805"><ele>334.3333333333333</ele><time>2026-04-24T14:55:43.963Z</time></trkpt><trkpt lat="45.8348642" lon="9.230208"><ele>337.0</ele><time>2026-04-24T14:55:44.963Z</time></trkpt><trkpt lat="45.8349035" lon="9.2304349"><ele>339.3333333333333</ele><time>2026-04-24T14:55:45.963Z</time></trkpt><trkpt lat="45.8349435" lon="9.2306635"><ele>341.6666666666667</ele><time>2026-04-24T14:55:46.963Z</time></trkpt><trkpt lat="45.8349847" lon="9.230893"><ele>344.0</ele><time>2026-04-24T14:55:47.963Z</time></trkpt><trkpt lat="45.8350262" lon="9.231121"><ele>344.0</ele><time>2026-04-24T14:55:48.963Z</time></trkpt><trkpt lat="45.8350686" lon="9.2313377"><ele>344.0</ele><time>2026-04-24T14:55:49.963Z</time></trkpt><trkpt lat="45.8351105" lon="9.2315423"><ele>344.0</ele><time>2026-04-24T14:55:50.963Z</time></trkpt><trkpt lat="45.835147" lon="9.2317412"><ele>344.0</ele><time>2026-04-24T14:55:51.963Z</time></trkpt><trkpt lat="45.83518" lon="9.2319333"><ele>341.25</ele><time>2026-04-24T14:55:52.963Z</time></trkpt><trkpt lat="45.8352115" lon="9.2321202"><ele>338.5</ele><time>2026-04-24T14:55:53.963Z</time></trkpt><trkpt lat="45.835239" lon="9.2323114"><ele>335.75</ele><time>2026-04-24T14:55:54.963Z</time></trkpt><trkpt lat="45.8352585" lon="9.232508"><ele>333.0</ele><time>2026-04-24T14:55:55.963Z</time></trkpt><trkpt lat="45.8352773" lon="9.2327142"><ele>333.0</ele><time>2026-04-24T14:55:56.963Z</time></trkpt><trkpt lat="45.8352992" lon="9.2329265"><ele>333.0</ele><time>2026-04-24T14:55:57.963Z</time></trkpt><trkpt lat="45.8353214" lon="9.2331474"><ele>333.0</ele><time>2026-04-24T14:55:58.963Z</time></trkpt><trkpt lat="45.8353442" lon="9.2333748"><ele>334.6666666666667</ele><time>2026-04-24T14:55:59.963Z</time></trkpt><trkpt lat="45.8353707" lon="9.2336068"><ele>336.33333333333337</ele><time>2026-04-24T14:56:00.963Z</time></trkpt><trkpt lat="45.835401" lon="9.2338428"><ele>338.0</ele><time>2026-04-24T14:56:01.963Z</time></trkpt><trkpt lat="45.8354365" lon="9.2340817"><ele>340.6666666666667</ele><time>2026-04-24T14:56:02.963Z</time></trkpt><trkpt lat="45.8354738" lon="9.2343119"><ele>343.3333333333333</ele><time>2026-04-24T14:56:03.963Z</time></trkpt><trkpt lat="45.8355097" lon="9.2345361"><ele>346.0</ele><time>2026-04-24T14:56:04.963Z</time></trkpt><trkpt lat="45.8355437" lon="9.2347583"><ele>346.0</ele><time>2026-04-24T14:56:05.963Z</time></trkpt><trkpt lat="45.8355773" lon="9.2349819"><ele>346.0</ele><time>2026-04-24T14:56:06.963Z</time></trkpt><trkpt lat="45.8356073" lon="9.235207"><ele>346.0</ele><time>2026-04-24T14:56:07.963Z</time></trkpt><trkpt lat="45.835635" lon="9.2354347"><ele>346.3333333333333</ele><time>2026-04-24T14:56:08.963Z</time></trkpt><trkpt lat="45.8356608" lon="9.2356623"><ele>346.6666666666667</ele><time>2026-04-24T14:56:09.963Z</time></trkpt><trkpt lat="45.8356811" lon="9.2358775"><ele>347.0</ele><time>2026-04-24T14:56:10.963Z</time></trkpt><trkpt lat="45.8357023" lon="9.2360853"><ele>347.0</ele><time>2026-04-24T14:56:11.963Z</time></trkpt><trkpt lat="45.8357298" lon="9.2362858"><ele>347.0</ele><time>2026-04-24T14:56:12.963Z</time></trkpt><trkpt lat="45.8357668" lon="9.236477"><ele>347.0</ele><time>2026-04-24T14:56:13.963Z</time></trkpt><trkpt lat="45.8358147" lon="9.2366642"><ele>347.0</ele><time>2026-04-24T14:56:14.963Z</time></trkpt><trkpt lat="45.8358742" lon="9.236851"><ele>348.33333333333337</ele><time>2026-04-24T14:56:15.963Z</time></trkpt><trkpt lat="45.8359414" lon="9.237041"><ele>349.6666666666667</ele><time>2026-04-24T14:56:16.963Z</time></trkpt><trkpt lat="45.8360133" lon="9.2372369"><ele>351.0</ele><time>2026-04-24T14:56:17.963Z</time></trkpt><trkpt lat="45.8360869" lon="9.2374381"><ele>352.0</ele><time>2026-04-24T14:56:18.963Z</time></trkpt><trkpt lat="45.8361628" lon="9.2376437"><ele>353.0</ele><time>2026-04-24T14:56:19.963Z</time></trkpt><trkpt lat="45.8362416" lon="9.2378529"><ele>354.0</ele><time>2026-04-24T14:56:20.963Z</time></trkpt><trkpt lat="45.8363198" lon="9.2380668"><ele>353.0</ele><time>2026-04-24T14:56:21.963Z</time></trkpt><trkpt lat="45.8364008" lon="9.2382816"><ele>352.0</ele><time>2026-04-24T14:56:22.964Z</time></trkpt><trkpt lat="45.8364834" lon="9.2384994"><ele>351.0</ele><time>2026-04-24T14:56:23.963Z</time></trkpt><trkpt lat="45.8365653" lon="9.2387155"><ele>351.0</ele><time>2026-04-24T14:56:24.963Z</time></trkpt><trkpt lat="45.8366414" lon="9.2389285"><ele>351.0</ele><time>2026-04-24T14:56:25.963Z</time></trkpt><trkpt lat="45.8367095" lon="9.2391384"><ele>351.0</ele><time>2026-04-24T14:56:26.963Z</time></trkpt><trkpt lat="45.8367708" lon="9.2393486"><ele>349.6666666666667</ele><time>2026-04-24T14:56:27.963Z</time></trkpt><trkpt lat="45.8368278" lon="9.2395621"><ele>348.33333333333337</ele><time>2026-04-24T14:56:28.963Z</time></trkpt><trkpt lat="45.8368817" lon="9.2397773"><ele>347.0</ele><time>2026-04-24T14:56:29.963Z</time></trkpt><trkpt lat="45.8369341" lon="9.2399927"><ele>347.0</ele><time>2026-04-24T14:56:30.963Z</time></trkpt><trkpt lat="45.8369843" lon="9.2402091"><ele>347.0</ele><time>2026-04-24T14:56:31.963Z</time></trkpt><trkpt lat="45.8370333" lon="9.2404233"><ele>347.0</ele><time>2026-04-24T14:56:32.964Z</time></trkpt><trkpt lat="45.8370809" lon="9.2406355"><ele>344.6666666666667</ele><time>2026-04-24T14:56:33.963Z</time></trkpt><trkpt lat="45.8371315" lon="9.240844"><ele>342.3333333333333</ele><time>2026-04-24T14:56:34.963Z</time></trkpt><trkpt lat="45.837189" lon="9.241048"><ele>340.0</ele><time>2026-04-24T14:56:35.963Z</time></trkpt><trkpt lat="45.8372525" lon="9.2412467"><ele>340.0</ele><time>2026-04-24T14:56:36.963Z</time></trkpt><trkpt lat="45.8373234" lon="9.2414398"><ele>340.0</ele><time>2026-04-24T14:56:37.963Z</time></trkpt><trkpt lat="45.8373999" lon="9.2416277"><ele>340.0</ele><time>2026-04-24T14:56:38.963Z</time></trkpt><trkpt lat="45.8374821" lon="9.2418098"><ele>340.3333333333333</ele><time>2026-04-24T14:56:39.963Z</time></trkpt><trkpt lat="45.8375697" lon="9.2419895"><ele>340.6666666666667</ele><time>2026-04-24T14:56:40.963Z</time></trkpt><trkpt lat="45.8376631" lon="9.2421658"><ele>341.0</ele><time>2026-04-24T14:56:41.963Z</time></trkpt><trkpt lat="45.837763" lon="9.2423326"><ele>341.25</ele><time>2026-04-24T14:56:42.963Z</time></trkpt><trkpt lat="45.8378686" lon="9.2424876"><ele>341.5</ele><time>2026-04-24T14:56:43.963Z</time></trkpt><trkpt lat="45.837979" lon="9.2426323"><ele>341.75</ele><time>2026-04-24T14:56:44.963Z</time></trkpt><trkpt lat="45.8380836" lon="9.2427668"><ele>342.0</ele><time>2026-04-24T14:56:45.963Z</time></trkpt><trkpt lat="45.8381809" lon="9.2428926"><ele>342.0</ele><time>2026-04-24T14:56:46.963Z</time></trkpt><trkpt lat="45.8382679" lon="9.2430167"><ele>342.0</ele><time>2026-04-24T14:56:47.963Z</time></trkpt><trkpt lat="45.8383434" lon="9.243147"><ele>342.0</ele><time>2026-04-24T14:56:48.963Z</time></trkpt><trkpt lat="45.8384034" lon="9.243283"><ele>342.0</ele><time>2026-04-24T14:56:49.963Z</time></trkpt><trkpt lat="45.8384546" lon="9.243428"><ele>342.25</ele><time>2026-04-24T14:56:50.963Z</time></trkpt><trkpt lat="45.8384964" lon="9.2435855"><ele>342.5</ele><time>2026-04-24T14:56:51.963Z</time></trkpt><trkpt lat="45.8385297" lon="9.2437558"><ele>342.75</ele><time>2026-04-24T14:56:52.963Z</time></trkpt><trkpt lat="45.8385597" lon="9.2439363"><ele>343.0</ele><time>2026-04-24T14:56:53.963Z</time></trkpt><trkpt lat="45.8385886" lon="9.2441258"><ele>343.0</ele><time>2026-04-24T14:56:54.963Z</time></trkpt><trkpt lat="45.8386192" lon="9.2443219"><ele>343.0</ele><time>2026-04-24T14:56:55.963Z</time></trkpt><trkpt lat="45.838652" lon="9.2445248"><ele>343.0</ele><time>2026-04-24T14:56:56.963Z</time></trkpt><trkpt lat="45.8386877" lon="9.2447301"><ele>343.0</ele><time>2026-04-24T14:56:57.963Z</time></trkpt><trkpt lat="45.8387238" lon="9.244932"><ele>343.5</ele><time>2026-04-24T14:56:58.963Z</time></trkpt><trkpt lat="45.8387597" lon="9.2451268"><ele>344.0</ele><time>2026-04-24T14:56:59.963Z</time></trkpt><trkpt lat="45.8387973" lon="9.245318"><ele>344.5</ele><time>2026-04-24T14:57:00.963Z</time></trkpt><trkpt lat="45.8388372" lon="9.2455063"><ele>345.0</ele><time>2026-04-24T14:57:01.963Z</time></trkpt><trkpt lat="45.8388841" lon="9.2456905"><ele>345.75</ele><time>2026-04-24T14:57:02.963Z</time></trkpt><trkpt lat="45.8389365" lon="9.2458732"><ele>346.5</ele><time>2026-04-24T14:57:03.963Z</time></trkpt><trkpt lat="45.8389952" lon="9.2460565"><ele>347.25</ele><time>2026-04-24T14:57:04.963Z</time></trkpt><trkpt lat="45.8390592" lon="9.2462355"><ele>348.0</ele><time>2026-04-24T14:57:05.963Z</time></trkpt><trkpt lat="45.8391239" lon="9.2464016"><ele>348.25</ele><time>2026-04-24T14:57:06.963Z</time></trkpt><trkpt lat="45.8391848" lon="9.2465605"><ele>348.5</ele><time>2026-04-24T14:57:07.963Z</time></trkpt><trkpt lat="45.8392439" lon="9.2467112"><ele>348.75</ele><time>2026-04-24T14:57:08.963Z</time></trkpt><trkpt lat="45.8392989" lon="9.2468551"><ele>349.0</ele><time>2026-04-24T14:57:09.963Z</time></trkpt><trkpt lat="45.8393545" lon="9.2469933"><ele>349.0</ele><time>2026-04-24T14:57:10.963Z</time></trkpt><trkpt lat="45.8394103" lon="9.2471272"><ele>349.0</ele><time>2026-04-24T14:57:11.963Z</time></trkpt><trkpt lat="45.8394602" lon="9.2472541"><ele>349.0</ele><time>2026-04-24T14:57:12.964Z</time></trkpt><trkpt lat="45.8395116" lon="9.2473715"><ele>349.0</ele><time>2026-04-24T14:57:13.963Z</time></trkpt><trkpt lat="45.8395572" lon="9.2474863"><ele>349.0</ele><time>2026-04-24T14:57:14.963Z</time></trkpt><trkpt lat="45.8395972" lon="9.2476066"><ele>349.79999999999995</ele><time>2026-04-24T14:57:15.963Z</time></trkpt><trkpt lat="45.8396381" lon="9.2477282"><ele>350.59999999999997</ele><time>2026-04-24T14:57:16.963Z</time></trkpt><trkpt lat="45.8396775" lon="9.2478551"><ele>351.4</ele><time>2026-04-24T14:57:17.963Z</time></trkpt><trkpt lat="45.8397182" lon="9.2479872"><ele>352.2</ele><time>2026-04-24T14:57:18.963Z</time></trkpt><trkpt lat="45.8397613" lon="9.2481227"><ele>353.0</ele><time>2026-04-24T14:57:19.964Z</time></trkpt><trkpt lat="45.8398107" lon="9.2482606"><ele>353.0</ele><time>2026-04-24T14:57:20.963Z</time></trkpt><trkpt lat="45.8398668" lon="9.2484019"><ele>353.0</ele><time>2026-04-24T14:57:21.963Z</time></trkpt><trkpt lat="45.8399299" lon="9.2485476"><ele>353.0</ele><time>2026-04-24T14:57:22.963Z</time></trkpt><trkpt lat="45.8399979" lon="9.2486986"><ele>353.0</ele><time>2026-04-24T14:57:23.963Z</time></trkpt><trkpt lat="45.8400718" lon="9.2488546"><ele>352.5</ele><time>2026-04-24T14:57:24.963Z</time></trkpt><trkpt lat="45.8401465" lon="9.2490167"><ele>352.0</ele><time>2026-04-24T14:57:25.963Z</time></trkpt><trkpt lat="45.8402195" lon="9.2491855"><ele>351.5</ele><time>2026-04-24T14:57:26.963Z</time></trkpt><trkpt lat="45.8402926" lon="9.249355"><ele>351.0</ele><time>2026-04-24T14:57:27.963Z</time></trkpt><trkpt lat="45.8403624" lon="9.2495219"><ele>351.0</ele><time>2026-04-24T14:57:28.963Z</time></trkpt><trkpt lat="45.8404304" lon="9.2496853"><ele>351.0</ele><time>2026-04-24T14:57:29.963Z</time></trkpt><trkpt lat="45.8404961" lon="9.2498457"><ele>351.0</ele><time>2026-04-24T14:57:30.963Z</time></trkpt><trkpt lat="45.8405632" lon="9.2500067"><ele>351.0</ele><time>2026-04-24T14:57:31.963Z</time></trkpt><trkpt lat="45.8406307" lon="9.2501664"><ele>351.25</ele><time>2026-04-24T14:57:32.963Z</time></trkpt><trkpt lat="45.8406979" lon="9.2503237"><ele>351.5</ele><time>2026-04-24T14:57:33.963Z</time></trkpt><trkpt lat="45.8407666" lon="9.2504775"><ele>351.75</ele><time>2026-04-24T14:57:34.963Z</time></trkpt><trkpt lat="45.8408347" lon="9.2506313"><ele>352.0</ele><time>2026-04-24T14:57:35.963Z</time></trkpt><trkpt lat="45.8409041" lon="9.2507821"><ele>351.75</ele><time>2026-04-24T14:57:36.963Z</time></trkpt><trkpt lat="45.8409754" lon="9.2509283"><ele>351.5</ele><time>2026-04-24T14:57:37.963Z</time></trkpt><trkpt lat="45.8410532" lon="9.2510669"><ele>351.25</ele><time>2026-04-24T14:57:38.963Z</time></trkpt><trkpt lat="45.841136" lon="9.2511986"><ele>351.0</ele><time>2026-04-24T14:57:39.963Z</time></trkpt><trkpt lat="45.8412229" lon="9.2513234"><ele>351.0</ele><time>2026-04-24T14:57:40.963Z</time></trkpt><trkpt lat="45.8413109" lon="9.2514418"><ele>351.0</ele><time>2026-04-24T14:57:41.964Z</time></trkpt><trkpt lat="45.8414" lon="9.2515549"><ele>351.0</ele><time>2026-04-24T14:57:42.963Z</time></trkpt><trkpt lat="45.8414879" lon="9.251666"><ele>351.0</ele><time>2026-04-24T14:57:43.963Z</time></trkpt><trkpt lat="45.8415749" lon="9.2517745"><ele>351.75</ele><time>2026-04-24T14:57:44.963Z</time></trkpt><trkpt lat="45.8416613" lon="9.2518832"><ele>352.5</ele><time>2026-04-24T14:57:45.963Z</time></trkpt><trkpt lat="45.8417477" lon="9.2519914"><ele>353.25</ele><time>2026-04-24T14:57:46.963Z</time></trkpt><trkpt lat="45.841833" lon="9.2521011"><ele>354.0</ele><time>2026-04-24T14:57:47.963Z</time></trkpt><trkpt lat="45.841921" lon="9.2522109"><ele>353.75</ele><time>2026-04-24T14:57:48.963Z</time></trkpt><trkpt lat="45.8420081" lon="9.2523192"><ele>353.5</ele><time>2026-04-24T14:57:49.963Z</time></trkpt><trkpt lat="45.8420954" lon="9.2524252"><ele>353.25</ele><time>2026-04-24T14:57:50.963Z</time></trkpt><trkpt lat="45.8421797" lon="9.2525274"><ele>353.0</ele><time>2026-04-24T14:57:51.964Z</time></trkpt><trkpt lat="45.8422652" lon="9.2526304"><ele>353.0</ele><time>2026-04-24T14:57:52.963Z</time></trkpt><trkpt lat="45.8423514" lon="9.2527338"><ele>353.0</ele><time>2026-04-24T14:57:53.963Z</time></trkpt><trkpt lat="45.8424397" lon="9.2528363"><ele>353.0</ele><time>2026-04-24T14:57:54.963Z</time></trkpt><trkpt lat="45.8425264" lon="9.2529405"><ele>353.0</ele><time>2026-04-24T14:57:55.963Z</time></trkpt><trkpt lat="45.8426142" lon="9.2530396"><ele>353.79999999999995</ele><time>2026-04-24T14:57:56.963Z</time></trkpt><trkpt lat="45.8427002" lon="9.2531333"><ele>354.6</ele><time>2026-04-24T14:57:57.963Z</time></trkpt><trkpt lat="45.8427862" lon="9.2532282"><ele>355.4</ele><time>2026-04-24T14:57:58.963Z</time></trkpt><trkpt lat="45.8428683" lon="9.2533247"><ele>356.20000000000005</ele><time>2026-04-24T14:57:59.963Z</time></trkpt><trkpt lat="45.8429482" lon="9.2534191"><ele>357.0</ele><time>2026-04-24T14:58:00.963Z</time></trkpt><trkpt lat="45.8430253" lon="9.2535169"><ele>357.0</ele><time>2026-04-24T14:58:01.962Z</time></trkpt><trkpt lat="45.8431024" lon="9.2536159"><ele>357.0</ele><time>2026-04-24T14:58:02.962Z</time></trkpt><trkpt lat="45.8431802" lon="9.2537173"><ele>357.0</ele><time>2026-04-24T14:58:03.962Z</time></trkpt><trkpt lat="45.8432602" lon="9.2538238"><ele>357.0</ele><time>2026-04-24T14:58:04.962Z</time></trkpt><trkpt lat="45.8433425" lon="9.2539335"><ele>357.0</ele><time>2026-04-24T14:58:05.962Z</time></trkpt><trkpt lat="45.8434296" lon="9.2540414"><ele>356.75</ele><time>2026-04-24T14:58:06.962Z</time></trkpt><trkpt lat="45.8435208" lon="9.2541505"><ele>356.5</ele><time>2026-04-24T14:58:07.962Z</time></trkpt><trkpt lat="45.8436156" lon="9.2542585"><ele>356.25</ele><time>2026-04-24T14:58:08.962Z</time></trkpt><trkpt lat="45.8437126" lon="9.2543665"><ele>356.0</ele><time>2026-04-24T14:58:09.962Z</time></trkpt><trkpt lat="45.8438124" lon="9.254476"><ele>356.0</ele><time>2026-04-24T14:58:10.962Z</time></trkpt><trkpt lat="45.8439129" lon="9.2545867"><ele>356.0</ele><time>2026-04-24T14:58:11.962Z</time></trkpt><trkpt lat="45.8440127" lon="9.2546964"><ele>356.0</ele><time>2026-04-24T14:58:12.962Z</time></trkpt><trkpt lat="45.8441128" lon="9.2548034"><ele>356.0</ele><time>2026-04-24T14:58:13.962Z</time></trkpt><trkpt lat="45.8442127" lon="9.2549106"><ele>357.0</ele><time>2026-04-24T14:58:14.962Z</time></trkpt><trkpt lat="45.8443129" lon="9.2550181"><ele>358.0</ele><time>2026-04-24T14:58:15.962Z</time></trkpt><trkpt lat="45.8444141" lon="9.2551273"><ele>359.0</ele><time>2026-04-24T14:58:16.962Z</time></trkpt><trkpt lat="45.8445182" lon="9.2552371"><ele>360.0</ele><time>2026-04-24T14:58:17.963Z</time></trkpt><trkpt lat="45.8446253" lon="9.2553501"><ele>360.0</ele><time>2026-04-24T14:58:18.962Z</time></trkpt><trkpt lat="45.8447335" lon="9.2554661"><ele>360.0</ele><time>2026-04-24T14:58:19.962Z</time></trkpt><trkpt lat="45.8448388" lon="9.2555805"><ele>360.0</ele><time>2026-04-24T14:58:20.962Z</time></trkpt><trkpt lat="45.8449398" lon="9.2556917"><ele>360.0</ele><time>2026-04-24T14:58:21.962Z</time></trkpt><trkpt lat="45.8450363" lon="9.2557984"><ele>360.0</ele><time>2026-04-24T14:58:22.962Z</time></trkpt><trkpt lat="45.8451275" lon="9.2559003"><ele>360.0</ele><time>2026-04-24T14:58:23.962Z</time></trkpt><trkpt lat="45.8452125" lon="9.2559947"><ele>360.0</ele><time>2026-04-24T14:58:24.963Z</time></trkpt><trkpt lat="45.8452922" lon="9.2560822"><ele>360.0</ele><time>2026-04-24T14:58:25.962Z</time></trkpt><trkpt lat="45.8453666" lon="9.2561633"><ele>360.0</ele><time>2026-04-24T14:58:26.962Z</time></trkpt><trkpt lat="45.8454304" lon="9.2562373"><ele>360.0</ele><time>2026-04-24T14:58:27.963Z</time></trkpt><trkpt lat="45.8454838" lon="9.2563004"><ele>360.0</ele><time>2026-04-24T14:58:28.963Z</time></trkpt><trkpt lat="45.8455627" lon="9.2564116"><ele>360.0</ele><time>2026-04-24T14:58:30.962Z</time></trkpt><trkpt lat="45.8456261" lon="9.2565285"><ele>360.0</ele><time>2026-04-24T14:58:32.962Z</time></trkpt><trkpt lat="45.8457046" lon="9.2565984"><ele>360.0</ele><time>2026-04-24T14:58:34.962Z</time></trkpt><trkpt lat="45.8458216" lon="9.256672"><ele>360.25</ele><time>2026-04-24T14:58:36.962Z</time></trkpt><trkpt lat="45.8458979" lon="9.2567429"><ele>360.5</ele><time>2026-04-24T14:58:37.962Z</time></trkpt><trkpt lat="45.8459857" lon="9.2568376"><ele>360.75</ele><time>2026-04-24T14:58:38.962Z</time></trkpt><trkpt lat="45.8460851" lon="9.2569486"><ele>361.0</ele><time>2026-04-24T14:58:39.962Z</time></trkpt><trkpt lat="45.8461969" lon="9.2570719"><ele>361.66666666666663</ele><time>2026-04-24T14:58:40.962Z</time></trkpt><trkpt lat="45.846321" lon="9.2572059"><ele>362.3333333333333</ele><time>2026-04-24T14:58:41.963Z</time></trkpt><trkpt lat="45.8464532" lon="9.2573503"><ele>363.0</ele><time>2026-04-24T14:58:42.963Z</time></trkpt><trkpt lat="45.8465813" lon="9.2574944"><ele>363.6666666666667</ele><time>2026-04-24T14:58:43.962Z</time></trkpt><trkpt lat="45.8467028" lon="9.2576362"><ele>364.33333333333337</ele><time>2026-04-24T14:58:44.962Z</time></trkpt><trkpt lat="45.8468171" lon="9.2577887"><ele>365.0</ele><time>2026-04-24T14:58:45.962Z</time></trkpt><trkpt lat="45.846925" lon="9.2579491"><ele>365.0</ele><time>2026-04-24T14:58:46.962Z</time></trkpt><trkpt lat="45.8470285" lon="9.2581175"><ele>365.0</ele><time>2026-04-24T14:58:47.962Z</time></trkpt><trkpt lat="45.8471263" lon="9.2582969"><ele>365.0</ele><time>2026-04-24T14:58:48.962Z</time></trkpt><trkpt lat="45.8472182" lon="9.2584895"><ele>366.33333333333337</ele><time>2026-04-24T14:58:49.962Z</time></trkpt><trkpt lat="45.8473107" lon="9.2586876"><ele>367.6666666666667</ele><time>2026-04-24T14:58:50.962Z</time></trkpt><trkpt lat="45.8474054" lon="9.2588899"><ele>369.0</ele><time>2026-04-24T14:58:51.963Z</time></trkpt><trkpt lat="45.8475036" lon="9.2590969"><ele>368.3333333333333</ele><time>2026-04-24T14:58:52.962Z</time></trkpt><trkpt lat="45.8476052" lon="9.2593097"><ele>367.66666666666663</ele><time>2026-04-24T14:58:53.962Z</time></trkpt><trkpt lat="45.8477113" lon="9.2595258"><ele>367.0</ele><time>2026-04-24T14:58:54.962Z</time></trkpt><trkpt lat="45.8478195" lon="9.2597482"><ele>366.3333333333333</ele><time>2026-04-24T14:58:55.962Z</time></trkpt><trkpt lat="45.8479295" lon="9.2599766"><ele>365.6666666666667</ele><time>2026-04-24T14:58:56.962Z</time></trkpt><trkpt lat="45.8480412" lon="9.2602106"><ele>365.0</ele><time>2026-04-24T14:58:57.963Z</time></trkpt><trkpt lat="45.848154" lon="9.26045"><ele>367.0</ele><time>2026-04-24T14:58:58.962Z</time></trkpt><trkpt lat="45.8482689" lon="9.2606894"><ele>369.0</ele><time>2026-04-24T14:58:59.962Z</time></trkpt><trkpt lat="45.8483804" lon="9.2609222"><ele>371.0</ele><time>2026-04-24T14:59:00.962Z</time></trkpt><trkpt lat="45.8484857" lon="9.2611483"><ele>371.0</ele><time>2026-04-24T14:59:01.962Z</time></trkpt><trkpt lat="45.8485872" lon="9.2613626"><ele>371.0</ele><time>2026-04-24T14:59:02.962Z</time></trkpt><trkpt lat="45.8486835" lon="9.2615658"><ele>371.0</ele><time>2026-04-24T14:59:03.962Z</time></trkpt><trkpt lat="45.8487775" lon="9.2617607"><ele>371.0</ele><time>2026-04-24T14:59:04.962Z</time></trkpt><trkpt lat="45.848873" lon="9.2619497"><ele>371.0</ele><time>2026-04-24T14:59:05.962Z</time></trkpt><trkpt lat="45.8489748" lon="9.2621297"><ele>371.0</ele><time>2026-04-24T14:59:06.962Z</time></trkpt><trkpt lat="45.8490827" lon="9.2623037"><ele>371.33333333333337</ele><time>2026-04-24T14:59:07.962Z</time></trkpt><trkpt lat="45.849193" lon="9.2624754"><ele>371.6666666666667</ele><time>2026-04-24T14:59:08.962Z</time></trkpt><trkpt lat="45.8493111" lon="9.2626438"><ele>372.0</ele><time>2026-04-24T14:59:09.962Z</time></trkpt><trkpt lat="45.8494352" lon="9.262811"><ele>372.0</ele><time>2026-04-24T14:59:10.962Z</time></trkpt><trkpt lat="45.8495678" lon="9.2629742"><ele>372.0</ele><time>2026-04-24T14:59:11.962Z</time></trkpt><trkpt lat="45.8496991" lon="9.2631443"><ele>372.0</ele><time>2026-04-24T14:59:12.962Z</time></trkpt><trkpt lat="45.8498295" lon="9.2633221"><ele>372.3333333333333</ele><time>2026-04-24T14:59:13.962Z</time></trkpt><trkpt lat="45.8499576" lon="9.2635043"><ele>372.66666666666663</ele><time>2026-04-24T14:59:14.962Z</time></trkpt><trkpt lat="45.8500835" lon="9.2636913"><ele>373.0</ele><time>2026-04-24T14:59:15.962Z</time></trkpt><trkpt lat="45.8502078" lon="9.2638823"><ele>374.3333333333333</ele><time>2026-04-24T14:59:16.962Z</time></trkpt><trkpt lat="45.8503308" lon="9.2640817"><ele>375.6666666666667</ele><time>2026-04-24T14:59:17.962Z</time></trkpt><trkpt lat="45.8504524" lon="9.2642845"><ele>377.0</ele><time>2026-04-24T14:59:18.962Z</time></trkpt><trkpt lat="45.8505757" lon="9.2644877"><ele>377.0</ele><time>2026-04-24T14:59:19.962Z</time></trkpt><trkpt lat="45.8507014" lon="9.2646889"><ele>377.0</ele><time>2026-04-24T14:59:20.962Z</time></trkpt><trkpt lat="45.850823" lon="9.2648882"><ele>377.0</ele><time>2026-04-24T14:59:21.962Z</time></trkpt><trkpt lat="45.8509434" lon="9.2650814"><ele>377.0</ele><time>2026-04-24T14:59:22.962Z</time></trkpt><trkpt lat="45.8510589" lon="9.2652705"><ele>377.0</ele><time>2026-04-24T14:59:23.962Z</time></trkpt><trkpt lat="45.8511719" lon="9.2654546"><ele>377.0</ele><time>2026-04-24T14:59:24.962Z</time></trkpt><trkpt lat="45.8512818" lon="9.2656366"><ele>378.0</ele><time>2026-04-24T14:59:25.962Z</time></trkpt><trkpt lat="45.8513906" lon="9.2658172"><ele>379.0</ele><time>2026-04-24T14:59:26.963Z</time></trkpt><trkpt lat="45.8514989" lon="9.2659927"><ele>380.0</ele><time>2026-04-24T14:59:27.962Z</time></trkpt><trkpt lat="45.8516041" lon="9.2661696"><ele>380.0</ele><time>2026-04-24T14:59:28.963Z</time></trkpt><trkpt lat="45.8517101" lon="9.2663427"><ele>380.0</ele><time>2026-04-24T14:59:29.962Z</time></trkpt><trkpt lat="45.8518147" lon="9.2665149"><ele>380.0</ele><time>2026-04-24T14:59:30.962Z</time></trkpt><trkpt lat="45.8519162" lon="9.2666865"><ele>380.0</ele><time>2026-04-24T14:59:31.963Z</time></trkpt><trkpt lat="45.8520118" lon="9.266863"><ele>380.0</ele><time>2026-04-24T14:59:32.963Z</time></trkpt><trkpt lat="45.8521073" lon="9.2670389"><ele>380.0</ele><time>2026-04-24T14:59:33.963Z</time></trkpt><trkpt lat="45.8522025" lon="9.2672153"><ele>381.6666666666667</ele><time>2026-04-24T14:59:34.962Z</time></trkpt><trkpt lat="45.8522959" lon="9.2673938"><ele>383.33333333333337</ele><time>2026-04-24T14:59:35.962Z</time></trkpt><trkpt lat="45.8523879" lon="9.2675721"><ele>385.0</ele><time>2026-04-24T14:59:36.962Z</time></trkpt><trkpt lat="45.8524787" lon="9.2677499"><ele>385.0</ele><time>2026-04-24T14:59:37.962Z</time></trkpt><trkpt lat="45.8525702" lon="9.267927"><ele>385.0</ele><time>2026-04-24T14:59:38.962Z</time></trkpt><trkpt lat="45.8526584" lon="9.2680986"><ele>385.0</ele><time>2026-04-24T14:59:39.963Z</time></trkpt><trkpt lat="45.8527423" lon="9.2682594"><ele>385.0</ele><time>2026-04-24T14:59:40.962Z</time></trkpt><trkpt lat="45.8528229" lon="9.2684131"><ele>384.75</ele><time>2026-04-24T14:59:41.963Z</time></trkpt><trkpt lat="45.8528985" lon="9.2685599"><ele>384.5</ele><time>2026-04-24T14:59:42.963Z</time></trkpt><trkpt lat="45.8529654" lon="9.2687053"><ele>384.25</ele><time>2026-04-24T14:59:43.963Z</time></trkpt><trkpt lat="45.8530241" lon="9.268851"><ele>384.0</ele><time>2026-04-24T14:59:44.962Z</time></trkpt><trkpt lat="45.853074" lon="9.269003"><ele>384.5</ele><time>2026-04-24T14:59:45.962Z</time></trkpt><trkpt lat="45.85312" lon="9.2691551"><ele>385.0</ele><time>2026-04-24T14:59:46.962Z</time></trkpt><trkpt lat="45.8531579" lon="9.269311"><ele>385.5</ele><time>2026-04-24T14:59:47.962Z</time></trkpt><trkpt lat="45.8531828" lon="9.2694659"><ele>386.0</ele><time>2026-04-24T14:59:48.962Z</time></trkpt><trkpt lat="45.8532019" lon="9.2696216"><ele>387.25</ele><time>2026-04-24T14:59:49.962Z</time></trkpt><trkpt lat="45.8532115" lon="9.269781"><ele>388.5</ele><time>2026-04-24T14:59:50.962Z</time></trkpt><trkpt lat="45.853211" lon="9.2699446"><ele>389.75</ele><time>2026-04-24T14:59:51.962Z</time></trkpt><trkpt lat="45.8532024" lon="9.2701126"><ele>391.0</ele><time>2026-04-24T14:59:52.963Z</time></trkpt><trkpt lat="45.853183" lon="9.2702849"><ele>391.0</ele><time>2026-04-24T14:59:53.962Z</time></trkpt><trkpt lat="45.8531555" lon="9.2704626"><ele>391.0</ele><time>2026-04-24T14:59:54.962Z</time></trkpt><trkpt lat="45.8531245" lon="9.2706429"><ele>391.0</ele><time>2026-04-24T14:59:55.962Z</time></trkpt><trkpt lat="45.8530946" lon="9.270809"><ele>391.0</ele><time>2026-04-24T14:59:56.962Z</time></trkpt><trkpt lat="45.8530681" lon="9.2709646"><ele>391.20000000000005</ele><time>2026-04-24T14:59:57.963Z</time></trkpt><trkpt lat="45.8530443" lon="9.2711168"><ele>391.40000000000003</ele><time>2026-04-24T14:59:58.962Z</time></trkpt><trkpt lat="45.8530274" lon="9.2712625"><ele>391.6</ele><time>2026-04-24T14:59:59.962Z</time></trkpt><trkpt lat="45.853021" lon="9.2713986"><ele>391.8</ele><time>2026-04-24T15:00:00.963Z</time></trkpt><trkpt lat="45.8530214" lon="9.2715153"><ele>392.0</ele><time>2026-04-24T15:00:01.962Z</time></trkpt><trkpt lat="45.8530236" lon="9.2716192"><ele>391.6</ele><time>2026-04-24T15:00:02.962Z</time></trkpt><trkpt lat="45.8530308" lon="9.2717126"><ele>391.20000000000005</ele><time>2026-04-24T15:00:03.962Z</time></trkpt><trkpt lat="45.853039" lon="9.2718028"><ele>390.8</ele><time>2026-04-24T15:00:04.962Z</time></trkpt><trkpt lat="45.8530588" lon="9.2719797"><ele>390.4</ele><time>2026-04-24T15:00:06.962Z</time></trkpt><trkpt lat="45.8530874" lon="9.2721433"><ele>390.0</ele><time>2026-04-24T15:00:08.963Z</time></trkpt><trkpt lat="45.8531428" lon="9.2722422"><ele>390.0</ele><time>2026-04-24T15:00:10.962Z</time></trkpt><trkpt lat="45.8532201" lon="9.2722569"><ele>390.0</ele><time>2026-04-24T15:00:12.962Z</time></trkpt><trkpt lat="45.8533169" lon="9.2721968"><ele>390.0</ele><time>2026-04-24T15:00:14.962Z</time></trkpt><trkpt lat="45.8533776" lon="9.2721488"><ele>390.0</ele><time>2026-04-24T15:00:16.963Z</time></trkpt><trkpt lat="45.8534398" lon="9.2721042"><ele>390.0</ele><time>2026-04-24T15:00:20.962Z</time></trkpt><trkpt lat="45.8535219" lon="9.2720518"><ele>390.0</ele><time>2026-04-24T15:00:30.962Z</time></trkpt><trkpt lat="45.8536234" lon="9.2719828"><ele>389.4</ele><time>2026-04-24T15:00:32.962Z</time></trkpt><trkpt lat="45.8537037" lon="9.2719237"><ele>388.8</ele><time>2026-04-24T15:00:33.962Z</time></trkpt><trkpt lat="45.8537896" lon="9.2718616"><ele>388.20000000000005</ele><time>2026-04-24T15:00:34.962Z</time></trkpt><trkpt lat="45.85388" lon="9.2717987"><ele>387.6</ele><time>2026-04-24T15:00:35.962Z</time></trkpt><trkpt lat="45.8539676" lon="9.2717372"><ele>387.0</ele><time>2026-04-24T15:00:36.962Z</time></trkpt><trkpt lat="45.854057" lon="9.2716691"><ele>387.0</ele><time>2026-04-24T15:00:37.961Z</time></trkpt><trkpt lat="45.8541439" lon="9.2715923"><ele>387.0</ele><time>2026-04-24T15:00:38.962Z</time></trkpt><trkpt lat="45.8542263" lon="9.2715052"><ele>387.0</ele><time>2026-04-24T15:00:39.962Z</time></trkpt><trkpt lat="45.854307" lon="9.2714095"><ele>387.0</ele><time>2026-04-24T15:00:40.962Z</time></trkpt><trkpt lat="45.8543851" lon="9.2713021"><ele>387.0</ele><time>2026-04-24T15:00:41.962Z</time></trkpt><trkpt lat="45.8544581" lon="9.2711854"><ele>388.25</ele><time>2026-04-24T15:00:42.962Z</time></trkpt><trkpt lat="45.8545243" lon="9.2710614"><ele>389.5</ele><time>2026-04-24T15:00:43.962Z</time></trkpt><trkpt lat="45.8545832" lon="9.2709282"><ele>390.75</ele><time>2026-04-24T15:00:44.962Z</time></trkpt><trkpt lat="45.8546384" lon="9.2707803"><ele>392.0</ele><time>2026-04-24T15:00:45.962Z</time></trkpt><trkpt lat="45.8546957" lon="9.2706252"><ele>391.0</ele><time>2026-04-24T15:00:46.963Z</time></trkpt><trkpt lat="45.854754" lon="9.2704715"><ele>390.0</ele><time>2026-04-24T15:00:47.962Z</time></trkpt><trkpt lat="45.8548103" lon="9.2703204"><ele>389.0</ele><time>2026-04-24T15:00:48.962Z</time></trkpt><trkpt lat="45.8548667" lon="9.2701722"><ele>388.0</ele><time>2026-04-24T15:00:49.962Z</time></trkpt><trkpt lat="45.8549186" lon="9.2700292"><ele>388.0</ele><time>2026-04-24T15:00:50.962Z</time></trkpt><trkpt lat="45.8549675" lon="9.269895"><ele>388.0</ele><time>2026-04-24T15:00:51.962Z</time></trkpt><trkpt lat="45.855015" lon="9.2697689"><ele>388.0</ele><time>2026-04-24T15:00:52.962Z</time></trkpt><trkpt lat="45.8550674" lon="9.2696584"><ele>388.0</ele><time>2026-04-24T15:00:53.962Z</time></trkpt><trkpt lat="45.8551272" lon="9.2695579"><ele>388.0</ele><time>2026-04-24T15:00:54.962Z</time></trkpt><trkpt lat="45.855198" lon="9.2694775"><ele>387.79999999999995</ele><time>2026-04-24T15:00:55.962Z</time></trkpt><trkpt lat="45.8552778" lon="9.2694194"><ele>387.6</ele><time>2026-04-24T15:00:56.962Z</time></trkpt><trkpt lat="45.8553649" lon="9.2693884"><ele>387.4</ele><time>2026-04-24T15:00:57.962Z</time></trkpt><trkpt lat="45.8554585" lon="9.2693827"><ele>387.20000000000005</ele><time>2026-04-24T15:00:58.962Z</time></trkpt><trkpt lat="45.8555611" lon="9.2693977"><ele>387.0</ele><time>2026-04-24T15:00:59.962Z</time></trkpt><trkpt lat="45.8556705" lon="9.2694177"><ele>387.0</ele><time>2026-04-24T15:01:00.963Z</time></trkpt><trkpt lat="45.8557861" lon="9.2694381"><ele>387.0</ele><time>2026-04-24T15:01:01.962Z</time></trkpt><trkpt lat="45.8559034" lon="9.269456"><ele>387.0</ele><time>2026-04-24T15:01:02.962Z</time></trkpt><trkpt lat="45.8560176" lon="9.2694811"><ele>387.0</ele><time>2026-04-24T15:01:03.962Z</time></trkpt><trkpt lat="45.8561315" lon="9.2695195"><ele>387.75</ele><time>2026-04-24T15:01:04.962Z</time></trkpt><trkpt lat="45.8562423" lon="9.2695612"><ele>388.5</ele><time>2026-04-24T15:01:05.962Z</time></trkpt><trkpt lat="45.8563564" lon="9.2696099"><ele>389.25</ele><time>2026-04-24T15:01:06.962Z</time></trkpt><trkpt lat="45.8564739" lon="9.2696586"><ele>390.0</ele><time>2026-04-24T15:01:07.962Z</time></trkpt><trkpt lat="45.8565929" lon="9.2697077"><ele>390.0</ele><time>2026-04-24T15:01:08.962Z</time></trkpt><trkpt lat="45.8567071" lon="9.2697559"><ele>390.0</ele><time>2026-04-24T15:01:09.962Z</time></trkpt><trkpt lat="45.8568177" lon="9.2697929"><ele>390.0</ele><time>2026-04-24T15:01:10.962Z</time></trkpt><trkpt lat="45.8569314" lon="9.2698119"><ele>390.0</ele><time>2026-04-24T15:01:11.962Z</time></trkpt><trkpt lat="45.8570448" lon="9.2698147"><ele>390.75</ele><time>2026-04-24T15:01:12.962Z</time></trkpt><trkpt lat="45.8571647" lon="9.2697988"><ele>391.5</ele><time>2026-04-24T15:01:13.962Z</time></trkpt><trkpt lat="45.8572882" lon="9.2697817"><ele>392.25</ele><time>2026-04-24T15:01:14.962Z</time></trkpt><trkpt lat="45.8574164" lon="9.2697643"><ele>393.0</ele><time>2026-04-24T15:01:15.962Z</time></trkpt><trkpt lat="45.8575446" lon="9.2697467"><ele>393.5</ele><time>2026-04-24T15:01:16.962Z</time></trkpt><trkpt lat="45.8576787" lon="9.2697262"><ele>394.0</ele><time>2026-04-24T15:01:17.962Z</time></trkpt><trkpt lat="45.8578096" lon="9.2697103"><ele>394.5</ele><time>2026-04-24T15:01:18.962Z</time></trkpt><trkpt lat="45.8579417" lon="9.269696"><ele>395.0</ele><time>2026-04-24T15:01:19.962Z</time></trkpt><trkpt lat="45.8580737" lon="9.2696894"><ele>395.0</ele><time>2026-04-24T15:01:20.962Z</time></trkpt><trkpt lat="45.8582053" lon="9.2696937"><ele>395.0</ele><time>2026-04-24T15:01:21.962Z</time></trkpt><trkpt lat="45.8583384" lon="9.2697134"><ele>395.0</ele><time>2026-04-24T15:01:22.962Z</time></trkpt><trkpt lat="45.8584656" lon="9.2697418"><ele>395.0</ele><time>2026-04-24T15:01:23.962Z</time></trkpt><trkpt lat="45.8585899" lon="9.2697683"><ele>396.5</ele><time>2026-04-24T15:01:24.962Z</time></trkpt><trkpt lat="45.8587047" lon="9.2697707"><ele>398.0</ele><time>2026-04-24T15:01:25.962Z</time></trkpt><trkpt lat="45.858819" lon="9.2697575"><ele>399.5</ele><time>2026-04-24T15:01:26.962Z</time></trkpt><trkpt lat="45.8589303" lon="9.26973"><ele>401.0</ele><time>2026-04-24T15:01:27.962Z</time></trkpt><trkpt lat="45.8590401" lon="9.2696859"><ele>401.0</ele><time>2026-04-24T15:01:28.962Z</time></trkpt><trkpt lat="45.8591496" lon="9.269623"><ele>401.0</ele><time>2026-04-24T15:01:29.963Z</time></trkpt><trkpt lat="45.8592614" lon="9.2695475"><ele>401.0</ele><time>2026-04-24T15:01:30.962Z</time></trkpt><trkpt lat="45.8593731" lon="9.2694652"><ele>401.0</ele><time>2026-04-24T15:01:31.962Z</time></trkpt><trkpt lat="45.8594799" lon="9.2693878"><ele>402.6</ele><time>2026-04-24T15:01:32.963Z</time></trkpt><trkpt lat="45.8595769" lon="9.2693164"><ele>404.20000000000005</ele><time>2026-04-24T15:01:33.962Z</time></trkpt><trkpt lat="45.8596626" lon="9.2692315"><ele>405.79999999999995</ele><time>2026-04-24T15:01:34.961Z</time></trkpt><trkpt lat="45.8597369" lon="9.2691274"><ele>407.4</ele><time>2026-04-24T15:01:35.961Z</time></trkpt><trkpt lat="45.8598064" lon="9.2690185"><ele>409.0</ele><time>2026-04-24T15:01:36.961Z</time></trkpt><trkpt lat="45.859867" lon="9.2689183"><ele>409.00000000000006</ele><time>2026-04-24T15:01:37.963Z</time></trkpt><trkpt lat="45.8599213" lon="9.2688431"><ele>409.0</ele><time>2026-04-24T15:01:38.961Z</time></trkpt><trkpt lat="45.8599787" lon="9.2687858"><ele>409.0</ele><time>2026-04-24T15:01:39.961Z</time></trkpt><trkpt lat="45.8600943" lon="9.2687667"><ele>409.0</ele><time>2026-04-24T15:01:41.961Z</time></trkpt><trkpt lat="45.8601909" lon="9.2688508"><ele>409.00000000000006</ele><time>2026-04-24T15:01:43.961Z</time></trkpt><trkpt lat="45.8602271" lon="9.2689275"><ele>409.0</ele><time>2026-04-24T15:01:44.961Z</time></trkpt><trkpt lat="45.8602548" lon="9.2690265"><ele>409.4</ele><time>2026-04-24T15:01:45.962Z</time></trkpt><trkpt lat="45.8602775" lon="9.2691306"><ele>409.79999999999995</ele><time>2026-04-24T15:01:46.961Z</time></trkpt><trkpt lat="45.860304" lon="9.2692343"><ele>410.20000000000005</ele><time>2026-04-24T15:01:47.961Z</time></trkpt><trkpt lat="45.8603788" lon="9.2693582"><ele>410.6</ele><time>2026-04-24T15:01:49.961Z</time></trkpt><trkpt lat="45.8604718" lon="9.2693902"><ele>411.0</ele><time>2026-04-24T15:01:51.961Z</time></trkpt><trkpt lat="45.860606" lon="9.2693933"><ele>411.0</ele><time>2026-04-24T15:01:53.961Z</time></trkpt><trkpt lat="45.8606952" lon="9.2693941"><ele>411.0</ele><time>2026-04-24T15:01:54.961Z</time></trkpt><trkpt lat="45.8607867" lon="9.2694072"><ele>411.0</ele><time>2026-04-24T15:01:55.962Z</time></trkpt><trkpt lat="45.8608852" lon="9.2694393"><ele>411.0</ele><time>2026-04-24T15:01:56.961Z</time></trkpt><trkpt lat="45.8609864" lon="9.2694826"><ele>411.0</ele><time>2026-04-24T15:01:57.961Z</time></trkpt><trkpt lat="45.8610893" lon="9.2695236"><ele>411.6</ele><time>2026-04-24T15:01:58.961Z</time></trkpt><trkpt lat="45.8611938" lon="9.2695569"><ele>412.20000000000005</ele><time>2026-04-24T15:01:59.961Z</time></trkpt><trkpt lat="45.8612851" lon="9.2695845"><ele>412.79999999999995</ele><time>2026-04-24T15:02:00.961Z</time></trkpt><trkpt lat="45.8613653" lon="9.2696077"><ele>413.4</ele><time>2026-04-24T15:02:01.961Z</time></trkpt><trkpt lat="45.8614281" lon="9.2696348"><ele>414.0</ele><time>2026-04-24T15:02:02.961Z</time></trkpt><trkpt lat="45.8615137" lon="9.2697539"><ele>415.2</ele><time>2026-04-24T15:02:04.961Z</time></trkpt><trkpt lat="45.8615523" lon="9.2698454"><ele>416.4</ele><time>2026-04-24T15:02:05.961Z</time></trkpt><trkpt lat="45.8615809" lon="9.2699703"><ele>417.6</ele><time>2026-04-24T15:02:06.961Z</time></trkpt><trkpt lat="45.8616054" lon="9.270114"><ele>418.8</ele><time>2026-04-24T15:02:07.961Z</time></trkpt><trkpt lat="45.8616225" lon="9.2702749"><ele>420.0</ele><time>2026-04-24T15:02:08.962Z</time></trkpt><trkpt lat="45.8616399" lon="9.2704466"><ele>420.5</ele><time>2026-04-24T15:02:09.961Z</time></trkpt><trkpt lat="45.8616615" lon="9.2706305"><ele>421.0</ele><time>2026-04-24T15:02:10.961Z</time></trkpt><trkpt lat="45.8616879" lon="9.2708251"><ele>421.5</ele><time>2026-04-24T15:02:11.961Z</time></trkpt><trkpt lat="45.8617165" lon="9.2710204"><ele>422.0</ele><time>2026-04-24T15:02:12.962Z</time></trkpt><trkpt lat="45.8617434" lon="9.2712087"><ele>422.0</ele><time>2026-04-24T15:02:13.961Z</time></trkpt><trkpt lat="45.8617679" lon="9.2713915"><ele>422.0</ele><time>2026-04-24T15:02:14.961Z</time></trkpt><trkpt lat="45.8617902" lon="9.2715684"><ele>422.0</ele><time>2026-04-24T15:02:15.961Z</time></trkpt><trkpt lat="45.861811" lon="9.2717377"><ele>422.0</ele><time>2026-04-24T15:02:16.961Z</time></trkpt><trkpt lat="45.8618295" lon="9.2719056"><ele>421.5</ele><time>2026-04-24T15:02:17.961Z</time></trkpt><trkpt lat="45.8618425" lon="9.2720717"><ele>421.0</ele><time>2026-04-24T15:02:18.961Z</time></trkpt><trkpt lat="45.861851" lon="9.2722412"><ele>420.5</ele><time>2026-04-24T15:02:19.961Z</time></trkpt><trkpt lat="45.861855" lon="9.2724171"><ele>420.0</ele><time>2026-04-24T15:02:20.961Z</time></trkpt><trkpt lat="45.8618583" lon="9.2725968"><ele>420.0</ele><time>2026-04-24T15:02:21.961Z</time></trkpt><trkpt lat="45.8618608" lon="9.2727827"><ele>420.0</ele><time>2026-04-24T15:02:22.961Z</time></trkpt><trkpt lat="45.8618628" lon="9.2729739"><ele>420.0</ele><time>2026-04-24T15:02:23.961Z</time></trkpt><trkpt lat="45.8618661" lon="9.2731704"><ele>420.0</ele><time>2026-04-24T15:02:24.962Z</time></trkpt><trkpt lat="45.8618695" lon="9.2733722"><ele>421.0</ele><time>2026-04-24T15:02:25.961Z</time></trkpt><trkpt lat="45.8618707" lon="9.273578"><ele>422.0</ele><time>2026-04-24T15:02:26.961Z</time></trkpt><trkpt lat="45.8618706" lon="9.2737864"><ele>423.0</ele><time>2026-04-24T15:02:27.961Z</time></trkpt><trkpt lat="45.861872" lon="9.2739921"><ele>424.0</ele><time>2026-04-24T15:02:28.961Z</time></trkpt><trkpt lat="45.8618729" lon="9.2741843"><ele>425.25</ele><time>2026-04-24T15:02:29.961Z</time></trkpt><trkpt lat="45.8618764" lon="9.2743672"><ele>426.5</ele><time>2026-04-24T15:02:30.962Z</time></trkpt><trkpt lat="45.8618841" lon="9.2745398"><ele>427.75</ele><time>2026-04-24T15:02:31.962Z</time></trkpt><trkpt lat="45.8619018" lon="9.2747034"><ele>429.0</ele><time>2026-04-24T15:02:32.961Z</time></trkpt><trkpt lat="45.8619329" lon="9.2748592"><ele>429.6</ele><time>2026-04-24T15:02:33.961Z</time></trkpt><trkpt lat="45.861973" lon="9.2750108"><ele>430.2</ele><time>2026-04-24T15:02:34.961Z</time></trkpt><trkpt lat="45.8620213" lon="9.2751548"><ele>430.80000000000007</ele><time>2026-04-24T15:02:35.961Z</time></trkpt><trkpt lat="45.862079" lon="9.2752908"><ele>431.40000000000003</ele><time>2026-04-24T15:02:36.961Z</time></trkpt><trkpt lat="45.8621422" lon="9.2754166"><ele>432.0</ele><time>2026-04-24T15:02:37.961Z</time></trkpt><trkpt lat="45.862213" lon="9.2755282"><ele>433.6</ele><time>2026-04-24T15:02:38.961Z</time></trkpt><trkpt lat="45.8622903" lon="9.2756282"><ele>435.20000000000005</ele><time>2026-04-24T15:02:39.961Z</time></trkpt><trkpt lat="45.8623746" lon="9.275717"><ele>436.8</ele><time>2026-04-24T15:02:40.961Z</time></trkpt><trkpt lat="45.8624642" lon="9.2757957"><ele>438.4</ele><time>2026-04-24T15:02:41.961Z</time></trkpt><trkpt lat="45.862562" lon="9.2758598"><ele>440.0</ele><time>2026-04-24T15:02:42.961Z</time></trkpt><trkpt lat="45.8626662" lon="9.2759128"><ele>441.6</ele><time>2026-04-24T15:02:43.961Z</time></trkpt><trkpt lat="45.8627796" lon="9.275947"><ele>443.2</ele><time>2026-04-24T15:02:44.962Z</time></trkpt><trkpt lat="45.8628882" lon="9.2759744"><ele>444.79999999999995</ele><time>2026-04-24T15:02:45.961Z</time></trkpt><trkpt lat="45.8629975" lon="9.2759837"><ele>446.4</ele><time>2026-04-24T15:02:46.961Z</time></trkpt><trkpt lat="45.8631059" lon="9.2759737"><ele>448.0</ele><time>2026-04-24T15:02:47.961Z</time></trkpt><trkpt lat="45.8632148" lon="9.2759454"><ele>448.0</ele><time>2026-04-24T15:02:48.961Z</time></trkpt><trkpt lat="45.863327" lon="9.2758998"><ele>448.0</ele><time>2026-04-24T15:02:49.961Z</time></trkpt><trkpt lat="45.8634338" lon="9.2758382"><ele>448.0</ele><time>2026-04-24T15:02:50.961Z</time></trkpt><trkpt lat="45.8635348" lon="9.2757631"><ele>448.0</ele><time>2026-04-24T15:02:51.961Z</time></trkpt><trkpt lat="45.8636327" lon="9.2756741"><ele>454.5</ele><time>2026-04-24T15:02:52.961Z</time></trkpt><trkpt lat="45.8637224" lon="9.2755691"><ele>461.0</ele><time>2026-04-24T15:02:53.961Z</time></trkpt><trkpt lat="45.863804" lon="9.2754499"><ele>467.5</ele><time>2026-04-24T15:02:54.961Z</time></trkpt><trkpt lat="45.8638788" lon="9.27532"><ele>474.0</ele><time>2026-04-24T15:02:55.961Z</time></trkpt><trkpt lat="45.863945" lon="9.2751745"><ele>474.0</ele><time>2026-04-24T15:02:56.961Z</time></trkpt><trkpt lat="45.8640009" lon="9.2750143"><ele>474.0</ele><time>2026-04-24T15:02:57.961Z</time></trkpt><trkpt lat="45.8640463" lon="9.2748374"><ele>474.0</ele><time>2026-04-24T15:02:58.961Z</time></trkpt><trkpt lat="45.8640861" lon="9.2746476"><ele>474.0</ele><time>2026-04-24T15:02:59.961Z</time></trkpt><trkpt lat="45.8641203" lon="9.2744439"><ele>471.33333333333337</ele><time>2026-04-24T15:03:00.961Z</time></trkpt><trkpt lat="45.8641506" lon="9.2742288"><ele>468.6666666666667</ele><time>2026-04-24T15:03:01.961Z</time></trkpt><trkpt lat="45.8641831" lon="9.2740093"><ele>466.0</ele><time>2026-04-24T15:03:02.961Z</time></trkpt><trkpt lat="45.8642164" lon="9.2737857"><ele>465.6666666666667</ele><time>2026-04-24T15:03:03.961Z</time></trkpt><trkpt lat="45.8642521" lon="9.2735614"><ele>465.33333333333337</ele><time>2026-04-24T15:03:04.961Z</time></trkpt><trkpt lat="45.8642908" lon="9.2733439"><ele>465.0</ele><time>2026-04-24T15:03:05.961Z</time></trkpt><trkpt lat="45.8643403" lon="9.2731375"><ele>479.66666666666663</ele><time>2026-04-24T15:03:06.961Z</time></trkpt><trkpt lat="45.8643976" lon="9.2729336"><ele>494.3333333333333</ele><time>2026-04-24T15:03:07.961Z</time></trkpt><trkpt lat="45.8644557" lon="9.2727289"><ele>509.0</ele><time>2026-04-24T15:03:08.961Z</time></trkpt><trkpt lat="45.864516" lon="9.2725243"><ele>509.0</ele><time>2026-04-24T15:03:09.961Z</time></trkpt><trkpt lat="45.8645791" lon="9.2723207"><ele>509.0</ele><time>2026-04-24T15:03:10.961Z</time></trkpt><trkpt lat="45.8646432" lon="9.2721187"><ele>509.0</ele><time>2026-04-24T15:03:11.961Z</time></trkpt><trkpt lat="45.8647065" lon="9.2719161"><ele>504.66666666666663</ele><time>2026-04-24T15:03:12.961Z</time></trkpt><trkpt lat="45.8647694" lon="9.2717132"><ele>500.33333333333337</ele><time>2026-04-24T15:03:13.961Z</time></trkpt><trkpt lat="45.8648314" lon="9.2715167"><ele>496.0</ele><time>2026-04-24T15:03:14.961Z</time></trkpt><trkpt lat="45.8649004" lon="9.2713112"><ele>492.33333333333337</ele><time>2026-04-24T15:03:15.961Z</time></trkpt><trkpt lat="45.8649681" lon="9.2711131"><ele>488.66666666666663</ele><time>2026-04-24T15:03:16.961Z</time></trkpt><trkpt lat="45.8650316" lon="9.270911"><ele>485.0</ele><time>2026-04-24T15:03:17.961Z</time></trkpt><trkpt lat="45.8651017" lon="9.2707109"><ele>493.66666666666663</ele><time>2026-04-24T15:03:18.961Z</time></trkpt><trkpt lat="45.8652042" lon="9.270338"><ele>502.33333333333337</ele><time>2026-04-24T15:03:20.961Z</time></trkpt><trkpt lat="45.8652726" lon="9.2701291"><ele>511.0</ele><time>2026-04-24T15:03:21.961Z</time></trkpt><trkpt lat="45.8653353" lon="9.2699262"><ele>505.0</ele><time>2026-04-24T15:03:22.961Z</time></trkpt><trkpt lat="45.8653998" lon="9.2697249"><ele>499.0</ele><time>2026-04-24T15:03:23.961Z</time></trkpt><trkpt lat="45.8654562" lon="9.2695217"><ele>493.0</ele><time>2026-04-24T15:03:24.961Z</time></trkpt><trkpt lat="45.8655186" lon="9.2693247"><ele>493.0</ele><time>2026-04-24T15:03:25.961Z</time></trkpt><trkpt lat="45.8655735" lon="9.2691191"><ele>493.0</ele><time>2026-04-24T15:03:26.961Z</time></trkpt><trkpt lat="45.8656341" lon="9.2689368"><ele>493.0</ele><time>2026-04-24T15:03:27.961Z</time></trkpt><trkpt lat="45.8656901" lon="9.2687586"><ele>493.0</ele><time>2026-04-24T15:03:28.961Z</time></trkpt><trkpt lat="45.8657446" lon="9.2685856"><ele>493.0</ele><time>2026-04-24T15:03:29.962Z</time></trkpt><trkpt lat="45.8657969" lon="9.2684148"><ele>493.0</ele><time>2026-04-24T15:03:30.961Z</time></trkpt><trkpt lat="45.8658526" lon="9.2682514"><ele>493.0</ele><time>2026-04-24T15:03:31.961Z</time></trkpt><trkpt lat="45.8659146" lon="9.2680909"><ele>493.0</ele><time>2026-04-24T15:03:32.961Z</time></trkpt><trkpt lat="45.865986" lon="9.2679354"><ele>493.0</ele><time>2026-04-24T15:03:33.961Z</time></trkpt><trkpt lat="45.8660639" lon="9.2677768"><ele>493.0</ele><time>2026-04-24T15:03:34.961Z</time></trkpt><trkpt lat="45.8661526" lon="9.2676109"><ele>493.0</ele><time>2026-04-24T15:03:35.961Z</time></trkpt><trkpt lat="45.8662428" lon="9.2674454"><ele>493.0</ele><time>2026-04-24T15:03:36.961Z</time></trkpt><trkpt lat="45.8663279" lon="9.2672793"><ele>491.25</ele><time>2026-04-24T15:03:37.961Z</time></trkpt><trkpt lat="45.866414" lon="9.267111"><ele>489.5</ele><time>2026-04-24T15:03:38.961Z</time></trkpt><trkpt lat="45.8665009" lon="9.2669455"><ele>487.75</ele><time>2026-04-24T15:03:39.961Z</time></trkpt><trkpt lat="45.8665887" lon="9.2667811"><ele>486.0</ele><time>2026-04-24T15:03:40.961Z</time></trkpt><trkpt lat="45.8666777" lon="9.2666199"><ele>486.0</ele><time>2026-04-24T15:03:41.961Z</time></trkpt><trkpt lat="45.8667628" lon="9.2664595"><ele>486.0</ele><time>2026-04-24T15:03:42.961Z</time></trkpt><trkpt lat="45.8668429" lon="9.2663035"><ele>486.0</ele><time>2026-04-24T15:03:43.961Z</time></trkpt><trkpt lat="45.8669267" lon="9.2661564"><ele>486.0</ele><time>2026-04-24T15:03:44.961Z</time></trkpt><trkpt lat="45.8670169" lon="9.2660242"><ele>486.5</ele><time>2026-04-24T15:03:45.961Z</time></trkpt><trkpt lat="45.8671138" lon="9.2659142"><ele>487.0</ele><time>2026-04-24T15:03:46.961Z</time></trkpt><trkpt lat="45.8672138" lon="9.2658153"><ele>487.5</ele><time>2026-04-24T15:03:47.961Z</time></trkpt><trkpt lat="45.8673185" lon="9.2657271"><ele>488.0</ele><time>2026-04-24T15:03:48.961Z</time></trkpt><trkpt lat="45.8674291" lon="9.2656576"><ele>486.5</ele><time>2026-04-24T15:03:49.961Z</time></trkpt><trkpt lat="45.8675481" lon="9.2655997"><ele>485.0</ele><time>2026-04-24T15:03:50.961Z</time></trkpt><trkpt lat="45.8676758" lon="9.2655503"><ele>483.5</ele><time>2026-04-24T15:03:51.961Z</time></trkpt><trkpt lat="45.867809" lon="9.2655037"><ele>482.0</ele><time>2026-04-24T15:03:52.961Z</time></trkpt><trkpt lat="45.8679452" lon="9.2654566"><ele>482.0</ele><time>2026-04-24T15:03:53.961Z</time></trkpt><trkpt lat="45.8680784" lon="9.2654069"><ele>482.0</ele><time>2026-04-24T15:03:54.961Z</time></trkpt><trkpt lat="45.8682078" lon="9.2653622"><ele>482.0</ele><time>2026-04-24T15:03:55.961Z</time></trkpt><trkpt lat="45.8683331" lon="9.2653211"><ele>482.0</ele><time>2026-04-24T15:03:56.961Z</time></trkpt><trkpt lat="45.868452" lon="9.2652782"><ele>485.40000000000003</ele><time>2026-04-24T15:03:57.961Z</time></trkpt><trkpt lat="45.868564" lon="9.2652329"><ele>488.80000000000007</ele><time>2026-04-24T15:03:58.961Z</time></trkpt><trkpt lat="45.8686674" lon="9.2651757"><ele>492.2</ele><time>2026-04-24T15:03:59.961Z</time></trkpt><trkpt lat="45.8687542" lon="9.2650968"><ele>495.6</ele><time>2026-04-24T15:04:00.961Z</time></trkpt><trkpt lat="45.8688258" lon="9.265007"><ele>499.0</ele><time>2026-04-24T15:04:01.961Z</time></trkpt><trkpt lat="45.8688836" lon="9.2648985"><ele>496.25</ele><time>2026-04-24T15:04:02.961Z</time></trkpt><trkpt lat="45.868941" lon="9.2647757"><ele>493.5</ele><time>2026-04-24T15:04:03.961Z</time></trkpt><trkpt lat="45.8690099" lon="9.2646463"><ele>490.75</ele><time>2026-04-24T15:04:04.961Z</time></trkpt><trkpt lat="45.8690893" lon="9.2645132"><ele>488.0</ele><time>2026-04-24T15:04:05.961Z</time></trkpt><trkpt lat="45.8691745" lon="9.2643716"><ele>488.0</ele><time>2026-04-24T15:04:06.961Z</time></trkpt><trkpt lat="45.8692587" lon="9.2642363"><ele>488.0</ele><time>2026-04-24T15:04:07.961Z</time></trkpt><trkpt lat="45.869337" lon="9.2641111"><ele>488.0</ele><time>2026-04-24T15:04:08.961Z</time></trkpt><trkpt lat="45.869405" lon="9.2639887"><ele>488.0</ele><time>2026-04-24T15:04:09.961Z</time></trkpt><trkpt lat="45.8694506" lon="9.2638558"><ele>491.0</ele><time>2026-04-24T15:04:10.961Z</time></trkpt><trkpt lat="45.8694812" lon="9.2637133"><ele>493.99999999999994</ele><time>2026-04-24T15:04:11.961Z</time></trkpt><trkpt lat="45.8694983" lon="9.2635621"><ele>496.99999999999994</ele><time>2026-04-24T15:04:12.961Z</time></trkpt><trkpt lat="45.8695084" lon="9.2634079"><ele>500.0</ele><time>2026-04-24T15:04:13.962Z</time></trkpt><trkpt lat="45.8695222" lon="9.2632676"><ele>503.0</ele><time>2026-04-24T15:04:14.961Z</time></trkpt><trkpt lat="45.8695499" lon="9.2631446"><ele>499.49999999999994</ele><time>2026-04-24T15:04:15.961Z</time></trkpt><trkpt lat="45.8695942" lon="9.2630278"><ele>496.0</ele><time>2026-04-24T15:04:16.961Z</time></trkpt><trkpt lat="45.8696486" lon="9.2629269"><ele>492.5</ele><time>2026-04-24T15:04:17.961Z</time></trkpt><trkpt lat="45.8697141" lon="9.2628452"><ele>489.0</ele><time>2026-04-24T15:04:18.961Z</time></trkpt><trkpt lat="45.8697908" lon="9.2627825"><ele>485.49999999999994</ele><time>2026-04-24T15:04:19.961Z</time></trkpt><trkpt lat="45.8698788" lon="9.2627452"><ele>482.0</ele><time>2026-04-24T15:04:20.961Z</time></trkpt><trkpt lat="45.8699766" lon="9.2627241"><ele>482.0</ele><time>2026-04-24T15:04:21.961Z</time></trkpt><trkpt lat="45.8700852" lon="9.262728"><ele>482.0</ele><time>2026-04-24T15:04:22.961Z</time></trkpt><trkpt lat="45.8702052" lon="9.2627484"><ele>482.0</ele><time>2026-04-24T15:04:23.961Z</time></trkpt><trkpt lat="45.8703378" lon="9.2627729"><ele>482.0</ele><time>2026-04-24T15:04:24.961Z</time></trkpt><trkpt lat="45.8704724" lon="9.2627979"><ele>484.0</ele><time>2026-04-24T15:04:25.961Z</time></trkpt><trkpt lat="45.8706005" lon="9.2628227"><ele>486.0</ele><time>2026-04-24T15:04:26.961Z</time></trkpt><trkpt lat="45.870724" lon="9.2628371"><ele>488.0</ele><time>2026-04-24T15:04:27.961Z</time></trkpt><trkpt lat="45.8708386" lon="9.2628212"><ele>490.0</ele><time>2026-04-24T15:04:28.961Z</time></trkpt><trkpt lat="45.8709438" lon="9.2627771"><ele>493.5</ele><time>2026-04-24T15:04:29.961Z</time></trkpt><trkpt lat="45.8710459" lon="9.2627062"><ele>497.0</ele><time>2026-04-24T15:04:30.962Z</time></trkpt><trkpt lat="45.8711505" lon="9.2626188"><ele>500.5</ele><time>2026-04-24T15:04:31.962Z</time></trkpt><trkpt lat="45.8712625" lon="9.2625254"><ele>504.0</ele><time>2026-04-24T15:04:32.961Z</time></trkpt><trkpt lat="45.871378" lon="9.2624207"><ele>504.0</ele><time>2026-04-24T15:04:33.961Z</time></trkpt><trkpt lat="45.8714928" lon="9.2623083"><ele>504.0</ele><time>2026-04-24T15:04:34.961Z</time></trkpt><trkpt lat="45.8716077" lon="9.2621926"><ele>504.0</ele><time>2026-04-24T15:04:35.961Z</time></trkpt><trkpt lat="45.8717271" lon="9.2620739"><ele>504.0</ele><time>2026-04-24T15:04:36.961Z</time></trkpt><trkpt lat="45.8718517" lon="9.2619531"><ele>505.5</ele><time>2026-04-24T15:04:37.961Z</time></trkpt><trkpt lat="45.8719762" lon="9.2618307"><ele>507.0</ele><time>2026-04-24T15:04:38.961Z</time></trkpt><trkpt lat="45.872094" lon="9.2617084"><ele>508.5</ele><time>2026-04-24T15:04:39.961Z</time></trkpt><trkpt lat="45.8722072" lon="9.2615949"><ele>510.0</ele><time>2026-04-24T15:04:40.961Z</time></trkpt><trkpt lat="45.8723173" lon="9.2614881"><ele>508.0</ele><time>2026-04-24T15:04:41.961Z</time></trkpt><trkpt lat="45.8724261" lon="9.2613897"><ele>506.0</ele><time>2026-04-24T15:04:42.961Z</time></trkpt><trkpt lat="45.8725332" lon="9.2612983"><ele>504.0</ele><time>2026-04-24T15:04:43.961Z</time></trkpt><trkpt lat="45.8726401" lon="9.2612258"><ele>502.0</ele><time>2026-04-24T15:04:44.961Z</time></trkpt><trkpt lat="45.8727436" lon="9.2611516"><ele>502.0</ele><time>2026-04-24T15:04:45.961Z</time></trkpt><trkpt lat="45.8728396" lon="9.2610701"><ele>502.00000000000006</ele><time>2026-04-24T15:04:46.961Z</time></trkpt><trkpt lat="45.8729373" lon="9.2610077"><ele>502.00000000000006</ele><time>2026-04-24T15:04:47.961Z</time></trkpt><trkpt lat="45.873039" lon="9.2609681"><ele>502.0</ele><time>2026-04-24T15:04:48.961Z</time></trkpt><trkpt lat="45.8731385" lon="9.2609528"><ele>502.0</ele><time>2026-04-24T15:04:49.961Z</time></trkpt><trkpt lat="45.8732345" lon="9.2609642"><ele>502.0</ele><time>2026-04-24T15:04:50.961Z</time></trkpt><trkpt lat="45.8733343" lon="9.2609995"><ele>502.00000000000006</ele><time>2026-04-24T15:04:51.961Z</time></trkpt><trkpt lat="45.8734373" lon="9.2610577"><ele>502.00000000000006</ele><time>2026-04-24T15:04:52.961Z</time></trkpt><trkpt lat="45.873545" lon="9.2611193"><ele>502.0</ele><time>2026-04-24T15:04:53.961Z</time></trkpt><trkpt lat="45.8736518" lon="9.2611831"><ele>502.0</ele><time>2026-04-24T15:04:54.961Z</time></trkpt><trkpt lat="45.87375" lon="9.2612325"><ele>504.40000000000003</ele><time>2026-04-24T15:04:55.961Z</time></trkpt><trkpt lat="45.8738468" lon="9.2612586"><ele>506.80000000000007</ele><time>2026-04-24T15:04:56.961Z</time></trkpt><trkpt lat="45.8739429" lon="9.2612599"><ele>509.2</ele><time>2026-04-24T15:04:57.961Z</time></trkpt><trkpt lat="45.8740409" lon="9.2612421"><ele>511.6</ele><time>2026-04-24T15:04:58.961Z</time></trkpt><trkpt lat="45.8741429" lon="9.261208"><ele>514.0</ele><time>2026-04-24T15:04:59.961Z</time></trkpt><trkpt lat="45.8742477" lon="9.2611695"><ele>513.6</ele><time>2026-04-24T15:05:00.961Z</time></trkpt><trkpt lat="45.8743501" lon="9.2611241"><ele>513.2</ele><time>2026-04-24T15:05:01.961Z</time></trkpt><trkpt lat="45.8744488" lon="9.2610662"><ele>512.8000000000001</ele><time>2026-04-24T15:05:02.961Z</time></trkpt><trkpt lat="45.8745459" lon="9.2609987"><ele>512.4</ele><time>2026-04-24T15:05:03.961Z</time></trkpt><trkpt lat="45.8746384" lon="9.2609303"><ele>512.0</ele><time>2026-04-24T15:05:04.961Z</time></trkpt><trkpt lat="45.8747378" lon="9.2608686"><ele>512.0</ele><time>2026-04-24T15:05:05.961Z</time></trkpt><trkpt lat="45.8748347" lon="9.260843"><ele>512.0</ele><time>2026-04-24T15:05:06.961Z</time></trkpt><trkpt lat="45.8749318" lon="9.2608391"><ele>512.0</ele><time>2026-04-24T15:05:07.961Z</time></trkpt><trkpt lat="45.8750293" lon="9.2608668"><ele>512.0</ele><time>2026-04-24T15:05:08.961Z</time></trkpt><trkpt lat="45.8751312" lon="9.2609242"><ele>512.0</ele><time>2026-04-24T15:05:09.961Z</time></trkpt><trkpt lat="45.8752396" lon="9.2609974"><ele>515.5</ele><time>2026-04-24T15:05:10.961Z</time></trkpt><trkpt lat="45.8753624" lon="9.2610809"><ele>519.0</ele><time>2026-04-24T15:05:11.961Z</time></trkpt><trkpt lat="45.8754961" lon="9.2611665"><ele>522.5</ele><time>2026-04-24T15:05:12.961Z</time></trkpt><trkpt lat="45.8756399" lon="9.2612592"><ele>526.0</ele><time>2026-04-24T15:05:13.961Z</time></trkpt><trkpt lat="45.8757924" lon="9.261355"><ele>524.0</ele><time>2026-04-24T15:05:14.961Z</time></trkpt><trkpt lat="45.8759499" lon="9.2614571"><ele>522.0</ele><time>2026-04-24T15:05:15.961Z</time></trkpt><trkpt lat="45.8761039" lon="9.2615528"><ele>520.0</ele><time>2026-04-24T15:05:16.961Z</time></trkpt><trkpt lat="45.8762556" lon="9.2616461"><ele>520.0</ele><time>2026-04-24T15:05:17.961Z</time></trkpt><trkpt lat="45.8764024" lon="9.2617389"><ele>520.0</ele><time>2026-04-24T15:05:18.961Z</time></trkpt><trkpt lat="45.87654" lon="9.2618252"><ele>520.0</ele><time>2026-04-24T15:05:19.961Z</time></trkpt><trkpt lat="45.8766744" lon="9.2619034"><ele>523.75</ele><time>2026-04-24T15:05:20.961Z</time></trkpt><trkpt lat="45.8768063" lon="9.2619697"><ele>527.5</ele><time>2026-04-24T15:05:21.961Z</time></trkpt><trkpt lat="45.8769409" lon="9.2620169"><ele>531.25</ele><time>2026-04-24T15:05:22.961Z</time></trkpt><trkpt lat="45.8770773" lon="9.2620512"><ele>535.0</ele><time>2026-04-24T15:05:23.961Z</time></trkpt><trkpt lat="45.8772187" lon="9.2620759"><ele>535.0</ele><time>2026-04-24T15:05:24.961Z</time></trkpt><trkpt lat="45.8773647" lon="9.2620972"><ele>535.0</ele><time>2026-04-24T15:05:25.961Z</time></trkpt><trkpt lat="45.8775171" lon="9.2621187"><ele>535.0</ele><time>2026-04-24T15:05:26.962Z</time></trkpt><trkpt lat="45.8776729" lon="9.2621446"><ele>538.3333333333334</ele><time>2026-04-24T15:05:27.962Z</time></trkpt><trkpt lat="45.8778322" lon="9.2621666"><ele>541.6666666666666</ele><time>2026-04-24T15:05:28.962Z</time></trkpt><trkpt lat="45.8779878" lon="9.2621872"><ele>545.0</ele><time>2026-04-24T15:05:29.962Z</time></trkpt><trkpt lat="45.8781394" lon="9.2622065"><ele>545.0</ele><time>2026-04-24T15:05:30.961Z</time></trkpt><trkpt lat="45.8782888" lon="9.2622273"><ele>545.0</ele><time>2026-04-24T15:05:31.961Z</time></trkpt><trkpt lat="45.8784341" lon="9.2622454"><ele>545.0</ele><time>2026-04-24T15:05:32.96Z</time></trkpt><trkpt lat="45.8787091" lon="9.2623123"><ele>541.4</ele><time>2026-04-24T15:05:34.96Z</time></trkpt><trkpt lat="45.8788331" lon="9.2623593"><ele>537.8</ele><time>2026-04-24T15:05:35.96Z</time></trkpt><trkpt lat="45.8789406" lon="9.2624049"><ele>534.2</ele><time>2026-04-24T15:05:36.96Z</time></trkpt><trkpt lat="45.8790412" lon="9.2624521"><ele>530.6</ele><time>2026-04-24T15:05:37.96Z</time></trkpt><trkpt lat="45.8791352" lon="9.2625"><ele>527.0</ele><time>2026-04-24T15:05:38.96Z</time></trkpt><trkpt lat="45.8792244" lon="9.262538"><ele>530.4</ele><time>2026-04-24T15:05:39.96Z</time></trkpt><trkpt lat="45.8793149" lon="9.2625683"><ele>533.8000000000001</ele><time>2026-04-24T15:05:40.96Z</time></trkpt><trkpt lat="45.8794081" lon="9.2625911"><ele>537.2</ele><time>2026-04-24T15:05:41.96Z</time></trkpt><trkpt lat="45.8795014" lon="9.2626156"><ele>540.6</ele><time>2026-04-24T15:05:42.96Z</time></trkpt><trkpt lat="45.8795981" lon="9.2626423"><ele>544.0</ele><time>2026-04-24T15:05:43.96Z</time></trkpt><trkpt lat="45.8796941" lon="9.2626626"><ele>544.0</ele><time>2026-04-24T15:05:44.96Z</time></trkpt><trkpt lat="45.8797947" lon="9.2626819"><ele>544.0</ele><time>2026-04-24T15:05:45.96Z</time></trkpt><trkpt lat="45.8799004" lon="9.2627"><ele>544.0</ele><time>2026-04-24T15:05:46.961Z</time></trkpt><trkpt lat="45.8800096" lon="9.262719"><ele>544.0</ele><time>2026-04-24T15:05:47.96Z</time></trkpt><trkpt lat="45.8801243" lon="9.2627404"><ele>544.0</ele><time>2026-04-24T15:05:48.96Z</time></trkpt><trkpt lat="45.880246" lon="9.2627624"><ele>544.75</ele><time>2026-04-24T15:05:49.96Z</time></trkpt><trkpt lat="45.8803696" lon="9.262784"><ele>545.5</ele><time>2026-04-24T15:05:50.96Z</time></trkpt><trkpt lat="45.8804987" lon="9.26281"><ele>546.25</ele><time>2026-04-24T15:05:51.96Z</time></trkpt><trkpt lat="45.8806308" lon="9.2628399"><ele>547.0</ele><time>2026-04-24T15:05:52.96Z</time></trkpt><trkpt lat="45.8807662" lon="9.2628777"><ele>547.0</ele><time>2026-04-24T15:05:53.96Z</time></trkpt><trkpt lat="45.8809075" lon="9.2629182"><ele>547.0</ele><time>2026-04-24T15:05:54.96Z</time></trkpt><trkpt lat="45.8810511" lon="9.2629603"><ele>547.0</ele><time>2026-04-24T15:05:55.962Z</time></trkpt><trkpt lat="45.8811959" lon="9.2630006"><ele>547.0</ele><time>2026-04-24T15:05:56.96Z</time></trkpt><trkpt lat="45.8813412" lon="9.2630426"><ele>547.0</ele><time>2026-04-24T15:05:57.96Z</time></trkpt><trkpt lat="45.8814852" lon="9.2630841"><ele>547.0</ele><time>2026-04-24T15:05:58.96Z</time></trkpt><trkpt lat="45.8816282" lon="9.2631271"><ele>547.0</ele><time>2026-04-24T15:05:59.96Z</time></trkpt><trkpt lat="45.8817714" lon="9.2631681"><ele>547.0</ele><time>2026-04-24T15:06:00.96Z</time></trkpt><trkpt lat="45.8819144" lon="9.2632099"><ele>543.0</ele><time>2026-04-24T15:06:01.96Z</time></trkpt><trkpt lat="45.8820594" lon="9.2632503"><ele>539.0</ele><time>2026-04-24T15:06:02.96Z</time></trkpt><trkpt lat="45.882204" lon="9.2632884"><ele>535.0</ele><time>2026-04-24T15:06:03.96Z</time></trkpt><trkpt lat="45.8823446" lon="9.2633308"><ele>531.0</ele><time>2026-04-24T15:06:04.96Z</time></trkpt><trkpt lat="45.8824861" lon="9.2633724"><ele>532.75</ele><time>2026-04-24T15:06:05.96Z</time></trkpt><trkpt lat="45.8826296" lon="9.2634165"><ele>534.5</ele><time>2026-04-24T15:06:06.96Z</time></trkpt><trkpt lat="45.8827758" lon="9.2634596"><ele>536.25</ele><time>2026-04-24T15:06:07.96Z</time></trkpt><trkpt lat="45.8829223" lon="9.2635031"><ele>538.0</ele><time>2026-04-24T15:06:08.96Z</time></trkpt><trkpt lat="45.883071" lon="9.2635462"><ele>538.0</ele><time>2026-04-24T15:06:09.96Z</time></trkpt><trkpt lat="45.8832235" lon="9.2635891"><ele>538.0</ele><time>2026-04-24T15:06:10.96Z</time></trkpt><trkpt lat="45.8833762" lon="9.2636345"><ele>538.0</ele><time>2026-04-24T15:06:11.96Z</time></trkpt><trkpt lat="45.883528" lon="9.2636786"><ele>539.5</ele><time>2026-04-24T15:06:12.96Z</time></trkpt><trkpt lat="45.8836763" lon="9.2637226"><ele>541.0</ele><time>2026-04-24T15:06:13.96Z</time></trkpt><trkpt lat="45.8838212" lon="9.2637642"><ele>542.5</ele><time>2026-04-24T15:06:14.96Z</time></trkpt><trkpt lat="45.8839633" lon="9.2638003"><ele>544.0</ele><time>2026-04-24T15:06:15.96Z</time></trkpt><trkpt lat="45.8840963" lon="9.2638365"><ele>544.0</ele><time>2026-04-24T15:06:16.96Z</time></trkpt><trkpt lat="45.8842223" lon="9.2638673"><ele>544.0</ele><time>2026-04-24T15:06:17.96Z</time></trkpt><trkpt lat="45.8843409" lon="9.26389"><ele>544.0</ele><time>2026-04-24T15:06:18.96Z</time></trkpt><trkpt lat="45.884454" lon="9.2639064"><ele>544.0</ele><time>2026-04-24T15:06:19.96Z</time></trkpt><trkpt lat="45.8845567" lon="9.2639134"><ele>544.2</ele><time>2026-04-24T15:06:20.96Z</time></trkpt><trkpt lat="45.8846505" lon="9.2638974"><ele>544.4</ele><time>2026-04-24T15:06:21.96Z</time></trkpt><trkpt lat="45.8847336" lon="9.2638544"><ele>544.6</ele><time>2026-04-24T15:06:22.96Z</time></trkpt><trkpt lat="45.8848076" lon="9.2637823"><ele>544.8</ele><time>2026-04-24T15:06:23.96Z</time></trkpt><trkpt lat="45.8848754" lon="9.2636802"><ele>545.0</ele><time>2026-04-24T15:06:24.96Z</time></trkpt><trkpt lat="45.884941" lon="9.2635552"><ele>545.0</ele><time>2026-04-24T15:06:25.96Z</time></trkpt><trkpt lat="45.8850046" lon="9.2634092"><ele>545.0</ele><time>2026-04-24T15:06:26.96Z</time></trkpt><trkpt lat="45.8850749" lon="9.2632509"><ele>545.0</ele><time>2026-04-24T15:06:27.96Z</time></trkpt><trkpt lat="45.8851469" lon="9.263095"><ele>545.0</ele><time>2026-04-24T15:06:28.96Z</time></trkpt><trkpt lat="45.8852247" lon="9.2629471"><ele>545.5</ele><time>2026-04-24T15:06:29.96Z</time></trkpt><trkpt lat="45.88531" lon="9.2628102"><ele>546.0</ele><time>2026-04-24T15:06:30.96Z</time></trkpt><trkpt lat="45.8854036" lon="9.2626895"><ele>546.5</ele><time>2026-04-24T15:06:31.961Z</time></trkpt><trkpt lat="45.8855102" lon="9.2625885"><ele>547.0</ele><time>2026-04-24T15:06:32.961Z</time></trkpt><trkpt lat="45.8856296" lon="9.262505"><ele>547.0</ele><time>2026-04-24T15:06:33.96Z</time></trkpt><trkpt lat="45.8857596" lon="9.262429"><ele>547.0</ele><time>2026-04-24T15:06:34.96Z</time></trkpt><trkpt lat="45.8858959" lon="9.2623505"><ele>547.0</ele><time>2026-04-24T15:06:35.96Z</time></trkpt><trkpt lat="45.8860378" lon="9.2622653"><ele>547.0</ele><time>2026-04-24T15:06:36.96Z</time></trkpt><trkpt lat="45.886186" lon="9.2621828"><ele>546.6666666666667</ele><time>2026-04-24T15:06:37.96Z</time></trkpt><trkpt lat="45.8863392" lon="9.2620968"><ele>546.3333333333334</ele><time>2026-04-24T15:06:38.96Z</time></trkpt><trkpt lat="45.8864963" lon="9.2620055"><ele>546.0</ele><time>2026-04-24T15:06:39.96Z</time></trkpt><trkpt lat="45.8866591" lon="9.2619089"><ele>548.3333333333334</ele><time>2026-04-24T15:06:40.96Z</time></trkpt><trkpt lat="45.8868267" lon="9.2618075"><ele>550.6666666666667</ele><time>2026-04-24T15:06:41.96Z</time></trkpt><trkpt lat="45.886999" lon="9.2617046"><ele>553.0</ele><time>2026-04-24T15:06:42.96Z</time></trkpt><trkpt lat="45.8871712" lon="9.261605"><ele>553.0</ele><time>2026-04-24T15:06:43.96Z</time></trkpt><trkpt lat="45.8873351" lon="9.2615165"><ele>553.0</ele><time>2026-04-24T15:06:44.96Z</time></trkpt><trkpt lat="45.8874944" lon="9.2614339"><ele>553.0</ele><time>2026-04-24T15:06:45.96Z</time></trkpt><trkpt lat="45.8876507" lon="9.2613536"><ele>554.6666666666667</ele><time>2026-04-24T15:06:46.961Z</time></trkpt><trkpt lat="45.8877986" lon="9.2612721"><ele>556.3333333333334</ele><time>2026-04-24T15:06:47.96Z</time></trkpt><trkpt lat="45.8879431" lon="9.2611931"><ele>558.0</ele><time>2026-04-24T15:06:48.961Z</time></trkpt><trkpt lat="45.8880819" lon="9.2611166"><ele>558.0</ele><time>2026-04-24T15:06:49.96Z</time></trkpt><trkpt lat="45.8882149" lon="9.2610415"><ele>558.0</ele><time>2026-04-24T15:06:50.96Z</time></trkpt><trkpt lat="45.8883459" lon="9.2609744"><ele>558.0</ele><time>2026-04-24T15:06:51.96Z</time></trkpt><trkpt lat="45.8884757" lon="9.2609156"><ele>558.0</ele><time>2026-04-24T15:06:52.96Z</time></trkpt><trkpt lat="45.8886066" lon="9.260864"><ele>558.25</ele><time>2026-04-24T15:06:53.96Z</time></trkpt><trkpt lat="45.8887424" lon="9.2608183"><ele>558.5</ele><time>2026-04-24T15:06:54.96Z</time></trkpt><trkpt lat="45.8888843" lon="9.2607767"><ele>558.75</ele><time>2026-04-24T15:06:55.96Z</time></trkpt><trkpt lat="45.8890285" lon="9.2607317"><ele>559.0</ele><time>2026-04-24T15:06:56.96Z</time></trkpt><trkpt lat="45.8891709" lon="9.260683"><ele>559.0</ele><time>2026-04-24T15:06:57.96Z</time></trkpt><trkpt lat="45.8893132" lon="9.2606385"><ele>559.0</ele><time>2026-04-24T15:06:58.96Z</time></trkpt><trkpt lat="45.8894543" lon="9.2605997"><ele>559.0</ele><time>2026-04-24T15:06:59.96Z</time></trkpt><trkpt lat="45.8895928" lon="9.2605704"><ele>559.0</ele><time>2026-04-24T15:07:00.96Z</time></trkpt><trkpt lat="45.8897356" lon="9.2605582"><ele>561.3333333333334</ele><time>2026-04-24T15:07:01.96Z</time></trkpt><trkpt lat="45.8898821" lon="9.2605562"><ele>563.6666666666666</ele><time>2026-04-24T15:07:02.96Z</time></trkpt><trkpt lat="45.8900345" lon="9.2605624"><ele>566.0</ele><time>2026-04-24T15:07:03.96Z</time></trkpt><trkpt lat="45.8901926" lon="9.2605687"><ele>567.3333333333333</ele><time>2026-04-24T15:07:04.961Z</time></trkpt><trkpt lat="45.8903508" lon="9.2605746"><ele>568.6666666666666</ele><time>2026-04-24T15:07:05.96Z</time></trkpt><trkpt lat="45.8905044" lon="9.2605818"><ele>570.0</ele><time>2026-04-24T15:07:06.96Z</time></trkpt><trkpt lat="45.8906549" lon="9.2605896"><ele>570.0</ele><time>2026-04-24T15:07:07.96Z</time></trkpt><trkpt lat="45.8908031" lon="9.2605984"><ele>570.0</ele><time>2026-04-24T15:07:08.96Z</time></trkpt><trkpt lat="45.8909469" lon="9.2606011"><ele>570.0</ele><time>2026-04-24T15:07:09.96Z</time></trkpt><trkpt lat="45.8910897" lon="9.2606031"><ele>570.0</ele><time>2026-04-24T15:07:10.96Z</time></trkpt><trkpt lat="45.8912284" lon="9.2606106"><ele>571.25</ele><time>2026-04-24T15:07:11.961Z</time></trkpt><trkpt lat="45.8913661" lon="9.2606337"><ele>572.5</ele><time>2026-04-24T15:07:12.961Z</time></trkpt><trkpt lat="45.8915052" lon="9.2606773"><ele>573.75</ele><time>2026-04-24T15:07:13.96Z</time></trkpt><trkpt lat="45.8916472" lon="9.2607316"><ele>575.0</ele><time>2026-04-24T15:07:14.96Z</time></trkpt><trkpt lat="45.8917912" lon="9.2607879"><ele>575.0</ele><time>2026-04-24T15:07:15.96Z</time></trkpt><trkpt lat="45.8919388" lon="9.2608466"><ele>575.0</ele><time>2026-04-24T15:07:16.96Z</time></trkpt><trkpt lat="45.8920907" lon="9.2609078"><ele>575.0</ele><time>2026-04-24T15:07:17.96Z</time></trkpt><trkpt lat="45.892247" lon="9.2609714"><ele>575.0</ele><time>2026-04-24T15:07:18.96Z</time></trkpt><trkpt lat="45.892408" lon="9.2610356"><ele>575.0</ele><time>2026-04-24T15:07:19.96Z</time></trkpt><trkpt lat="45.8925712" lon="9.261099"><ele>575.0</ele><time>2026-04-24T15:07:20.96Z</time></trkpt><trkpt lat="45.8927309" lon="9.261164"><ele>578.3333333333333</ele><time>2026-04-24T15:07:21.96Z</time></trkpt><trkpt lat="45.8928846" lon="9.2612305"><ele>581.6666666666666</ele><time>2026-04-24T15:07:22.96Z</time></trkpt><trkpt lat="45.8930315" lon="9.2612901"><ele>585.0</ele><time>2026-04-24T15:07:23.96Z</time></trkpt><trkpt lat="45.8931717" lon="9.2613464"><ele>585.0</ele><time>2026-04-24T15:07:24.96Z</time></trkpt><trkpt lat="45.8933081" lon="9.2613908"><ele>585.0</ele><time>2026-04-24T15:07:25.96Z</time></trkpt><trkpt lat="45.8934406" lon="9.2614231"><ele>585.0</ele><time>2026-04-24T15:07:26.96Z</time></trkpt><trkpt lat="45.8935743" lon="9.2614403"><ele>585.0</ele><time>2026-04-24T15:07:27.961Z</time></trkpt><trkpt lat="45.8937124" lon="9.261447"><ele>585.75</ele><time>2026-04-24T15:07:28.96Z</time></trkpt><trkpt lat="45.893853" lon="9.2614549"><ele>586.5</ele><time>2026-04-24T15:07:29.96Z</time></trkpt><trkpt lat="45.893997" lon="9.2614644"><ele>587.25</ele><time>2026-04-24T15:07:30.96Z</time></trkpt><trkpt lat="45.8941418" lon="9.2614782"><ele>588.0</ele><time>2026-04-24T15:07:31.96Z</time></trkpt><trkpt lat="45.894282" lon="9.261493"><ele>588.0</ele><time>2026-04-24T15:07:32.96Z</time></trkpt><trkpt lat="45.8944214" lon="9.2615021"><ele>588.0</ele><time>2026-04-24T15:07:33.96Z</time></trkpt><trkpt lat="45.8945576" lon="9.2615147"><ele>588.0</ele><time>2026-04-24T15:07:34.96Z</time></trkpt><trkpt lat="45.8946934" lon="9.2615378"><ele>588.0</ele><time>2026-04-24T15:07:35.96Z</time></trkpt><trkpt lat="45.8948304" lon="9.2615777"><ele>588.0</ele><time>2026-04-24T15:07:36.96Z</time></trkpt><trkpt lat="45.8949708" lon="9.2616266"><ele>588.0</ele><time>2026-04-24T15:07:37.96Z</time></trkpt><trkpt lat="45.8951133" lon="9.2616797"><ele>588.0</ele><time>2026-04-24T15:07:38.96Z</time></trkpt><trkpt lat="45.89526" lon="9.2617356"><ele>588.0</ele><time>2026-04-24T15:07:39.96Z</time></trkpt><trkpt lat="45.895404" lon="9.2617873"><ele>592.0</ele><time>2026-04-24T15:07:40.96Z</time></trkpt><trkpt lat="45.8955393" lon="9.2618408"><ele>596.0</ele><time>2026-04-24T15:07:41.96Z</time></trkpt><trkpt lat="45.8956692" lon="9.2619004"><ele>600.0</ele><time>2026-04-24T15:07:42.96Z</time></trkpt><trkpt lat="45.8957925" lon="9.2619752"><ele>604.0</ele><time>2026-04-24T15:07:43.96Z</time></trkpt><trkpt lat="45.8959089" lon="9.2620671"><ele>603.25</ele><time>2026-04-24T15:07:44.96Z</time></trkpt><trkpt lat="45.8960163" lon="9.2621781"><ele>602.5</ele><time>2026-04-24T15:07:45.961Z</time></trkpt><trkpt lat="45.89612" lon="9.2622963"><ele>601.75</ele><time>2026-04-24T15:07:46.96Z</time></trkpt><trkpt lat="45.8962274" lon="9.2624053"><ele>601.0</ele><time>2026-04-24T15:07:47.96Z</time></trkpt><trkpt lat="45.896341" lon="9.2624939"><ele>601.0</ele><time>2026-04-24T15:07:48.96Z</time></trkpt><trkpt lat="45.8964644" lon="9.2625623"><ele>601.0</ele><time>2026-04-24T15:07:49.96Z</time></trkpt><trkpt lat="45.8965964" lon="9.2626151"><ele>601.0</ele><time>2026-04-24T15:07:50.96Z</time></trkpt><trkpt lat="45.8967372" lon="9.2626681"><ele>601.0</ele><time>2026-04-24T15:07:51.96Z</time></trkpt><trkpt lat="45.8968805" lon="9.262736"><ele>607.3333333333334</ele><time>2026-04-24T15:07:52.96Z</time></trkpt><trkpt lat="45.8970238" lon="9.26282"><ele>613.6666666666666</ele><time>2026-04-24T15:07:53.96Z</time></trkpt><trkpt lat="45.8971724" lon="9.26291"><ele>620.0</ele><time>2026-04-24T15:07:54.96Z</time></trkpt><trkpt lat="45.8973254" lon="9.2629981"><ele>620.0</ele><time>2026-04-24T15:07:55.96Z</time></trkpt><trkpt lat="45.8974734" lon="9.2630743"><ele>620.0</ele><time>2026-04-24T15:07:56.96Z</time></trkpt><trkpt lat="45.8976206" lon="9.2631328"><ele>620.0</ele><time>2026-04-24T15:07:57.961Z</time></trkpt><trkpt lat="45.8977663" lon="9.2631857"><ele>616.0</ele><time>2026-04-24T15:07:58.96Z</time></trkpt><trkpt lat="45.8979061" lon="9.2632467"><ele>612.0</ele><time>2026-04-24T15:07:59.96Z</time></trkpt><trkpt lat="45.8980368" lon="9.2633262"><ele>608.0</ele><time>2026-04-24T15:08:00.96Z</time></trkpt><trkpt lat="45.8981666" lon="9.2634232"><ele>604.0</ele><time>2026-04-24T15:08:01.96Z</time></trkpt><trkpt lat="45.8982933" lon="9.2635339"><ele>602.75</ele><time>2026-04-24T15:08:02.96Z</time></trkpt><trkpt lat="45.8984193" lon="9.2636543"><ele>601.5</ele><time>2026-04-24T15:08:03.96Z</time></trkpt><trkpt lat="45.8985422" lon="9.2637772"><ele>600.25</ele><time>2026-04-24T15:08:04.96Z</time></trkpt><trkpt lat="45.89866" lon="9.263892"><ele>599.0</ele><time>2026-04-24T15:08:05.961Z</time></trkpt><trkpt lat="45.8987743" lon="9.2639931"><ele>599.0</ele><time>2026-04-24T15:08:06.96Z</time></trkpt><trkpt lat="45.8988884" lon="9.2640776"><ele>599.0</ele><time>2026-04-24T15:08:07.96Z</time></trkpt><trkpt lat="45.8990055" lon="9.264144"><ele>599.0</ele><time>2026-04-24T15:08:08.96Z</time></trkpt><trkpt lat="45.899127" lon="9.2641831"><ele>599.0</ele><time>2026-04-24T15:08:09.96Z</time></trkpt><trkpt lat="45.8992499" lon="9.2641956"><ele>600.5</ele><time>2026-04-24T15:08:10.96Z</time></trkpt><trkpt lat="45.8993805" lon="9.2641907"><ele>602.0</ele><time>2026-04-24T15:08:11.96Z</time></trkpt><trkpt lat="45.8995166" lon="9.2641793"><ele>603.5</ele><time>2026-04-24T15:08:12.96Z</time></trkpt><trkpt lat="45.8996554" lon="9.264167"><ele>605.0</ele><time>2026-04-24T15:08:13.96Z</time></trkpt><trkpt lat="45.8998013" lon="9.2641555"><ele>605.0</ele><time>2026-04-24T15:08:14.96Z</time></trkpt><trkpt lat="45.8999495" lon="9.2641407"><ele>605.0</ele><time>2026-04-24T15:08:15.96Z</time></trkpt><trkpt lat="45.9001034" lon="9.2641263"><ele>605.0</ele><time>2026-04-24T15:08:16.96Z</time></trkpt><trkpt lat="45.9002588" lon="9.2641118"><ele>605.0</ele><time>2026-04-24T15:08:17.96Z</time></trkpt><trkpt lat="45.9004134" lon="9.2640988"><ele>605.0</ele><time>2026-04-24T15:08:18.96Z</time></trkpt><trkpt lat="45.9005596" lon="9.2640826"><ele>605.0</ele><time>2026-04-24T15:08:19.96Z</time></trkpt><trkpt lat="45.9006974" lon="9.2640667"><ele>605.0</ele><time>2026-04-24T15:08:20.96Z</time></trkpt><trkpt lat="45.9008232" lon="9.2640615"><ele>607.75</ele><time>2026-04-24T15:08:21.961Z</time></trkpt><trkpt lat="45.9009419" lon="9.2640677"><ele>610.5</ele><time>2026-04-24T15:08:22.96Z</time></trkpt><trkpt lat="45.9010567" lon="9.2641126"><ele>613.25</ele><time>2026-04-24T15:08:23.96Z</time></trkpt><trkpt lat="45.9011716" lon="9.2641722"><ele>616.0</ele><time>2026-04-24T15:08:24.96Z</time></trkpt><trkpt lat="45.9012931" lon="9.2642541"><ele>616.0</ele><time>2026-04-24T15:08:25.96Z</time></trkpt><trkpt lat="45.9014178" lon="9.2643453"><ele>616.0</ele><time>2026-04-24T15:08:26.96Z</time></trkpt><trkpt lat="45.9015413" lon="9.2644416"><ele>616.0</ele><time>2026-04-24T15:08:27.96Z</time></trkpt><trkpt lat="45.9016598" lon="9.264545"><ele>616.0</ele><time>2026-04-24T15:08:28.96Z</time></trkpt><trkpt lat="45.9017769" lon="9.2646667"><ele>616.25</ele><time>2026-04-24T15:08:29.96Z</time></trkpt><trkpt lat="45.9018868" lon="9.2648117"><ele>616.5</ele><time>2026-04-24T15:08:30.96Z</time></trkpt><trkpt lat="45.9019919" lon="9.2649617"><ele>616.75</ele><time>2026-04-24T15:08:31.961Z</time></trkpt><trkpt lat="45.9020942" lon="9.2651115"><ele>617.0</ele><time>2026-04-24T15:08:32.96Z</time></trkpt><trkpt lat="45.9022031" lon="9.2652344"><ele>617.0</ele><time>2026-04-24T15:08:33.96Z</time></trkpt><trkpt lat="45.9023106" lon="9.2653376"><ele>617.0</ele><time>2026-04-24T15:08:34.96Z</time></trkpt><trkpt lat="45.9024195" lon="9.2654219"><ele>617.0</ele><time>2026-04-24T15:08:35.96Z</time></trkpt><trkpt lat="45.9025427" lon="9.2654784"><ele>617.0</ele><time>2026-04-24T15:08:36.96Z</time></trkpt><trkpt lat="45.9026695" lon="9.2655093"><ele>616.75</ele><time>2026-04-24T15:08:37.96Z</time></trkpt><trkpt lat="45.9028028" lon="9.2655441"><ele>616.5</ele><time>2026-04-24T15:08:38.96Z</time></trkpt><trkpt lat="45.9029395" lon="9.2655915"><ele>616.25</ele><time>2026-04-24T15:08:39.96Z</time></trkpt><trkpt lat="45.9030749" lon="9.2656667"><ele>616.0</ele><time>2026-04-24T15:08:40.96Z</time></trkpt><trkpt lat="45.9032113" lon="9.265745"><ele>616.0</ele><time>2026-04-24T15:08:41.96Z</time></trkpt><trkpt lat="45.9033492" lon="9.2658202"><ele>616.0</ele><time>2026-04-24T15:08:42.96Z</time></trkpt><trkpt lat="45.9034852" lon="9.2658863"><ele>616.0</ele><time>2026-04-24T15:08:43.96Z</time></trkpt><trkpt lat="45.9036132" lon="9.2659601"><ele>616.0</ele><time>2026-04-24T15:08:44.96Z</time></trkpt><trkpt lat="45.9037303" lon="9.266058"><ele>616.25</ele><time>2026-04-24T15:08:45.96Z</time></trkpt><trkpt lat="45.903845" lon="9.2661669"><ele>616.5</ele><time>2026-04-24T15:08:46.96Z</time></trkpt><trkpt lat="45.9039535" lon="9.2662855"><ele>616.75</ele><time>2026-04-24T15:08:47.96Z</time></trkpt><trkpt lat="45.9040526" lon="9.2664004"><ele>617.0</ele><time>2026-04-24T15:08:48.96Z</time></trkpt><trkpt lat="45.9041522" lon="9.2664937"><ele>615.4</ele><time>2026-04-24T15:08:49.96Z</time></trkpt><trkpt lat="45.9042559" lon="9.2665591"><ele>613.8000000000001</ele><time>2026-04-24T15:08:50.96Z</time></trkpt><trkpt lat="45.9043615" lon="9.2665947"><ele>612.2</ele><time>2026-04-24T15:08:51.96Z</time></trkpt><trkpt lat="45.9044693" lon="9.2666009"><ele>610.6</ele><time>2026-04-24T15:08:52.96Z</time></trkpt><trkpt lat="45.9045707" lon="9.2665806"><ele>609.0</ele><time>2026-04-24T15:08:53.96Z</time></trkpt><trkpt lat="45.9046753" lon="9.2665308"><ele>609.0</ele><time>2026-04-24T15:08:54.96Z</time></trkpt><trkpt lat="45.9047864" lon="9.2664603"><ele>609.0</ele><time>2026-04-24T15:08:55.96Z</time></trkpt><trkpt lat="45.9049037" lon="9.2663829"><ele>609.0</ele><time>2026-04-24T15:08:56.96Z</time></trkpt><trkpt lat="45.9050304" lon="9.2662952"><ele>609.0</ele><time>2026-04-24T15:08:57.96Z</time></trkpt><trkpt lat="45.9051634" lon="9.2662005"><ele>610.6666666666666</ele><time>2026-04-24T15:08:58.96Z</time></trkpt><trkpt lat="45.9053021" lon="9.2661013"><ele>612.3333333333333</ele><time>2026-04-24T15:08:59.96Z</time></trkpt><trkpt lat="45.9054479" lon="9.2659987"><ele>614.0</ele><time>2026-04-24T15:09:00.96Z</time></trkpt><trkpt lat="45.9055969" lon="9.2658941"><ele>614.0</ele><time>2026-04-24T15:09:01.96Z</time></trkpt><trkpt lat="45.905748" lon="9.2657857"><ele>614.0</ele><time>2026-04-24T15:09:02.96Z</time></trkpt><trkpt lat="45.9058984" lon="9.2656682"><ele>614.0</ele><time>2026-04-24T15:09:03.96Z</time></trkpt><trkpt lat="45.9060452" lon="9.2655381"><ele>615.6666666666666</ele><time>2026-04-24T15:09:04.96Z</time></trkpt><trkpt lat="45.9061907" lon="9.2653948"><ele>617.3333333333334</ele><time>2026-04-24T15:09:05.96Z</time></trkpt><trkpt lat="45.9063355" lon="9.2652458"><ele>619.0</ele><time>2026-04-24T15:09:06.96Z</time></trkpt><trkpt lat="45.9064804" lon="9.2650934"><ele>619.0</ele><time>2026-04-24T15:09:07.96Z</time></trkpt><trkpt lat="45.9066277" lon="9.2649388"><ele>619.0</ele><time>2026-04-24T15:09:08.96Z</time></trkpt><trkpt lat="45.906776" lon="9.2647831"><ele>619.0</ele><time>2026-04-24T15:09:09.96Z</time></trkpt><trkpt lat="45.9069238" lon="9.264626"><ele>622.0</ele><time>2026-04-24T15:09:10.96Z</time></trkpt><trkpt lat="45.9070699" lon="9.2644684"><ele>625.0</ele><time>2026-04-24T15:09:11.96Z</time></trkpt><trkpt lat="45.9072173" lon="9.2643114"><ele>628.0</ele><time>2026-04-24T15:09:12.96Z</time></trkpt><trkpt lat="45.9073668" lon="9.2641583"><ele>628.0</ele><time>2026-04-24T15:09:13.96Z</time></trkpt><trkpt lat="45.9075207" lon="9.2640135"><ele>628.0</ele><time>2026-04-24T15:09:14.96Z</time></trkpt><trkpt lat="45.907674" lon="9.2638831"><ele>628.0</ele><time>2026-04-24T15:09:15.96Z</time></trkpt><trkpt lat="45.907825" lon="9.2637747"><ele>637.6666666666667</ele><time>2026-04-24T15:09:16.961Z</time></trkpt><trkpt lat="45.9079804" lon="9.2636788"><ele>647.3333333333334</ele><time>2026-04-24T15:09:17.96Z</time></trkpt><trkpt lat="45.90814" lon="9.263593"><ele>657.0</ele><time>2026-04-24T15:09:18.96Z</time></trkpt><trkpt lat="45.9083017" lon="9.2635108"><ele>651.0</ele><time>2026-04-24T15:09:19.96Z</time></trkpt><trkpt lat="45.9084638" lon="9.2634249"><ele>645.0</ele><time>2026-04-24T15:09:20.96Z</time></trkpt><trkpt lat="45.9086258" lon="9.2633356"><ele>639.0</ele><time>2026-04-24T15:09:21.96Z</time></trkpt><trkpt lat="45.9087899" lon="9.2632466"><ele>639.0</ele><time>2026-04-24T15:09:22.96Z</time></trkpt><trkpt lat="45.9089567" lon="9.2631549"><ele>639.0</ele><time>2026-04-24T15:09:23.96Z</time></trkpt><trkpt lat="45.9091252" lon="9.2630624"><ele>639.0</ele><time>2026-04-24T15:09:24.96Z</time></trkpt><trkpt lat="45.9092926" lon="9.262978"><ele>651.0</ele><time>2026-04-24T15:09:25.96Z</time></trkpt><trkpt lat="45.9094431" lon="9.2628865"><ele>663.0</ele><time>2026-04-24T15:09:26.96Z</time></trkpt><trkpt lat="45.9095829" lon="9.2628034"><ele>675.0</ele><time>2026-04-24T15:09:27.96Z</time></trkpt><trkpt lat="45.9097131" lon="9.2627328"><ele>675.0</ele><time>2026-04-24T15:09:28.96Z</time></trkpt><trkpt lat="45.909835" lon="9.2626756"><ele>675.0</ele><time>2026-04-24T15:09:29.961Z</time></trkpt><trkpt lat="45.9099578" lon="9.2626351"><ele>675.0</ele><time>2026-04-24T15:09:30.961Z</time></trkpt><trkpt lat="45.9100804" lon="9.262603"><ele>675.0</ele><time>2026-04-24T15:09:31.96Z</time></trkpt><trkpt lat="45.9102044" lon="9.2625882"><ele>676.0</ele><time>2026-04-24T15:09:32.96Z</time></trkpt><trkpt lat="45.910332" lon="9.2625893"><ele>677.0</ele><time>2026-04-24T15:09:33.96Z</time></trkpt><trkpt lat="45.9104649" lon="9.2625947"><ele>678.0</ele><time>2026-04-24T15:09:34.96Z</time></trkpt><trkpt lat="45.9105967" lon="9.2626122"><ele>679.0</ele><time>2026-04-24T15:09:35.96Z</time></trkpt><trkpt lat="45.9107266" lon="9.2626216"><ele>679.0</ele><time>2026-04-24T15:09:36.96Z</time></trkpt><trkpt lat="45.9108614" lon="9.2626484"><ele>679.0</ele><time>2026-04-24T15:09:37.96Z</time></trkpt><trkpt lat="45.9109868" lon="9.2626637"><ele>679.0</ele><time>2026-04-24T15:09:38.96Z</time></trkpt><trkpt lat="45.9111092" lon="9.2626632"><ele>679.0</ele><time>2026-04-24T15:09:39.96Z</time></trkpt><trkpt lat="45.9112298" lon="9.2626578"><ele>678.75</ele><time>2026-04-24T15:09:40.96Z</time></trkpt><trkpt lat="45.9113499" lon="9.2626247"><ele>678.5</ele><time>2026-04-24T15:09:41.96Z</time></trkpt><trkpt lat="45.9114672" lon="9.2625749"><ele>678.25</ele><time>2026-04-24T15:09:42.96Z</time></trkpt><trkpt lat="45.9115752" lon="9.2625138"><ele>678.0</ele><time>2026-04-24T15:09:43.96Z</time></trkpt><trkpt lat="45.9116792" lon="9.2624292"><ele>679.25</ele><time>2026-04-24T15:09:44.96Z</time></trkpt><trkpt lat="45.9117675" lon="9.2623258"><ele>680.5</ele><time>2026-04-24T15:09:45.96Z</time></trkpt><trkpt lat="45.9118451" lon="9.2622047"><ele>681.75</ele><time>2026-04-24T15:09:46.96Z</time></trkpt><trkpt lat="45.9119125" lon="9.2620624"><ele>683.0</ele><time>2026-04-24T15:09:47.96Z</time></trkpt><trkpt lat="45.9119738" lon="9.2619028"><ele>683.0</ele><time>2026-04-24T15:09:48.96Z</time></trkpt><trkpt lat="45.9120354" lon="9.2617323"><ele>683.0</ele><time>2026-04-24T15:09:49.961Z</time></trkpt><trkpt lat="45.9121017" lon="9.2615591"><ele>683.0</ele><time>2026-04-24T15:09:50.96Z</time></trkpt><trkpt lat="45.9121706" lon="9.2613815"><ele>683.0</ele><time>2026-04-24T15:09:51.96Z</time></trkpt><trkpt lat="45.912246" lon="9.2612174"><ele>684.25</ele><time>2026-04-24T15:09:52.961Z</time></trkpt><trkpt lat="45.9123297" lon="9.2610646"><ele>685.5</ele><time>2026-04-24T15:09:53.961Z</time></trkpt><trkpt lat="45.9124238" lon="9.2609263"><ele>686.75</ele><time>2026-04-24T15:09:54.96Z</time></trkpt><trkpt lat="45.9125278" lon="9.2607923"><ele>688.0</ele><time>2026-04-24T15:09:55.96Z</time></trkpt><trkpt lat="45.9126391" lon="9.2606636"><ele>690.0</ele><time>2026-04-24T15:09:56.96Z</time></trkpt><trkpt lat="45.912752" lon="9.2605372"><ele>692.0</ele><time>2026-04-24T15:09:57.96Z</time></trkpt><trkpt lat="45.9128632" lon="9.2604147"><ele>694.0</ele><time>2026-04-24T15:09:58.96Z</time></trkpt><trkpt lat="45.9129724" lon="9.260293"><ele>696.0</ele><time>2026-04-24T15:09:59.96Z</time></trkpt><trkpt lat="45.9130816" lon="9.2601778"><ele>696.0</ele><time>2026-04-24T15:10:00.96Z</time></trkpt><trkpt lat="45.9131886" lon="9.2600672"><ele>696.0</ele><time>2026-04-24T15:10:01.96Z</time></trkpt><trkpt lat="45.9133" lon="9.2599806"><ele>696.0</ele><time>2026-04-24T15:10:02.96Z</time></trkpt><trkpt lat="45.9134187" lon="9.2599152"><ele>696.0</ele><time>2026-04-24T15:10:03.96Z</time></trkpt><trkpt lat="45.9135364" lon="9.259874"><ele>698.0</ele><time>2026-04-24T15:10:04.96Z</time></trkpt><trkpt lat="45.9136505" lon="9.2598602"><ele>700.0</ele><time>2026-04-24T15:10:05.96Z</time></trkpt><trkpt lat="45.9137638" lon="9.2598713"><ele>702.0</ele><time>2026-04-24T15:10:06.96Z</time></trkpt><trkpt lat="45.913873" lon="9.2599088"><ele>704.0</ele><time>2026-04-24T15:10:07.96Z</time></trkpt><trkpt lat="45.9139818" lon="9.2599727"><ele>704.0</ele><time>2026-04-24T15:10:08.96Z</time></trkpt><trkpt lat="45.9140948" lon="9.2600528"><ele>704.0</ele><time>2026-04-24T15:10:09.96Z</time></trkpt><trkpt lat="45.9142166" lon="9.2601281"><ele>704.0</ele><time>2026-04-24T15:10:10.96Z</time></trkpt><trkpt lat="45.9143476" lon="9.260189"><ele>704.0</ele><time>2026-04-24T15:10:11.96Z</time></trkpt><trkpt lat="45.9144858" lon="9.2602333"><ele>709.0</ele><time>2026-04-24T15:10:12.96Z</time></trkpt><trkpt lat="45.9146325" lon="9.260262"><ele>714.0</ele><time>2026-04-24T15:10:13.96Z</time></trkpt><trkpt lat="45.9147838" lon="9.2602832"><ele>719.0</ele><time>2026-04-24T15:10:14.96Z</time></trkpt><trkpt lat="45.9149397" lon="9.2602986"><ele>723.0</ele><time>2026-04-24T15:10:15.96Z</time></trkpt><trkpt lat="45.9150984" lon="9.2603172"><ele>727.0</ele><time>2026-04-24T15:10:16.96Z</time></trkpt><trkpt lat="45.9152548" lon="9.2603378"><ele>731.0</ele><time>2026-04-24T15:10:17.96Z</time></trkpt><trkpt lat="45.9154068" lon="9.2603559"><ele>731.0</ele><time>2026-04-24T15:10:18.96Z</time></trkpt><trkpt lat="45.9155529" lon="9.2603727"><ele>731.0</ele><time>2026-04-24T15:10:19.96Z</time></trkpt><trkpt lat="45.9156921" lon="9.2603878"><ele>731.0</ele><time>2026-04-24T15:10:20.96Z</time></trkpt><trkpt lat="45.9158257" lon="9.2604106"><ele>731.0</ele><time>2026-04-24T15:10:21.96Z</time></trkpt><trkpt lat="45.9159524" lon="9.260444"><ele>730.75</ele><time>2026-04-24T15:10:22.96Z</time></trkpt><trkpt lat="45.9160728" lon="9.260492"><ele>730.5</ele><time>2026-04-24T15:10:23.96Z</time></trkpt><trkpt lat="45.9161901" lon="9.2605531"><ele>730.25</ele><time>2026-04-24T15:10:24.96Z</time></trkpt><trkpt lat="45.9163067" lon="9.2606239"><ele>730.0</ele><time>2026-04-24T15:10:25.96Z</time></trkpt><trkpt lat="45.9164242" lon="9.2606997"><ele>730.0</ele><time>2026-04-24T15:10:26.96Z</time></trkpt><trkpt lat="45.9165407" lon="9.2607753"><ele>730.0</ele><time>2026-04-24T15:10:27.96Z</time></trkpt><trkpt lat="45.9166551" lon="9.2608531"><ele>730.0</ele><time>2026-04-24T15:10:28.96Z</time></trkpt><trkpt lat="45.9167701" lon="9.2609309"><ele>730.0</ele><time>2026-04-24T15:10:29.96Z</time></trkpt><trkpt lat="45.9168846" lon="9.2610079"><ele>733.0</ele><time>2026-04-24T15:10:30.96Z</time></trkpt><trkpt lat="45.9170003" lon="9.2610754"><ele>736.0</ele><time>2026-04-24T15:10:31.96Z</time></trkpt><trkpt lat="45.917118" lon="9.2611306"><ele>739.0</ele><time>2026-04-24T15:10:32.96Z</time></trkpt><trkpt lat="45.9172397" lon="9.2611762"><ele>742.0</ele><time>2026-04-24T15:10:33.96Z</time></trkpt><trkpt lat="45.9173668" lon="9.2612132"><ele>742.0</ele><time>2026-04-24T15:10:34.96Z</time></trkpt><trkpt lat="45.9174975" lon="9.2612403"><ele>742.0</ele><time>2026-04-24T15:10:35.96Z</time></trkpt><trkpt lat="45.9176294" lon="9.2612716"><ele>742.0</ele><time>2026-04-24T15:10:36.96Z</time></trkpt><trkpt lat="45.9177621" lon="9.2613018"><ele>742.0</ele><time>2026-04-24T15:10:37.96Z</time></trkpt><trkpt lat="45.9178922" lon="9.2613318"><ele>743.5</ele><time>2026-04-24T15:10:38.96Z</time></trkpt><trkpt lat="45.9180225" lon="9.2613594"><ele>745.0</ele><time>2026-04-24T15:10:39.96Z</time></trkpt><trkpt lat="45.9181506" lon="9.261386"><ele>746.5</ele><time>2026-04-24T15:10:40.96Z</time></trkpt><trkpt lat="45.9182768" lon="9.2614118"><ele>748.0</ele><time>2026-04-24T15:10:41.96Z</time></trkpt><trkpt lat="45.9184003" lon="9.2614394"><ele>746.25</ele><time>2026-04-24T15:10:42.96Z</time></trkpt><trkpt lat="45.9185228" lon="9.2614642"><ele>744.5</ele><time>2026-04-24T15:10:43.96Z</time></trkpt><trkpt lat="45.9186446" lon="9.2614893"><ele>742.75</ele><time>2026-04-24T15:10:44.96Z</time></trkpt><trkpt lat="45.9187671" lon="9.261512"><ele>741.0</ele><time>2026-04-24T15:10:45.96Z</time></trkpt><trkpt lat="45.9188937" lon="9.2615339"><ele>741.0</ele><time>2026-04-24T15:10:46.96Z</time></trkpt><trkpt lat="45.9190172" lon="9.2615569"><ele>741.0</ele><time>2026-04-24T15:10:47.96Z</time></trkpt><trkpt lat="45.9191388" lon="9.2615809"><ele>741.0</ele><time>2026-04-24T15:10:48.96Z</time></trkpt><trkpt lat="45.9192569" lon="9.2616041"><ele>741.0</ele><time>2026-04-24T15:10:49.96Z</time></trkpt><trkpt lat="45.9193698" lon="9.261629"><ele>741.5999999999999</ele><time>2026-04-24T15:10:50.96Z</time></trkpt><trkpt lat="45.9194823" lon="9.2616447"><ele>742.2</ele><time>2026-04-24T15:10:51.96Z</time></trkpt><trkpt lat="45.9195907" lon="9.2616555"><ele>742.8</ele><time>2026-04-24T15:10:52.96Z</time></trkpt><trkpt lat="45.9196991" lon="9.2616551"><ele>743.4000000000001</ele><time>2026-04-24T15:10:53.96Z</time></trkpt><trkpt lat="45.9198076" lon="9.261649"><ele>744.0</ele><time>2026-04-24T15:10:54.96Z</time></trkpt><trkpt lat="45.9199159" lon="9.26164"><ele>744.0</ele><time>2026-04-24T15:10:55.96Z</time></trkpt><trkpt lat="45.9200155" lon="9.2616261"><ele>744.0</ele><time>2026-04-24T15:10:56.96Z</time></trkpt><trkpt lat="45.9201085" lon="9.2616104"><ele>744.0</ele><time>2026-04-24T15:10:57.96Z</time></trkpt><trkpt lat="45.9201945" lon="9.2615989"><ele>744.0</ele><time>2026-04-24T15:10:58.96Z</time></trkpt><trkpt lat="45.9202718" lon="9.2616001"><ele>744.0</ele><time>2026-04-24T15:10:59.96Z</time></trkpt><trkpt lat="45.9203438" lon="9.2616215"><ele>744.0</ele><time>2026-04-24T15:11:00.96Z</time></trkpt><trkpt lat="45.920412" lon="9.2616634"><ele>745.5</ele><time>2026-04-24T15:11:01.96Z</time></trkpt><trkpt lat="45.9204897" lon="9.2617275"><ele>747.0</ele><time>2026-04-24T15:11:02.96Z</time></trkpt><trkpt lat="45.9205639" lon="9.2617767"><ele>748.5</ele><time>2026-04-24T15:11:03.96Z</time></trkpt><trkpt lat="45.920645" lon="9.2618351"><ele>750.0</ele><time>2026-04-24T15:11:04.96Z</time></trkpt><trkpt lat="45.9207268" lon="9.2618925"><ele>751.5</ele><time>2026-04-24T15:11:05.96Z</time></trkpt><trkpt lat="45.9208112" lon="9.2619517"><ele>753.0</ele><time>2026-04-24T15:11:06.96Z</time></trkpt><trkpt lat="45.9208974" lon="9.26201"><ele>754.4</ele><time>2026-04-24T15:11:07.96Z</time></trkpt><trkpt lat="45.920981" lon="9.2620656"><ele>755.8</ele><time>2026-04-24T15:11:08.96Z</time></trkpt><trkpt lat="45.9210638" lon="9.2621183"><ele>757.2</ele><time>2026-04-24T15:11:09.961Z</time></trkpt><trkpt lat="45.921146" lon="9.2621657"><ele>758.6</ele><time>2026-04-24T15:11:10.961Z</time></trkpt><trkpt lat="45.9212328" lon="9.2622032"><ele>760.0</ele><time>2026-04-24T15:11:11.96Z</time></trkpt><trkpt lat="45.9213242" lon="9.2622366"><ele>760.0</ele><time>2026-04-24T15:11:12.96Z</time></trkpt><trkpt lat="45.9214224" lon="9.2622698"><ele>760.0</ele><time>2026-04-24T15:11:13.96Z</time></trkpt><trkpt lat="45.9215207" lon="9.2623013"><ele>760.0</ele><time>2026-04-24T15:11:14.96Z</time></trkpt><trkpt lat="45.9216179" lon="9.262332"><ele>760.0</ele><time>2026-04-24T15:11:15.96Z</time></trkpt><trkpt lat="45.9217134" lon="9.2623656"><ele>760.0</ele><time>2026-04-24T15:11:16.96Z</time></trkpt><trkpt lat="45.9218083" lon="9.2624027"><ele>759.2</ele><time>2026-04-24T15:11:17.96Z</time></trkpt><trkpt lat="45.9218963" lon="9.2624419"><ele>758.4</ele><time>2026-04-24T15:11:18.96Z</time></trkpt><trkpt lat="45.9219838" lon="9.2624872"><ele>757.5999999999999</ele><time>2026-04-24T15:11:19.96Z</time></trkpt><trkpt lat="45.9220738" lon="9.2625379"><ele>756.8</ele><time>2026-04-24T15:11:20.96Z</time></trkpt><trkpt lat="45.9221596" lon="9.262593"><ele>756.0</ele><time>2026-04-24T15:11:21.96Z</time></trkpt><trkpt lat="45.9222474" lon="9.2626554"><ele>756.0</ele><time>2026-04-24T15:11:22.961Z</time></trkpt><trkpt lat="45.9223304" lon="9.2627284"><ele>756.0</ele><time>2026-04-24T15:11:23.96Z</time></trkpt><trkpt lat="45.922413" lon="9.2628147"><ele>756.0</ele><time>2026-04-24T15:11:24.961Z</time></trkpt><trkpt lat="45.9224866" lon="9.2629114"><ele>756.0</ele><time>2026-04-24T15:11:25.96Z</time></trkpt><trkpt lat="45.9225565" lon="9.2630189"><ele>756.0</ele><time>2026-04-24T15:11:26.96Z</time></trkpt><trkpt lat="45.9226236" lon="9.2631362"><ele>758.0</ele><time>2026-04-24T15:11:27.96Z</time></trkpt><trkpt lat="45.9226831" lon="9.263262"><ele>760.0</ele><time>2026-04-24T15:11:28.96Z</time></trkpt><trkpt lat="45.9227364" lon="9.263388"><ele>762.0</ele><time>2026-04-24T15:11:29.96Z</time></trkpt><trkpt lat="45.9227806" lon="9.2635156"><ele>764.0</ele><time>2026-04-24T15:11:30.96Z</time></trkpt><trkpt lat="45.9228129" lon="9.2636506"><ele>766.0</ele><time>2026-04-24T15:11:31.96Z</time></trkpt><trkpt lat="45.9228351" lon="9.2637933"><ele>766.0</ele><time>2026-04-24T15:11:32.96Z</time></trkpt><trkpt lat="45.9228572" lon="9.2639353"><ele>766.0</ele><time>2026-04-24T15:11:33.96Z</time></trkpt><trkpt lat="45.9228796" lon="9.2640772"><ele>766.0</ele><time>2026-04-24T15:11:34.96Z</time></trkpt><trkpt lat="45.9229045" lon="9.2642238"><ele>766.0</ele><time>2026-04-24T15:11:35.959Z</time></trkpt><trkpt lat="45.9229251" lon="9.2643742"><ele>766.0</ele><time>2026-04-24T15:11:36.959Z</time></trkpt><trkpt lat="45.9229451" lon="9.2645306"><ele>766.0</ele><time>2026-04-24T15:11:37.959Z</time></trkpt><trkpt lat="45.9229635" lon="9.2646901"><ele>766.0</ele><time>2026-04-24T15:11:38.959Z</time></trkpt><trkpt lat="45.9229789" lon="9.2648537"><ele>766.0</ele><time>2026-04-24T15:11:39.959Z</time></trkpt><trkpt lat="45.9229934" lon="9.2650195"><ele>766.0</ele><time>2026-04-24T15:11:40.959Z</time></trkpt><trkpt lat="45.9230084" lon="9.2651865"><ele>766.0</ele><time>2026-04-24T15:11:41.959Z</time></trkpt><trkpt lat="45.9230217" lon="9.2653535"><ele>766.0</ele><time>2026-04-24T15:11:42.959Z</time></trkpt><trkpt lat="45.923036" lon="9.2655192"><ele>766.0</ele><time>2026-04-24T15:11:43.959Z</time></trkpt><trkpt lat="45.9230489" lon="9.2656855"><ele>766.0</ele><time>2026-04-24T15:11:44.959Z</time></trkpt><trkpt lat="45.9230618" lon="9.2658443"><ele>766.0</ele><time>2026-04-24T15:11:45.959Z</time></trkpt><trkpt lat="45.923074" lon="9.265996"><ele>766.0</ele><time>2026-04-24T15:11:46.959Z</time></trkpt><trkpt lat="45.9230843" lon="9.2661369"><ele>766.0</ele><time>2026-04-24T15:11:47.959Z</time></trkpt><trkpt lat="45.9230972" lon="9.2662609"><ele>766.0</ele><time>2026-04-24T15:11:48.959Z</time></trkpt><trkpt lat="45.9231147" lon="9.2663713"><ele>766.0</ele><time>2026-04-24T15:11:49.959Z</time></trkpt><trkpt lat="45.9231378" lon="9.266467"><ele>766.0</ele><time>2026-04-24T15:11:50.959Z</time></trkpt><trkpt lat="45.9231662" lon="9.2665573"><ele>766.0</ele><time>2026-04-24T15:11:51.959Z</time></trkpt><trkpt lat="45.9232022" lon="9.2666435"><ele>766.0</ele><time>2026-04-24T15:11:52.959Z</time></trkpt><trkpt lat="45.9232449" lon="9.2667247"><ele>766.0</ele><time>2026-04-24T15:11:53.959Z</time></trkpt><trkpt lat="45.9232929" lon="9.2668023"><ele>766.0</ele><time>2026-04-24T15:11:54.959Z</time></trkpt><trkpt lat="45.9233431" lon="9.2668774"><ele>766.0</ele><time>2026-04-24T15:11:55.959Z</time></trkpt><trkpt lat="45.9233983" lon="9.2669425"><ele>766.0</ele><time>2026-04-24T15:11:56.959Z</time></trkpt><trkpt lat="45.9234514" lon="9.2669951"><ele>766.0</ele><time>2026-04-24T15:11:57.959Z</time></trkpt><trkpt lat="45.9235501" lon="9.2670801"><ele>766.0</ele><time>2026-04-24T15:11:59.959Z</time></trkpt><trkpt lat="45.9236171" lon="9.2671631"><ele>766.0</ele><time>2026-04-24T15:12:01.959Z</time></trkpt><trkpt lat="45.9236262" lon="9.2672814"><ele>756.0</ele><time>2026-04-24T15:12:04.959Z</time></trkpt><trkpt lat="45.9235345" lon="9.2673247"><ele>756.0</ele><time>2026-04-24T15:12:07.959Z</time></trkpt><trkpt lat="45.9234598" lon="9.2673126"><ele>756.0</ele><time>2026-04-24T15:12:09.959Z</time></trkpt><trkpt lat="45.9233732" lon="9.2673131"><ele>755.0</ele><time>2026-04-24T15:12:12.959Z</time></trkpt></trkseg></trk></gpx>